﻿<?xml version="1.0" encoding="utf-8"?><gpx creator="Garmin Desktop App" version="1.1" xsi:schemaLocation="http://www.topografix.com/GPX/1/1 http://www.topografix.com/GPX/1/1/gpx.xsd http://www.garmin.com/xmlschemas/WaypointExtension/v1 http://www8.garmin.com/xmlschemas/WaypointExtensionv1.xsd http://www.garmin.com/xmlschemas/TrackPointExtension/v1 http://www.garmin.com/xmlschemas/TrackPointExtensionv1.xsd http://www.garmin.com/xmlschemas/GpxExtensions/v3 http://www8.garmin.com/xmlschemas/GpxExtensionsv3.xsd http://www.garmin.com/xmlschemas/ActivityExtension/v1 http://www8.garmin.com/xmlschemas/ActivityExtensionv1.xsd http://www.garmin.com/xmlschemas/AdventuresExtensions/v1 http://www8.garmin.com/xmlschemas/AdventuresExtensionv1.xsd http://www.garmin.com/xmlschemas/PressureExtension/v1 http://www.garmin.com/xmlschemas/PressureExtensionv1.xsd http://www.garmin.com/xmlschemas/TripExtensions/v1 http://www.garmin.com/xmlschemas/TripExtensionsv1.xsd http://www.garmin.com/xmlschemas/TripMetaDataExtensions/v1 http://www.garmin.com/xmlschemas/TripMetaDataExtensionsv1.xsd http://www.garmin.com/xmlschemas/ViaPointTransportationModeExtensions/v1 http://www.garmin.com/xmlschemas/ViaPointTransportationModeExtensionsv1.xsd http://www.garmin.com/xmlschemas/CreationTimeExtension/v1 http://www.garmin.com/xmlschemas/CreationTimeExtensionsv1.xsd http://www.garmin.com/xmlschemas/AccelerationExtension/v1 http://www.garmin.com/xmlschemas/AccelerationExtensionv1.xsd http://www.garmin.com/xmlschemas/PowerExtension/v1 http://www.garmin.com/xmlschemas/PowerExtensionv1.xsd http://www.garmin.com/xmlschemas/VideoExtension/v1 http://www.garmin.com/xmlschemas/VideoExtensionv1.xsd" xmlns="http://www.topografix.com/GPX/1/1" xmlns:xsi="http://www.w3.org/2001/XMLSchema-instance" xmlns:wptx1="http://www.garmin.com/xmlschemas/WaypointExtension/v1" xmlns:gpxtrx="http://www.garmin.com/xmlschemas/GpxExtensions/v3" xmlns:gpxtpx="http://www.garmin.com/xmlschemas/TrackPointExtension/v1" xmlns:gpxx="http://www.garmin.com/xmlschemas/GpxExtensions/v3" xmlns:trp="http://www.garmin.com/xmlschemas/TripExtensions/v1" xmlns:adv="http://www.garmin.com/xmlschemas/AdventuresExtensions/v1" xmlns:prs="http://www.garmin.com/xmlschemas/PressureExtension/v1" xmlns:tmd="http://www.garmin.com/xmlschemas/TripMetaDataExtensions/v1" xmlns:vptm="http://www.garmin.com/xmlschemas/ViaPointTransportationModeExtensions/v1" xmlns:ctx="http://www.garmin.com/xmlschemas/CreationTimeExtension/v1" xmlns:gpxacc="http://www.garmin.com/xmlschemas/AccelerationExtension/v1" xmlns:gpxpx="http://www.garmin.com/xmlschemas/PowerExtension/v1" xmlns:vidx1="http://www.garmin.com/xmlschemas/VideoExtension/v1">

  <metadata>
    <link href="http://www.garmin.com">
      <text>Garmin International</text>
    </link>
    <time>2022-05-01T19:03:50Z</time>
    <bounds maxlat="46.062688026577234" maxlon="9.044831581413746" minlat="46.037233779206872" minlon="8.99391470476985" />
  </metadata>

  <trk>
    <name>denti-della-vecchia2022-05-01</name>
    <extensions>
      <gpxx:TrackExtension>
        <gpxx:DisplayColor>Yellow</gpxx:DisplayColor>
      </gpxx:TrackExtension>
      <gpxtrkx:TrackStatsExtension xmlns:gpxtrkx="http://www.garmin.com/xmlschemas/TrackStatsExtension/v1">
        <gpxtrkx:Distance>15942</gpxtrkx:Distance>
        <gpxtrkx:TotalElapsedTime>28300</gpxtrkx:TotalElapsedTime>
        <gpxtrkx:MovingTime>19033</gpxtrkx:MovingTime>
        <gpxtrkx:StoppedTime>9255</gpxtrkx:StoppedTime>
        <gpxtrkx:MovingSpeed>0.838</gpxtrkx:MovingSpeed>
        <gpxtrkx:MaxSpeed>3.155</gpxtrkx:MaxSpeed>
        <gpxtrkx:MaxElevation>1477.064</gpxtrkx:MaxElevation>
        <gpxtrkx:MinElevation>607.153</gpxtrkx:MinElevation>
        <gpxtrkx:Ascent>1019</gpxtrkx:Ascent>
        <gpxtrkx:Descent>1022.66</gpxtrkx:Descent>
        <gpxtrkx:AvgAscentRate>0.067</gpxtrkx:AvgAscentRate>
        <gpxtrkx:MaxAscentRate>1.016</gpxtrkx:MaxAscentRate>
        <gpxtrkx:AvgDescentRate>0.103</gpxtrkx:AvgDescentRate>
        <gpxtrkx:MaxDescentRate>-0.509</gpxtrkx:MaxDescentRate>
      </gpxtrkx:TrackStatsExtension>
    </extensions>
    <trkseg>
      <trkpt lat="46.054299585521221" lon="8.99402073584497">
        <ele>616.02999999999997</ele>
        <time>2022-05-01T06:34:16Z</time>
      </trkpt>
      <trkpt lat="46.054299585521221" lon="8.994017299264669">
        <ele>616.02999999999997</ele>
        <time>2022-05-01T06:34:17Z</time>
      </trkpt>
      <trkpt lat="46.054301513358951" lon="8.994011096656323">
        <ele>611.82000000000005</ele>
        <time>2022-05-01T06:34:20Z</time>
      </trkpt>
      <trkpt lat="46.054302267730236" lon="8.994009839370847">
        <ele>611.82000000000005</ele>
        <time>2022-05-01T06:34:21Z</time>
      </trkpt>
      <trkpt lat="46.054318863898516" lon="8.993992237374187">
        <ele>612.03999999999996</ele>
        <time>2022-05-01T06:34:45Z</time>
      </trkpt>
      <trkpt lat="46.054335627704859" lon="8.993982011452317">
        <ele>611.94000000000005</ele>
        <time>2022-05-01T06:35:06Z</time>
      </trkpt>
      <trkpt lat="46.05434644035995" lon="8.993972539901733">
        <ele>611.83000000000004</ele>
        <time>2022-05-01T06:35:31Z</time>
      </trkpt>
      <trkpt lat="46.054339064285159" lon="8.993965666741133">
        <ele>611.98000000000002</ele>
        <time>2022-05-01T06:35:52Z</time>
      </trkpt>
      <trkpt lat="46.054329006001353" lon="8.993984777480364">
        <ele>611.75</ele>
        <time>2022-05-01T06:36:10Z</time>
      </trkpt>
      <trkpt lat="46.054296903312206" lon="8.994002547115088">
        <ele>611.88</ele>
        <time>2022-05-01T06:36:19Z</time>
      </trkpt>
      <trkpt lat="46.054304027929902" lon="8.993984442204237">
        <ele>611.91999999999996</ele>
        <time>2022-05-01T06:36:44Z</time>
      </trkpt>
      <trkpt lat="46.054308889433742" lon="8.993972958996892">
        <ele>611.90999999999997</ele>
        <time>2022-05-01T06:37:13Z</time>
      </trkpt>
      <trkpt lat="46.054312326014042" lon="8.993969019502401">
        <ele>611.70000000000005</ele>
        <time>2022-05-01T06:37:36Z</time>
      </trkpt>
      <trkpt lat="46.05431224219501" lon="8.993965750560165">
        <ele>611.64999999999998</ele>
        <time>2022-05-01T06:37:52Z</time>
      </trkpt>
      <trkpt lat="46.054312828928232" lon="8.993970947340131">
        <ele>611.44000000000005</ele>
        <time>2022-05-01T06:38:18Z</time>
      </trkpt>
      <trkpt lat="46.054311068728566" lon="8.993976647034288">
        <ele>611.51999999999998</ele>
        <time>2022-05-01T06:38:36Z</time>
      </trkpt>
      <trkpt lat="46.054313248023391" lon="8.993929708376527">
        <ele>610.96000000000004</ele>
        <time>2022-05-01T06:38:52Z</time>
      </trkpt>
      <trkpt lat="46.054311655461788" lon="8.993941275402904">
        <ele>610.88</ele>
        <time>2022-05-01T06:39:06Z</time>
      </trkpt>
      <trkpt lat="46.054323138669133" lon="8.99394647218287">
        <ele>611.08000000000004</ele>
        <time>2022-05-01T06:39:20Z</time>
      </trkpt>
      <trkpt lat="46.054325066506863" lon="8.993957620114088">
        <ele>610.91999999999996</ele>
        <time>2022-05-01T06:39:35Z</time>
      </trkpt>
      <trkpt lat="46.054312828928232" lon="8.993978071957827">
        <ele>610.66999999999996</ele>
        <time>2022-05-01T06:40:02Z</time>
      </trkpt>
      <trkpt lat="46.054291371256113" lon="8.994070691987872">
        <ele>611.21000000000004</ele>
        <time>2022-05-01T06:40:17Z</time>
      </trkpt>
      <trkpt lat="46.054265135899186" lon="8.994102124124765">
        <ele>611.23000000000002</ele>
        <time>2022-05-01T06:40:28Z</time>
      </trkpt>
      <trkpt lat="46.054252646863461" lon="8.994111428037286">
        <ele>611.19000000000005</ele>
        <time>2022-05-01T06:40:29Z</time>
      </trkpt>
      <trkpt lat="46.054241750389338" lon="8.99412190541625">
        <ele>611.38999999999999</ele>
        <time>2022-05-01T06:40:30Z</time>
      </trkpt>
      <trkpt lat="46.054075118154287" lon="8.994216118007898">
        <ele>612.10000000000002</ele>
        <time>2022-05-01T06:40:46Z</time>
      </trkpt>
      <trkpt lat="46.053998339921236" lon="8.99429683573544">
        <ele>612.45000000000005</ele>
        <time>2022-05-01T06:40:57Z</time>
      </trkpt>
      <trkpt lat="46.053985934704542" lon="8.994337404146791">
        <ele>612.87</ele>
        <time>2022-05-01T06:41:00Z</time>
      </trkpt>
      <trkpt lat="46.053983252495527" lon="8.994354754686356">
        <ele>613.08000000000004</ele>
        <time>2022-05-01T06:41:01Z</time>
      </trkpt>
      <trkpt lat="46.053950898349285" lon="8.994543515145779">
        <ele>614.14999999999998</ele>
        <time>2022-05-01T06:41:15Z</time>
      </trkpt>
      <trkpt lat="46.053940001875162" lon="8.994565643370152">
        <ele>614.26999999999998</ele>
        <time>2022-05-01T06:41:17Z</time>
      </trkpt>
      <trkpt lat="46.0539311170578" lon="8.994574276730418">
        <ele>614.21000000000004</ele>
        <time>2022-05-01T06:41:18Z</time>
      </trkpt>
      <trkpt lat="46.05384218506515" lon="8.994629262015224">
        <ele>613.71000000000004</ele>
        <time>2022-05-01T06:41:30Z</time>
      </trkpt>
      <trkpt lat="46.05383045040071" lon="8.994633201509714">
        <ele>613.70000000000005</ele>
        <time>2022-05-01T06:41:31Z</time>
      </trkpt>
      <trkpt lat="46.053819386288524" lon="8.994635967537761">
        <ele>613.66999999999996</ele>
        <time>2022-05-01T06:41:32Z</time>
      </trkpt>
      <trkpt lat="46.053810082376003" lon="8.994633201509714">
        <ele>613.76999999999998</ele>
        <time>2022-05-01T06:41:33Z</time>
      </trkpt>
      <trkpt lat="46.053800024092197" lon="8.994628759101033">
        <ele>613.67999999999995</ele>
        <time>2022-05-01T06:41:34Z</time>
      </trkpt>
      <trkpt lat="46.053789630532265" lon="8.994622807949781">
        <ele>613.42999999999995</ele>
        <time>2022-05-01T06:41:35Z</time>
      </trkpt>
      <trkpt lat="46.053769094869494" lon="8.994593974202871">
        <ele>613.46000000000004</ele>
        <time>2022-05-01T06:41:38Z</time>
      </trkpt>
      <trkpt lat="46.05367261916399" lon="8.994502695277333">
        <ele>613.61000000000001</ele>
        <time>2022-05-01T06:41:51Z</time>
      </trkpt>
      <trkpt lat="46.053644120693207" lon="8.994619958102703">
        <ele>614.84000000000003</ele>
        <time>2022-05-01T06:42:02Z</time>
      </trkpt>
      <trkpt lat="46.053651580587029" lon="8.994682235643268">
        <ele>615.38</ele>
        <time>2022-05-01T06:42:07Z</time>
      </trkpt>
      <trkpt lat="46.053683515638113" lon="8.994782399386168">
        <ele>616.54999999999995</ele>
        <time>2022-05-01T06:42:16Z</time>
      </trkpt>
      <trkpt lat="46.053678235039115" lon="8.994801929220557">
        <ele>616.80999999999995</ele>
        <time>2022-05-01T06:42:17Z</time>
      </trkpt>
      <trkpt lat="46.053689969703555" lon="8.99490125477314">
        <ele>618.60000000000002</ele>
        <time>2022-05-01T06:42:27Z</time>
      </trkpt>
      <trkpt lat="46.053639426827431" lon="8.995087249204516">
        <ele>620.20000000000005</ele>
        <time>2022-05-01T06:42:42Z</time>
      </trkpt>
      <trkpt lat="46.053620399907231" lon="8.995181210339069">
        <ele>621.29999999999995</ele>
        <time>2022-05-01T06:42:55Z</time>
      </trkpt>
      <trkpt lat="46.053520990535617" lon="8.995254635810852">
        <ele>624.19000000000005</ele>
        <time>2022-05-01T06:43:12Z</time>
      </trkpt>
      <trkpt lat="46.053435578942299" lon="8.995380867272615">
        <ele>626.45000000000005</ele>
        <time>2022-05-01T06:43:27Z</time>
      </trkpt>
      <trkpt lat="46.053361315280199" lon="8.9954973757267">
        <ele>629.60000000000002</ele>
        <time>2022-05-01T06:43:42Z</time>
      </trkpt>
      <trkpt lat="46.053321920335293" lon="8.995576333254576">
        <ele>631.17999999999995</ele>
        <time>2022-05-01T06:43:52Z</time>
      </trkpt>
      <trkpt lat="46.053301719948649" lon="8.995575327426195">
        <ele>631.23000000000002</ele>
        <time>2022-05-01T06:43:54Z</time>
      </trkpt>
      <trkpt lat="46.053289985284209" lon="8.995573148131371">
        <ele>631.28999999999996</ele>
        <time>2022-05-01T06:43:55Z</time>
      </trkpt>
      <trkpt lat="46.053278250619769" lon="8.995572729036212">
        <ele>631.37</ele>
        <time>2022-05-01T06:43:56Z</time>
      </trkpt>
      <trkpt lat="46.053263247013092" lon="8.995575914159417">
        <ele>631.38999999999999</ele>
        <time>2022-05-01T06:43:57Z</time>
      </trkpt>
      <trkpt lat="46.053249668329954" lon="8.995579266920686">
        <ele>631.47000000000003</ele>
        <time>2022-05-01T06:43:58Z</time>
      </trkpt>
      <trkpt lat="46.053089993074536" lon="8.995665851980448">
        <ele>633.07000000000005</ele>
        <time>2022-05-01T06:44:14Z</time>
      </trkpt>
      <trkpt lat="46.053003324195743" lon="8.995742127299309">
        <ele>634.45000000000005</ele>
        <time>2022-05-01T06:44:25Z</time>
      </trkpt>
      <trkpt lat="46.052885055541992" lon="8.995893001556397">
        <ele>636.17999999999995</ele>
        <time>2022-05-01T06:44:40Z</time>
      </trkpt>
      <trkpt lat="46.052821353077888" lon="8.996007833629847">
        <ele>637.57000000000005</ele>
        <time>2022-05-01T06:44:51Z</time>
      </trkpt>
      <trkpt lat="46.052780197933316" lon="8.996158456429839">
        <ele>638.71000000000004</ele>
        <time>2022-05-01T06:45:02Z</time>
      </trkpt>
      <trkpt lat="46.052849432453513" lon="8.996203131973743">
        <ele>639.60000000000002</ele>
        <time>2022-05-01T06:45:10Z</time>
      </trkpt>
      <trkpt lat="46.052980944514275" lon="8.996104979887605">
        <ele>640.29999999999995</ele>
        <time>2022-05-01T06:45:24Z</time>
      </trkpt>
      <trkpt lat="46.052989829331636" lon="8.996109506115317">
        <ele>640.44000000000005</ele>
        <time>2022-05-01T06:45:25Z</time>
      </trkpt>
      <trkpt lat="46.053108349442482" lon="8.996240515261889">
        <ele>641.83000000000004</ele>
        <time>2022-05-01T06:45:39Z</time>
      </trkpt>
      <trkpt lat="46.053180601447821" lon="8.996342439204454">
        <ele>643.23000000000002</ele>
        <time>2022-05-01T06:45:50Z</time>
      </trkpt>
      <trkpt lat="46.053174650296569" lon="8.996341349557042">
        <ele>643.01999999999998</ele>
        <time>2022-05-01T06:45:56Z</time>
      </trkpt>
      <trkpt lat="46.053237514570355" lon="8.996469173580408">
        <ele>644.60000000000002</ele>
        <time>2022-05-01T06:46:07Z</time>
      </trkpt>
      <trkpt lat="46.053279172629118" lon="8.996556177735329">
        <ele>645.55999999999995</ele>
        <time>2022-05-01T06:46:14Z</time>
      </trkpt>
      <trkpt lat="46.053323680534959" lon="8.996697245165706">
        <ele>646.53999999999996</ele>
        <time>2022-05-01T06:46:23Z</time>
      </trkpt>
      <trkpt lat="46.05332518927753" lon="8.996774777770042">
        <ele>646.79999999999995</ele>
        <time>2022-05-01T06:46:33Z</time>
      </trkpt>
      <trkpt lat="46.053342623636127" lon="8.996837558224797">
        <ele>647.50999999999999</ele>
        <time>2022-05-01T06:46:38Z</time>
      </trkpt>
      <trkpt lat="46.053346563130617" lon="8.996960772201419">
        <ele>649.67999999999995</ele>
        <time>2022-05-01T06:46:50Z</time>
      </trkpt>
      <trkpt lat="46.053375564515591" lon="8.997095888480544">
        <ele>651.57000000000005</ele>
        <time>2022-05-01T06:47:03Z</time>
      </trkpt>
      <trkpt lat="46.053388053551316" lon="8.997204098850489">
        <ele>653.94000000000005</ele>
        <time>2022-05-01T06:47:15Z</time>
      </trkpt>
      <trkpt lat="46.053393082693219" lon="8.997291689738631">
        <ele>656.00999999999999</ele>
        <time>2022-05-01T06:47:26Z</time>
      </trkpt>
      <trkpt lat="46.053403979167342" lon="8.997435942292213">
        <ele>658.13</ele>
        <time>2022-05-01T06:47:41Z</time>
      </trkpt>
      <trkpt lat="46.053439183160663" lon="8.997543565928936">
        <ele>660.59000000000003</ele>
        <time>2022-05-01T06:47:58Z</time>
      </trkpt>
      <trkpt lat="46.053419234231114" lon="8.997622523456812">
        <ele>661.08000000000004</ele>
        <time>2022-05-01T06:48:16Z</time>
      </trkpt>
      <trkpt lat="46.053397441282868" lon="8.997631659731269">
        <ele>662.72000000000003</ele>
        <time>2022-05-01T06:48:31Z</time>
      </trkpt>
      <trkpt lat="46.053346144035459" lon="8.997719837352634">
        <ele>665.22000000000003</ele>
        <time>2022-05-01T06:48:47Z</time>
      </trkpt>
      <trkpt lat="46.053346563130617" lon="8.997727045789361">
        <ele>665.22000000000003</ele>
        <time>2022-05-01T06:48:48Z</time>
      </trkpt>
      <trkpt lat="46.053246399387717" lon="8.997814217582345">
        <ele>666.40999999999997</ele>
        <time>2022-05-01T06:49:03Z</time>
      </trkpt>
      <trkpt lat="46.053199796006083" lon="8.99785746820271">
        <ele>669.41999999999996</ele>
        <time>2022-05-01T06:49:14Z</time>
      </trkpt>
      <trkpt lat="46.053222930058837" lon="8.997882781550288">
        <ele>671.25999999999999</ele>
        <time>2022-05-01T06:49:29Z</time>
      </trkpt>
      <trkpt lat="46.053226618096232" lon="8.997929049655795">
        <ele>672.75999999999999</ele>
        <time>2022-05-01T06:49:40Z</time>
      </trkpt>
      <trkpt lat="46.053184289485216" lon="8.998024687170982">
        <ele>675.50999999999999</ele>
        <time>2022-05-01T06:49:56Z</time>
      </trkpt>
      <trkpt lat="46.053221672773361" lon="8.998116720467806">
        <ele>678.13</ele>
        <time>2022-05-01T06:50:11Z</time>
      </trkpt>
      <trkpt lat="46.053246986120939" lon="8.99827036075294">
        <ele>681</ele>
        <time>2022-05-01T06:50:28Z</time>
      </trkpt>
      <trkpt lat="46.053294092416763" lon="8.998374463990331">
        <ele>682.86000000000001</ele>
        <time>2022-05-01T06:50:45Z</time>
      </trkpt>
      <trkpt lat="46.053382102400064" lon="8.998478064313531">
        <ele>684.48000000000002</ele>
        <time>2022-05-01T06:51:01Z</time>
      </trkpt>
      <trkpt lat="46.053408840671182" lon="8.9985884539783">
        <ele>686.66999999999996</ele>
        <time>2022-05-01T06:51:14Z</time>
      </trkpt>
      <trkpt lat="46.053437674418092" lon="8.998742597177625">
        <ele>689.86000000000001</ele>
        <time>2022-05-01T06:51:31Z</time>
      </trkpt>
      <trkpt lat="46.053519481793046" lon="8.998840665444732">
        <ele>692.34000000000003</ele>
        <time>2022-05-01T06:51:48Z</time>
      </trkpt>
      <trkpt lat="46.053602714091539" lon="8.998882658779621">
        <ele>693.60000000000002</ele>
        <time>2022-05-01T06:52:02Z</time>
      </trkpt>
      <trkpt lat="46.053642528131604" lon="8.998972428962588">
        <ele>695.91999999999996</ele>
        <time>2022-05-01T06:52:17Z</time>
      </trkpt>
      <trkpt lat="46.053681168705225" lon="8.999069407582283">
        <ele>698.09000000000003</ele>
        <time>2022-05-01T06:52:33Z</time>
      </trkpt>
      <trkpt lat="46.053745793178678" lon="8.999165548011661">
        <ele>700.47000000000003</ele>
        <time>2022-05-01T06:52:48Z</time>
      </trkpt>
      <trkpt lat="46.053846208378673" lon="8.999249702319503">
        <ele>703.00999999999999</ele>
        <time>2022-05-01T06:53:06Z</time>
      </trkpt>
      <trkpt lat="46.05391351506114" lon="8.999349782243371">
        <ele>705.64999999999998</ele>
        <time>2022-05-01T06:53:23Z</time>
      </trkpt>
      <trkpt lat="46.053917454555631" lon="8.999355984851718">
        <ele>705.87</ele>
        <time>2022-05-01T06:53:24Z</time>
      </trkpt>
      <trkpt lat="46.053863978013396" lon="8.999448772519827">
        <ele>707.32000000000005</ele>
        <time>2022-05-01T06:53:42Z</time>
      </trkpt>
      <trkpt lat="46.053847130388021" lon="8.999573746696115">
        <ele>709.17999999999995</ele>
        <time>2022-05-01T06:53:58Z</time>
      </trkpt>
      <trkpt lat="46.053889039903879" lon="8.999649519100785">
        <ele>711.25</ele>
        <time>2022-05-01T06:54:12Z</time>
      </trkpt>
      <trkpt lat="46.053906977176666" lon="8.99973576888442">
        <ele>713.72000000000003</ele>
        <time>2022-05-01T06:54:27Z</time>
      </trkpt>
      <trkpt lat="46.053895996883512" lon="8.999734511598945">
        <ele>712.17999999999995</ele>
        <time>2022-05-01T06:54:36Z</time>
      </trkpt>
      <trkpt lat="46.05389884673059" lon="8.999733421951532">
        <ele>712.04999999999995</ele>
        <time>2022-05-01T06:54:55Z</time>
      </trkpt>
      <trkpt lat="46.053906222805381" lon="8.999734846875072">
        <ele>712</ele>
        <time>2022-05-01T06:55:31Z</time>
      </trkpt>
      <trkpt lat="46.053893398493528" lon="8.999703582376242">
        <ele>711.94000000000005</ele>
        <time>2022-05-01T06:56:16Z</time>
      </trkpt>
      <trkpt lat="46.053905552253127" lon="8.99969570338726">
        <ele>713.05999999999995</ele>
        <time>2022-05-01T06:56:38Z</time>
      </trkpt>
      <trkpt lat="46.053927429020405" lon="8.99981003254652">
        <ele>715.04999999999995</ele>
        <time>2022-05-01T06:56:54Z</time>
      </trkpt>
      <trkpt lat="46.053922399878502" lon="8.999893935397267">
        <ele>718.22000000000003</ele>
        <time>2022-05-01T06:57:05Z</time>
      </trkpt>
      <trkpt lat="46.05394134297967" lon="9.000038355588913">
        <ele>721.45000000000005</ele>
        <time>2022-05-01T06:57:20Z</time>
      </trkpt>
      <trkpt lat="46.053926674649119" lon="9.00018478743732">
        <ele>724.53999999999996</ele>
        <time>2022-05-01T06:57:36Z</time>
      </trkpt>
      <trkpt lat="46.053916197270155" lon="9.000287717208266">
        <ele>727.42999999999995</ele>
        <time>2022-05-01T06:57:51Z</time>
      </trkpt>
      <trkpt lat="46.05393941514194" lon="9.000413026660681">
        <ele>730.14999999999998</ele>
        <time>2022-05-01T06:58:06Z</time>
      </trkpt>
      <trkpt lat="46.053929608315229" lon="9.000519812107086">
        <ele>733.29999999999995</ele>
        <time>2022-05-01T06:58:21Z</time>
      </trkpt>
      <trkpt lat="46.053928602486849" lon="9.000655766576529">
        <ele>736.52999999999997</ele>
        <time>2022-05-01T06:58:38Z</time>
      </trkpt>
      <trkpt lat="46.053872192278504" lon="9.000773029401898">
        <ele>739.11000000000001</ele>
        <time>2022-05-01T06:58:59Z</time>
      </trkpt>
      <trkpt lat="46.053841263055801" lon="9.000875120982528">
        <ele>742.20000000000005</ele>
        <time>2022-05-01T06:59:16Z</time>
      </trkpt>
      <trkpt lat="46.053872024640441" lon="9.000969417393208">
        <ele>744.50999999999999</ele>
        <time>2022-05-01T06:59:31Z</time>
      </trkpt>
      <trkpt lat="46.053853752091527" lon="9.001030270010233">
        <ele>745.92999999999995</ele>
        <time>2022-05-01T06:59:39Z</time>
      </trkpt>
      <trkpt lat="46.053835228085518" lon="9.001157004386187">
        <ele>749.19000000000005</ele>
        <time>2022-05-01T06:59:55Z</time>
      </trkpt>
      <trkpt lat="46.053838664665818" lon="9.001329503953457">
        <ele>752.29999999999995</ele>
        <time>2022-05-01T07:00:12Z</time>
      </trkpt>
      <trkpt lat="46.053840676322579" lon="9.001457579433918">
        <ele>754.90999999999997</ele>
        <time>2022-05-01T07:00:28Z</time>
      </trkpt>
      <trkpt lat="46.053811172023416" lon="9.00156419724226">
        <ele>758.04999999999995</ele>
        <time>2022-05-01T07:00:43Z</time>
      </trkpt>
      <trkpt lat="46.05379918590188" lon="9.001666205003858">
        <ele>761.07000000000005</ele>
        <time>2022-05-01T07:00:58Z</time>
      </trkpt>
      <trkpt lat="46.053785607218742" lon="9.001712808385491">
        <ele>763.86000000000001</ele>
        <time>2022-05-01T07:01:14Z</time>
      </trkpt>
      <trkpt lat="46.053748978301883" lon="9.001863431185484">
        <ele>766.86000000000001</ele>
        <time>2022-05-01T07:01:30Z</time>
      </trkpt>
      <trkpt lat="46.053710589185357" lon="9.001941718161106">
        <ele>769.91999999999996</ele>
        <time>2022-05-01T07:01:47Z</time>
      </trkpt>
      <trkpt lat="46.05370681732893" lon="9.002040205523372">
        <ele>771.67999999999995</ele>
        <time>2022-05-01T07:02:01Z</time>
      </trkpt>
      <trkpt lat="46.053709415718913" lon="9.002067698165774">
        <ele>771.76999999999998</ele>
        <time>2022-05-01T07:02:03Z</time>
      </trkpt>
      <trkpt lat="46.053747050464153" lon="9.002180267125368">
        <ele>771.77999999999997</ele>
        <time>2022-05-01T07:02:12Z</time>
      </trkpt>
      <trkpt lat="46.053863307461143" lon="9.00231035426259">
        <ele>772.88</ele>
        <time>2022-05-01T07:02:26Z</time>
      </trkpt>
      <trkpt lat="46.05391058139503" lon="9.002445135265589">
        <ele>772.86000000000001</ele>
        <time>2022-05-01T07:02:37Z</time>
      </trkpt>
      <trkpt lat="46.053931368514895" lon="9.002578994259238">
        <ele>773.95000000000005</ele>
        <time>2022-05-01T07:02:48Z</time>
      </trkpt>
      <trkpt lat="46.053897170349956" lon="9.002747973427177">
        <ele>775.79999999999995</ele>
        <time>2022-05-01T07:03:02Z</time>
      </trkpt>
      <trkpt lat="46.053884346038103" lon="9.002893399447203">
        <ele>776.96000000000004</ele>
        <time>2022-05-01T07:03:16Z</time>
      </trkpt>
      <trkpt lat="46.053897924721241" lon="9.002995658665896">
        <ele>778.63999999999999</ele>
        <time>2022-05-01T07:03:24Z</time>
      </trkpt>
      <trkpt lat="46.05391837656498" lon="9.003085261210799">
        <ele>777</ele>
        <time>2022-05-01T07:03:37Z</time>
      </trkpt>
      <trkpt lat="46.053935391828418" lon="9.003146113827825">
        <ele>776.27999999999997</ele>
        <time>2022-05-01T07:03:46Z</time>
      </trkpt>
      <trkpt lat="46.053950982168317" lon="9.003192465752363">
        <ele>776.28999999999996</ele>
        <time>2022-05-01T07:03:59Z</time>
      </trkpt>
      <trkpt lat="46.053952910006046" lon="9.003213001415134">
        <ele>776.10000000000002</ele>
        <time>2022-05-01T07:04:01Z</time>
      </trkpt>
      <trkpt lat="46.053956178948283" lon="9.003243511542678">
        <ele>775.87</ele>
        <time>2022-05-01T07:04:03Z</time>
      </trkpt>
      <trkpt lat="46.0539794806391" lon="9.003391368314624">
        <ele>775.47000000000003</ele>
        <time>2022-05-01T07:04:16Z</time>
      </trkpt>
      <trkpt lat="46.053998256102204" lon="9.003730835393071">
        <ele>775.92999999999995</ele>
        <time>2022-05-01T07:04:36Z</time>
      </trkpt>
      <trkpt lat="46.054034549742937" lon="9.003994278609753">
        <ele>778.44000000000005</ele>
        <time>2022-05-01T07:04:53Z</time>
      </trkpt>
      <trkpt lat="46.054046452045441" lon="9.004115732386708">
        <ele>779.62</ele>
        <time>2022-05-01T07:05:03Z</time>
      </trkpt>
      <trkpt lat="46.054056929424405" lon="9.004191169515252">
        <ele>780.08000000000004</ele>
        <time>2022-05-01T07:05:09Z</time>
      </trkpt>
      <trkpt lat="46.054096408188343" lon="9.004269540309906">
        <ele>781.49000000000001</ele>
        <time>2022-05-01T07:05:21Z</time>
      </trkpt>
      <trkpt lat="46.054078387096524" lon="9.004353024065495">
        <ele>783.35000000000002</ele>
        <time>2022-05-01T07:05:32Z</time>
      </trkpt>
      <trkpt lat="46.054073609411716" lon="9.004359059035778">
        <ele>783.58000000000004</ele>
        <time>2022-05-01T07:05:33Z</time>
      </trkpt>
      <trkpt lat="46.053966237232089" lon="9.004327459260821">
        <ele>783.51999999999998</ele>
        <time>2022-05-01T07:05:45Z</time>
      </trkpt>
      <trkpt lat="46.053908485919237" lon="9.004298876971006">
        <ele>783.67999999999995</ele>
        <time>2022-05-01T07:05:54Z</time>
      </trkpt>
      <trkpt lat="46.053886944428086" lon="9.004306755959988">
        <ele>783.69000000000005</ele>
        <time>2022-05-01T07:06:02Z</time>
      </trkpt>
      <trkpt lat="46.053889375180006" lon="9.004357466474176">
        <ele>783.86000000000001</ele>
        <time>2022-05-01T07:06:06Z</time>
      </trkpt>
      <trkpt lat="46.053911335766315" lon="9.004546226933599">
        <ele>785.84000000000003</ele>
        <time>2022-05-01T07:06:19Z</time>
      </trkpt>
      <trkpt lat="46.05391058139503" lon="9.004704812541604">
        <ele>787.10000000000002</ele>
        <time>2022-05-01T07:06:29Z</time>
      </trkpt>
      <trkpt lat="46.053883424028754" lon="9.004868343472481">
        <ele>788.44000000000005</ele>
        <time>2022-05-01T07:06:39Z</time>
      </trkpt>
      <trkpt lat="46.053869090974331" lon="9.004966244101524">
        <ele>788.88</ele>
        <time>2022-05-01T07:06:45Z</time>
      </trkpt>
      <trkpt lat="46.053858110681176" lon="9.004996418952942">
        <ele>789.08000000000004</ele>
        <time>2022-05-01T07:06:47Z</time>
      </trkpt>
      <trkpt lat="46.053846627473831" lon="9.005068335682154">
        <ele>790.10000000000002</ele>
        <time>2022-05-01T07:06:51Z</time>
      </trkpt>
      <trkpt lat="46.053797844797373" lon="9.005187274888158">
        <ele>791.67999999999995</ele>
        <time>2022-05-01T07:06:58Z</time>
      </trkpt>
      <trkpt lat="46.053736992180347" lon="9.00523035787046">
        <ele>792.52999999999997</ele>
        <time>2022-05-01T07:07:08Z</time>
      </trkpt>
      <trkpt lat="46.053591566160321" lon="9.005127428099513">
        <ele>794.22000000000003</ele>
        <time>2022-05-01T07:07:23Z</time>
      </trkpt>
      <trkpt lat="46.053502969443798" lon="9.005035478621721">
        <ele>795.11000000000001</ele>
        <time>2022-05-01T07:07:31Z</time>
      </trkpt>
      <trkpt lat="46.053421245887876" lon="9.004941349849105">
        <ele>796.21000000000004</ele>
        <time>2022-05-01T07:07:42Z</time>
      </trkpt>
      <trkpt lat="46.053405487909913" lon="9.004911426454783">
        <ele>796.38</ele>
        <time>2022-05-01T07:07:44Z</time>
      </trkpt>
      <trkpt lat="46.05329928919673" lon="9.004672793671489">
        <ele>797.30999999999995</ele>
        <time>2022-05-01T07:07:58Z</time>
      </trkpt>
      <trkpt lat="46.053229467943311" lon="9.00446911342442">
        <ele>798.14999999999998</ele>
        <time>2022-05-01T07:08:10Z</time>
      </trkpt>
      <trkpt lat="46.053162161260843" lon="9.004219751805067">
        <ele>799.75</ele>
        <time>2022-05-01T07:08:25Z</time>
      </trkpt>
      <trkpt lat="46.053107930347323" lon="9.004001403227449">
        <ele>802.15999999999997</ele>
        <time>2022-05-01T07:08:39Z</time>
      </trkpt>
      <trkpt lat="46.053095944225788" lon="9.003976508975029">
        <ele>802.36000000000001</ele>
        <time>2022-05-01T07:08:41Z</time>
      </trkpt>
      <trkpt lat="46.053002402186394" lon="9.003859329968691">
        <ele>803.65999999999997</ele>
        <time>2022-05-01T07:08:54Z</time>
      </trkpt>
      <trkpt lat="46.052942806854844" lon="9.003781210631132">
        <ele>804.07000000000005</ele>
        <time>2022-05-01T07:09:09Z</time>
      </trkpt>
      <trkpt lat="46.052897712215781" lon="9.003772661089897">
        <ele>804.16999999999996</ele>
        <time>2022-05-01T07:09:19Z</time>
      </trkpt>
      <trkpt lat="46.05289863422513" lon="9.003761177882552">
        <ele>803.94000000000005</ele>
        <time>2022-05-01T07:09:39Z</time>
      </trkpt>
      <trkpt lat="46.052910620346665" lon="9.003755813464522">
        <ele>803.92999999999995</ele>
        <time>2022-05-01T07:10:00Z</time>
      </trkpt>
      <trkpt lat="46.052867537364364" lon="9.003694709390402">
        <ele>803.25</ele>
        <time>2022-05-01T07:10:13Z</time>
      </trkpt>
      <trkpt lat="46.052876673638821" lon="9.003673251718283">
        <ele>803.29999999999995</ele>
        <time>2022-05-01T07:10:19Z</time>
      </trkpt>
      <trkpt lat="46.052855970337987" lon="9.003672664985061">
        <ele>803.57000000000005</ele>
        <time>2022-05-01T07:10:24Z</time>
      </trkpt>
      <trkpt lat="46.0528380330652" lon="9.003695882856846">
        <ele>804.25999999999999</ele>
        <time>2022-05-01T07:10:34Z</time>
      </trkpt>
      <trkpt lat="46.052838871255517" lon="9.003729159012437">
        <ele>804.19000000000005</ele>
        <time>2022-05-01T07:10:47Z</time>
      </trkpt>
      <trkpt lat="46.05286980047822" lon="9.003701666370034">
        <ele>804.01999999999998</ele>
        <time>2022-05-01T07:10:58Z</time>
      </trkpt>
      <trkpt lat="46.052892683073878" lon="9.00372639298439">
        <ele>804.04999999999995</ele>
        <time>2022-05-01T07:11:16Z</time>
      </trkpt>
      <trkpt lat="46.052890168502927" lon="9.003721363842487">
        <ele>804.01999999999998</ele>
        <time>2022-05-01T07:11:25Z</time>
      </trkpt>
      <trkpt lat="46.052891844883561" lon="9.003728069365025">
        <ele>803.97000000000003</ele>
        <time>2022-05-01T07:11:45Z</time>
      </trkpt>
      <trkpt lat="46.0528898332268" lon="9.003728656098247">
        <ele>804.13999999999999</ele>
        <time>2022-05-01T07:12:07Z</time>
      </trkpt>
      <trkpt lat="46.052851192653179" lon="9.003663696348667">
        <ele>804.40999999999997</ele>
        <time>2022-05-01T07:12:22Z</time>
      </trkpt>
      <trkpt lat="46.052816491574049" lon="9.003609213978052">
        <ele>804.32000000000005</ele>
        <time>2022-05-01T07:12:29Z</time>
      </trkpt>
      <trkpt lat="46.052809115499258" lon="9.003586079925299">
        <ele>804.02999999999997</ele>
        <time>2022-05-01T07:12:40Z</time>
      </trkpt>
      <trkpt lat="46.052836524322629" lon="9.003621116280556">
        <ele>804.28999999999996</ele>
        <time>2022-05-01T07:12:53Z</time>
      </trkpt>
      <trkpt lat="46.052861753851175" lon="9.00364332832396">
        <ele>804.29999999999995</ele>
        <time>2022-05-01T07:13:08Z</time>
      </trkpt>
      <trkpt lat="46.052857814356685" lon="9.00362279266119">
        <ele>804.55999999999995</ele>
        <time>2022-05-01T07:13:27Z</time>
      </trkpt>
      <trkpt lat="46.05285806581378" lon="9.003625977784395">
        <ele>804.58000000000004</ele>
        <time>2022-05-01T07:13:33Z</time>
      </trkpt>
      <trkpt lat="46.052869213744998" lon="9.003618098795414">
        <ele>804.51999999999998</ele>
        <time>2022-05-01T07:13:48Z</time>
      </trkpt>
      <trkpt lat="46.052834261208773" lon="9.003642993047833">
        <ele>804.66999999999996</ele>
        <time>2022-05-01T07:14:02Z</time>
      </trkpt>
      <trkpt lat="46.052830824628472" lon="9.003716753795743">
        <ele>805.89999999999998</ele>
        <time>2022-05-01T07:14:15Z</time>
      </trkpt>
      <trkpt lat="46.052824538201094" lon="9.003867795690894">
        <ele>808.33000000000004</ele>
        <time>2022-05-01T07:14:31Z</time>
      </trkpt>
      <trkpt lat="46.052817413583398" lon="9.004039037972689">
        <ele>810.95000000000005</ele>
        <time>2022-05-01T07:14:49Z</time>
      </trkpt>
      <trkpt lat="46.052756728604436" lon="9.004150601103902">
        <ele>813.77999999999997</ele>
        <time>2022-05-01T07:15:05Z</time>
      </trkpt>
      <trkpt lat="46.05267240665853" lon="9.004266941919923">
        <ele>816.48000000000002</ele>
        <time>2022-05-01T07:15:21Z</time>
      </trkpt>
      <trkpt lat="46.052565034478903" lon="9.004363920539618">
        <ele>819.46000000000004</ele>
        <time>2022-05-01T07:15:38Z</time>
      </trkpt>
      <trkpt lat="46.052512731403112" lon="9.004414295777679">
        <ele>820.74000000000001</ele>
        <time>2022-05-01T07:15:49Z</time>
      </trkpt>
      <trkpt lat="46.052410891279578" lon="9.004422593861818">
        <ele>823.59000000000003</ele>
        <time>2022-05-01T07:16:04Z</time>
      </trkpt>
      <trkpt lat="46.052393624559045" lon="9.004429718479514">
        <ele>824.32000000000005</ele>
        <time>2022-05-01T07:16:15Z</time>
      </trkpt>
      <trkpt lat="46.052388846874237" lon="9.004426198080182">
        <ele>824.26999999999998</ele>
        <time>2022-05-01T07:16:19Z</time>
      </trkpt>
      <trkpt lat="46.052366634830832" lon="9.004423264414072">
        <ele>824.60000000000002</ele>
        <time>2022-05-01T07:16:28Z</time>
      </trkpt>
      <trkpt lat="46.052299495786428" lon="9.00442510843277">
        <ele>826.57000000000005</ele>
        <time>2022-05-01T07:16:41Z</time>
      </trkpt>
      <trkpt lat="46.052260268479586" lon="9.004448158666492">
        <ele>827.94000000000005</ele>
        <time>2022-05-01T07:16:49Z</time>
      </trkpt>
      <trkpt lat="46.052166894078255" lon="9.00445151142776">
        <ele>831.15999999999997</ele>
        <time>2022-05-01T07:17:05Z</time>
      </trkpt>
      <trkpt lat="46.052091540768743" lon="9.004447069019079">
        <ele>834.17999999999995</ele>
        <time>2022-05-01T07:17:20Z</time>
      </trkpt>
      <trkpt lat="46.052017947658896" lon="9.004510184749961">
        <ele>836.51999999999998</ele>
        <time>2022-05-01T07:17:34Z</time>
      </trkpt>
      <trkpt lat="46.051936559379101" lon="9.004571959376335">
        <ele>838.47000000000003</ele>
        <time>2022-05-01T07:17:49Z</time>
      </trkpt>
      <trkpt lat="46.05183782055974" lon="9.00462836958468">
        <ele>840.94000000000005</ele>
        <time>2022-05-01T07:18:07Z</time>
      </trkpt>
      <trkpt lat="46.05175232514739" lon="9.004669189453125">
        <ele>843.70000000000005</ele>
        <time>2022-05-01T07:18:26Z</time>
      </trkpt>
      <trkpt lat="46.051713014021516" lon="9.00474856607616">
        <ele>846.02999999999997</ele>
        <time>2022-05-01T07:18:43Z</time>
      </trkpt>
      <trkpt lat="46.051696836948395" lon="9.004816291853786">
        <ele>848.07000000000005</ele>
        <time>2022-05-01T07:18:59Z</time>
      </trkpt>
      <trkpt lat="46.051632799208164" lon="9.004917377606034">
        <ele>850.40999999999997</ele>
        <time>2022-05-01T07:19:14Z</time>
      </trkpt>
      <trkpt lat="46.051567085087299" lon="9.00500169955194">
        <ele>852.34000000000003</ele>
        <time>2022-05-01T07:19:30Z</time>
      </trkpt>
      <trkpt lat="46.051451247185469" lon="9.005004214122891">
        <ele>854.33000000000004</ele>
        <time>2022-05-01T07:19:49Z</time>
      </trkpt>
      <trkpt lat="46.051407158374786" lon="9.005012176930904">
        <ele>856.23000000000002</ele>
        <time>2022-05-01T07:20:08Z</time>
      </trkpt>
      <trkpt lat="46.051199287176132" lon="9.005002453923225">
        <ele>856.99000000000001</ele>
        <time>2022-05-01T07:20:28Z</time>
      </trkpt>
      <trkpt lat="46.051095938310027" lon="9.004959790036082">
        <ele>859.14999999999998</ele>
        <time>2022-05-01T07:20:46Z</time>
      </trkpt>
      <trkpt lat="46.051028212532401" lon="9.00493917055428">
        <ele>860.75</ele>
        <time>2022-05-01T07:20:58Z</time>
      </trkpt>
      <trkpt lat="46.050958978012204" lon="9.004903715103865">
        <ele>861.32000000000005</ele>
        <time>2022-05-01T07:21:05Z</time>
      </trkpt>
      <trkpt lat="46.05091187171638" lon="9.004850992932916">
        <ele>861.51999999999998</ele>
        <time>2022-05-01T07:21:11Z</time>
      </trkpt>
      <trkpt lat="46.050827130675316" lon="9.004739262163639">
        <ele>862.75999999999999</ele>
        <time>2022-05-01T07:21:27Z</time>
      </trkpt>
      <trkpt lat="46.050756303593516" lon="9.004653347656131">
        <ele>865.28999999999996</ele>
        <time>2022-05-01T07:21:42Z</time>
      </trkpt>
      <trkpt lat="46.050678100436926" lon="9.004594339057803">
        <ele>867.76999999999998</ele>
        <time>2022-05-01T07:22:01Z</time>
      </trkpt>
      <trkpt lat="46.050647757947445" lon="9.004583107307553">
        <ele>868.84000000000003</ele>
        <time>2022-05-01T07:22:07Z</time>
      </trkpt>
      <trkpt lat="46.050563268363476" lon="9.0045565366745">
        <ele>870.08000000000004</ele>
        <time>2022-05-01T07:22:22Z</time>
      </trkpt>
      <trkpt lat="46.050512474030256" lon="9.004469029605389">
        <ele>872.80999999999995</ele>
        <time>2022-05-01T07:22:39Z</time>
      </trkpt>
      <trkpt lat="46.050426727160811" lon="9.004384288564324">
        <ele>875.22000000000003</ele>
        <time>2022-05-01T07:22:56Z</time>
      </trkpt>
      <trkpt lat="46.050356654450297" lon="9.004297452047467">
        <ele>877.87</ele>
        <time>2022-05-01T07:23:13Z</time>
      </trkpt>
      <trkpt lat="46.050268979743123" lon="9.004235845059156">
        <ele>880.62</ele>
        <time>2022-05-01T07:23:31Z</time>
      </trkpt>
      <trkpt lat="46.050210222601891" lon="9.004160575568676">
        <ele>882.25</ele>
        <time>2022-05-01T07:23:47Z</time>
      </trkpt>
      <trkpt lat="46.050154566764832" lon="9.00409335270524">
        <ele>884.30999999999995</ele>
        <time>2022-05-01T07:24:02Z</time>
      </trkpt>
      <trkpt lat="46.050110226497054" lon="9.004016323015094">
        <ele>886.48000000000002</ele>
        <time>2022-05-01T07:24:16Z</time>
      </trkpt>
      <trkpt lat="46.050054905936122" lon="9.003975335508585">
        <ele>888.5</ele>
        <time>2022-05-01T07:24:31Z</time>
      </trkpt>
      <trkpt lat="46.049969159066677" lon="9.003961253911257">
        <ele>891.03999999999996</ele>
        <time>2022-05-01T07:24:50Z</time>
      </trkpt>
      <trkpt lat="46.049864804372191" lon="9.003951027989388">
        <ele>892.61000000000001</ele>
        <time>2022-05-01T07:25:06Z</time>
      </trkpt>
      <trkpt lat="46.049749553203583" lon="9.004013724625111">
        <ele>893.20000000000005</ele>
        <time>2022-05-01T07:25:22Z</time>
      </trkpt>
      <trkpt lat="46.049712421372533" lon="9.004049682989717">
        <ele>893.97000000000003</ele>
        <time>2022-05-01T07:25:37Z</time>
      </trkpt>
      <trkpt lat="46.049686772748828" lon="9.004071392118931">
        <ele>895.08000000000004</ele>
        <time>2022-05-01T07:25:55Z</time>
      </trkpt>
      <trkpt lat="46.049625920131803" lon="9.004163760691881">
        <ele>895.14999999999998</ele>
        <time>2022-05-01T07:26:13Z</time>
      </trkpt>
      <trkpt lat="46.049567749723792" lon="9.004293931648135">
        <ele>898.34000000000003</ele>
        <time>2022-05-01T07:26:28Z</time>
      </trkpt>
      <trkpt lat="46.049522990360856" lon="9.004366267472506">
        <ele>899.26999999999998</ele>
        <time>2022-05-01T07:26:45Z</time>
      </trkpt>
      <trkpt lat="46.049471190199256" lon="9.004429467022419">
        <ele>900.71000000000004</ele>
        <time>2022-05-01T07:27:01Z</time>
      </trkpt>
      <trkpt lat="46.049400614574552" lon="9.004559386521578">
        <ele>902.62</ele>
        <time>2022-05-01T07:27:18Z</time>
      </trkpt>
      <trkpt lat="46.049292823299766" lon="9.004663405939937">
        <ele>903.28999999999996</ele>
        <time>2022-05-01T07:27:33Z</time>
      </trkpt>
      <trkpt lat="46.049173213541508" lon="9.004713194444776">
        <ele>903.52999999999997</ele>
        <time>2022-05-01T07:27:47Z</time>
      </trkpt>
      <trkpt lat="46.049047820270061" lon="9.00473733432591">
        <ele>902.80999999999995</ele>
        <time>2022-05-01T07:28:01Z</time>
      </trkpt>
      <trkpt lat="46.048920499160886" lon="9.004840767011046">
        <ele>905.52999999999997</ele>
        <time>2022-05-01T07:28:16Z</time>
      </trkpt>
      <trkpt lat="46.048855539411306" lon="9.004964902997017">
        <ele>907.65999999999997</ele>
        <time>2022-05-01T07:28:32Z</time>
      </trkpt>
      <trkpt lat="46.048828968778253" lon="9.00503883138299">
        <ele>908.75999999999999</ele>
        <time>2022-05-01T07:28:48Z</time>
      </trkpt>
      <trkpt lat="46.048749508336186" lon="9.005115441977978">
        <ele>910.30999999999995</ele>
        <time>2022-05-01T07:29:04Z</time>
      </trkpt>
      <trkpt lat="46.048732493072748" lon="9.005167409777641">
        <ele>910.07000000000005</ele>
        <time>2022-05-01T07:29:19Z</time>
      </trkpt>
      <trkpt lat="46.048702066764235" lon="9.005221221596003">
        <ele>910.61000000000001</ele>
        <time>2022-05-01T07:29:31Z</time>
      </trkpt>
      <trkpt lat="46.048707515001297" lon="9.005280062556267">
        <ele>911.27999999999997</ele>
        <time>2022-05-01T07:29:46Z</time>
      </trkpt>
      <trkpt lat="46.048726541921496" lon="9.00539992377162">
        <ele>913.04999999999995</ele>
        <time>2022-05-01T07:29:59Z</time>
      </trkpt>
      <trkpt lat="46.04873794130981" lon="9.005582230165601">
        <ele>915.08000000000004</ele>
        <time>2022-05-01T07:30:17Z</time>
      </trkpt>
      <trkpt lat="46.04874674230814" lon="9.005776271224022">
        <ele>917.37</ele>
        <time>2022-05-01T07:30:33Z</time>
      </trkpt>
      <trkpt lat="46.048765266314149" lon="9.005941729992628">
        <ele>919.21000000000004</ele>
        <time>2022-05-01T07:30:50Z</time>
      </trkpt>
      <trkpt lat="46.04875210672617" lon="9.006128059700131">
        <ele>921.26999999999998</ele>
        <time>2022-05-01T07:31:08Z</time>
      </trkpt>
      <trkpt lat="46.048679519444704" lon="9.006193438544869">
        <ele>922.04999999999995</ele>
        <time>2022-05-01T07:31:27Z</time>
      </trkpt>
      <trkpt lat="46.048668371513486" lon="9.00620081461966">
        <ele>922</ele>
        <time>2022-05-01T07:31:28Z</time>
      </trkpt>
      <trkpt lat="46.048674993216991" lon="9.006356131285429">
        <ele>922.88999999999999</ele>
        <time>2022-05-01T07:31:45Z</time>
      </trkpt>
      <trkpt lat="46.048686979338527" lon="9.006521422415972">
        <ele>923.79999999999995</ele>
        <time>2022-05-01T07:32:00Z</time>
      </trkpt>
      <trkpt lat="46.048645991832018" lon="9.006693419069052">
        <ele>926.39999999999998</ele>
        <time>2022-05-01T07:32:19Z</time>
      </trkpt>
      <trkpt lat="46.048535518348217" lon="9.006746560335159">
        <ele>928.58000000000004</ele>
        <time>2022-05-01T07:32:36Z</time>
      </trkpt>
      <trkpt lat="46.048482963815331" lon="9.006880838423967">
        <ele>929.92999999999995</ele>
        <time>2022-05-01T07:32:52Z</time>
      </trkpt>
      <trkpt lat="46.048385398462415" lon="9.006999023258686">
        <ele>931.75999999999999</ele>
        <time>2022-05-01T07:33:08Z</time>
      </trkpt>
      <trkpt lat="46.04832362383604" lon="9.007140509784222">
        <ele>934.29999999999995</ele>
        <time>2022-05-01T07:33:24Z</time>
      </trkpt>
      <trkpt lat="46.048285821452737" lon="9.007225167006254">
        <ele>936.40999999999997</ele>
        <time>2022-05-01T07:33:39Z</time>
      </trkpt>
      <trkpt lat="46.048235027119517" lon="9.007324073463678">
        <ele>938.14999999999998</ele>
        <time>2022-05-01T07:33:56Z</time>
      </trkpt>
      <trkpt lat="46.048189597204328" lon="9.007401606068015">
        <ele>939.59000000000003</ele>
        <time>2022-05-01T07:34:10Z</time>
      </trkpt>
      <trkpt lat="46.048109717667103" lon="9.007517863065004">
        <ele>941.99000000000001</ele>
        <time>2022-05-01T07:34:27Z</time>
      </trkpt>
      <trkpt lat="46.04803235270083" lon="9.007625570520759">
        <ele>944</ele>
        <time>2022-05-01T07:34:43Z</time>
      </trkpt>
      <trkpt lat="46.047972841188312" lon="9.007726237177849">
        <ele>946.97000000000003</ele>
        <time>2022-05-01T07:35:00Z</time>
      </trkpt>
      <trkpt lat="46.047900002449751" lon="9.007861856371164">
        <ele>948.75999999999999</ele>
        <time>2022-05-01T07:35:17Z</time>
      </trkpt>
      <trkpt lat="46.047840239480138" lon="9.007990183308721">
        <ele>950.30999999999995</ele>
        <time>2022-05-01T07:35:32Z</time>
      </trkpt>
      <trkpt lat="46.047817775979638" lon="9.008028404787183">
        <ele>952.01999999999998</ele>
        <time>2022-05-01T07:35:47Z</time>
      </trkpt>
      <trkpt lat="46.047805119305849" lon="9.00812161155045">
        <ele>953.77999999999997</ele>
        <time>2022-05-01T07:36:02Z</time>
      </trkpt>
      <trkpt lat="46.04776312597096" lon="9.008274916559458">
        <ele>955.92999999999995</ele>
        <time>2022-05-01T07:36:18Z</time>
      </trkpt>
      <trkpt lat="46.04773479513824" lon="9.008363261818886">
        <ele>957.61000000000001</ele>
        <time>2022-05-01T07:36:32Z</time>
      </trkpt>
      <trkpt lat="46.047701518982649" lon="9.008491421118379">
        <ele>959.05999999999995</ele>
        <time>2022-05-01T07:36:48Z</time>
      </trkpt>
      <trkpt lat="46.047654747962952" lon="9.008626453578472">
        <ele>959.39999999999998</ele>
        <time>2022-05-01T07:37:03Z</time>
      </trkpt>
      <trkpt lat="46.047615185379982" lon="9.008702645078301">
        <ele>959.45000000000005</ele>
        <time>2022-05-01T07:37:16Z</time>
      </trkpt>
      <trkpt lat="46.047563552856445" lon="9.008825104683638">
        <ele>959.98000000000002</ele>
        <time>2022-05-01T07:37:35Z</time>
      </trkpt>
      <trkpt lat="46.047495240345597" lon="9.008920155465603">
        <ele>960.32000000000005</ele>
        <time>2022-05-01T07:37:51Z</time>
      </trkpt>
      <trkpt lat="46.047394992783666" lon="9.008925352245569">
        <ele>960.33000000000004</ele>
        <time>2022-05-01T07:38:09Z</time>
      </trkpt>
      <trkpt lat="46.047229869291186" lon="9.008900206536055">
        <ele>958.98000000000002</ele>
        <time>2022-05-01T07:38:27Z</time>
      </trkpt>
      <trkpt lat="46.047133561223745" lon="9.008950665593147">
        <ele>959.54999999999995</ele>
        <time>2022-05-01T07:38:39Z</time>
      </trkpt>
      <trkpt lat="46.046979501843452" lon="9.008999783545733">
        <ele>961.54999999999995</ele>
        <time>2022-05-01T07:38:55Z</time>
      </trkpt>
      <trkpt lat="46.04690071195364" lon="9.009076729416847">
        <ele>963.5</ele>
        <time>2022-05-01T07:39:09Z</time>
      </trkpt>
      <trkpt lat="46.04687238112092" lon="9.009148059412837">
        <ele>965.84000000000003</ele>
        <time>2022-05-01T07:39:27Z</time>
      </trkpt>
      <trkpt lat="46.046790992841125" lon="9.00918242521584">
        <ele>967.37</ele>
        <time>2022-05-01T07:39:37Z</time>
      </trkpt>
      <trkpt lat="46.046745227649808" lon="9.009202206507325">
        <ele>968.03999999999996</ele>
        <time>2022-05-01T07:39:44Z</time>
      </trkpt>
      <trkpt lat="46.046680938452482" lon="9.009237745776773">
        <ele>969.66999999999996</ele>
        <time>2022-05-01T07:39:56Z</time>
      </trkpt>
      <trkpt lat="46.04667398147285" lon="9.00923908688128">
        <ele>969.86000000000001</ele>
        <time>2022-05-01T07:39:57Z</time>
      </trkpt>
      <trkpt lat="46.046638190746307" lon="9.00925568304956">
        <ele>970.25999999999999</ele>
        <time>2022-05-01T07:40:03Z</time>
      </trkpt>
      <trkpt lat="46.046598544344306" lon="9.009260125458241">
        <ele>970.39999999999998</ele>
        <time>2022-05-01T07:40:13Z</time>
      </trkpt>
      <trkpt lat="46.046587899327278" lon="9.009289294481278">
        <ele>969.92999999999995</ele>
        <time>2022-05-01T07:40:30Z</time>
      </trkpt>
      <trkpt lat="46.046592844650149" lon="9.009373197332025">
        <ele>970.52999999999997</ele>
        <time>2022-05-01T07:40:45Z</time>
      </trkpt>
      <trkpt lat="46.046607764437795" lon="9.009444024413824">
        <ele>973.75999999999999</ele>
        <time>2022-05-01T07:41:00Z</time>
      </trkpt>
      <trkpt lat="46.046595694497228" lon="9.009573440998793">
        <ele>975.48000000000002</ele>
        <time>2022-05-01T07:41:16Z</time>
      </trkpt>
      <trkpt lat="46.04653132148087" lon="9.009723560884595">
        <ele>976.22000000000003</ele>
        <time>2022-05-01T07:41:30Z</time>
      </trkpt>
      <trkpt lat="46.046516234055161" lon="9.009858928620815">
        <ele>976.92999999999995</ele>
        <time>2022-05-01T07:41:44Z</time>
      </trkpt>
      <trkpt lat="46.046485723927617" lon="9.009985998272896">
        <ele>976.57000000000005</ele>
        <time>2022-05-01T07:41:59Z</time>
      </trkpt>
      <trkpt lat="46.046477174386382" lon="9.010049868375063">
        <ele>977.47000000000003</ele>
        <time>2022-05-01T07:42:16Z</time>
      </trkpt>
      <trkpt lat="46.046403748914599" lon="9.010048946365714">
        <ele>979.33000000000004</ele>
        <time>2022-05-01T07:42:32Z</time>
      </trkpt>
      <trkpt lat="46.046385141089559" lon="9.010042911395431">
        <ele>979.82000000000005</ele>
        <time>2022-05-01T07:42:35Z</time>
      </trkpt>
      <trkpt lat="46.046332670375705" lon="9.010043749585748">
        <ele>980.96000000000004</ele>
        <time>2022-05-01T07:42:41Z</time>
      </trkpt>
      <trkpt lat="46.046311045065522" lon="9.009934533387423">
        <ele>980.63</ele>
        <time>2022-05-01T07:42:57Z</time>
      </trkpt>
      <trkpt lat="46.046297466382384" lon="9.009938640519977">
        <ele>981.96000000000004</ele>
        <time>2022-05-01T07:43:14Z</time>
      </trkpt>
      <trkpt lat="46.046244911849499" lon="9.009957164525986">
        <ele>984.96000000000004</ele>
        <time>2022-05-01T07:43:29Z</time>
      </trkpt>
      <trkpt lat="46.04620442725718" lon="9.009970743209124">
        <ele>987.63999999999999</ele>
        <time>2022-05-01T07:43:43Z</time>
      </trkpt>
      <trkpt lat="46.04619218967855" lon="9.009991195052862">
        <ele>988.32000000000005</ele>
        <time>2022-05-01T07:43:58Z</time>
      </trkpt>
      <trkpt lat="46.046092193573713" lon="9.009979963302612">
        <ele>991.34000000000003</ele>
        <time>2022-05-01T07:44:16Z</time>
      </trkpt>
      <trkpt lat="46.046013738960028" lon="9.009939646348357">
        <ele>994.42999999999995</ele>
        <time>2022-05-01T07:44:29Z</time>
      </trkpt>
      <trkpt lat="46.04593813419342" lon="9.009889857843518">
        <ele>996.14999999999998</ele>
        <time>2022-05-01T07:44:45Z</time>
      </trkpt>
      <trkpt lat="46.045931093394756" lon="9.009894886985421">
        <ele>996.30999999999995</ele>
        <time>2022-05-01T07:44:47Z</time>
      </trkpt>
      <trkpt lat="46.045856578275561" lon="9.009922128170729">
        <ele>998.50999999999999</ele>
        <time>2022-05-01T07:45:06Z</time>
      </trkpt>
      <trkpt lat="46.045788265764713" lon="9.009920535609126">
        <ele>1001.67</ele>
        <time>2022-05-01T07:45:21Z</time>
      </trkpt>
      <trkpt lat="46.04572213254869" lon="9.009886002168059">
        <ele>1004.77</ele>
        <time>2022-05-01T07:45:35Z</time>
      </trkpt>
      <trkpt lat="46.045643929392099" lon="9.009883152320981">
        <ele>1007.6900000000001</ele>
        <time>2022-05-01T07:45:51Z</time>
      </trkpt>
      <trkpt lat="46.045608893036842" lon="9.009908214211464">
        <ele>1008.64</ele>
        <time>2022-05-01T07:46:06Z</time>
      </trkpt>
      <trkpt lat="46.045586848631501" lon="9.009951548650861">
        <ele>1010.9</ele>
        <time>2022-05-01T07:46:25Z</time>
      </trkpt>
      <trkpt lat="46.045521469786763" lon="9.010045593604446">
        <ele>1014.04</ele>
        <time>2022-05-01T07:46:40Z</time>
      </trkpt>
      <trkpt lat="46.045508645474911" lon="9.01012497022748">
        <ele>1016.01</ele>
        <time>2022-05-01T07:46:54Z</time>
      </trkpt>
      <trkpt lat="46.045441254973412" lon="9.010227061808109">
        <ele>1018.71</ele>
        <time>2022-05-01T07:47:10Z</time>
      </trkpt>
      <trkpt lat="46.045422479510307" lon="9.010316580533981">
        <ele>1020.11</ele>
        <time>2022-05-01T07:47:24Z</time>
      </trkpt>
      <trkpt lat="46.045400854200125" lon="9.010386820882559">
        <ele>1021.55</ele>
        <time>2022-05-01T07:47:41Z</time>
      </trkpt>
      <trkpt lat="46.045385515317321" lon="9.010451780632138">
        <ele>1024.6400000000001</ele>
        <time>2022-05-01T07:47:56Z</time>
      </trkpt>
      <trkpt lat="46.045363303273916" lon="9.010514561086893">
        <ele>1026.1300000000001</ele>
        <time>2022-05-01T07:48:10Z</time>
      </trkpt>
      <trkpt lat="46.045349976047873" lon="9.010510453954339">
        <ele>1025.9200000000001</ele>
        <time>2022-05-01T07:48:27Z</time>
      </trkpt>
      <trkpt lat="46.045333379879594" lon="9.010584717616439">
        <ele>1026.9100000000001</ele>
        <time>2022-05-01T07:48:41Z</time>
      </trkpt>
      <trkpt lat="46.045323321595788" lon="9.010663507506251">
        <ele>1029.28</ele>
        <time>2022-05-01T07:48:57Z</time>
      </trkpt>
      <trkpt lat="46.045321896672249" lon="9.010711368173361">
        <ele>1031.3699999999999</ele>
        <time>2022-05-01T07:49:13Z</time>
      </trkpt>
      <trkpt lat="46.045312592759728" lon="9.010766353458166">
        <ele>1033.8099999999999</ele>
        <time>2022-05-01T07:49:26Z</time>
      </trkpt>
      <trkpt lat="46.045274706557393" lon="9.010885125026107">
        <ele>1034.8900000000001</ele>
        <time>2022-05-01T07:49:40Z</time>
      </trkpt>
      <trkpt lat="46.045239837840199" lon="9.010988641530275">
        <ele>1037.29</ele>
        <time>2022-05-01T07:49:55Z</time>
      </trkpt>
      <trkpt lat="46.04518418200314" lon="9.011049997061491">
        <ele>1038.6600000000001</ele>
        <time>2022-05-01T07:50:08Z</time>
      </trkpt>
      <trkpt lat="46.045167753472924" lon="9.011189304292202">
        <ele>1041.46</ele>
        <time>2022-05-01T07:50:25Z</time>
      </trkpt>
      <trkpt lat="46.045154426246881" lon="9.011291563510895">
        <ele>1044.23</ele>
        <time>2022-05-01T07:50:38Z</time>
      </trkpt>
      <trkpt lat="46.045176554471254" lon="9.011414274573326">
        <ele>1047.54</ele>
        <time>2022-05-01T07:50:53Z</time>
      </trkpt>
      <trkpt lat="46.045169262215495" lon="9.011459620669484">
        <ele>1048.47</ele>
        <time>2022-05-01T07:50:58Z</time>
      </trkpt>
      <trkpt lat="46.045150402933359" lon="9.011530196294189">
        <ele>1049.95</ele>
        <time>2022-05-01T07:51:14Z</time>
      </trkpt>
      <trkpt lat="46.045085275545716" lon="9.0116470400244">
        <ele>1053.1800000000001</ele>
        <time>2022-05-01T07:51:30Z</time>
      </trkpt>
      <trkpt lat="46.04501947760582" lon="9.011765057221055">
        <ele>1055.4000000000001</ele>
        <time>2022-05-01T07:51:46Z</time>
      </trkpt>
      <trkpt lat="46.044999277219176" lon="9.011883828788996">
        <ele>1057.04</ele>
        <time>2022-05-01T07:52:00Z</time>
      </trkpt>
      <trkpt lat="46.044954266399145" lon="9.011940909549594">
        <ele>1057.8199999999999</ele>
        <time>2022-05-01T07:52:11Z</time>
      </trkpt>
      <trkpt lat="46.044892240315676" lon="9.0119060408324">
        <ele>1057.49</ele>
        <time>2022-05-01T07:52:34Z</time>
      </trkpt>
      <trkpt lat="46.044805152341723" lon="9.011928588151932">
        <ele>1057.01</ele>
        <time>2022-05-01T07:52:53Z</time>
      </trkpt>
      <trkpt lat="46.044772630557418" lon="9.011939484626055">
        <ele>1056.6900000000001</ele>
        <time>2022-05-01T07:52:56Z</time>
      </trkpt>
      <trkpt lat="46.044749664142728" lon="9.01194266974926">
        <ele>1056.0899999999999</ele>
        <time>2022-05-01T07:52:58Z</time>
      </trkpt>
      <trkpt lat="46.044667521491647" lon="9.011946609243751">
        <ele>1055.47</ele>
        <time>2022-05-01T07:53:05Z</time>
      </trkpt>
      <trkpt lat="46.044604741036892" lon="9.01199639774859">
        <ele>1054.97</ele>
        <time>2022-05-01T07:53:12Z</time>
      </trkpt>
      <trkpt lat="46.044546235352755" lon="9.012128747999668">
        <ele>1055.4300000000001</ele>
        <time>2022-05-01T07:53:23Z</time>
      </trkpt>
      <trkpt lat="46.044467864558101" lon="9.012248860672116">
        <ele>1054.8399999999999</ele>
        <time>2022-05-01T07:53:40Z</time>
      </trkpt>
      <trkpt lat="46.044413968920708" lon="9.012343995273113">
        <ele>1053.8399999999999</ele>
        <time>2022-05-01T07:53:56Z</time>
      </trkpt>
      <trkpt lat="46.044320678338408" lon="9.012492606416345">
        <ele>1052.5899999999999</ele>
        <time>2022-05-01T07:54:12Z</time>
      </trkpt>
      <trkpt lat="46.044205594807863" lon="9.012593692168593">
        <ele>1052.29</ele>
        <time>2022-05-01T07:54:27Z</time>
      </trkpt>
      <trkpt lat="46.044106855988503" lon="9.012666698545218">
        <ele>1052.1099999999999</ele>
        <time>2022-05-01T07:54:43Z</time>
      </trkpt>
      <trkpt lat="46.044026641175151" lon="9.012655802071095">
        <ele>1052.9400000000001</ele>
        <time>2022-05-01T07:54:55Z</time>
      </trkpt>
      <trkpt lat="46.043965369462967" lon="9.012600230053067">
        <ele>1053.5699999999999</ele>
        <time>2022-05-01T07:55:12Z</time>
      </trkpt>
      <trkpt lat="46.043915748596191" lon="9.012603666633368">
        <ele>1052.71</ele>
        <time>2022-05-01T07:55:18Z</time>
      </trkpt>
      <trkpt lat="46.043875431641936" lon="9.012618754059076">
        <ele>1051.8599999999999</ele>
        <time>2022-05-01T07:55:22Z</time>
      </trkpt>
      <trkpt lat="46.043818099424243" lon="9.012694526463747">
        <ele>1051.8900000000001</ele>
        <time>2022-05-01T07:55:31Z</time>
      </trkpt>
      <trkpt lat="46.043772585690022" lon="9.012841125950217">
        <ele>1053.0899999999999</ele>
        <time>2022-05-01T07:55:47Z</time>
      </trkpt>
      <trkpt lat="46.043749283999205" lon="9.012910947203636">
        <ele>1053.77</ele>
        <time>2022-05-01T07:56:00Z</time>
      </trkpt>
      <trkpt lat="46.043767305091023" lon="9.012996274977922">
        <ele>1055.0999999999999</ele>
        <time>2022-05-01T07:56:17Z</time>
      </trkpt>
      <trkpt lat="46.043751128017902" lon="9.013051763176918">
        <ele>1055.05</ele>
        <time>2022-05-01T07:56:29Z</time>
      </trkpt>
      <trkpt lat="46.043651467189193" lon="9.013012032955885">
        <ele>1055.27</ele>
        <time>2022-05-01T07:56:42Z</time>
      </trkpt>
      <trkpt lat="46.04363277554512" lon="9.012939613312483">
        <ele>1054.5</ele>
        <time>2022-05-01T07:56:58Z</time>
      </trkpt>
      <trkpt lat="46.043579550459981" lon="9.012941122055054">
        <ele>1055.1800000000001</ele>
        <time>2022-05-01T07:57:10Z</time>
      </trkpt>
      <trkpt lat="46.043505873531103" lon="9.012868702411652">
        <ele>1056.6099999999999</ele>
        <time>2022-05-01T07:57:26Z</time>
      </trkpt>
      <trkpt lat="46.043430184945464" lon="9.012856213375926">
        <ele>1057.1900000000001</ele>
        <time>2022-05-01T07:57:42Z</time>
      </trkpt>
      <trkpt lat="46.043361118063331" lon="9.012785134837031">
        <ele>1059.01</ele>
        <time>2022-05-01T07:57:58Z</time>
      </trkpt>
      <trkpt lat="46.043337397277355" lon="9.012607354670763">
        <ele>1060.52</ele>
        <time>2022-05-01T07:58:12Z</time>
      </trkpt>
      <trkpt lat="46.043269168585539" lon="9.012541389092803">
        <ele>1060.3599999999999</ele>
        <time>2022-05-01T07:58:28Z</time>
      </trkpt>
      <trkpt lat="46.043193899095058" lon="9.012472908943892">
        <ele>1060.1500000000001</ele>
        <time>2022-05-01T07:58:44Z</time>
      </trkpt>
      <trkpt lat="46.043114271014929" lon="9.012406691908836">
        <ele>1062.8299999999999</ele>
        <time>2022-05-01T07:59:00Z</time>
      </trkpt>
      <trkpt lat="46.043063476681709" lon="9.012281214818358">
        <ele>1062.02</ele>
        <time>2022-05-01T07:59:15Z</time>
      </trkpt>
      <trkpt lat="46.043045958504081" lon="9.012188259512186">
        <ele>1062.3</ele>
        <time>2022-05-01T07:59:34Z</time>
      </trkpt>
      <trkpt lat="46.042975718155503" lon="9.012107625603676">
        <ele>1060.6500000000001</ele>
        <time>2022-05-01T07:59:49Z</time>
      </trkpt>
      <trkpt lat="46.042868597432971" lon="9.01207409799099">
        <ele>1060.47</ele>
        <time>2022-05-01T08:00:04Z</time>
      </trkpt>
      <trkpt lat="46.042790394276381" lon="9.011988015845418">
        <ele>1061.45</ele>
        <time>2022-05-01T08:00:23Z</time>
      </trkpt>
      <trkpt lat="46.042710179463029" lon="9.011935461312532">
        <ele>1063.8499999999999</ele>
        <time>2022-05-01T08:00:42Z</time>
      </trkpt>
      <trkpt lat="46.042641112580895" lon="9.011815097182989">
        <ele>1066.1199999999999</ele>
        <time>2022-05-01T08:00:56Z</time>
      </trkpt>
      <trkpt lat="46.042567268013954" lon="9.011653913185">
        <ele>1067.1099999999999</ele>
        <time>2022-05-01T08:01:16Z</time>
      </trkpt>
      <trkpt lat="46.042571123689413" lon="9.011672688648105">
        <ele>1067.3699999999999</ele>
        <time>2022-05-01T08:01:36Z</time>
      </trkpt>
      <trkpt lat="46.04251773096621" lon="9.011696241796017">
        <ele>1070.3699999999999</ele>
        <time>2022-05-01T08:01:49Z</time>
      </trkpt>
      <trkpt lat="46.042408179491758" lon="9.011627929285169">
        <ele>1072.6900000000001</ele>
        <time>2022-05-01T08:02:04Z</time>
      </trkpt>
      <trkpt lat="46.042337771505117" lon="9.011596580967307">
        <ele>1075.6400000000001</ele>
        <time>2022-05-01T08:02:21Z</time>
      </trkpt>
      <trkpt lat="46.042259987443686" lon="9.01145308278501">
        <ele>1076.1700000000001</ele>
        <time>2022-05-01T08:02:37Z</time>
      </trkpt>
      <trkpt lat="46.042201230302453" lon="9.011362558230758">
        <ele>1077.5899999999999</ele>
        <time>2022-05-01T08:02:52Z</time>
      </trkpt>
      <trkpt lat="46.042138114571571" lon="9.011314529925585">
        <ele>1078.1800000000001</ele>
        <time>2022-05-01T08:03:06Z</time>
      </trkpt>
      <trkpt lat="46.042074831202626" lon="9.011204643175006">
        <ele>1079.77</ele>
        <time>2022-05-01T08:03:21Z</time>
      </trkpt>
      <trkpt lat="46.042040213942528" lon="9.011102551594377">
        <ele>1080.3900000000001</ele>
        <time>2022-05-01T08:03:29Z</time>
      </trkpt>
      <trkpt lat="46.042010877281427" lon="9.010993503034115">
        <ele>1080.53</ele>
        <time>2022-05-01T08:03:41Z</time>
      </trkpt>
      <trkpt lat="46.041933009400964" lon="9.010892333462834">
        <ele>1081.8800000000001</ele>
        <time>2022-05-01T08:03:55Z</time>
      </trkpt>
      <trkpt lat="46.041894117370248" lon="9.010829301550984">
        <ele>1082.4200000000001</ele>
        <time>2022-05-01T08:04:01Z</time>
      </trkpt>
      <trkpt lat="46.041832510381937" lon="9.010717235505581">
        <ele>1083.76</ele>
        <time>2022-05-01T08:04:15Z</time>
      </trkpt>
      <trkpt lat="46.041771238669753" lon="9.010539958253503">
        <ele>1084.0699999999999</ele>
        <time>2022-05-01T08:04:32Z</time>
      </trkpt>
      <trkpt lat="46.041715918108821" lon="9.010442979633808">
        <ele>1084.48</ele>
        <time>2022-05-01T08:04:46Z</time>
      </trkpt>
      <trkpt lat="46.041634110733867" lon="9.010364022105932">
        <ele>1086.5</ele>
        <time>2022-05-01T08:05:02Z</time>
      </trkpt>
      <trkpt lat="46.041564792394638" lon="9.010290009900928">
        <ele>1088.95</ele>
        <time>2022-05-01T08:05:16Z</time>
      </trkpt>
      <trkpt lat="46.041493210941553" lon="9.010235108435154">
        <ele>1090.8399999999999</ele>
        <time>2022-05-01T08:05:32Z</time>
      </trkpt>
      <trkpt lat="46.04141928255558" lon="9.010137794539332">
        <ele>1092.8199999999999</ele>
        <time>2022-05-01T08:05:50Z</time>
      </trkpt>
      <trkpt lat="46.041352981701493" lon="9.010020615532994">
        <ele>1094.6800000000001</ele>
        <time>2022-05-01T08:06:07Z</time>
      </trkpt>
      <trkpt lat="46.041290117427707" lon="9.009920032694936">
        <ele>1096.3699999999999</ele>
        <time>2022-05-01T08:06:24Z</time>
      </trkpt>
      <trkpt lat="46.041193725541234" lon="9.009819868952036">
        <ele>1097.46</ele>
        <time>2022-05-01T08:06:40Z</time>
      </trkpt>
      <trkpt lat="46.041144775226712" lon="9.009672850370407">
        <ele>1099.3</ele>
        <time>2022-05-01T08:06:57Z</time>
      </trkpt>
      <trkpt lat="46.041071098297834" lon="9.009617529809475">
        <ele>1101.8699999999999</ele>
        <time>2022-05-01T08:07:16Z</time>
      </trkpt>
      <trkpt lat="46.040971521288157" lon="9.009599341079593">
        <ele>1101.5</ele>
        <time>2022-05-01T08:07:32Z</time>
      </trkpt>
      <trkpt lat="46.040895162150264" lon="9.009496830403805">
        <ele>1101.54</ele>
        <time>2022-05-01T08:07:46Z</time>
      </trkpt>
      <trkpt lat="46.040818970650434" lon="9.009414603933692">
        <ele>1102.8699999999999</ele>
        <time>2022-05-01T08:08:02Z</time>
      </trkpt>
      <trkpt lat="46.040704557672143" lon="9.009325336664915">
        <ele>1104.73</ele>
        <time>2022-05-01T08:08:21Z</time>
      </trkpt>
      <trkpt lat="46.040613194927573" lon="9.009288204833865">
        <ele>1105.74</ele>
        <time>2022-05-01T08:08:35Z</time>
      </trkpt>
      <trkpt lat="46.040553599596024" lon="9.009265322238207">
        <ele>1105.5999999999999</ele>
        <time>2022-05-01T08:08:43Z</time>
      </trkpt>
      <trkpt lat="46.040435079485178" lon="9.009207487106323">
        <ele>1105.0699999999999</ele>
        <time>2022-05-01T08:09:00Z</time>
      </trkpt>
      <trkpt lat="46.040367856621742" lon="9.009176390245557">
        <ele>1105.49</ele>
        <time>2022-05-01T08:09:16Z</time>
      </trkpt>
      <trkpt lat="46.040265597403049" lon="9.009169097989798">
        <ele>1107.1900000000001</ele>
        <time>2022-05-01T08:09:32Z</time>
      </trkpt>
      <trkpt lat="46.040210695937276" lon="9.009160967543721">
        <ele>1107.96</ele>
        <time>2022-05-01T08:09:38Z</time>
      </trkpt>
      <trkpt lat="46.040099300444126" lon="9.009194998070598">
        <ele>1109.4000000000001</ele>
        <time>2022-05-01T08:09:55Z</time>
      </trkpt>
      <trkpt lat="46.039977595210075" lon="9.009204637259245">
        <ele>1109.8699999999999</ele>
        <time>2022-05-01T08:10:11Z</time>
      </trkpt>
      <trkpt lat="46.039869133383036" lon="9.009228693321347">
        <ele>1111.3900000000001</ele>
        <time>2022-05-01T08:10:25Z</time>
      </trkpt>
      <trkpt lat="46.039762599393725" lon="9.009208995848894">
        <ele>1113.27</ele>
        <time>2022-05-01T08:10:43Z</time>
      </trkpt>
      <trkpt lat="46.039679953828454" lon="9.009157614782453">
        <ele>1115.71</ele>
        <time>2022-05-01T08:11:02Z</time>
      </trkpt>
      <trkpt lat="46.03962505236268" lon="9.009114447981119">
        <ele>1115.73</ele>
        <time>2022-05-01T08:11:08Z</time>
      </trkpt>
      <trkpt lat="46.039549363777041" lon="9.009117968380451">
        <ele>1116.8</ele>
        <time>2022-05-01T08:11:19Z</time>
      </trkpt>
      <trkpt lat="46.039435286074877" lon="9.009113106876612">
        <ele>1118.4300000000001</ele>
        <time>2022-05-01T08:11:35Z</time>
      </trkpt>
      <trkpt lat="46.039301762357354" lon="9.009114364162087">
        <ele>1119.4200000000001</ele>
        <time>2022-05-01T08:11:53Z</time>
      </trkpt>
      <trkpt lat="46.039194641634822" lon="9.009071281179786">
        <ele>1121.1800000000001</ele>
        <time>2022-05-01T08:12:09Z</time>
      </trkpt>
      <trkpt lat="46.039140745997429" lon="9.009057199582458">
        <ele>1121.55</ele>
        <time>2022-05-01T08:12:22Z</time>
      </trkpt>
      <trkpt lat="46.039083665236831" lon="9.009014703333378">
        <ele>1122.55</ele>
        <time>2022-05-01T08:12:38Z</time>
      </trkpt>
      <trkpt lat="46.039040330797434" lon="9.008968519046903">
        <ele>1122.54</ele>
        <time>2022-05-01T08:12:55Z</time>
      </trkpt>
      <trkpt lat="46.03902499191463" lon="9.00893809273839">
        <ele>1122.51</ele>
        <time>2022-05-01T08:13:22Z</time>
      </trkpt>
      <trkpt lat="46.039010910317302" lon="9.008926274254918">
        <ele>1121.6400000000001</ele>
        <time>2022-05-01T08:13:37Z</time>
      </trkpt>
      <trkpt lat="46.039010910317302" lon="9.008865421637893">
        <ele>1122.21</ele>
        <time>2022-05-01T08:14:01Z</time>
      </trkpt>
      <trkpt lat="46.039008060470223" lon="9.008875899016857">
        <ele>1122.6300000000001</ele>
        <time>2022-05-01T08:14:16Z</time>
      </trkpt>
      <trkpt lat="46.038987105712295" lon="9.008873635903001">
        <ele>1122.23</ele>
        <time>2022-05-01T08:14:38Z</time>
      </trkpt>
      <trkpt lat="46.038997247815132" lon="9.008853435516357">
        <ele>1123.02</ele>
        <time>2022-05-01T08:14:56Z</time>
      </trkpt>
      <trkpt lat="46.039009653031826" lon="9.008838264271617">
        <ele>1122.6500000000001</ele>
        <time>2022-05-01T08:15:12Z</time>
      </trkpt>
      <trkpt lat="46.039021136239171" lon="9.008833486586809">
        <ele>1122.54</ele>
        <time>2022-05-01T08:15:28Z</time>
      </trkpt>
      <trkpt lat="46.03898786008358" lon="9.008821249008179">
        <ele>1122.54</ele>
        <time>2022-05-01T08:15:42Z</time>
      </trkpt>
      <trkpt lat="46.038941508159041" lon="9.008839605376124">
        <ele>1122.5899999999999</ele>
        <time>2022-05-01T08:15:48Z</time>
      </trkpt>
      <trkpt lat="46.038923654705286" lon="9.008848741650581">
        <ele>1122.5999999999999</ele>
        <time>2022-05-01T08:15:50Z</time>
      </trkpt>
      <trkpt lat="46.038854084908962" lon="9.008940355852246">
        <ele>1122.8399999999999</ele>
        <time>2022-05-01T08:16:02Z</time>
      </trkpt>
      <trkpt lat="46.038817288354039" lon="9.009006237611175">
        <ele>1123.3800000000001</ele>
        <time>2022-05-01T08:16:18Z</time>
      </trkpt>
      <trkpt lat="46.038781413808465" lon="9.009000202640891">
        <ele>1123.4400000000001</ele>
        <time>2022-05-01T08:16:21Z</time>
      </trkpt>
      <trkpt lat="46.03862433694303" lon="9.008953096345067">
        <ele>1123.78</ele>
        <time>2022-05-01T08:16:34Z</time>
      </trkpt>
      <trkpt lat="46.038486957550049" lon="9.008926777169108">
        <ele>1124.3199999999999</ele>
        <time>2022-05-01T08:16:50Z</time>
      </trkpt>
      <trkpt lat="46.038387967273593" lon="9.008916718885303">
        <ele>1124.6199999999999</ele>
        <time>2022-05-01T08:17:04Z</time>
      </trkpt>
      <trkpt lat="46.038269447162747" lon="9.00892929174006">
        <ele>1124.1700000000001</ele>
        <time>2022-05-01T08:17:16Z</time>
      </trkpt>
      <trkpt lat="46.038159560412169" lon="9.008911186829209">
        <ele>1123.8499999999999</ele>
        <time>2022-05-01T08:17:25Z</time>
      </trkpt>
      <trkpt lat="46.038014721125364" lon="9.008854860439897">
        <ele>1124.1099999999999</ele>
        <time>2022-05-01T08:17:38Z</time>
      </trkpt>
      <trkpt lat="46.037963172420859" lon="9.008829211816192">
        <ele>1124.0799999999999</ele>
        <time>2022-05-01T08:17:44Z</time>
      </trkpt>
      <trkpt lat="46.037882119417191" lon="9.00875486433506">
        <ele>1123.53</ele>
        <time>2022-05-01T08:17:55Z</time>
      </trkpt>
      <trkpt lat="46.037767957895994" lon="9.008661238476634">
        <ele>1123.9100000000001</ele>
        <time>2022-05-01T08:18:07Z</time>
      </trkpt>
      <trkpt lat="46.037723617628217" lon="9.008631147444248">
        <ele>1124.5699999999999</ele>
        <time>2022-05-01T08:18:12Z</time>
      </trkpt>
      <trkpt lat="46.037705512717366" lon="9.00860826484859">
        <ele>1124.5599999999999</ele>
        <time>2022-05-01T08:18:14Z</time>
      </trkpt>
      <trkpt lat="46.037608366459608" lon="9.008456887677312">
        <ele>1124.6400000000001</ele>
        <time>2022-05-01T08:18:28Z</time>
      </trkpt>
      <trkpt lat="46.037591602653265" lon="9.008443308994174">
        <ele>1124.54</ele>
        <time>2022-05-01T08:18:35Z</time>
      </trkpt>
      <trkpt lat="46.037477860227227" lon="9.008370889350772">
        <ele>1125.0899999999999</ele>
        <time>2022-05-01T08:18:47Z</time>
      </trkpt>
      <trkpt lat="46.03742471896112" lon="9.008322861045599">
        <ele>1126.04</ele>
        <time>2022-05-01T08:18:58Z</time>
      </trkpt>
      <trkpt lat="46.037366464734077" lon="9.008203083649278">
        <ele>1125.3199999999999</ele>
        <time>2022-05-01T08:19:11Z</time>
      </trkpt>
      <trkpt lat="46.037340397015214" lon="9.008189756423235">
        <ele>1125.0599999999999</ele>
        <time>2022-05-01T08:19:33Z</time>
      </trkpt>
      <trkpt lat="46.037329500541091" lon="9.008176932111383">
        <ele>1125.46</ele>
        <time>2022-05-01T08:19:51Z</time>
      </trkpt>
      <trkpt lat="46.037317179143429" lon="9.008171651512384">
        <ele>1126.02</ele>
        <time>2022-05-01T08:20:16Z</time>
      </trkpt>
      <trkpt lat="46.037330506369472" lon="9.008165113627911">
        <ele>1125.52</ele>
        <time>2022-05-01T08:20:36Z</time>
      </trkpt>
      <trkpt lat="46.037329249083996" lon="9.008175507187843">
        <ele>1125.52</ele>
        <time>2022-05-01T08:20:54Z</time>
      </trkpt>
      <trkpt lat="46.037342911586165" lon="9.008184894919395">
        <ele>1125.6800000000001</ele>
        <time>2022-05-01T08:21:10Z</time>
      </trkpt>
      <trkpt lat="46.037339139729738" lon="9.008170980960131">
        <ele>1125.73</ele>
        <time>2022-05-01T08:21:32Z</time>
      </trkpt>
      <trkpt lat="46.037343163043261" lon="9.008142482489348">
        <ele>1125.3599999999999</ele>
        <time>2022-05-01T08:21:48Z</time>
      </trkpt>
      <trkpt lat="46.037316592410207" lon="9.008095627650619">
        <ele>1126.3</ele>
        <time>2022-05-01T08:22:01Z</time>
      </trkpt>
      <trkpt lat="46.037278203293681" lon="9.008021028712392">
        <ele>1126.73</ele>
        <time>2022-05-01T08:22:08Z</time>
      </trkpt>
      <trkpt lat="46.037247441709042" lon="9.007973503321409">
        <ele>1127.03</ele>
        <time>2022-05-01T08:22:21Z</time>
      </trkpt>
      <trkpt lat="46.037233779206872" lon="9.007959086447954">
        <ele>1127.05</ele>
        <time>2022-05-01T08:22:34Z</time>
      </trkpt>
      <trkpt lat="46.037263618782163" lon="9.008048353716731">
        <ele>1127.2</ele>
        <time>2022-05-01T08:22:48Z</time>
      </trkpt>
      <trkpt lat="46.037280885502696" lon="9.008057825267315">
        <ele>1127.3</ele>
        <time>2022-05-01T08:22:58Z</time>
      </trkpt>
      <trkpt lat="46.037284322082996" lon="9.008058495819569">
        <ele>1128.1099999999999</ele>
        <time>2022-05-01T08:23:20Z</time>
      </trkpt>
      <trkpt lat="46.037293542176485" lon="9.008065788075328">
        <ele>1128.3599999999999</ele>
        <time>2022-05-01T08:23:38Z</time>
      </trkpt>
      <trkpt lat="46.037291781976819" lon="9.00805807672441">
        <ele>1128.48</ele>
        <time>2022-05-01T08:23:55Z</time>
      </trkpt>
      <trkpt lat="46.037290440872312" lon="9.008074253797531">
        <ele>1128.3699999999999</ele>
        <time>2022-05-01T08:24:15Z</time>
      </trkpt>
      <trkpt lat="46.037260936573148" lon="9.008076516911387">
        <ele>1128.6300000000001</ele>
        <time>2022-05-01T08:24:32Z</time>
      </trkpt>
      <trkpt lat="46.037239227443933" lon="9.008074086159468">
        <ele>1129.23</ele>
        <time>2022-05-01T08:24:44Z</time>
      </trkpt>
      <trkpt lat="46.037244591861963" lon="9.008066458627582">
        <ele>1128.8599999999999</ele>
        <time>2022-05-01T08:25:05Z</time>
      </trkpt>
      <trkpt lat="46.037263870239258" lon="9.00806687772274">
        <ele>1129.3399999999999</ele>
        <time>2022-05-01T08:25:24Z</time>
      </trkpt>
      <trkpt lat="46.037257835268974" lon="9.008069392293692">
        <ele>1129.4000000000001</ele>
        <time>2022-05-01T08:25:54Z</time>
      </trkpt>
      <trkpt lat="46.037277700379491" lon="9.008037960156798">
        <ele>1129.0599999999999</ele>
        <time>2022-05-01T08:26:15Z</time>
      </trkpt>
      <trkpt lat="46.037266636267304" lon="9.008042570203543">
        <ele>1129.24</ele>
        <time>2022-05-01T08:26:37Z</time>
      </trkpt>
      <trkpt lat="46.037260936573148" lon="9.008059166371822">
        <ele>1129.8</ele>
        <time>2022-05-01T08:26:55Z</time>
      </trkpt>
      <trkpt lat="46.037261942401528" lon="9.008064866065979">
        <ele>1129.72</ele>
        <time>2022-05-01T08:27:13Z</time>
      </trkpt>
      <trkpt lat="46.037264876067638" lon="9.008052628487349">
        <ele>1129.78</ele>
        <time>2022-05-01T08:27:26Z</time>
      </trkpt>
      <trkpt lat="46.037288261577487" lon="9.008041229099035">
        <ele>1130.1199999999999</ele>
        <time>2022-05-01T08:27:38Z</time>
      </trkpt>
      <trkpt lat="46.037303768098354" lon="9.008053885772824">
        <ele>1130.2</ele>
        <time>2022-05-01T08:28:00Z</time>
      </trkpt>
      <trkpt lat="46.037300918251276" lon="9.008054388687015">
        <ele>1130.5799999999999</ele>
        <time>2022-05-01T08:28:21Z</time>
      </trkpt>
      <trkpt lat="46.037291781976819" lon="9.008058328181505">
        <ele>1130.6800000000001</ele>
        <time>2022-05-01T08:28:41Z</time>
      </trkpt>
      <trkpt lat="46.037297984585166" lon="9.008069476112723">
        <ele>1130.8199999999999</ele>
        <time>2022-05-01T08:29:00Z</time>
      </trkpt>
      <trkpt lat="46.037289435043931" lon="9.008070733398199">
        <ele>1130.71</ele>
        <time>2022-05-01T08:29:11Z</time>
      </trkpt>
      <trkpt lat="46.037291698157787" lon="9.008072828873992">
        <ele>1125.1700000000001</ele>
        <time>2022-05-01T08:29:28Z</time>
      </trkpt>
      <trkpt lat="46.037291949614882" lon="9.008072996512055">
        <ele>1126.55</ele>
        <time>2022-05-01T08:29:29Z</time>
      </trkpt>
      <trkpt lat="46.037292368710041" lon="9.008073080331087">
        <ele>1130.8499999999999</ele>
        <time>2022-05-01T08:29:31Z</time>
      </trkpt>
      <trkpt lat="46.037293542176485" lon="9.008074086159468">
        <ele>1135.52</ele>
        <time>2022-05-01T08:29:38Z</time>
      </trkpt>
      <trkpt lat="46.037294212728739" lon="9.008073247969151">
        <ele>1135.1300000000001</ele>
        <time>2022-05-01T08:29:39Z</time>
      </trkpt>
      <trkpt lat="46.037296811118722" lon="9.008071906864643">
        <ele>1131.05</ele>
        <time>2022-05-01T08:29:41Z</time>
      </trkpt>
      <trkpt lat="46.037297062575817" lon="9.008072493597865">
        <ele>1130.79</ele>
        <time>2022-05-01T08:29:42Z</time>
      </trkpt>
      <trkpt lat="46.037295386195183" lon="9.008107362315059">
        <ele>1130.8199999999999</ele>
        <time>2022-05-01T08:29:59Z</time>
      </trkpt>
      <trkpt lat="46.037336038425565" lon="9.008167712017894">
        <ele>1130.9000000000001</ele>
        <time>2022-05-01T08:30:11Z</time>
      </trkpt>
      <trkpt lat="46.03743888437748" lon="9.008288662880659">
        <ele>1132.4200000000001</ele>
        <time>2022-05-01T08:30:26Z</time>
      </trkpt>
      <trkpt lat="46.037547430023551" lon="9.008420677855611">
        <ele>1134.3299999999999</ele>
        <time>2022-05-01T08:30:43Z</time>
      </trkpt>
      <trkpt lat="46.037610210478306" lon="9.008543556556106">
        <ele>1135.8900000000001</ele>
        <time>2022-05-01T08:30:58Z</time>
      </trkpt>
      <trkpt lat="46.037686318159103" lon="9.008631985634565">
        <ele>1136.45</ele>
        <time>2022-05-01T08:31:11Z</time>
      </trkpt>
      <trkpt lat="46.037780195474625" lon="9.00873189792037">
        <ele>1137.1800000000001</ele>
        <time>2022-05-01T08:31:26Z</time>
      </trkpt>
      <trkpt lat="46.037896033376455" lon="9.008833235129714">
        <ele>1138.51</ele>
        <time>2022-05-01T08:31:43Z</time>
      </trkpt>
      <trkpt lat="46.037987396121025" lon="9.008916132152081">
        <ele>1138.8599999999999</ele>
        <time>2022-05-01T08:31:55Z</time>
      </trkpt>
      <trkpt lat="46.03810977190733" lon="9.009040938690305">
        <ele>1139.95</ele>
        <time>2022-05-01T08:32:14Z</time>
      </trkpt>
      <trkpt lat="46.038155034184456" lon="9.009085195139051">
        <ele>1140.9200000000001</ele>
        <time>2022-05-01T08:32:21Z</time>
      </trkpt>
      <trkpt lat="46.038243295624852" lon="9.009127020835877">
        <ele>1142.76</ele>
        <time>2022-05-01T08:32:33Z</time>
      </trkpt>
      <trkpt lat="46.038313116878271" lon="9.009216455742717">
        <ele>1144.05</ele>
        <time>2022-05-01T08:32:48Z</time>
      </trkpt>
      <trkpt lat="46.038312949240208" lon="9.009221065789461">
        <ele>1144.24</ele>
        <time>2022-05-01T08:32:49Z</time>
      </trkpt>
      <trkpt lat="46.038418812677264" lon="9.009305806830525">
        <ele>1145.3099999999999</ele>
        <time>2022-05-01T08:33:05Z</time>
      </trkpt>
      <trkpt lat="46.038495507091284" lon="9.009386776015163">
        <ele>1146.6900000000001</ele>
        <time>2022-05-01T08:33:20Z</time>
      </trkpt>
      <trkpt lat="46.038562394678593" lon="9.00947947986424">
        <ele>1148.8900000000001</ele>
        <time>2022-05-01T08:33:36Z</time>
      </trkpt>
      <trkpt lat="46.03862676769495" lon="9.009527424350381">
        <ele>1149.6400000000001</ele>
        <time>2022-05-01T08:33:50Z</time>
      </trkpt>
      <trkpt lat="46.038721818476915" lon="9.009619541466236">
        <ele>1151.95</ele>
        <time>2022-05-01T08:34:06Z</time>
      </trkpt>
      <trkpt lat="46.03878510184586" lon="9.009750718250871">
        <ele>1153.79</ele>
        <time>2022-05-01T08:34:22Z</time>
      </trkpt>
      <trkpt lat="46.038792561739683" lon="9.009806541725993">
        <ele>1154.22</ele>
        <time>2022-05-01T08:34:33Z</time>
      </trkpt>
      <trkpt lat="46.038819383829832" lon="9.009892037138343">
        <ele>1154.4100000000001</ele>
        <time>2022-05-01T08:34:43Z</time>
      </trkpt>
      <trkpt lat="46.038844445720315" lon="9.010033272206783">
        <ele>1155.1500000000001</ele>
        <time>2022-05-01T08:34:56Z</time>
      </trkpt>
      <trkpt lat="46.038848804309964" lon="9.010063195601106">
        <ele>1156.0599999999999</ele>
        <time>2022-05-01T08:35:13Z</time>
      </trkpt>
      <trkpt lat="46.038907393813133" lon="9.010229157283902">
        <ele>1156.8499999999999</ele>
        <time>2022-05-01T08:35:27Z</time>
      </trkpt>
      <trkpt lat="46.038955338299274" lon="9.010433927178383">
        <ele>1158.1700000000001</ele>
        <time>2022-05-01T08:35:42Z</time>
      </trkpt>
      <trkpt lat="46.039007557556033" lon="9.01067566126585">
        <ele>1159.1300000000001</ele>
        <time>2022-05-01T08:35:58Z</time>
      </trkpt>
      <trkpt lat="46.039055669680238" lon="9.010959388688207">
        <ele>1160.9300000000001</ele>
        <time>2022-05-01T08:36:15Z</time>
      </trkpt>
      <trkpt lat="46.039091963320971" lon="9.011169690638781">
        <ele>1162.1800000000001</ele>
        <time>2022-05-01T08:36:30Z</time>
      </trkpt>
      <trkpt lat="46.039067655801773" lon="9.011178323999047">
        <ele>1162.4100000000001</ele>
        <time>2022-05-01T08:36:43Z</time>
      </trkpt>
      <trkpt lat="46.039040666073561" lon="9.011195339262486">
        <ele>1162.5899999999999</ele>
        <time>2022-05-01T08:37:01Z</time>
      </trkpt>
      <trkpt lat="46.039056172594428" lon="9.011257700622082">
        <ele>1163.3099999999999</ele>
        <time>2022-05-01T08:37:19Z</time>
      </trkpt>
      <trkpt lat="46.039134208112955" lon="9.011425171047449">
        <ele>1165.25</ele>
        <time>2022-05-01T08:37:35Z</time>
      </trkpt>
      <trkpt lat="46.039158515632153" lon="9.011564813554287">
        <ele>1166.7</ele>
        <time>2022-05-01T08:37:49Z</time>
      </trkpt>
      <trkpt lat="46.039148373529315" lon="9.011560371145606">
        <ele>1166.53</ele>
        <time>2022-05-01T08:38:11Z</time>
      </trkpt>
      <trkpt lat="46.039154911413789" lon="9.011584343388677">
        <ele>1166.8299999999999</ele>
        <time>2022-05-01T08:38:19Z</time>
      </trkpt>
      <trkpt lat="46.039152648299932" lon="9.011629018932581">
        <ele>1167.1500000000001</ele>
        <time>2022-05-01T08:38:22Z</time>
      </trkpt>
      <trkpt lat="46.039147116243839" lon="9.011693894863129">
        <ele>1167.2</ele>
        <time>2022-05-01T08:38:26Z</time>
      </trkpt>
      <trkpt lat="46.039164299145341" lon="9.011792046949267">
        <ele>1167.6700000000001</ele>
        <time>2022-05-01T08:38:38Z</time>
      </trkpt>
      <trkpt lat="46.039190283045173" lon="9.011735050007701">
        <ele>1167.8900000000001</ele>
        <time>2022-05-01T08:38:49Z</time>
      </trkpt>
      <trkpt lat="46.039186930283904" lon="9.011714514344931">
        <ele>1168.01</ele>
        <time>2022-05-01T08:38:51Z</time>
      </trkpt>
      <trkpt lat="46.039178464561701" lon="9.011686602607369">
        <ele>1168.01</ele>
        <time>2022-05-01T08:38:53Z</time>
      </trkpt>
      <trkpt lat="46.039182571694255" lon="9.011660451069474">
        <ele>1167.97</ele>
        <time>2022-05-01T08:38:55Z</time>
      </trkpt>
      <trkpt lat="46.039217775687575" lon="9.011605717241764">
        <ele>1167.9200000000001</ele>
        <time>2022-05-01T08:39:00Z</time>
      </trkpt>
      <trkpt lat="46.039360435679555" lon="9.01158937253058">
        <ele>1169.27</ele>
        <time>2022-05-01T08:39:14Z</time>
      </trkpt>
      <trkpt lat="46.039473172277212" lon="9.011576296761632">
        <ele>1171.4000000000001</ele>
        <time>2022-05-01T08:39:27Z</time>
      </trkpt>
      <trkpt lat="46.039568558335304" lon="9.011552911251783">
        <ele>1173.9100000000001</ele>
        <time>2022-05-01T08:39:39Z</time>
      </trkpt>
      <trkpt lat="46.039661429822445" lon="9.011513013392687">
        <ele>1175.8699999999999</ele>
        <time>2022-05-01T08:39:52Z</time>
      </trkpt>
      <trkpt lat="46.03977651335299" lon="9.0114501491189">
        <ele>1177.8399999999999</ele>
        <time>2022-05-01T08:40:08Z</time>
      </trkpt>
      <trkpt lat="46.039855051785707" lon="9.011389464139938">
        <ele>1179.0699999999999</ele>
        <time>2022-05-01T08:40:22Z</time>
      </trkpt>
      <trkpt lat="46.039940966293216" lon="9.011350739747286">
        <ele>1181.0999999999999</ele>
        <time>2022-05-01T08:40:36Z</time>
      </trkpt>
      <trkpt lat="46.040011122822762" lon="9.011302208527923">
        <ele>1182.3399999999999</ele>
        <time>2022-05-01T08:40:48Z</time>
      </trkpt>
      <trkpt lat="46.040096618235111" lon="9.011242613196373">
        <ele>1183.6600000000001</ele>
        <time>2022-05-01T08:41:01Z</time>
      </trkpt>
      <trkpt lat="46.040142215788364" lon="9.011153178289533">
        <ele>1186.0899999999999</ele>
        <time>2022-05-01T08:41:14Z</time>
      </trkpt>
      <trkpt lat="46.040217569097877" lon="9.011026611551642">
        <ele>1187.8399999999999</ele>
        <time>2022-05-01T08:41:29Z</time>
      </trkpt>
      <trkpt lat="46.040244642645121" lon="9.011028204113245">
        <ele>1188.4400000000001</ele>
        <time>2022-05-01T08:41:45Z</time>
      </trkpt>
      <trkpt lat="46.040266687050462" lon="9.011081177741289">
        <ele>1188.53</ele>
        <time>2022-05-01T08:41:51Z</time>
      </trkpt>
      <trkpt lat="46.040305998176336" lon="9.011112442240119">
        <ele>1188.97</ele>
        <time>2022-05-01T08:41:56Z</time>
      </trkpt>
      <trkpt lat="46.040368610993028" lon="9.011161476373673">
        <ele>1190.4200000000001</ele>
        <time>2022-05-01T08:42:09Z</time>
      </trkpt>
      <trkpt lat="46.040376238524914" lon="9.011261807754636">
        <ele>1192.1600000000001</ele>
        <time>2022-05-01T08:42:20Z</time>
      </trkpt>
      <trkpt lat="46.040339525789022" lon="9.011302879080176">
        <ele>1192.3</ele>
        <time>2022-05-01T08:42:25Z</time>
      </trkpt>
      <trkpt lat="46.040295101702213" lon="9.01138904504478">
        <ele>1192.55</ele>
        <time>2022-05-01T08:42:33Z</time>
      </trkpt>
      <trkpt lat="46.040216647088528" lon="9.011505302041769">
        <ele>1193.53</ele>
        <time>2022-05-01T08:42:45Z</time>
      </trkpt>
      <trkpt lat="46.040144562721252" lon="9.011627594009042">
        <ele>1194.3399999999999</ele>
        <time>2022-05-01T08:42:58Z</time>
      </trkpt>
      <trkpt lat="46.040084632113576" lon="9.011796237900853">
        <ele>1196.0699999999999</ele>
        <time>2022-05-01T08:43:12Z</time>
      </trkpt>
      <trkpt lat="46.040082452818751" lon="9.011843847110868">
        <ele>1196.4200000000001</ele>
        <time>2022-05-01T08:43:15Z</time>
      </trkpt>
      <trkpt lat="46.040085135027766" lon="9.012022884562612">
        <ele>1197.3800000000001</ele>
        <time>2022-05-01T08:43:27Z</time>
      </trkpt>
      <trkpt lat="46.040076669305563" lon="9.012165125459433">
        <ele>1198.74</ele>
        <time>2022-05-01T08:43:36Z</time>
      </trkpt>
      <trkpt lat="46.040085218846798" lon="9.012262271717191">
        <ele>1199.6199999999999</ele>
        <time>2022-05-01T08:43:45Z</time>
      </trkpt>
      <trkpt lat="46.040092762559652" lon="9.01234089396894">
        <ele>1199.1900000000001</ele>
        <time>2022-05-01T08:43:50Z</time>
      </trkpt>
      <trkpt lat="46.040083207190037" lon="9.012429239228368">
        <ele>1199.0699999999999</ele>
        <time>2022-05-01T08:43:55Z</time>
      </trkpt>
      <trkpt lat="46.040148083120584" lon="9.012535605579615">
        <ele>1199.9200000000001</ele>
        <time>2022-05-01T08:44:08Z</time>
      </trkpt>
      <trkpt lat="46.040216144174337" lon="9.012667369097471">
        <ele>1202.6099999999999</ele>
        <time>2022-05-01T08:44:23Z</time>
      </trkpt>
      <trkpt lat="46.040313625708222" lon="9.012762922793627">
        <ele>1204.3399999999999</ele>
        <time>2022-05-01T08:44:37Z</time>
      </trkpt>
      <trkpt lat="46.040396941825747" lon="9.01282561942935">
        <ele>1206.01</ele>
        <time>2022-05-01T08:44:51Z</time>
      </trkpt>
      <trkpt lat="46.040471876040101" lon="9.012949336320162">
        <ele>1207.8699999999999</ele>
        <time>2022-05-01T08:45:04Z</time>
      </trkpt>
      <trkpt lat="46.040523424744606" lon="9.013036843389273">
        <ele>1209.8</ele>
        <time>2022-05-01T08:45:17Z</time>
      </trkpt>
      <trkpt lat="46.040432648733258" lon="9.013011362403631">
        <ele>1211.6500000000001</ele>
        <time>2022-05-01T08:45:32Z</time>
      </trkpt>
      <trkpt lat="46.040423093363643" lon="9.013078836724162">
        <ele>1214.51</ele>
        <time>2022-05-01T08:45:48Z</time>
      </trkpt>
      <trkpt lat="46.040481012314558" lon="9.013196686282754">
        <ele>1216.3299999999999</ele>
        <time>2022-05-01T08:46:03Z</time>
      </trkpt>
      <trkpt lat="46.040481012314558" lon="9.013221580535173">
        <ele>1216.21</ele>
        <time>2022-05-01T08:46:05Z</time>
      </trkpt>
      <trkpt lat="46.040536249056458" lon="9.013332556933165">
        <ele>1217.6400000000001</ele>
        <time>2022-05-01T08:46:19Z</time>
      </trkpt>
      <trkpt lat="46.040586456656456" lon="9.013436743989587">
        <ele>1218.8599999999999</ele>
        <time>2022-05-01T08:46:31Z</time>
      </trkpt>
      <trkpt lat="46.040602549910545" lon="9.013492148369551">
        <ele>1218.8499999999999</ele>
        <time>2022-05-01T08:46:35Z</time>
      </trkpt>
      <trkpt lat="46.04064772836864" lon="9.013647129759193">
        <ele>1218.52</ele>
        <time>2022-05-01T08:46:48Z</time>
      </trkpt>
      <trkpt lat="46.040700618177652" lon="9.013764644041657">
        <ele>1218.4200000000001</ele>
        <time>2022-05-01T08:47:00Z</time>
      </trkpt>
      <trkpt lat="46.040756357833743" lon="9.013873944059014">
        <ele>1219</ele>
        <time>2022-05-01T08:47:14Z</time>
      </trkpt>
      <trkpt lat="46.040814444422722" lon="9.013974610716105">
        <ele>1220.1800000000001</ele>
        <time>2022-05-01T08:47:28Z</time>
      </trkpt>
      <trkpt lat="46.040868675336242" lon="9.014031104743481">
        <ele>1221.8499999999999</ele>
        <time>2022-05-01T08:47:43Z</time>
      </trkpt>
      <trkpt lat="46.040918966755271" lon="9.014107631519437">
        <ele>1221.1199999999999</ele>
        <time>2022-05-01T08:47:55Z</time>
      </trkpt>
      <trkpt lat="46.040968336164951" lon="9.014171250164509">
        <ele>1219.5799999999999</ele>
        <time>2022-05-01T08:48:06Z</time>
      </trkpt>
      <trkpt lat="46.041043857112527" lon="9.014304187148809">
        <ele>1218.8399999999999</ele>
        <time>2022-05-01T08:48:21Z</time>
      </trkpt>
      <trkpt lat="46.041101608425379" lon="9.014449864625931">
        <ele>1218.97</ele>
        <time>2022-05-01T08:48:35Z</time>
      </trkpt>
      <trkpt lat="46.041191043332219" lon="9.014570396393538">
        <ele>1217.55</ele>
        <time>2022-05-01T08:48:52Z</time>
      </trkpt>
      <trkpt lat="46.041273856535554" lon="9.014669973403215">
        <ele>1219.24</ele>
        <time>2022-05-01T08:49:07Z</time>
      </trkpt>
      <trkpt lat="46.041321717202663" lon="9.014702662825584">
        <ele>1221.0999999999999</ele>
        <time>2022-05-01T08:49:19Z</time>
      </trkpt>
      <trkpt lat="46.041361782699823" lon="9.014724791049957">
        <ele>1222.3599999999999</ele>
        <time>2022-05-01T08:49:31Z</time>
      </trkpt>
      <trkpt lat="46.041413247585297" lon="9.014739878475666">
        <ele>1224.6600000000001</ele>
        <time>2022-05-01T08:49:46Z</time>
      </trkpt>
      <trkpt lat="46.041426323354244" lon="9.014789834618568">
        <ele>1226.05</ele>
        <time>2022-05-01T08:49:58Z</time>
      </trkpt>
      <trkpt lat="46.041410146281123" lon="9.014893854036927">
        <ele>1227.6900000000001</ele>
        <time>2022-05-01T08:50:12Z</time>
      </trkpt>
      <trkpt lat="46.041430346667767" lon="9.01490475051105">
        <ele>1228.0699999999999</ele>
        <time>2022-05-01T08:50:25Z</time>
      </trkpt>
      <trkpt lat="46.041466807946563" lon="9.014905169606209">
        <ele>1229.6099999999999</ele>
        <time>2022-05-01T08:50:35Z</time>
      </trkpt>
      <trkpt lat="46.041506789624691" lon="9.014965184032917">
        <ele>1230.8800000000001</ele>
        <time>2022-05-01T08:50:47Z</time>
      </trkpt>
      <trkpt lat="46.041560936719179" lon="9.01504497975111">
        <ele>1232.45</ele>
        <time>2022-05-01T08:51:01Z</time>
      </trkpt>
      <trkpt lat="46.041634865105152" lon="9.015142964199185">
        <ele>1234.22</ele>
        <time>2022-05-01T08:51:17Z</time>
      </trkpt>
      <trkpt lat="46.041707200929523" lon="9.01519300416112">
        <ele>1235.55</ele>
        <time>2022-05-01T08:51:28Z</time>
      </trkpt>
      <trkpt lat="46.041775681078434" lon="9.015285624191165">
        <ele>1236.45</ele>
        <time>2022-05-01T08:51:42Z</time>
      </trkpt>
      <trkpt lat="46.041820356622338" lon="9.015392661094666">
        <ele>1237.8499999999999</ele>
        <time>2022-05-01T08:51:55Z</time>
      </trkpt>
      <trkpt lat="46.041902247816324" lon="9.015543535351753">
        <ele>1240.3599999999999</ele>
        <time>2022-05-01T08:52:11Z</time>
      </trkpt>
      <trkpt lat="46.04194013401866" lon="9.015580331906676">
        <ele>1242.49</ele>
        <time>2022-05-01T08:52:24Z</time>
      </trkpt>
      <trkpt lat="46.041955221444368" lon="9.015594748780131">
        <ele>1243.55</ele>
        <time>2022-05-01T08:52:38Z</time>
      </trkpt>
      <trkpt lat="46.041984055191278" lon="9.015579074621201">
        <ele>1245.4200000000001</ele>
        <time>2022-05-01T08:52:54Z</time>
      </trkpt>
      <trkpt lat="46.041997633874416" lon="9.015533309429884">
        <ele>1245.77</ele>
        <time>2022-05-01T08:53:07Z</time>
      </trkpt>
      <trkpt lat="46.042033173143864" lon="9.015571111813188">
        <ele>1247.1199999999999</ele>
        <time>2022-05-01T08:53:17Z</time>
      </trkpt>
      <trkpt lat="46.042104084044695" lon="9.015678567811847">
        <ele>1249.6600000000001</ele>
        <time>2022-05-01T08:53:33Z</time>
      </trkpt>
      <trkpt lat="46.042184382677078" lon="9.01582483202219">
        <ele>1251.8800000000001</ele>
        <time>2022-05-01T08:53:47Z</time>
      </trkpt>
      <trkpt lat="46.042225202545524" lon="9.015904208645225">
        <ele>1254.95</ele>
        <time>2022-05-01T08:54:02Z</time>
      </trkpt>
      <trkpt lat="46.042293515056372" lon="9.015971766784787">
        <ele>1257.1300000000001</ele>
        <time>2022-05-01T08:54:15Z</time>
      </trkpt>
      <trkpt lat="46.042350260540843" lon="9.016070086508989">
        <ele>1259.6700000000001</ele>
        <time>2022-05-01T08:54:31Z</time>
      </trkpt>
      <trkpt lat="46.042406419292092" lon="9.016097160056233">
        <ele>1262.03</ele>
        <time>2022-05-01T08:54:46Z</time>
      </trkpt>
      <trkpt lat="46.042450089007616" lon="9.016126915812492">
        <ele>1264.02</ele>
        <time>2022-05-01T08:55:00Z</time>
      </trkpt>
      <trkpt lat="46.042440114542842" lon="9.016110152006149">
        <ele>1264.48</ele>
        <time>2022-05-01T08:55:19Z</time>
      </trkpt>
      <trkpt lat="46.042432822287083" lon="9.016103530302644">
        <ele>1264.45</ele>
        <time>2022-05-01T08:55:39Z</time>
      </trkpt>
      <trkpt lat="46.042461572214961" lon="9.016078216955066">
        <ele>1264.48</ele>
        <time>2022-05-01T08:55:55Z</time>
      </trkpt>
      <trkpt lat="46.042503817006946" lon="9.016065476462245">
        <ele>1264.4200000000001</ele>
        <time>2022-05-01T08:56:08Z</time>
      </trkpt>
      <trkpt lat="46.042511109262705" lon="9.016123646870256">
        <ele>1266.75</ele>
        <time>2022-05-01T08:56:22Z</time>
      </trkpt>
      <trkpt lat="46.042542038485408" lon="9.016162287443876">
        <ele>1269.9000000000001</ele>
        <time>2022-05-01T08:56:32Z</time>
      </trkpt>
      <trkpt lat="46.042600879445672" lon="9.016156252473593">
        <ele>1273.1199999999999</ele>
        <time>2022-05-01T08:56:45Z</time>
      </trkpt>
      <trkpt lat="46.042665587738156" lon="9.016115851700306">
        <ele>1274.55</ele>
        <time>2022-05-01T08:56:57Z</time>
      </trkpt>
      <trkpt lat="46.042684614658356" lon="9.016091041266918">
        <ele>1274.76</ele>
        <time>2022-05-01T08:57:09Z</time>
      </trkpt>
      <trkpt lat="46.042680172249675" lon="9.016096908599138">
        <ele>1274.8499999999999</ele>
        <time>2022-05-01T08:57:10Z</time>
      </trkpt>
      <trkpt lat="46.042638849467039" lon="9.016082659363747">
        <ele>1273.96</ele>
        <time>2022-05-01T08:57:20Z</time>
      </trkpt>
      <trkpt lat="46.042648488655686" lon="9.016059692949057">
        <ele>1273.52</ele>
        <time>2022-05-01T08:57:32Z</time>
      </trkpt>
      <trkpt lat="46.042638011276722" lon="9.01606036350131">
        <ele>1273.48</ele>
        <time>2022-05-01T08:57:48Z</time>
      </trkpt>
      <trkpt lat="46.042633317410946" lon="9.016070170328021">
        <ele>1273.6600000000001</ele>
        <time>2022-05-01T08:58:00Z</time>
      </trkpt>
      <trkpt lat="46.04263692162931" lon="9.016083581373096">
        <ele>1275.1099999999999</ele>
        <time>2022-05-01T08:58:15Z</time>
      </trkpt>
      <trkpt lat="46.042635077610612" lon="9.016084168106318">
        <ele>1274.72</ele>
        <time>2022-05-01T08:58:40Z</time>
      </trkpt>
      <trkpt lat="46.042630299925804" lon="9.016088442876935">
        <ele>1274.73</ele>
        <time>2022-05-01T08:58:57Z</time>
      </trkpt>
      <trkpt lat="46.042630467563868" lon="9.016090957447887">
        <ele>1274.9100000000001</ele>
        <time>2022-05-01T08:59:30Z</time>
      </trkpt>
      <trkpt lat="46.042629210278392" lon="9.016079306602478">
        <ele>1275.1300000000001</ele>
        <time>2022-05-01T08:59:58Z</time>
      </trkpt>
      <trkpt lat="46.042643124237657" lon="9.016135549172759">
        <ele>1274.51</ele>
        <time>2022-05-01T09:00:19Z</time>
      </trkpt>
      <trkpt lat="46.042633568868041" lon="9.016153318807483">
        <ele>1274</ele>
        <time>2022-05-01T09:00:29Z</time>
      </trkpt>
      <trkpt lat="46.042631976306438" lon="9.016153234988451">
        <ele>1273.3499999999999</ele>
        <time>2022-05-01T09:00:39Z</time>
      </trkpt>
      <trkpt lat="46.042646560817957" lon="9.016148708760738">
        <ele>1273.4000000000001</ele>
        <time>2022-05-01T09:01:23Z</time>
      </trkpt>
      <trkpt lat="46.042647399008274" lon="9.016154995188117">
        <ele>1273.7</ele>
        <time>2022-05-01T09:02:01Z</time>
      </trkpt>
      <trkpt lat="46.042638681828976" lon="9.016166059300304">
        <ele>1274.01</ele>
        <time>2022-05-01T09:02:46Z</time>
      </trkpt>
      <trkpt lat="46.042630719020963" lon="9.016145020723343">
        <ele>1274.46</ele>
        <time>2022-05-01T09:03:31Z</time>
      </trkpt>
      <trkpt lat="46.042639436200261" lon="9.016142170876265">
        <ele>1274.6900000000001</ele>
        <time>2022-05-01T09:04:20Z</time>
      </trkpt>
      <trkpt lat="46.042605740949512" lon="9.01619422249496">
        <ele>1275.0799999999999</ele>
        <time>2022-05-01T09:05:11Z</time>
      </trkpt>
      <trkpt lat="46.042628036811948" lon="9.016208304092288">
        <ele>1275.1800000000001</ele>
        <time>2022-05-01T09:05:51Z</time>
      </trkpt>
      <trkpt lat="46.04264379478991" lon="9.016171675175428">
        <ele>1275.52</ele>
        <time>2022-05-01T09:06:33Z</time>
      </trkpt>
      <trkpt lat="46.042638598009944" lon="9.016170334070921">
        <ele>1275.8299999999999</ele>
        <time>2022-05-01T09:07:18Z</time>
      </trkpt>
      <trkpt lat="46.042646057903767" lon="9.016183661296964">
        <ele>1275.8</ele>
        <time>2022-05-01T09:07:26Z</time>
      </trkpt>
      <trkpt lat="46.042656786739826" lon="9.016175949946046">
        <ele>1275.9400000000001</ele>
        <time>2022-05-01T09:07:57Z</time>
      </trkpt>
      <trkpt lat="46.04264622554183" lon="9.016184164211154">
        <ele>1276.1400000000001</ele>
        <time>2022-05-01T09:08:26Z</time>
      </trkpt>
      <trkpt lat="46.0426374245435" lon="9.016166562214494">
        <ele>1276.8099999999999</ele>
        <time>2022-05-01T09:09:14Z</time>
      </trkpt>
      <trkpt lat="46.042632395401597" lon="9.01615658774972">
        <ele>1277.53</ele>
        <time>2022-05-01T09:09:30Z</time>
      </trkpt>
      <trkpt lat="46.042630299925804" lon="9.016142338514328">
        <ele>1277.5999999999999</ele>
        <time>2022-05-01T09:09:50Z</time>
      </trkpt>
      <trkpt lat="46.042652763426304" lon="9.016206292435527">
        <ele>1278.1800000000001</ele>
        <time>2022-05-01T09:10:03Z</time>
      </trkpt>
      <trkpt lat="46.042659804224968" lon="9.016276616603136">
        <ele>1278.3499999999999</ele>
        <time>2022-05-01T09:10:08Z</time>
      </trkpt>
      <trkpt lat="46.042685704305768" lon="9.01639505289495">
        <ele>1279.6300000000001</ele>
        <time>2022-05-01T09:10:18Z</time>
      </trkpt>
      <trkpt lat="46.042796177789569" lon="9.01647468097508">
        <ele>1280.8399999999999</ele>
        <time>2022-05-01T09:10:30Z</time>
      </trkpt>
      <trkpt lat="46.04285049252212" lon="9.016568977385759">
        <ele>1281.0599999999999</ele>
        <time>2022-05-01T09:10:41Z</time>
      </trkpt>
      <trkpt lat="46.04293255135417" lon="9.016657909378409">
        <ele>1280.6800000000001</ele>
        <time>2022-05-01T09:10:52Z</time>
      </trkpt>
      <trkpt lat="46.042974963784218" lon="9.016683055087924">
        <ele>1281.3099999999999</ele>
        <time>2022-05-01T09:10:58Z</time>
      </trkpt>
      <trkpt lat="46.042992062866688" lon="9.01672488078475">
        <ele>1280.55</ele>
        <time>2022-05-01T09:11:01Z</time>
      </trkpt>
      <trkpt lat="46.043089712038636" lon="9.01677425019443">
        <ele>1278.1600000000001</ele>
        <time>2022-05-01T09:11:12Z</time>
      </trkpt>
      <trkpt lat="46.043108990415931" lon="9.016778441146016">
        <ele>1277.8299999999999</ele>
        <time>2022-05-01T09:11:14Z</time>
      </trkpt>
      <trkpt lat="46.043266821652651" lon="9.016779698431492">
        <ele>1277.3900000000001</ele>
        <time>2022-05-01T09:11:28Z</time>
      </trkpt>
      <trkpt lat="46.043398417532444" lon="9.016765616834164">
        <ele>1275.6400000000001</ele>
        <time>2022-05-01T09:11:40Z</time>
      </trkpt>
      <trkpt lat="46.043521128594875" lon="9.016763186082244">
        <ele>1274.98</ele>
        <time>2022-05-01T09:11:51Z</time>
      </trkpt>
      <trkpt lat="46.043539820238948" lon="9.016755223274231">
        <ele>1275.0599999999999</ele>
        <time>2022-05-01T09:11:53Z</time>
      </trkpt>
      <trkpt lat="46.043633529916406" lon="9.016713229939342">
        <ele>1275.3900000000001</ele>
        <time>2022-05-01T09:12:03Z</time>
      </trkpt>
      <trkpt lat="46.043697567656636" lon="9.016695795580745">
        <ele>1275.6400000000001</ele>
        <time>2022-05-01T09:12:10Z</time>
      </trkpt>
      <trkpt lat="46.04380426928401" lon="9.016634440049529">
        <ele>1276.1500000000001</ele>
        <time>2022-05-01T09:12:21Z</time>
      </trkpt>
      <trkpt lat="46.043826900422573" lon="9.016621364280582">
        <ele>1275.6800000000001</ele>
        <time>2022-05-01T09:12:23Z</time>
      </trkpt>
      <trkpt lat="46.0438790358603" lon="9.016602588817477">
        <ele>1275.03</ele>
        <time>2022-05-01T09:12:28Z</time>
      </trkpt>
      <trkpt lat="46.043955227360129" lon="9.016609629616141">
        <ele>1274.3900000000001</ele>
        <time>2022-05-01T09:12:39Z</time>
      </trkpt>
      <trkpt lat="46.043963944539428" lon="9.0166100487113">
        <ele>1274.1300000000001</ele>
        <time>2022-05-01T09:12:40Z</time>
      </trkpt>
      <trkpt lat="46.044058492407203" lon="9.016621364280582">
        <ele>1271.45</ele>
        <time>2022-05-01T09:12:51Z</time>
      </trkpt>
      <trkpt lat="46.044134516268969" lon="9.016668554395437">
        <ele>1269.6800000000001</ele>
        <time>2022-05-01T09:13:03Z</time>
      </trkpt>
      <trkpt lat="46.044189082458615" lon="9.016730915755034">
        <ele>1266.6600000000001</ele>
        <time>2022-05-01T09:13:18Z</time>
      </trkpt>
      <trkpt lat="46.044250689446926" lon="9.016761006787419">
        <ele>1264.8900000000001</ele>
        <time>2022-05-01T09:13:25Z</time>
      </trkpt>
      <trkpt lat="46.044366778805852" lon="9.016778692603111">
        <ele>1263.6300000000001</ele>
        <time>2022-05-01T09:13:36Z</time>
      </trkpt>
      <trkpt lat="46.044429391622543" lon="9.016842897981405">
        <ele>1262.8499999999999</ele>
        <time>2022-05-01T09:13:49Z</time>
      </trkpt>
      <trkpt lat="46.044490830972791" lon="9.016938200220466">
        <ele>1261.0699999999999</ele>
        <time>2022-05-01T09:14:02Z</time>
      </trkpt>
      <trkpt lat="46.044555203989148" lon="9.017115561291575">
        <ele>1263.77</ele>
        <time>2022-05-01T09:14:18Z</time>
      </trkpt>
      <trkpt lat="46.044627036899328" lon="9.017268363386393">
        <ele>1264.1900000000001</ele>
        <time>2022-05-01T09:14:30Z</time>
      </trkpt>
      <trkpt lat="46.044736336916685" lon="9.017314547672868">
        <ele>1262.3099999999999</ele>
        <time>2022-05-01T09:14:44Z</time>
      </trkpt>
      <trkpt lat="46.044770367443562" lon="9.017305830493569">
        <ele>1261.79</ele>
        <time>2022-05-01T09:14:47Z</time>
      </trkpt>
      <trkpt lat="46.044884528964758" lon="9.017306165769696">
        <ele>1259.4300000000001</ele>
        <time>2022-05-01T09:14:58Z</time>
      </trkpt>
      <trkpt lat="46.044955607503653" lon="9.017259478569031">
        <ele>1258.4300000000001</ele>
        <time>2022-05-01T09:15:10Z</time>
      </trkpt>
      <trkpt lat="46.044933395460248" lon="9.017211114987731">
        <ele>1258.98</ele>
        <time>2022-05-01T09:15:24Z</time>
      </trkpt>
      <trkpt lat="46.045006737112999" lon="9.017143556848168">
        <ele>1258.97</ele>
        <time>2022-05-01T09:15:36Z</time>
      </trkpt>
      <trkpt lat="46.045053089037538" lon="9.01705470867455">
        <ele>1260.4300000000001</ele>
        <time>2022-05-01T09:15:50Z</time>
      </trkpt>
      <trkpt lat="46.045091310516" lon="9.016949851065874">
        <ele>1263.1800000000001</ele>
        <time>2022-05-01T09:16:04Z</time>
      </trkpt>
      <trkpt lat="46.045109666883945" lon="9.016950018703938">
        <ele>1264.5999999999999</ele>
        <time>2022-05-01T09:16:22Z</time>
      </trkpt>
      <trkpt lat="46.045174458995461" lon="9.016901236027479">
        <ele>1266.52</ele>
        <time>2022-05-01T09:16:38Z</time>
      </trkpt>
      <trkpt lat="46.045250818133354" lon="9.016811465844512">
        <ele>1269.5999999999999</ele>
        <time>2022-05-01T09:16:53Z</time>
      </trkpt>
      <trkpt lat="46.045320555567741" lon="9.016820266842842">
        <ele>1272.1199999999999</ele>
        <time>2022-05-01T09:17:07Z</time>
      </trkpt>
      <trkpt lat="46.045385934412479" lon="9.0167395491153">
        <ele>1274.28</ele>
        <time>2022-05-01T09:17:21Z</time>
      </trkpt>
      <trkpt lat="46.045449217781425" lon="9.016692945733666">
        <ele>1277.0599999999999</ele>
        <time>2022-05-01T09:17:37Z</time>
      </trkpt>
      <trkpt lat="46.045513255521655" lon="9.016752792522311">
        <ele>1280.3099999999999</ele>
        <time>2022-05-01T09:17:53Z</time>
      </trkpt>
      <trkpt lat="46.045605540275574" lon="9.016792103648186">
        <ele>1283.46</ele>
        <time>2022-05-01T09:18:10Z</time>
      </trkpt>
      <trkpt lat="46.045686258003116" lon="9.016783805564046">
        <ele>1286.28</ele>
        <time>2022-05-01T09:18:24Z</time>
      </trkpt>
      <trkpt lat="46.045677289366722" lon="9.016684899106622">
        <ele>1288.4300000000001</ele>
        <time>2022-05-01T09:18:38Z</time>
      </trkpt>
      <trkpt lat="46.045673685148358" lon="9.01658515445888">
        <ele>1291.4300000000001</ele>
        <time>2022-05-01T09:18:52Z</time>
      </trkpt>
      <trkpt lat="46.045755492523313" lon="9.016522541642189">
        <ele>1293.96</ele>
        <time>2022-05-01T09:19:07Z</time>
      </trkpt>
      <trkpt lat="46.045827576890588" lon="9.016472417861223">
        <ele>1295.5899999999999</ele>
        <time>2022-05-01T09:19:18Z</time>
      </trkpt>
      <trkpt lat="46.045930590480566" lon="9.01642045006156">
        <ele>1297.71</ele>
        <time>2022-05-01T09:19:34Z</time>
      </trkpt>
      <trkpt lat="46.046014577150345" lon="9.016354568302631">
        <ele>1300.1900000000001</ele>
        <time>2022-05-01T09:19:46Z</time>
      </trkpt>
      <trkpt lat="46.046079369261861" lon="9.016304612159729">
        <ele>1302.8099999999999</ele>
        <time>2022-05-01T09:20:01Z</time>
      </trkpt>
      <trkpt lat="46.046134438365698" lon="9.016253063455224">
        <ele>1304.4100000000001</ele>
        <time>2022-05-01T09:20:13Z</time>
      </trkpt>
      <trkpt lat="46.0462034214288" lon="9.016211740672588">
        <ele>1306.04</ele>
        <time>2022-05-01T09:20:25Z</time>
      </trkpt>
      <trkpt lat="46.046287072822452" lon="9.01621961966157">
        <ele>1308.1199999999999</ele>
        <time>2022-05-01T09:20:37Z</time>
      </trkpt>
      <trkpt lat="46.046334179118276" lon="9.016138901934028">
        <ele>1310.79</ele>
        <time>2022-05-01T09:20:52Z</time>
      </trkpt>
      <trkpt lat="46.046341806650162" lon="9.016125574707985">
        <ele>1311.3800000000001</ele>
        <time>2022-05-01T09:21:07Z</time>
      </trkpt>
      <trkpt lat="46.046343818306923" lon="9.016085173934698">
        <ele>1311.8399999999999</ele>
        <time>2022-05-01T09:21:20Z</time>
      </trkpt>
      <trkpt lat="46.046371227130294" lon="9.01603982783854">
        <ele>1312.96</ele>
        <time>2022-05-01T09:21:30Z</time>
      </trkpt>
      <trkpt lat="46.046404503285885" lon="9.015986686572433">
        <ele>1315.3399999999999</ele>
        <time>2022-05-01T09:21:43Z</time>
      </trkpt>
      <trkpt lat="46.046463511884212" lon="9.016041588038206">
        <ele>1317.53</ele>
        <time>2022-05-01T09:21:57Z</time>
      </trkpt>
      <trkpt lat="46.046493602916598" lon="9.016002528369427">
        <ele>1319.28</ele>
        <time>2022-05-01T09:22:09Z</time>
      </trkpt>
      <trkpt lat="46.046533584594727" lon="9.01593865826726">
        <ele>1320.9400000000001</ele>
        <time>2022-05-01T09:22:21Z</time>
      </trkpt>
      <trkpt lat="46.046579768881202" lon="9.01589373126626">
        <ele>1323.5899999999999</ele>
        <time>2022-05-01T09:22:35Z</time>
      </trkpt>
      <trkpt lat="46.046606674790382" lon="9.015989117324352">
        <ele>1325.71</ele>
        <time>2022-05-01T09:22:49Z</time>
      </trkpt>
      <trkpt lat="46.046655457466841" lon="9.01603739708662">
        <ele>1327.97</ele>
        <time>2022-05-01T09:23:05Z</time>
      </trkpt>
      <trkpt lat="46.046655038371682" lon="9.015937903895974">
        <ele>1329.3399999999999</ele>
        <time>2022-05-01T09:23:17Z</time>
      </trkpt>
      <trkpt lat="46.046687895432115" lon="9.015962295234203">
        <ele>1331.04</ele>
        <time>2022-05-01T09:23:29Z</time>
      </trkpt>
      <trkpt lat="46.04674874804914" lon="9.01602222584188">
        <ele>1333.78</ele>
        <time>2022-05-01T09:23:44Z</time>
      </trkpt>
      <trkpt lat="46.046763835474849" lon="9.015968749299645">
        <ele>1335.29</ele>
        <time>2022-05-01T09:23:55Z</time>
      </trkpt>
      <trkpt lat="46.046769451349974" lon="9.015967324376106">
        <ele>1335.78</ele>
        <time>2022-05-01T09:24:09Z</time>
      </trkpt>
      <trkpt lat="46.046767188236117" lon="9.015970006585121">
        <ele>1335.9400000000001</ele>
        <time>2022-05-01T09:24:37Z</time>
      </trkpt>
      <trkpt lat="46.046787723898888" lon="9.016002779826522">
        <ele>1336.3099999999999</ele>
        <time>2022-05-01T09:24:48Z</time>
      </trkpt>
      <trkpt lat="46.046849498525262" lon="9.016057681292296">
        <ele>1338.6099999999999</ele>
        <time>2022-05-01T09:25:00Z</time>
      </trkpt>
      <trkpt lat="46.046907333657146" lon="9.016152983531356">
        <ele>1340.9400000000001</ele>
        <time>2022-05-01T09:25:12Z</time>
      </trkpt>
      <trkpt lat="46.046961983665824" lon="9.016264714300633">
        <ele>1343.3699999999999</ele>
        <time>2022-05-01T09:25:26Z</time>
      </trkpt>
      <trkpt lat="46.046977574005723" lon="9.016305031254888">
        <ele>1344.4100000000001</ele>
        <time>2022-05-01T09:25:40Z</time>
      </trkpt>
      <trkpt lat="46.046988973394036" lon="9.016311736777425">
        <ele>1344.47</ele>
        <time>2022-05-01T09:25:55Z</time>
      </trkpt>
      <trkpt lat="46.047034235671163" lon="9.016347276046872">
        <ele>1346.8199999999999</ele>
        <time>2022-05-01T09:26:09Z</time>
      </trkpt>
      <trkpt lat="46.047055441886187" lon="9.016262954100967">
        <ele>1347.55</ele>
        <time>2022-05-01T09:26:27Z</time>
      </trkpt>
      <trkpt lat="46.047054184600711" lon="9.016225822269917">
        <ele>1347.3299999999999</ele>
        <time>2022-05-01T09:26:38Z</time>
      </trkpt>
      <trkpt lat="46.047045383602381" lon="9.016226911917329">
        <ele>1347.3900000000001</ele>
        <time>2022-05-01T09:26:58Z</time>
      </trkpt>
      <trkpt lat="46.047043539583683" lon="9.016233198344708">
        <ele>1347.3299999999999</ele>
        <time>2022-05-01T09:27:18Z</time>
      </trkpt>
      <trkpt lat="46.047045802697539" lon="9.016240825876594">
        <ele>1347.45</ele>
        <time>2022-05-01T09:27:41Z</time>
      </trkpt>
      <trkpt lat="46.04707270860672" lon="9.016261361539364">
        <ele>1348.4400000000001</ele>
        <time>2022-05-01T09:27:53Z</time>
      </trkpt>
      <trkpt lat="46.047068182379007" lon="9.016272677108645">
        <ele>1348.72</ele>
        <time>2022-05-01T09:28:08Z</time>
      </trkpt>
      <trkpt lat="46.047072373330593" lon="9.016264546662569">
        <ele>1348.76</ele>
        <time>2022-05-01T09:28:35Z</time>
      </trkpt>
      <trkpt lat="46.047069439664483" lon="9.016268402338028">
        <ele>1348.25</ele>
        <time>2022-05-01T09:28:39Z</time>
      </trkpt>
      <trkpt lat="46.047082850709558" lon="9.016266223043203">
        <ele>1347.9200000000001</ele>
        <time>2022-05-01T09:29:01Z</time>
      </trkpt>
      <trkpt lat="46.047087628394365" lon="9.016266474500299">
        <ele>1347.79</ele>
        <time>2022-05-01T09:29:35Z</time>
      </trkpt>
      <trkpt lat="46.047071618959308" lon="9.016279969364405">
        <ele>1347.8699999999999</ele>
        <time>2022-05-01T09:30:11Z</time>
      </trkpt>
      <trkpt lat="46.047078743577003" lon="9.016287513077259">
        <ele>1348.1700000000001</ele>
        <time>2022-05-01T09:30:37Z</time>
      </trkpt>
      <trkpt lat="46.047066003084183" lon="9.016282232478261">
        <ele>1348.23</ele>
        <time>2022-05-01T09:31:03Z</time>
      </trkpt>
      <trkpt lat="46.047051837667823" lon="9.016271755099297">
        <ele>1348.77</ele>
        <time>2022-05-01T09:31:41Z</time>
      </trkpt>
      <trkpt lat="46.047047646716237" lon="9.016279214993119">
        <ele>1348.8199999999999</ele>
        <time>2022-05-01T09:32:16Z</time>
      </trkpt>
      <trkpt lat="46.047054855152965" lon="9.016267480328679">
        <ele>1349.1800000000001</ele>
        <time>2022-05-01T09:32:46Z</time>
      </trkpt>
      <trkpt lat="46.047048484906554" lon="9.016277119517326">
        <ele>1349.0799999999999</ele>
        <time>2022-05-01T09:33:21Z</time>
      </trkpt>
      <trkpt lat="46.047035660594702" lon="9.016273347660899">
        <ele>1349.3499999999999</ele>
        <time>2022-05-01T09:34:04Z</time>
      </trkpt>
      <trkpt lat="46.047040186822414" lon="9.01627728715539">
        <ele>1349.6500000000001</ele>
        <time>2022-05-01T09:34:44Z</time>
      </trkpt>
      <trkpt lat="46.047033732756972" lon="9.016274688765407">
        <ele>1349.6600000000001</ele>
        <time>2022-05-01T09:35:24Z</time>
      </trkpt>
      <trkpt lat="46.047029374167323" lon="9.016273096203804">
        <ele>1350.0799999999999</ele>
        <time>2022-05-01T09:36:00Z</time>
      </trkpt>
      <trkpt lat="46.047019315883517" lon="9.016271503642201">
        <ele>1350.26</ele>
        <time>2022-05-01T09:36:38Z</time>
      </trkpt>
      <trkpt lat="46.04701898060739" lon="9.016270916908979">
        <ele>1350.3499999999999</ele>
        <time>2022-05-01T09:37:13Z</time>
      </trkpt>
      <trkpt lat="46.047024428844452" lon="9.016283741220832">
        <ele>1350.79</ele>
        <time>2022-05-01T09:37:55Z</time>
      </trkpt>
      <trkpt lat="46.04703264310956" lon="9.016279466450214">
        <ele>1350.79</ele>
        <time>2022-05-01T09:38:35Z</time>
      </trkpt>
      <trkpt lat="46.047033732756972" lon="9.016273096203804">
        <ele>1351</ele>
        <time>2022-05-01T09:39:19Z</time>
      </trkpt>
      <trkpt lat="46.047038175165653" lon="9.016272090375423">
        <ele>1351.21</ele>
        <time>2022-05-01T09:40:01Z</time>
      </trkpt>
      <trkpt lat="46.047030966728926" lon="9.016258595511317">
        <ele>1351.3599999999999</ele>
        <time>2022-05-01T09:40:37Z</time>
      </trkpt>
      <trkpt lat="46.04702141135931" lon="9.016252811998129">
        <ele>1351.6500000000001</ele>
        <time>2022-05-01T09:41:14Z</time>
      </trkpt>
      <trkpt lat="46.047026608139277" lon="9.016259433701634">
        <ele>1352.3699999999999</ele>
        <time>2022-05-01T09:41:30Z</time>
      </trkpt>
      <trkpt lat="46.047029877081513" lon="9.016273012384772">
        <ele>1351.27</ele>
        <time>2022-05-01T09:41:53Z</time>
      </trkpt>
      <trkpt lat="46.047033732756972" lon="9.016268067061901">
        <ele>1351.9100000000001</ele>
        <time>2022-05-01T09:42:27Z</time>
      </trkpt>
      <trkpt lat="46.047042282298207" lon="9.01627141982317">
        <ele>1351.2</ele>
        <time>2022-05-01T09:42:45Z</time>
      </trkpt>
      <trkpt lat="46.047039935365319" lon="9.01626312173903">
        <ele>1352</ele>
        <time>2022-05-01T09:43:21Z</time>
      </trkpt>
      <trkpt lat="46.047045467421412" lon="9.016268150880933">
        <ele>1352.1300000000001</ele>
        <time>2022-05-01T09:44:00Z</time>
      </trkpt>
      <trkpt lat="46.047037169337273" lon="9.016266725957394">
        <ele>1352.48</ele>
        <time>2022-05-01T09:44:46Z</time>
      </trkpt>
      <trkpt lat="46.047037756070495" lon="9.016267228871584">
        <ele>1352.45</ele>
        <time>2022-05-01T09:45:32Z</time>
      </trkpt>
      <trkpt lat="46.047043455764651" lon="9.016255410388112">
        <ele>1352.5599999999999</ele>
        <time>2022-05-01T09:46:21Z</time>
      </trkpt>
      <trkpt lat="46.047039683908224" lon="9.016267815604806">
        <ele>1353.3399999999999</ele>
        <time>2022-05-01T09:46:51Z</time>
      </trkpt>
      <trkpt lat="46.047044629231095" lon="9.016271755099297">
        <ele>1353.73</ele>
        <time>2022-05-01T09:47:03Z</time>
      </trkpt>
      <trkpt lat="46.047047981992364" lon="9.016278544440866">
        <ele>1353.4300000000001</ele>
        <time>2022-05-01T09:47:20Z</time>
      </trkpt>
      <trkpt lat="46.047065919265151" lon="9.016312239691615">
        <ele>1354.8499999999999</ele>
        <time>2022-05-01T09:47:35Z</time>
      </trkpt>
      <trkpt lat="46.047079162672162" lon="9.016325902193785">
        <ele>1354.48</ele>
        <time>2022-05-01T09:47:53Z</time>
      </trkpt>
      <trkpt lat="46.04713087901473" lon="9.016362028196454">
        <ele>1353.95</ele>
        <time>2022-05-01T09:48:03Z</time>
      </trkpt>
      <trkpt lat="46.047208663076162" lon="9.016402009874582">
        <ele>1352.8099999999999</ele>
        <time>2022-05-01T09:48:11Z</time>
      </trkpt>
      <trkpt lat="46.047358699142933" lon="9.016466131433845">
        <ele>1352.6199999999999</ele>
        <time>2022-05-01T09:48:25Z</time>
      </trkpt>
      <trkpt lat="46.047418210655451" lon="9.016475351527333">
        <ele>1353.3399999999999</ele>
        <time>2022-05-01T09:48:33Z</time>
      </trkpt>
      <trkpt lat="46.047448050230742" lon="9.016487002372742">
        <ele>1353.1500000000001</ele>
        <time>2022-05-01T09:48:36Z</time>
      </trkpt>
      <trkpt lat="46.047531198710203" lon="9.016544334590435">
        <ele>1353.3900000000001</ele>
        <time>2022-05-01T09:48:48Z</time>
      </trkpt>
      <trkpt lat="46.047615436837077" lon="9.016651036217809">
        <ele>1354.22</ele>
        <time>2022-05-01T09:49:01Z</time>
      </trkpt>
      <trkpt lat="46.047700680792332" lon="9.016685485839844">
        <ele>1356.0699999999999</ele>
        <time>2022-05-01T09:49:14Z</time>
      </trkpt>
      <trkpt lat="46.047738902270794" lon="9.016679618507624">
        <ele>1357.6900000000001</ele>
        <time>2022-05-01T09:49:28Z</time>
      </trkpt>
      <trkpt lat="46.047797240316868" lon="9.016673499718308">
        <ele>1360.05</ele>
        <time>2022-05-01T09:49:43Z</time>
      </trkpt>
      <trkpt lat="46.047877287492156" lon="9.016674924641848">
        <ele>1361.9200000000001</ele>
        <time>2022-05-01T09:49:58Z</time>
      </trkpt>
      <trkpt lat="46.047926237806678" lon="9.016719181090593">
        <ele>1365.1600000000001</ele>
        <time>2022-05-01T09:50:11Z</time>
      </trkpt>
      <trkpt lat="46.047986252233386" lon="9.016727646812797">
        <ele>1367.5</ele>
        <time>2022-05-01T09:50:26Z</time>
      </trkpt>
      <trkpt lat="46.048013241961598" lon="9.016740387305617">
        <ele>1367.76</ele>
        <time>2022-05-01T09:50:39Z</time>
      </trkpt>
      <trkpt lat="46.048092450946569" lon="9.016806939616799">
        <ele>1365.5699999999999</ele>
        <time>2022-05-01T09:50:54Z</time>
      </trkpt>
      <trkpt lat="46.048153806477785" lon="9.016845496371388">
        <ele>1366.5999999999999</ele>
        <time>2022-05-01T09:51:07Z</time>
      </trkpt>
      <trkpt lat="46.048222873359919" lon="9.01683870702982">
        <ele>1365.23</ele>
        <time>2022-05-01T09:51:16Z</time>
      </trkpt>
      <trkpt lat="46.048329910263419" lon="9.016868630424142">
        <ele>1364.22</ele>
        <time>2022-05-01T09:51:30Z</time>
      </trkpt>
      <trkpt lat="46.04842227883637" lon="9.016934763640165">
        <ele>1365.8399999999999</ele>
        <time>2022-05-01T09:51:43Z</time>
      </trkpt>
      <trkpt lat="46.048543900251389" lon="9.017003914341331">
        <ele>1368.6900000000001</ele>
        <time>2022-05-01T09:52:01Z</time>
      </trkpt>
      <trkpt lat="46.048639789223671" lon="9.017057055607438">
        <ele>1371.73</ele>
        <time>2022-05-01T09:52:18Z</time>
      </trkpt>
      <trkpt lat="46.04874137789011" lon="9.01708597317338">
        <ele>1374.8699999999999</ele>
        <time>2022-05-01T09:52:35Z</time>
      </trkpt>
      <trkpt lat="46.048811869695783" lon="9.017077423632145">
        <ele>1377.04</ele>
        <time>2022-05-01T09:52:50Z</time>
      </trkpt>
      <trkpt lat="46.048866184428334" lon="9.017078094184399">
        <ele>1378.71</ele>
        <time>2022-05-01T09:52:58Z</time>
      </trkpt>
      <trkpt lat="46.048955535516143" lon="9.017080189660192">
        <ele>1381.96</ele>
        <time>2022-05-01T09:53:15Z</time>
      </trkpt>
      <trkpt lat="46.049023680388927" lon="9.017098546028137">
        <ele>1384.3900000000001</ele>
        <time>2022-05-01T09:53:30Z</time>
      </trkpt>
      <trkpt lat="46.049125604331493" lon="9.017145736142993">
        <ele>1386.8599999999999</ele>
        <time>2022-05-01T09:53:46Z</time>
      </trkpt>
      <trkpt lat="46.049248483031988" lon="9.017201727256179">
        <ele>1389.4400000000001</ele>
        <time>2022-05-01T09:54:03Z</time>
      </trkpt>
      <trkpt lat="46.049310760572553" lon="9.017182113602758">
        <ele>1392.4100000000001</ele>
        <time>2022-05-01T09:54:18Z</time>
      </trkpt>
      <trkpt lat="46.049351077526808" lon="9.017240619286895">
        <ele>1394.77</ele>
        <time>2022-05-01T09:54:31Z</time>
      </trkpt>
      <trkpt lat="46.049411259591579" lon="9.01728093624115">
        <ele>1397.8199999999999</ele>
        <time>2022-05-01T09:54:47Z</time>
      </trkpt>
      <trkpt lat="46.049452498555183" lon="9.017312536016107">
        <ele>1399.8199999999999</ele>
        <time>2022-05-01T09:54:59Z</time>
      </trkpt>
      <trkpt lat="46.049468759447336" lon="9.017373723909259">
        <ele>1402.26</ele>
        <time>2022-05-01T09:55:14Z</time>
      </trkpt>
      <trkpt lat="46.049554254859686" lon="9.017444048076868">
        <ele>1404.3699999999999</ele>
        <time>2022-05-01T09:55:27Z</time>
      </trkpt>
      <trkpt lat="46.049638157710433" lon="9.017522921785712">
        <ele>1404.3699999999999</ele>
        <time>2022-05-01T09:55:34Z</time>
      </trkpt>
      <trkpt lat="46.049734717234969" lon="9.017514539882541">
        <ele>1405.28</ele>
        <time>2022-05-01T09:55:47Z</time>
      </trkpt>
      <trkpt lat="46.049839491024613" lon="9.017536668106914">
        <ele>1404.6500000000001</ele>
        <time>2022-05-01T09:55:58Z</time>
      </trkpt>
      <trkpt lat="46.049847370013595" lon="9.017537673935294">
        <ele>1404.48</ele>
        <time>2022-05-01T09:55:59Z</time>
      </trkpt>
      <trkpt lat="46.04994778521359" lon="9.017652506008744">
        <ele>1403.4300000000001</ele>
        <time>2022-05-01T09:56:11Z</time>
      </trkpt>
      <trkpt lat="46.049953233450651" lon="9.017663989216089">
        <ele>1403.1800000000001</ele>
        <time>2022-05-01T09:56:12Z</time>
      </trkpt>
      <trkpt lat="46.049958597868681" lon="9.017695086076856">
        <ele>1402.76</ele>
        <time>2022-05-01T09:56:14Z</time>
      </trkpt>
      <trkpt lat="46.050002267584205" lon="9.017863813787699">
        <ele>1401.3599999999999</ele>
        <time>2022-05-01T09:56:25Z</time>
      </trkpt>
      <trkpt lat="46.050042752176523" lon="9.01801242493093">
        <ele>1400.6099999999999</ele>
        <time>2022-05-01T09:56:34Z</time>
      </trkpt>
      <trkpt lat="46.050126403570175" lon="9.018156845122576">
        <ele>1400.4100000000001</ele>
        <time>2022-05-01T09:56:46Z</time>
      </trkpt>
      <trkpt lat="46.050144173204899" lon="9.01817511767149">
        <ele>1400.4200000000001</ele>
        <time>2022-05-01T09:56:48Z</time>
      </trkpt>
      <trkpt lat="46.050216676667333" lon="9.018402518704534">
        <ele>1400.1099999999999</ele>
        <time>2022-05-01T09:57:02Z</time>
      </trkpt>
      <trkpt lat="46.050235703587532" lon="9.018488181754947">
        <ele>1399.53</ele>
        <time>2022-05-01T09:57:07Z</time>
      </trkpt>
      <trkpt lat="46.050288509577513" lon="9.018600834533572">
        <ele>1399.71</ele>
        <time>2022-05-01T09:57:18Z</time>
      </trkpt>
      <trkpt lat="46.050366377457976" lon="9.018749026581645">
        <ele>1397.25</ele>
        <time>2022-05-01T09:57:31Z</time>
      </trkpt>
      <trkpt lat="46.050444664433599" lon="9.018840556964278">
        <ele>1394.74</ele>
        <time>2022-05-01T09:57:42Z</time>
      </trkpt>
      <trkpt lat="46.050453716889024" lon="9.018858410418034">
        <ele>1394.5</ele>
        <time>2022-05-01T09:57:44Z</time>
      </trkpt>
      <trkpt lat="46.050527561455965" lon="9.018960753455758">
        <ele>1392.96</ele>
        <time>2022-05-01T09:57:55Z</time>
      </trkpt>
      <trkpt lat="46.050608111545444" lon="9.01903317309916">
        <ele>1394.24</ele>
        <time>2022-05-01T09:58:10Z</time>
      </trkpt>
      <trkpt lat="46.050617750734091" lon="9.019044991582632">
        <ele>1393.47</ele>
        <time>2022-05-01T09:58:11Z</time>
      </trkpt>
      <trkpt lat="46.050658822059631" lon="9.019091930240393">
        <ele>1392.1300000000001</ele>
        <time>2022-05-01T09:58:15Z</time>
      </trkpt>
      <trkpt lat="46.050702827051282" lon="9.019128978252411">
        <ele>1392.53</ele>
        <time>2022-05-01T09:58:21Z</time>
      </trkpt>
      <trkpt lat="46.050725961104035" lon="9.019161332398653">
        <ele>1392.23</ele>
        <time>2022-05-01T09:58:24Z</time>
      </trkpt>
      <trkpt lat="46.050812881439924" lon="9.019226124510169">
        <ele>1393.24</ele>
        <time>2022-05-01T09:58:36Z</time>
      </trkpt>
      <trkpt lat="46.050843056291342" lon="9.019254371523857">
        <ele>1392.8</ele>
        <time>2022-05-01T09:58:48Z</time>
      </trkpt>
      <trkpt lat="46.050904244184494" lon="9.019308015704155">
        <ele>1393.1300000000001</ele>
        <time>2022-05-01T09:58:59Z</time>
      </trkpt>
      <trkpt lat="46.050949841737747" lon="9.019373059272766">
        <ele>1394.79</ele>
        <time>2022-05-01T09:59:10Z</time>
      </trkpt>
      <trkpt lat="46.050956379622221" lon="9.019383871927857">
        <ele>1394.98</ele>
        <time>2022-05-01T09:59:11Z</time>
      </trkpt>
      <trkpt lat="46.050972305238247" lon="9.019426871091127">
        <ele>1394.9400000000001</ele>
        <time>2022-05-01T09:59:14Z</time>
      </trkpt>
      <trkpt lat="46.051022177562118" lon="9.019495099782944">
        <ele>1395.6900000000001</ele>
        <time>2022-05-01T09:59:23Z</time>
      </trkpt>
      <trkpt lat="46.051085712388158" lon="9.019613284617662">
        <ele>1396.73</ele>
        <time>2022-05-01T09:59:33Z</time>
      </trkpt>
      <trkpt lat="46.051145056262612" lon="9.019665336236358">
        <ele>1396.5899999999999</ele>
        <time>2022-05-01T09:59:38Z</time>
      </trkpt>
      <trkpt lat="46.051298445090652" lon="9.019733397290111">
        <ele>1396.5</ele>
        <time>2022-05-01T09:59:51Z</time>
      </trkpt>
      <trkpt lat="46.051312107592821" lon="9.01984428986907">
        <ele>1394.71</ele>
        <time>2022-05-01T10:00:03Z</time>
      </trkpt>
      <trkpt lat="46.051372122019529" lon="9.019992649555206">
        <ele>1393.98</ele>
        <time>2022-05-01T10:00:14Z</time>
      </trkpt>
      <trkpt lat="46.0514254309237" lon="9.020101698115468">
        <ele>1394.3299999999999</ele>
        <time>2022-05-01T10:00:26Z</time>
      </trkpt>
      <trkpt lat="46.051445715129375" lon="9.020155929028988">
        <ele>1394.98</ele>
        <time>2022-05-01T10:00:42Z</time>
      </trkpt>
      <trkpt lat="46.051452839747071" lon="9.020235976204276">
        <ele>1393.99</ele>
        <time>2022-05-01T10:00:47Z</time>
      </trkpt>
      <trkpt lat="46.051440518349409" lon="9.020325327292085">
        <ele>1394.6400000000001</ele>
        <time>2022-05-01T10:00:54Z</time>
      </trkpt>
      <trkpt lat="46.051475135609508" lon="9.020479135215282">
        <ele>1393.48</ele>
        <time>2022-05-01T10:01:04Z</time>
      </trkpt>
      <trkpt lat="46.0515773948282" lon="9.020659597590566">
        <ele>1394.49</ele>
        <time>2022-05-01T10:01:18Z</time>
      </trkpt>
      <trkpt lat="46.05159105733037" lon="9.020700501278043">
        <ele>1395.22</ele>
        <time>2022-05-01T10:01:22Z</time>
      </trkpt>
      <trkpt lat="46.05162869207561" lon="9.020843077450991">
        <ele>1395.6800000000001</ele>
        <time>2022-05-01T10:01:33Z</time>
      </trkpt>
      <trkpt lat="46.051644282415509" lon="9.020909126847982">
        <ele>1396.48</ele>
        <time>2022-05-01T10:01:38Z</time>
      </trkpt>
      <trkpt lat="46.051651239395142" lon="9.021213138476014">
        <ele>1396.4000000000001</ele>
        <time>2022-05-01T10:01:54Z</time>
      </trkpt>
      <trkpt lat="46.051637660712004" lon="9.021295700222254">
        <ele>1396.95</ele>
        <time>2022-05-01T10:02:03Z</time>
      </trkpt>
      <trkpt lat="46.051631039008498" lon="9.02135512791574">
        <ele>1396.72</ele>
        <time>2022-05-01T10:02:07Z</time>
      </trkpt>
      <trkpt lat="46.051618801429868" lon="9.021515473723412">
        <ele>1395.99</ele>
        <time>2022-05-01T10:02:17Z</time>
      </trkpt>
      <trkpt lat="46.051673786714673" lon="9.021654529497027">
        <ele>1395.2</ele>
        <time>2022-05-01T10:02:28Z</time>
      </trkpt>
      <trkpt lat="46.051767999306321" lon="9.021724853664637">
        <ele>1393.3499999999999</ele>
        <time>2022-05-01T10:02:40Z</time>
      </trkpt>
      <trkpt lat="46.051808316260576" lon="9.021887797862291">
        <ele>1390.46</ele>
        <time>2022-05-01T10:02:54Z</time>
      </trkpt>
      <trkpt lat="46.051818123087287" lon="9.022005815058947">
        <ele>1388.8699999999999</ele>
        <time>2022-05-01T10:03:04Z</time>
      </trkpt>
      <trkpt lat="46.051831869408488" lon="9.022079408168793">
        <ele>1388.2</ele>
        <time>2022-05-01T10:03:08Z</time>
      </trkpt>
      <trkpt lat="46.051908731460571" lon="9.022200610488653">
        <ele>1388.99</ele>
        <time>2022-05-01T10:03:20Z</time>
      </trkpt>
      <trkpt lat="46.051966650411487" lon="9.022251656278968">
        <ele>1388.77</ele>
        <time>2022-05-01T10:03:35Z</time>
      </trkpt>
      <trkpt lat="46.051998334005475" lon="9.022260876372457">
        <ele>1388.22</ele>
        <time>2022-05-01T10:03:48Z</time>
      </trkpt>
      <trkpt lat="46.052014762535691" lon="9.022259535267949">
        <ele>1388.22</ele>
        <time>2022-05-01T10:04:16Z</time>
      </trkpt>
      <trkpt lat="46.052060779184103" lon="9.022265570238233">
        <ele>1387.6700000000001</ele>
        <time>2022-05-01T10:04:33Z</time>
      </trkpt>
      <trkpt lat="46.052042758092284" lon="9.022300774231553">
        <ele>1387.9400000000001</ele>
        <time>2022-05-01T10:04:40Z</time>
      </trkpt>
      <trkpt lat="46.052032951265574" lon="9.022352993488312">
        <ele>1386.5599999999999</ele>
        <time>2022-05-01T10:04:44Z</time>
      </trkpt>
      <trkpt lat="46.052046027034521" lon="9.022405548021197">
        <ele>1384.53</ele>
        <time>2022-05-01T10:04:49Z</time>
      </trkpt>
      <trkpt lat="46.052038231864572" lon="9.02249850332737">
        <ele>1383.3900000000001</ele>
        <time>2022-05-01T10:04:55Z</time>
      </trkpt>
      <trkpt lat="46.0520591866225" lon="9.022600008174777">
        <ele>1383.29</ele>
        <time>2022-05-01T10:05:08Z</time>
      </trkpt>
      <trkpt lat="46.05207335203886" lon="9.022656753659248">
        <ele>1383.2</ele>
        <time>2022-05-01T10:05:21Z</time>
      </trkpt>
      <trkpt lat="46.052068406715989" lon="9.022666728124023">
        <ele>1382.5999999999999</ele>
        <time>2022-05-01T10:05:35Z</time>
      </trkpt>
      <trkpt lat="46.052021300420165" lon="9.022692460566759">
        <ele>1382.6500000000001</ele>
        <time>2022-05-01T10:05:53Z</time>
      </trkpt>
      <trkpt lat="46.052015768364072" lon="9.022716181352735">
        <ele>1382.3599999999999</ele>
        <time>2022-05-01T10:05:55Z</time>
      </trkpt>
      <trkpt lat="46.052007135003805" lon="9.022817350924015">
        <ele>1383.48</ele>
        <time>2022-05-01T10:06:06Z</time>
      </trkpt>
      <trkpt lat="46.052054492756724" lon="9.022924136370421">
        <ele>1385</ele>
        <time>2022-05-01T10:06:21Z</time>
      </trkpt>
      <trkpt lat="46.052065892145038" lon="9.023038716986775">
        <ele>1386.5599999999999</ele>
        <time>2022-05-01T10:06:31Z</time>
      </trkpt>
      <trkpt lat="46.052087601274252" lon="9.023170145228505">
        <ele>1387.45</ele>
        <time>2022-05-01T10:06:43Z</time>
      </trkpt>
      <trkpt lat="46.05212171562016" lon="9.023238960653544">
        <ele>1387.9000000000001</ele>
        <time>2022-05-01T10:06:47Z</time>
      </trkpt>
      <trkpt lat="46.052137976512313" lon="9.023355972021818">
        <ele>1389.1199999999999</ele>
        <time>2022-05-01T10:07:00Z</time>
      </trkpt>
      <trkpt lat="46.052178796380758" lon="9.023526879027486">
        <ele>1391.1600000000001</ele>
        <time>2022-05-01T10:07:17Z</time>
      </trkpt>
      <trkpt lat="46.052195308730006" lon="9.023578930646181">
        <ele>1391.5799999999999</ele>
        <time>2022-05-01T10:07:22Z</time>
      </trkpt>
      <trkpt lat="46.052195224910975" lon="9.023687979206443">
        <ele>1390.46</ele>
        <time>2022-05-01T10:07:31Z</time>
      </trkpt>
      <trkpt lat="46.052184160798788" lon="9.023902639746666">
        <ele>1390.8199999999999</ele>
        <time>2022-05-01T10:07:47Z</time>
      </trkpt>
      <trkpt lat="46.052235458046198" lon="9.02407044544816">
        <ele>1391.47</ele>
        <time>2022-05-01T10:08:00Z</time>
      </trkpt>
      <trkpt lat="46.052280217409134" lon="9.024242693558335">
        <ele>1393.02</ele>
        <time>2022-05-01T10:08:14Z</time>
      </trkpt>
      <trkpt lat="46.052340064197779" lon="9.024304132908583">
        <ele>1395.0599999999999</ele>
        <time>2022-05-01T10:08:25Z</time>
      </trkpt>
      <trkpt lat="46.052340567111969" lon="9.024356603622437">
        <ele>1394.51</ele>
        <time>2022-05-01T10:08:28Z</time>
      </trkpt>
      <trkpt lat="46.052345763891935" lon="9.024496665224433">
        <ele>1393.52</ele>
        <time>2022-05-01T10:08:38Z</time>
      </trkpt>
      <trkpt lat="46.052372753620148" lon="9.024616945534945">
        <ele>1394.7</ele>
        <time>2022-05-01T10:08:49Z</time>
      </trkpt>
      <trkpt lat="46.052383650094271" lon="9.024667907506228">
        <ele>1395.01</ele>
        <time>2022-05-01T10:09:06Z</time>
      </trkpt>
      <trkpt lat="46.052391864359379" lon="9.024747619405389">
        <ele>1395.4300000000001</ele>
        <time>2022-05-01T10:09:21Z</time>
      </trkpt>
      <trkpt lat="46.05242220684886" lon="9.024807801470161">
        <ele>1395.1900000000001</ele>
        <time>2022-05-01T10:09:34Z</time>
      </trkpt>
      <trkpt lat="46.05244274251163" lon="9.024836383759975">
        <ele>1395.8900000000001</ele>
        <time>2022-05-01T10:09:45Z</time>
      </trkpt>
      <trkpt lat="46.052445424720645" lon="9.024796150624752">
        <ele>1394.8399999999999</ele>
        <time>2022-05-01T10:10:01Z</time>
      </trkpt>
      <trkpt lat="46.05242564342916" lon="9.024778800085187">
        <ele>1396.0699999999999</ele>
        <time>2022-05-01T10:10:18Z</time>
      </trkpt>
      <trkpt lat="46.05241977609694" lon="9.024782488122582">
        <ele>1395.8900000000001</ele>
        <time>2022-05-01T10:10:35Z</time>
      </trkpt>
      <trkpt lat="46.052417429164052" lon="9.024776117876172">
        <ele>1395.6300000000001</ele>
        <time>2022-05-01T10:10:41Z</time>
      </trkpt>
      <trkpt lat="46.052392534911633" lon="9.024743512272835">
        <ele>1394.98</ele>
        <time>2022-05-01T10:11:04Z</time>
      </trkpt>
      <trkpt lat="46.052387673407793" lon="9.024735381826758">
        <ele>1395.3800000000001</ele>
        <time>2022-05-01T10:11:25Z</time>
      </trkpt>
      <trkpt lat="46.052364036440849" lon="9.024700010195375">
        <ele>1395.4200000000001</ele>
        <time>2022-05-01T10:11:47Z</time>
      </trkpt>
      <trkpt lat="46.052389265969396" lon="9.024712163954973">
        <ele>1395.6199999999999</ele>
        <time>2022-05-01T10:12:16Z</time>
      </trkpt>
      <trkpt lat="46.052391193807125" lon="9.02474032714963">
        <ele>1395.6500000000001</ele>
        <time>2022-05-01T10:12:42Z</time>
      </trkpt>
      <trkpt lat="46.05240317992866" lon="9.024765472859144">
        <ele>1395.7</ele>
        <time>2022-05-01T10:13:02Z</time>
      </trkpt>
      <trkpt lat="46.052400330081582" lon="9.024755414575338">
        <ele>1395.72</ele>
        <time>2022-05-01T10:13:22Z</time>
      </trkpt>
      <trkpt lat="46.052417512983084" lon="9.024767484515905">
        <ele>1395.8199999999999</ele>
        <time>2022-05-01T10:13:28Z</time>
      </trkpt>
      <trkpt lat="46.052415333688259" lon="9.024754744023085">
        <ele>1396.52</ele>
        <time>2022-05-01T10:13:52Z</time>
      </trkpt>
      <trkpt lat="46.052420698106289" lon="9.024781482294202">
        <ele>1396.53</ele>
        <time>2022-05-01T10:14:17Z</time>
      </trkpt>
      <trkpt lat="46.052424050867558" lon="9.024780141189694">
        <ele>1396.8199999999999</ele>
        <time>2022-05-01T10:14:38Z</time>
      </trkpt>
      <trkpt lat="46.052402844652534" lon="9.024785170331597">
        <ele>1396.6800000000001</ele>
        <time>2022-05-01T10:14:54Z</time>
      </trkpt>
      <trkpt lat="46.052403431385756" lon="9.024762623012066">
        <ele>1396.95</ele>
        <time>2022-05-01T10:15:17Z</time>
      </trkpt>
      <trkpt lat="46.052409131079912" lon="9.024753570556641">
        <ele>1397.6099999999999</ele>
        <time>2022-05-01T10:15:37Z</time>
      </trkpt>
      <trkpt lat="46.05246621184051" lon="9.024909473955631">
        <ele>1399.1700000000001</ele>
        <time>2022-05-01T10:15:53Z</time>
      </trkpt>
      <trkpt lat="46.052471743896604" lon="9.025098150596023">
        <ele>1400.8099999999999</ele>
        <time>2022-05-01T10:16:13Z</time>
      </trkpt>
      <trkpt lat="46.052465960383415" lon="9.025298729538918">
        <ele>1400.77</ele>
        <time>2022-05-01T10:16:26Z</time>
      </trkpt>
      <trkpt lat="46.052467469125986" lon="9.025311972945929">
        <ele>1400.71</ele>
        <time>2022-05-01T10:16:27Z</time>
      </trkpt>
      <trkpt lat="46.052460931241512" lon="9.025467876344919">
        <ele>1401.49</ele>
        <time>2022-05-01T10:16:37Z</time>
      </trkpt>
      <trkpt lat="46.052453638985753" lon="9.025594526901841">
        <ele>1402.4400000000001</ele>
        <time>2022-05-01T10:16:48Z</time>
      </trkpt>
      <trkpt lat="46.052480963990092" lon="9.025771217420697">
        <ele>1404.02</ele>
        <time>2022-05-01T10:17:05Z</time>
      </trkpt>
      <trkpt lat="46.052524549886584" lon="9.02589057572186">
        <ele>1406.3800000000001</ele>
        <time>2022-05-01T10:17:20Z</time>
      </trkpt>
      <trkpt lat="46.05255707167089" lon="9.026065757498145">
        <ele>1408.04</ele>
        <time>2022-05-01T10:17:35Z</time>
      </trkpt>
      <trkpt lat="46.052633682265878" lon="9.026179416105151">
        <ele>1409.77</ele>
        <time>2022-05-01T10:17:50Z</time>
      </trkpt>
      <trkpt lat="46.052672909572721" lon="9.026319645345211">
        <ele>1411.49</ele>
        <time>2022-05-01T10:18:05Z</time>
      </trkpt>
      <trkpt lat="46.05270660482347" lon="9.026389718055725">
        <ele>1412.6600000000001</ele>
        <time>2022-05-01T10:18:13Z</time>
      </trkpt>
      <trkpt lat="46.052779778838158" lon="9.026474542915821">
        <ele>1414.3699999999999</ele>
        <time>2022-05-01T10:18:28Z</time>
      </trkpt>
      <trkpt lat="46.052766032516956" lon="9.026626003906131">
        <ele>1416.78</ele>
        <time>2022-05-01T10:18:44Z</time>
      </trkpt>
      <trkpt lat="46.052836272865534" lon="9.026690209284425">
        <ele>1419.4300000000001</ele>
        <time>2022-05-01T10:19:01Z</time>
      </trkpt>
      <trkpt lat="46.052884887903929" lon="9.026781739667058">
        <ele>1420.99</ele>
        <time>2022-05-01T10:19:17Z</time>
      </trkpt>
      <trkpt lat="46.052924450486898" lon="9.026919370517135">
        <ele>1424.05</ele>
        <time>2022-05-01T10:19:38Z</time>
      </trkpt>
      <trkpt lat="46.052923360839486" lon="9.027015259489417">
        <ele>1426.76</ele>
        <time>2022-05-01T10:19:53Z</time>
      </trkpt>
      <trkpt lat="46.052921684458852" lon="9.027124894782901">
        <ele>1429.3099999999999</ele>
        <time>2022-05-01T10:20:10Z</time>
      </trkpt>
      <trkpt lat="46.052974993363023" lon="9.027267387136817">
        <ele>1432.4100000000001</ele>
        <time>2022-05-01T10:20:30Z</time>
      </trkpt>
      <trkpt lat="46.052987650036812" lon="9.027386326342821">
        <ele>1434.71</ele>
        <time>2022-05-01T10:20:44Z</time>
      </trkpt>
      <trkpt lat="46.053011706098914" lon="9.027448184788227">
        <ele>1437.9100000000001</ele>
        <time>2022-05-01T10:20:55Z</time>
      </trkpt>
      <trkpt lat="46.053027464076877" lon="9.027595790103078">
        <ele>1439.6900000000001</ele>
        <time>2022-05-01T10:21:08Z</time>
      </trkpt>
      <trkpt lat="46.05303056538105" lon="9.027704754844308">
        <ele>1440.6700000000001</ele>
        <time>2022-05-01T10:21:20Z</time>
      </trkpt>
      <trkpt lat="46.052996870130301" lon="9.027809863910079">
        <ele>1441.24</ele>
        <time>2022-05-01T10:21:33Z</time>
      </trkpt>
      <trkpt lat="46.052985554561019" lon="9.027947913855314">
        <ele>1440.1900000000001</ele>
        <time>2022-05-01T10:21:45Z</time>
      </trkpt>
      <trkpt lat="46.052997708320618" lon="9.02810113504529">
        <ele>1439.6400000000001</ele>
        <time>2022-05-01T10:21:56Z</time>
      </trkpt>
      <trkpt lat="46.052997037768364" lon="9.028112953528762">
        <ele>1439.6700000000001</ele>
        <time>2022-05-01T10:21:57Z</time>
      </trkpt>
      <trkpt lat="46.052987230941653" lon="9.028284950181842">
        <ele>1439.98</ele>
        <time>2022-05-01T10:22:08Z</time>
      </trkpt>
      <trkpt lat="46.052975412458181" lon="9.028472872450948">
        <ele>1441.99</ele>
        <time>2022-05-01T10:22:22Z</time>
      </trkpt>
      <trkpt lat="46.053024781867862" lon="9.028612431138754">
        <ele>1442.8800000000001</ele>
        <time>2022-05-01T10:22:36Z</time>
      </trkpt>
      <trkpt lat="46.053074905648828" lon="9.028757018968463">
        <ele>1443.8699999999999</ele>
        <time>2022-05-01T10:22:49Z</time>
      </trkpt>
      <trkpt lat="46.05312435887754" lon="9.028839999809861">
        <ele>1444.0999999999999</ele>
        <time>2022-05-01T10:22:58Z</time>
      </trkpt>
      <trkpt lat="46.053137267008424" lon="9.028979390859604">
        <ele>1444.8399999999999</ele>
        <time>2022-05-01T10:23:11Z</time>
      </trkpt>
      <trkpt lat="46.053159981966019" lon="9.029108472168446">
        <ele>1446.26</ele>
        <time>2022-05-01T10:23:28Z</time>
      </trkpt>
      <trkpt lat="46.053141290321946" lon="9.029196063056588">
        <ele>1445.8699999999999</ele>
        <time>2022-05-01T10:23:41Z</time>
      </trkpt>
      <trkpt lat="46.053109103813767" lon="9.029283067211509">
        <ele>1446.1900000000001</ele>
        <time>2022-05-01T10:23:55Z</time>
      </trkpt>
      <trkpt lat="46.053140619769692" lon="9.029385829344392">
        <ele>1446.99</ele>
        <time>2022-05-01T10:24:12Z</time>
      </trkpt>
      <trkpt lat="46.053136680275202" lon="9.029514910653234">
        <ele>1448.95</ele>
        <time>2022-05-01T10:24:26Z</time>
      </trkpt>
      <trkpt lat="46.053175404667854" lon="9.029606692492962">
        <ele>1452.21</ele>
        <time>2022-05-01T10:24:42Z</time>
      </trkpt>
      <trkpt lat="46.053248746320605" lon="9.029674669727683">
        <ele>1455.3199999999999</ele>
        <time>2022-05-01T10:24:57Z</time>
      </trkpt>
      <trkpt lat="46.053309515118599" lon="9.029745664447546">
        <ele>1458.29</ele>
        <time>2022-05-01T10:25:15Z</time>
      </trkpt>
      <trkpt lat="46.053371205925941" lon="9.029774582013488">
        <ele>1460.6099999999999</ele>
        <time>2022-05-01T10:25:30Z</time>
      </trkpt>
      <trkpt lat="46.05344002135098" lon="9.029734265059233">
        <ele>1460.99</ele>
        <time>2022-05-01T10:25:46Z</time>
      </trkpt>
      <trkpt lat="46.053460305556655" lon="9.029768630862236">
        <ele>1464.1199999999999</ele>
        <time>2022-05-01T10:26:03Z</time>
      </trkpt>
      <trkpt lat="46.053410433232784" lon="9.029857981950045">
        <ele>1466.3800000000001</ele>
        <time>2022-05-01T10:26:21Z</time>
      </trkpt>
      <trkpt lat="46.05344831943512" lon="9.02991003356874">
        <ele>1469.0799999999999</ele>
        <time>2022-05-01T10:26:37Z</time>
      </trkpt>
      <trkpt lat="46.053513698279858" lon="9.029941130429506">
        <ele>1472.27</ele>
        <time>2022-05-01T10:26:54Z</time>
      </trkpt>
      <trkpt lat="46.053587207570672" lon="9.029952613636851">
        <ele>1474.99</ele>
        <time>2022-05-01T10:27:09Z</time>
      </trkpt>
      <trkpt lat="46.053647138178349" lon="9.030057471245527">
        <ele>1476.49</ele>
        <time>2022-05-01T10:27:24Z</time>
      </trkpt>
      <trkpt lat="46.053692568093538" lon="9.030156964436173">
        <ele>1474.3699999999999</ele>
        <time>2022-05-01T10:27:35Z</time>
      </trkpt>
      <trkpt lat="46.053748726844788" lon="9.03023449704051">
        <ele>1472.2</ele>
        <time>2022-05-01T10:27:47Z</time>
      </trkpt>
      <trkpt lat="46.05380647815764" lon="9.030313789844513">
        <ele>1469.1600000000001</ele>
        <time>2022-05-01T10:27:57Z</time>
      </trkpt>
      <trkpt lat="46.053847130388021" lon="9.030381767079234">
        <ele>1467.8800000000001</ele>
        <time>2022-05-01T10:28:07Z</time>
      </trkpt>
      <trkpt lat="46.053850902244449" lon="9.030393669381738">
        <ele>1468.05</ele>
        <time>2022-05-01T10:28:12Z</time>
      </trkpt>
      <trkpt lat="46.053885603323579" lon="9.0304802544415">
        <ele>1467.4100000000001</ele>
        <time>2022-05-01T10:28:21Z</time>
      </trkpt>
      <trkpt lat="46.053897505626082" lon="9.030556697398424">
        <ele>1465.8900000000001</ele>
        <time>2022-05-01T10:28:31Z</time>
      </trkpt>
      <trkpt lat="46.053900020197034" lon="9.030563151463866">
        <ele>1466.1400000000001</ele>
        <time>2022-05-01T10:28:35Z</time>
      </trkpt>
      <trkpt lat="46.053923740983009" lon="9.030595673248172">
        <ele>1466.25</ele>
        <time>2022-05-01T10:28:39Z</time>
      </trkpt>
      <trkpt lat="46.053989119827747" lon="9.03066105209291">
        <ele>1467.1600000000001</ele>
        <time>2022-05-01T10:28:50Z</time>
      </trkpt>
      <trkpt lat="46.054027592763305" lon="9.030742859467864">
        <ele>1464.7</ele>
        <time>2022-05-01T10:29:02Z</time>
      </trkpt>
      <trkpt lat="46.054050140082836" lon="9.030784349888563">
        <ele>1464.02</ele>
        <time>2022-05-01T10:29:17Z</time>
      </trkpt>
      <trkpt lat="46.054109986871481" lon="9.03090194799006">
        <ele>1460.7</ele>
        <time>2022-05-01T10:29:28Z</time>
      </trkpt>
      <trkpt lat="46.054115602746606" lon="9.030910832807422">
        <ele>1460.5899999999999</ele>
        <time>2022-05-01T10:29:29Z</time>
      </trkpt>
      <trkpt lat="46.054212162271142" lon="9.031018540263176">
        <ele>1459.9300000000001</ele>
        <time>2022-05-01T10:29:42Z</time>
      </trkpt>
      <trkpt lat="46.054269913583994" lon="9.031094899401069">
        <ele>1459.6600000000001</ele>
        <time>2022-05-01T10:29:53Z</time>
      </trkpt>
      <trkpt lat="46.054291874170303" lon="9.031204115599394">
        <ele>1457.74</ele>
        <time>2022-05-01T10:30:05Z</time>
      </trkpt>
      <trkpt lat="46.054298244416714" lon="9.031199421733618">
        <ele>1456.8800000000001</ele>
        <time>2022-05-01T10:30:15Z</time>
      </trkpt>
      <trkpt lat="46.054310230538249" lon="9.031208558008075">
        <ele>1455.5</ele>
        <time>2022-05-01T10:30:19Z</time>
      </trkpt>
      <trkpt lat="46.054352642968297" lon="9.031251221895218">
        <ele>1454.3599999999999</ele>
        <time>2022-05-01T10:30:29Z</time>
      </trkpt>
      <trkpt lat="46.054362533614039" lon="9.031264884397388">
        <ele>1454.3099999999999</ele>
        <time>2022-05-01T10:30:46Z</time>
      </trkpt>
      <trkpt lat="46.054401341825724" lon="9.031261615455151">
        <ele>1454.1199999999999</ele>
        <time>2022-05-01T10:30:58Z</time>
      </trkpt>
      <trkpt lat="46.054388182237744" lon="9.031302938237786">
        <ele>1453.45</ele>
        <time>2022-05-01T10:31:12Z</time>
      </trkpt>
      <trkpt lat="46.054442161694169" lon="9.031344261020422">
        <ele>1450.9200000000001</ele>
        <time>2022-05-01T10:31:23Z</time>
      </trkpt>
      <trkpt lat="46.054465798661113" lon="9.031366053968668">
        <ele>1450.02</ele>
        <time>2022-05-01T10:31:37Z</time>
      </trkpt>
      <trkpt lat="46.054465128108859" lon="9.031391115859151">
        <ele>1448.98</ele>
        <time>2022-05-01T10:31:54Z</time>
      </trkpt>
      <trkpt lat="46.054457081481814" lon="9.031439479440451">
        <ele>1446.9400000000001</ele>
        <time>2022-05-01T10:32:04Z</time>
      </trkpt>
      <trkpt lat="46.054427828639746" lon="9.031462948769331">
        <ele>1445.5699999999999</ele>
        <time>2022-05-01T10:32:15Z</time>
      </trkpt>
      <trkpt lat="46.054412992671132" lon="9.031444005668163">
        <ele>1445.5899999999999</ele>
        <time>2022-05-01T10:32:32Z</time>
      </trkpt>
      <trkpt lat="46.05443294160068" lon="9.031445095315576">
        <ele>1445.5599999999999</ele>
        <time>2022-05-01T10:32:55Z</time>
      </trkpt>
      <trkpt lat="46.054447609931231" lon="9.031451130285859">
        <ele>1445.77</ele>
        <time>2022-05-01T10:33:14Z</time>
      </trkpt>
      <trkpt lat="46.054455153644085" lon="9.031444508582354">
        <ele>1445.8599999999999</ele>
        <time>2022-05-01T10:33:32Z</time>
      </trkpt>
      <trkpt lat="46.054449202492833" lon="9.031438725069165">
        <ele>1445.74</ele>
        <time>2022-05-01T10:33:51Z</time>
      </trkpt>
      <trkpt lat="46.054452136158943" lon="9.031440485268831">
        <ele>1445.9300000000001</ele>
        <time>2022-05-01T10:34:12Z</time>
      </trkpt>
      <trkpt lat="46.054466888308525" lon="9.031448950991035">
        <ele>1446.2</ele>
        <time>2022-05-01T10:34:35Z</time>
      </trkpt>
      <trkpt lat="46.054457416757941" lon="9.031449453905225">
        <ele>1446.6500000000001</ele>
        <time>2022-05-01T10:34:58Z</time>
      </trkpt>
      <trkpt lat="46.054445514455438" lon="9.031462278217077">
        <ele>1446.8299999999999</ele>
        <time>2022-05-01T10:35:28Z</time>
      </trkpt>
      <trkpt lat="46.054425816982985" lon="9.031452219933271">
        <ele>1445.8399999999999</ele>
        <time>2022-05-01T10:35:51Z</time>
      </trkpt>
      <trkpt lat="46.054432271048427" lon="9.031424811109901">
        <ele>1446.55</ele>
        <time>2022-05-01T10:36:12Z</time>
      </trkpt>
      <trkpt lat="46.054437132552266" lon="9.031437635421753">
        <ele>1446.46</ele>
        <time>2022-05-01T10:36:31Z</time>
      </trkpt>
      <trkpt lat="46.054455321282148" lon="9.03147510252893">
        <ele>1445.6600000000001</ele>
        <time>2022-05-01T10:36:44Z</time>
      </trkpt>
      <trkpt lat="46.054507791996002" lon="9.031552383676171">
        <ele>1444.3900000000001</ele>
        <time>2022-05-01T10:36:57Z</time>
      </trkpt>
      <trkpt lat="46.054556490853429" lon="9.031583899632096">
        <ele>1443.7</ele>
        <time>2022-05-01T10:37:13Z</time>
      </trkpt>
      <trkpt lat="46.054585995152593" lon="9.031603429466486">
        <ele>1442.6900000000001</ele>
        <time>2022-05-01T10:37:19Z</time>
      </trkpt>
      <trkpt lat="46.054602591320872" lon="9.03166713193059">
        <ele>1439.6800000000001</ele>
        <time>2022-05-01T10:37:29Z</time>
      </trkpt>
      <trkpt lat="46.054607955738902" lon="9.031685572117567">
        <ele>1439.1199999999999</ele>
        <time>2022-05-01T10:37:31Z</time>
      </trkpt>
      <trkpt lat="46.054633688181639" lon="9.031743826344609">
        <ele>1437.1800000000001</ele>
        <time>2022-05-01T10:37:37Z</time>
      </trkpt>
      <trkpt lat="46.054649194702506" lon="9.031756483018398">
        <ele>1436.6800000000001</ele>
        <time>2022-05-01T10:37:39Z</time>
      </trkpt>
      <trkpt lat="46.054697390645742" lon="9.03180736117065">
        <ele>1435.8900000000001</ele>
        <time>2022-05-01T10:37:51Z</time>
      </trkpt>
      <trkpt lat="46.05472412891686" lon="9.031834183260799">
        <ele>1435.1300000000001</ele>
        <time>2022-05-01T10:37:58Z</time>
      </trkpt>
      <trkpt lat="46.054746760055423" lon="9.031876344233751">
        <ele>1434.02</ele>
        <time>2022-05-01T10:38:01Z</time>
      </trkpt>
      <trkpt lat="46.05479696765542" lon="9.031942896544933">
        <ele>1432.4300000000001</ele>
        <time>2022-05-01T10:38:07Z</time>
      </trkpt>
      <trkpt lat="46.05479990132153" lon="9.032095447182655">
        <ele>1430.1900000000001</ele>
        <time>2022-05-01T10:38:17Z</time>
      </trkpt>
      <trkpt lat="46.054821358993649" lon="9.03217876330018">
        <ele>1429.8499999999999</ele>
        <time>2022-05-01T10:38:27Z</time>
      </trkpt>
      <trkpt lat="46.054840469732881" lon="9.032228719443083">
        <ele>1428.5899999999999</ele>
        <time>2022-05-01T10:38:42Z</time>
      </trkpt>
      <trkpt lat="46.054869974032044" lon="9.03226912021637">
        <ele>1425.9300000000001</ele>
        <time>2022-05-01T10:38:55Z</time>
      </trkpt>
      <trkpt lat="46.054905178025365" lon="9.032326536253095">
        <ele>1422.71</ele>
        <time>2022-05-01T10:39:08Z</time>
      </trkpt>
      <trkpt lat="46.054960917681456" lon="9.03237221762538">
        <ele>1421.5699999999999</ele>
        <time>2022-05-01T10:39:17Z</time>
      </trkpt>
      <trkpt lat="46.054998133331537" lon="9.032437177374959">
        <ele>1419.5699999999999</ele>
        <time>2022-05-01T10:39:22Z</time>
      </trkpt>
      <trkpt lat="46.055078767240047" lon="9.032468693330884">
        <ele>1421.74</ele>
        <time>2022-05-01T10:39:37Z</time>
      </trkpt>
      <trkpt lat="46.055090585723519" lon="9.032446900382638">
        <ele>1421.78</ele>
        <time>2022-05-01T10:39:50Z</time>
      </trkpt>
      <trkpt lat="46.05515512637794" lon="9.032396273687482">
        <ele>1419.9000000000001</ele>
        <time>2022-05-01T10:40:05Z</time>
      </trkpt>
      <trkpt lat="46.055191420018673" lon="9.032406415790319">
        <ele>1419.49</ele>
        <time>2022-05-01T10:40:16Z</time>
      </trkpt>
      <trkpt lat="46.055255373939872" lon="9.032429717481136">
        <ele>1418.3099999999999</ele>
        <time>2022-05-01T10:40:30Z</time>
      </trkpt>
      <trkpt lat="46.055300636216998" lon="9.032482774928212">
        <ele>1416.54</ele>
        <time>2022-05-01T10:40:42Z</time>
      </trkpt>
      <trkpt lat="46.055339947342873" lon="9.032582603394985">
        <ele>1415.5999999999999</ele>
        <time>2022-05-01T10:40:57Z</time>
      </trkpt>
      <trkpt lat="46.05537892319262" lon="9.032662063837051">
        <ele>1414.6500000000001</ele>
        <time>2022-05-01T10:41:04Z</time>
      </trkpt>
      <trkpt lat="46.055440446361899" lon="9.032795336097479">
        <ele>1413.98</ele>
        <time>2022-05-01T10:41:17Z</time>
      </trkpt>
      <trkpt lat="46.055465005338192" lon="9.032872868701816">
        <ele>1413.4000000000001</ele>
        <time>2022-05-01T10:41:23Z</time>
      </trkpt>
      <trkpt lat="46.055511608719826" lon="9.032989209517837">
        <ele>1411.1900000000001</ele>
        <time>2022-05-01T10:41:36Z</time>
      </trkpt>
      <trkpt lat="46.05555284768343" lon="9.033079231157899">
        <ele>1408.1400000000001</ele>
        <time>2022-05-01T10:41:49Z</time>
      </trkpt>
      <trkpt lat="46.055668517947197" lon="9.033265309408307">
        <ele>1405.6400000000001</ele>
        <time>2022-05-01T10:42:10Z</time>
      </trkpt>
      <trkpt lat="46.05575074441731" lon="9.03321610763669">
        <ele>1404.4400000000001</ele>
        <time>2022-05-01T10:42:21Z</time>
      </trkpt>
      <trkpt lat="46.055842861533165" lon="9.033160367980599">
        <ele>1402.95</ele>
        <time>2022-05-01T10:42:33Z</time>
      </trkpt>
      <trkpt lat="46.055951826274395" lon="9.033161038532853">
        <ele>1400.4400000000001</ele>
        <time>2022-05-01T10:42:45Z</time>
      </trkpt>
      <trkpt lat="46.056061126291752" lon="9.033204624429345">
        <ele>1398.6300000000001</ele>
        <time>2022-05-01T10:42:56Z</time>
      </trkpt>
      <trkpt lat="46.056107981130481" lon="9.033220047131181">
        <ele>1396.8199999999999</ele>
        <time>2022-05-01T10:43:03Z</time>
      </trkpt>
      <trkpt lat="46.056132623925805" lon="9.033229518681765">
        <ele>1396.53</ele>
        <time>2022-05-01T10:43:05Z</time>
      </trkpt>
      <trkpt lat="46.056245528161526" lon="9.03332800604403">
        <ele>1396.0799999999999</ele>
        <time>2022-05-01T10:43:17Z</time>
      </trkpt>
      <trkpt lat="46.056326916441321" lon="9.033411657437682">
        <ele>1395.25</ele>
        <time>2022-05-01T10:43:28Z</time>
      </trkpt>
      <trkpt lat="46.056345356628299" lon="9.033482065424323">
        <ele>1395.3199999999999</ele>
        <time>2022-05-01T10:43:34Z</time>
      </trkpt>
      <trkpt lat="46.056383494287729" lon="9.033564459532499">
        <ele>1395.1199999999999</ele>
        <time>2022-05-01T10:43:44Z</time>
      </trkpt>
      <trkpt lat="46.056434791535139" lon="9.033684488385916">
        <ele>1394.3599999999999</ele>
        <time>2022-05-01T10:43:55Z</time>
      </trkpt>
      <trkpt lat="46.056492794305086" lon="9.03380292467773">
        <ele>1391.3199999999999</ele>
        <time>2022-05-01T10:44:07Z</time>
      </trkpt>
      <trkpt lat="46.056560855358839" lon="9.033940555527806">
        <ele>1388.7</ele>
        <time>2022-05-01T10:44:18Z</time>
      </trkpt>
      <trkpt lat="46.056630257517099" lon="9.03404725715518">
        <ele>1386.6400000000001</ele>
        <time>2022-05-01T10:44:28Z</time>
      </trkpt>
      <trkpt lat="46.056649703532457" lon="9.034157730638981">
        <ele>1387.48</ele>
        <time>2022-05-01T10:44:38Z</time>
      </trkpt>
      <trkpt lat="46.056670239195228" lon="9.034189246594906">
        <ele>1387.49</ele>
        <time>2022-05-01T10:44:41Z</time>
      </trkpt>
      <trkpt lat="46.056740395724773" lon="9.034323273226619">
        <ele>1387.8599999999999</ele>
        <time>2022-05-01T10:44:53Z</time>
      </trkpt>
      <trkpt lat="46.05678272433579" lon="9.034391501918435">
        <ele>1389.8299999999999</ele>
        <time>2022-05-01T10:45:05Z</time>
      </trkpt>
      <trkpt lat="46.056823963299394" lon="9.034508932381868">
        <ele>1390.5899999999999</ele>
        <time>2022-05-01T10:45:18Z</time>
      </trkpt>
      <trkpt lat="46.056843493133783" lon="9.034533994272351">
        <ele>1390.3599999999999</ele>
        <time>2022-05-01T10:45:20Z</time>
      </trkpt>
      <trkpt lat="46.056888587772846" lon="9.034662740305066">
        <ele>1391.1900000000001</ele>
        <time>2022-05-01T10:45:31Z</time>
      </trkpt>
      <trkpt lat="46.056942315772176" lon="9.034739602357149">
        <ele>1391.47</ele>
        <time>2022-05-01T10:45:39Z</time>
      </trkpt>
      <trkpt lat="46.057007275521755" lon="9.034832809120417">
        <ele>1391.3099999999999</ele>
        <time>2022-05-01T10:45:48Z</time>
      </trkpt>
      <trkpt lat="46.057089921087027" lon="9.034892823547125">
        <ele>1389.24</ele>
        <time>2022-05-01T10:46:00Z</time>
      </trkpt>
      <trkpt lat="46.057154377922416" lon="9.034977396950126">
        <ele>1390.0899999999999</ele>
        <time>2022-05-01T10:46:11Z</time>
      </trkpt>
      <trkpt lat="46.057241717353463" lon="9.035050235688686">
        <ele>1389.03</ele>
        <time>2022-05-01T10:46:23Z</time>
      </trkpt>
      <trkpt lat="46.057291757315397" lon="9.035158026963472">
        <ele>1388.45</ele>
        <time>2022-05-01T10:46:34Z</time>
      </trkpt>
      <trkpt lat="46.057299384847283" lon="9.035165403038263">
        <ele>1388.3299999999999</ele>
        <time>2022-05-01T10:46:35Z</time>
      </trkpt>
      <trkpt lat="46.057358225807548" lon="9.035276463255286">
        <ele>1387.29</ele>
        <time>2022-05-01T10:46:46Z</time>
      </trkpt>
      <trkpt lat="46.057401979342103" lon="9.035348799079657">
        <ele>1386.52</ele>
        <time>2022-05-01T10:46:53Z</time>
      </trkpt>
      <trkpt lat="46.057473476976156" lon="9.035466900095344">
        <ele>1384.5</ele>
        <time>2022-05-01T10:47:05Z</time>
      </trkpt>
      <trkpt lat="46.057527372613549" lon="9.035523226484656">
        <ele>1384.74</ele>
        <time>2022-05-01T10:47:12Z</time>
      </trkpt>
      <trkpt lat="46.057571712881327" lon="9.035546109080315">
        <ele>1385.27</ele>
        <time>2022-05-01T10:47:16Z</time>
      </trkpt>
      <trkpt lat="46.057633152231574" lon="9.035648619756103">
        <ele>1383.3399999999999</ele>
        <time>2022-05-01T10:47:26Z</time>
      </trkpt>
      <trkpt lat="46.057681431993842" lon="9.035757835954428">
        <ele>1382.5999999999999</ele>
        <time>2022-05-01T10:47:36Z</time>
      </trkpt>
      <trkpt lat="46.057714205235243" lon="9.035874512046576">
        <ele>1382.8800000000001</ele>
        <time>2022-05-01T10:47:47Z</time>
      </trkpt>
      <trkpt lat="46.057726526632905" lon="9.035909129306674">
        <ele>1383.0699999999999</ele>
        <time>2022-05-01T10:47:50Z</time>
      </trkpt>
      <trkpt lat="46.057721581310034" lon="9.036019435152412">
        <ele>1385.1400000000001</ele>
        <time>2022-05-01T10:48:02Z</time>
      </trkpt>
      <trkpt lat="46.057717390358448" lon="9.036106690764427">
        <ele>1386.54</ele>
        <time>2022-05-01T10:48:12Z</time>
      </trkpt>
      <trkpt lat="46.057733902707696" lon="9.036164861172438">
        <ele>1387.3599999999999</ele>
        <time>2022-05-01T10:48:22Z</time>
      </trkpt>
      <trkpt lat="46.057761060073972" lon="9.036273490637541">
        <ele>1388.1199999999999</ele>
        <time>2022-05-01T10:48:35Z</time>
      </trkpt>
      <trkpt lat="46.05782057158649" lon="9.036351274698973">
        <ele>1386.9400000000001</ele>
        <time>2022-05-01T10:48:44Z</time>
      </trkpt>
      <trkpt lat="46.057835659012198" lon="9.036384802311659">
        <ele>1386.9200000000001</ele>
        <time>2022-05-01T10:48:47Z</time>
      </trkpt>
      <trkpt lat="46.057845717296004" lon="9.036529725417495">
        <ele>1387.02</ele>
        <time>2022-05-01T10:48:59Z</time>
      </trkpt>
      <trkpt lat="46.057866420596838" lon="9.036608682945371">
        <ele>1386.5</ele>
        <time>2022-05-01T10:49:06Z</time>
      </trkpt>
      <trkpt lat="46.05788754299283" lon="9.036689987406135">
        <ele>1386.4000000000001</ele>
        <time>2022-05-01T10:49:14Z</time>
      </trkpt>
      <trkpt lat="46.057923249900341" lon="9.036785289645195">
        <ele>1386.3299999999999</ele>
        <time>2022-05-01T10:49:23Z</time>
      </trkpt>
      <trkpt lat="46.057931380346417" lon="9.036850668489933">
        <ele>1387.71</ele>
        <time>2022-05-01T10:49:30Z</time>
      </trkpt>
      <trkpt lat="46.05794521048665" lon="9.036873131990433">
        <ele>1387.49</ele>
        <time>2022-05-01T10:49:32Z</time>
      </trkpt>
      <trkpt lat="46.057967841625214" lon="9.036908587440848">
        <ele>1387.23</ele>
        <time>2022-05-01T10:49:36Z</time>
      </trkpt>
      <trkpt lat="46.057992987334728" lon="9.037023168057203">
        <ele>1388.76</ele>
        <time>2022-05-01T10:49:48Z</time>
      </trkpt>
      <trkpt lat="46.057968344539404" lon="9.037092570215464">
        <ele>1391.52</ele>
        <time>2022-05-01T10:50:03Z</time>
      </trkpt>
      <trkpt lat="46.05798720382154" lon="9.037156691774726">
        <ele>1393.0699999999999</ele>
        <time>2022-05-01T10:50:14Z</time>
      </trkpt>
      <trkpt lat="46.058038836345077" lon="9.03727806173265">
        <ele>1394.0799999999999</ele>
        <time>2022-05-01T10:50:28Z</time>
      </trkpt>
      <trkpt lat="46.058077476918697" lon="9.037368083372712">
        <ele>1395.4200000000001</ele>
        <time>2022-05-01T10:50:40Z</time>
      </trkpt>
      <trkpt lat="46.058091139420867" lon="9.037476796656847">
        <ele>1397.3199999999999</ele>
        <time>2022-05-01T10:50:56Z</time>
      </trkpt>
      <trkpt lat="46.05811569839716" lon="9.037597328424454">
        <ele>1400.1700000000001</ele>
        <time>2022-05-01T10:51:12Z</time>
      </trkpt>
      <trkpt lat="46.058137826621532" lon="9.03764795511961">
        <ele>1400.9300000000001</ele>
        <time>2022-05-01T10:51:19Z</time>
      </trkpt>
      <trkpt lat="46.058195494115353" lon="9.037695815786719">
        <ele>1401.1099999999999</ele>
        <time>2022-05-01T10:51:25Z</time>
      </trkpt>
      <trkpt lat="46.058236481621861" lon="9.037735797464848">
        <ele>1401.0999999999999</ele>
        <time>2022-05-01T10:51:30Z</time>
      </trkpt>
      <trkpt lat="46.058288784697652" lon="9.03782531619072">
        <ele>1403.8</ele>
        <time>2022-05-01T10:51:43Z</time>
      </trkpt>
      <trkpt lat="46.058319378644228" lon="9.037887426093221">
        <ele>1404.6700000000001</ele>
        <time>2022-05-01T10:51:51Z</time>
      </trkpt>
      <trkpt lat="46.058405125513673" lon="9.037970490753651">
        <ele>1404.3199999999999</ele>
        <time>2022-05-01T10:52:02Z</time>
      </trkpt>
      <trkpt lat="46.058473773300648" lon="9.038069229573011">
        <ele>1405.0799999999999</ele>
        <time>2022-05-01T10:52:15Z</time>
      </trkpt>
      <trkpt lat="46.058513168245554" lon="9.038112396374345">
        <ele>1405.6900000000001</ele>
        <time>2022-05-01T10:52:31Z</time>
      </trkpt>
      <trkpt lat="46.058589527383447" lon="9.038178697228432">
        <ele>1403.8199999999999</ele>
        <time>2022-05-01T10:52:43Z</time>
      </trkpt>
      <trkpt lat="46.058641076087952" lon="9.038260085508227">
        <ele>1404.27</ele>
        <time>2022-05-01T10:52:56Z</time>
      </trkpt>
      <trkpt lat="46.058736965060234" lon="9.038388328626752">
        <ele>1403.23</ele>
        <time>2022-05-01T10:53:11Z</time>
      </trkpt>
      <trkpt lat="46.058859173208475" lon="9.038408361375332">
        <ele>1401.3</ele>
        <time>2022-05-01T10:53:26Z</time>
      </trkpt>
      <trkpt lat="46.058960258960724" lon="9.038449097424746">
        <ele>1399.98</ele>
        <time>2022-05-01T10:53:38Z</time>
      </trkpt>
      <trkpt lat="46.059082467108965" lon="9.038453036919236">
        <ele>1400.24</ele>
        <time>2022-05-01T10:53:52Z</time>
      </trkpt>
      <trkpt lat="46.059154719114304" lon="9.038536017760634">
        <ele>1400.49</ele>
        <time>2022-05-01T10:54:04Z</time>
      </trkpt>
      <trkpt lat="46.059225965291262" lon="9.038634086027741">
        <ele>1401.48</ele>
        <time>2022-05-01T10:54:19Z</time>
      </trkpt>
      <trkpt lat="46.059319926425815" lon="9.038704913109541">
        <ele>1399.5999999999999</ele>
        <time>2022-05-01T10:54:32Z</time>
      </trkpt>
      <trkpt lat="46.05938958004117" lon="9.038752354681492">
        <ele>1399.1500000000001</ele>
        <time>2022-05-01T10:54:39Z</time>
      </trkpt>
      <trkpt lat="46.05947901494801" lon="9.038862744346261">
        <ele>1399.5699999999999</ele>
        <time>2022-05-01T10:54:52Z</time>
      </trkpt>
      <trkpt lat="46.059536766260862" lon="9.038942288607359">
        <ele>1400.3800000000001</ele>
        <time>2022-05-01T10:55:03Z</time>
      </trkpt>
      <trkpt lat="46.059575993567705" lon="9.039011439308524">
        <ele>1401.23</ele>
        <time>2022-05-01T10:55:13Z</time>
      </trkpt>
      <trkpt lat="46.059626704081893" lon="9.039119482040405">
        <ele>1401.3499999999999</ele>
        <time>2022-05-01T10:55:24Z</time>
      </trkpt>
      <trkpt lat="46.059660483151674" lon="9.039241187274456">
        <ele>1402.03</ele>
        <time>2022-05-01T10:55:37Z</time>
      </trkpt>
      <trkpt lat="46.059694681316614" lon="9.039363479241729">
        <ele>1403.6800000000001</ele>
        <time>2022-05-01T10:55:52Z</time>
      </trkpt>
      <trkpt lat="46.059718988835812" lon="9.039422571659088">
        <ele>1403.9400000000001</ele>
        <time>2022-05-01T10:55:57Z</time>
      </trkpt>
      <trkpt lat="46.059772297739983" lon="9.039514102041721">
        <ele>1403.8900000000001</ele>
        <time>2022-05-01T10:56:11Z</time>
      </trkpt>
      <trkpt lat="46.059817224740982" lon="9.039564477279782">
        <ele>1403.9400000000001</ele>
        <time>2022-05-01T10:56:22Z</time>
      </trkpt>
      <trkpt lat="46.059883860871196" lon="9.039661707356572">
        <ele>1402.8199999999999</ele>
        <time>2022-05-01T10:56:34Z</time>
      </trkpt>
      <trkpt lat="46.059914790093899" lon="9.039735635742545">
        <ele>1404.1400000000001</ele>
        <time>2022-05-01T10:56:46Z</time>
      </trkpt>
      <trkpt lat="46.059931637719274" lon="9.039777629077435">
        <ele>1404.5</ele>
        <time>2022-05-01T10:56:50Z</time>
      </trkpt>
      <trkpt lat="46.059951419010758" lon="9.039865806698799">
        <ele>1404.76</ele>
        <time>2022-05-01T10:56:57Z</time>
      </trkpt>
      <trkpt lat="46.059952089563012" lon="9.04000167734921">
        <ele>1406.0899999999999</ele>
        <time>2022-05-01T10:57:09Z</time>
      </trkpt>
      <trkpt lat="46.059942450374365" lon="9.040084993466735">
        <ele>1406.6800000000001</ele>
        <time>2022-05-01T10:57:21Z</time>
      </trkpt>
      <trkpt lat="46.059942366555333" lon="9.040150623768568">
        <ele>1406.95</ele>
        <time>2022-05-01T10:57:30Z</time>
      </trkpt>
      <trkpt lat="46.059942953288555" lon="9.040186749771237">
        <ele>1406.8299999999999</ele>
        <time>2022-05-01T10:57:33Z</time>
      </trkpt>
      <trkpt lat="46.059931553900242" lon="9.040279034525156">
        <ele>1406.29</ele>
        <time>2022-05-01T10:57:43Z</time>
      </trkpt>
      <trkpt lat="46.059933230280876" lon="9.040401661768556">
        <ele>1407.0899999999999</ele>
        <time>2022-05-01T10:57:55Z</time>
      </trkpt>
      <trkpt lat="46.059916131198406" lon="9.04051716439426">
        <ele>1407.79</ele>
        <time>2022-05-01T10:58:08Z</time>
      </trkpt>
      <trkpt lat="46.059890063479543" lon="9.040585309267044">
        <ele>1407.99</ele>
        <time>2022-05-01T10:58:21Z</time>
      </trkpt>
      <trkpt lat="46.059892242774367" lon="9.0406290628016">
        <ele>1407.3399999999999</ele>
        <time>2022-05-01T10:58:25Z</time>
      </trkpt>
      <trkpt lat="46.059870030730963" lon="9.040738698095083">
        <ele>1405.55</ele>
        <time>2022-05-01T10:58:32Z</time>
      </trkpt>
      <trkpt lat="46.059795599430799" lon="9.040945395827293">
        <ele>1405.8399999999999</ele>
        <time>2022-05-01T10:58:46Z</time>
      </trkpt>
      <trkpt lat="46.059748074039817" lon="9.041132479906082">
        <ele>1406.48</ele>
        <time>2022-05-01T10:58:59Z</time>
      </trkpt>
      <trkpt lat="46.059679929167032" lon="9.041220657527447">
        <ele>1408.5899999999999</ele>
        <time>2022-05-01T10:59:11Z</time>
      </trkpt>
      <trkpt lat="46.059619328007102" lon="9.041329203173518">
        <ele>1411.0899999999999</ele>
        <time>2022-05-01T10:59:25Z</time>
      </trkpt>
      <trkpt lat="46.059605162590742" lon="9.041362144052982">
        <ele>1411.6300000000001</ele>
        <time>2022-05-01T10:59:30Z</time>
      </trkpt>
      <trkpt lat="46.059511117637157" lon="9.041432216763496">
        <ele>1411.4200000000001</ele>
        <time>2022-05-01T10:59:44Z</time>
      </trkpt>
      <trkpt lat="46.05948924086988" lon="9.041451076045632">
        <ele>1411.6400000000001</ele>
        <time>2022-05-01T10:59:47Z</time>
      </trkpt>
      <trkpt lat="46.059451773762703" lon="9.04150178655982">
        <ele>1412.9200000000001</ele>
        <time>2022-05-01T10:59:57Z</time>
      </trkpt>
      <trkpt lat="46.059424784034491" lon="9.041597004979849">
        <ele>1414.6300000000001</ele>
        <time>2022-05-01T11:00:07Z</time>
      </trkpt>
      <trkpt lat="46.059403494000435" lon="9.041840583086014">
        <ele>1414.7</ele>
        <time>2022-05-01T11:00:23Z</time>
      </trkpt>
      <trkpt lat="46.059400560334325" lon="9.042066056281328">
        <ele>1413.28</ele>
        <time>2022-05-01T11:00:36Z</time>
      </trkpt>
      <trkpt lat="46.059399973601103" lon="9.042193293571472">
        <ele>1414.8800000000001</ele>
        <time>2022-05-01T11:00:48Z</time>
      </trkpt>
      <trkpt lat="46.059406427666545" lon="9.042232353240252">
        <ele>1415.1099999999999</ele>
        <time>2022-05-01T11:00:51Z</time>
      </trkpt>
      <trkpt lat="46.059445068240166" lon="9.042392447590828">
        <ele>1415.1600000000001</ele>
        <time>2022-05-01T11:01:05Z</time>
      </trkpt>
      <trkpt lat="46.059451187029481" lon="9.042402673512697">
        <ele>1414.9400000000001</ele>
        <time>2022-05-01T11:01:06Z</time>
      </trkpt>
      <trkpt lat="46.05947851203382" lon="9.042443577200174">
        <ele>1414.1800000000001</ele>
        <time>2022-05-01T11:01:15Z</time>
      </trkpt>
      <trkpt lat="46.059490414336324" lon="9.042485654354096">
        <ele>1414.02</ele>
        <time>2022-05-01T11:01:28Z</time>
      </trkpt>
      <trkpt lat="46.059471555054188" lon="9.042485989630222">
        <ele>1413.8399999999999</ele>
        <time>2022-05-01T11:01:57Z</time>
      </trkpt>
      <trkpt lat="46.059465520083904" lon="9.042507279664278">
        <ele>1414.02</ele>
        <time>2022-05-01T11:02:08Z</time>
      </trkpt>
      <trkpt lat="46.059467531740665" lon="9.042502753436565">
        <ele>1414.26</ele>
        <time>2022-05-01T11:02:23Z</time>
      </trkpt>
      <trkpt lat="46.059474404901266" lon="9.042509458959103">
        <ele>1413.9200000000001</ele>
        <time>2022-05-01T11:02:28Z</time>
      </trkpt>
      <trkpt lat="46.059494772925973" lon="9.042570646852255">
        <ele>1412.21</ele>
        <time>2022-05-01T11:02:39Z</time>
      </trkpt>
      <trkpt lat="46.05954984202981" lon="9.042623033747077">
        <ele>1409.8599999999999</ele>
        <time>2022-05-01T11:02:46Z</time>
      </trkpt>
      <trkpt lat="46.059578843414783" lon="9.042687909677625">
        <ele>1407.9400000000001</ele>
        <time>2022-05-01T11:02:51Z</time>
      </trkpt>
      <trkpt lat="46.05964757502079" lon="9.042765107005835">
        <ele>1404.99</ele>
        <time>2022-05-01T11:03:01Z</time>
      </trkpt>
      <trkpt lat="46.05971110984683" lon="9.042809698730707">
        <ele>1403.5899999999999</ele>
        <time>2022-05-01T11:03:07Z</time>
      </trkpt>
      <trkpt lat="46.059840610250831" lon="9.042947581037879">
        <ele>1401.5899999999999</ele>
        <time>2022-05-01T11:03:19Z</time>
      </trkpt>
      <trkpt lat="46.05984890833497" lon="9.042959818616509">
        <ele>1401.54</ele>
        <time>2022-05-01T11:03:20Z</time>
      </trkpt>
      <trkpt lat="46.059889812022448" lon="9.04297742061317">
        <ele>1401.54</ele>
        <time>2022-05-01T11:03:23Z</time>
      </trkpt>
      <trkpt lat="46.059907330200076" lon="9.042983707040548">
        <ele>1401.5599999999999</ele>
        <time>2022-05-01T11:03:24Z</time>
      </trkpt>
      <trkpt lat="46.059914035722613" lon="9.042996447533369">
        <ele>1401.6600000000001</ele>
        <time>2022-05-01T11:03:25Z</time>
      </trkpt>
      <trkpt lat="46.059919567778707" lon="9.043010110035539">
        <ele>1401.5799999999999</ele>
        <time>2022-05-01T11:03:26Z</time>
      </trkpt>
      <trkpt lat="46.059916634112597" lon="9.043025281280279">
        <ele>1401.6600000000001</ele>
        <time>2022-05-01T11:03:27Z</time>
      </trkpt>
      <trkpt lat="46.059941193088889" lon="9.043042212724686">
        <ele>1401.73</ele>
        <time>2022-05-01T11:03:30Z</time>
      </trkpt>
      <trkpt lat="46.059959465637803" lon="9.043042883276939">
        <ele>1401.5599999999999</ele>
        <time>2022-05-01T11:03:31Z</time>
      </trkpt>
      <trkpt lat="46.059968685731292" lon="9.043047409504652">
        <ele>1401.5999999999999</ele>
        <time>2022-05-01T11:03:32Z</time>
      </trkpt>
      <trkpt lat="46.059972206130624" lon="9.043056964874268">
        <ele>1401.4400000000001</ele>
        <time>2022-05-01T11:03:33Z</time>
      </trkpt>
      <trkpt lat="46.059975894168019" lon="9.043069202452898">
        <ele>1401.3099999999999</ele>
        <time>2022-05-01T11:03:34Z</time>
      </trkpt>
      <trkpt lat="46.060078572481871" lon="9.04315872117877">
        <ele>1399.8399999999999</ele>
        <time>2022-05-01T11:03:46Z</time>
      </trkpt>
      <trkpt lat="46.060137916356325" lon="9.043254861608148">
        <ele>1398.8299999999999</ele>
        <time>2022-05-01T11:03:58Z</time>
      </trkpt>
      <trkpt lat="46.060152500867844" lon="9.043274810537696">
        <ele>1398.8199999999999</ele>
        <time>2022-05-01T11:04:00Z</time>
      </trkpt>
      <trkpt lat="46.060161301866174" lon="9.043288053944707">
        <ele>1398.79</ele>
        <time>2022-05-01T11:04:01Z</time>
      </trkpt>
      <trkpt lat="46.060202121734619" lon="9.043348487466574">
        <ele>1398.9400000000001</ele>
        <time>2022-05-01T11:04:06Z</time>
      </trkpt>
      <trkpt lat="46.060212682932615" lon="9.04335904866457">
        <ele>1398.8399999999999</ele>
        <time>2022-05-01T11:04:07Z</time>
      </trkpt>
      <trkpt lat="46.060222154483199" lon="9.043371956795454">
        <ele>1398.75</ele>
        <time>2022-05-01T11:04:08Z</time>
      </trkpt>
      <trkpt lat="46.060230787843466" lon="9.043386792764068">
        <ele>1398.75</ele>
        <time>2022-05-01T11:04:09Z</time>
      </trkpt>
      <trkpt lat="46.060241851955652" lon="9.04340305365622">
        <ele>1398.5999999999999</ele>
        <time>2022-05-01T11:04:10Z</time>
      </trkpt>
      <trkpt lat="46.060252161696553" lon="9.043418308719993">
        <ele>1398.6500000000001</ele>
        <time>2022-05-01T11:04:11Z</time>
      </trkpt>
      <trkpt lat="46.06026029214263" lon="9.043430546298623">
        <ele>1398.6099999999999</ele>
        <time>2022-05-01T11:04:12Z</time>
      </trkpt>
      <trkpt lat="46.060270434245467" lon="9.043453931808472">
        <ele>1398.23</ele>
        <time>2022-05-01T11:04:14Z</time>
      </trkpt>
      <trkpt lat="46.060278732329607" lon="9.043470527976751">
        <ele>1398.0999999999999</ele>
        <time>2022-05-01T11:04:15Z</time>
      </trkpt>
      <trkpt lat="46.060286443680525" lon="9.043483100831509">
        <ele>1397.8299999999999</ele>
        <time>2022-05-01T11:04:16Z</time>
      </trkpt>
      <trkpt lat="46.060295077040792" lon="9.043495589867234">
        <ele>1397.51</ele>
        <time>2022-05-01T11:04:17Z</time>
      </trkpt>
      <trkpt lat="46.060304716229439" lon="9.043505480512977">
        <ele>1397.26</ele>
        <time>2022-05-01T11:04:18Z</time>
      </trkpt>
      <trkpt lat="46.060314858332276" lon="9.04351344332099">
        <ele>1397.1099999999999</ele>
        <time>2022-05-01T11:04:19Z</time>
      </trkpt>
      <trkpt lat="46.060445448383689" lon="9.043634058907628">
        <ele>1395.51</ele>
        <time>2022-05-01T11:04:33Z</time>
      </trkpt>
      <trkpt lat="46.060458524152637" lon="9.043640680611134">
        <ele>1395.28</ele>
        <time>2022-05-01T11:04:34Z</time>
      </trkpt>
      <trkpt lat="46.060485849156976" lon="9.043643949553371">
        <ele>1394.9100000000001</ele>
        <time>2022-05-01T11:04:37Z</time>
      </trkpt>
      <trkpt lat="46.060496745631099" lon="9.043644620105624">
        <ele>1394.98</ele>
        <time>2022-05-01T11:04:38Z</time>
      </trkpt>
      <trkpt lat="46.060544103384018" lon="9.043647302314639">
        <ele>1394.7</ele>
        <time>2022-05-01T11:04:44Z</time>
      </trkpt>
      <trkpt lat="46.060656337067485" lon="9.043687870725989">
        <ele>1391.5</ele>
        <time>2022-05-01T11:04:56Z</time>
      </trkpt>
      <trkpt lat="46.060740072280169" lon="9.043724751099944">
        <ele>1389.3499999999999</ele>
        <time>2022-05-01T11:05:05Z</time>
      </trkpt>
      <trkpt lat="46.060761781409383" lon="9.043723158538342">
        <ele>1388.78</ele>
        <time>2022-05-01T11:05:07Z</time>
      </trkpt>
      <trkpt lat="46.060789441689849" lon="9.043734055012465">
        <ele>1388.3299999999999</ele>
        <time>2022-05-01T11:05:11Z</time>
      </trkpt>
      <trkpt lat="46.060816263779998" lon="9.043754674494267">
        <ele>1387.4000000000001</ele>
        <time>2022-05-01T11:05:14Z</time>
      </trkpt>
      <trkpt lat="46.060824561864138" lon="9.04376414604485">
        <ele>1387.2</ele>
        <time>2022-05-01T11:05:15Z</time>
      </trkpt>
      <trkpt lat="46.060917098075151" lon="9.043855760246515">
        <ele>1384.5899999999999</ele>
        <time>2022-05-01T11:05:27Z</time>
      </trkpt>
      <trkpt lat="46.060982728376985" lon="9.043852239847183">
        <ele>1381.8499999999999</ele>
        <time>2022-05-01T11:05:36Z</time>
      </trkpt>
      <trkpt lat="46.060998234897852" lon="9.043860789388418">
        <ele>1381.01</ele>
        <time>2022-05-01T11:05:38Z</time>
      </trkpt>
      <trkpt lat="46.061056321486831" lon="9.043996827676892">
        <ele>1377.98</ele>
        <time>2022-05-01T11:05:51Z</time>
      </trkpt>
      <trkpt lat="46.061098901554942" lon="9.044101685285568">
        <ele>1374.75</ele>
        <time>2022-05-01T11:06:02Z</time>
      </trkpt>
      <trkpt lat="46.061147348955274" lon="9.044185755774379">
        <ele>1371.5599999999999</ele>
        <time>2022-05-01T11:06:12Z</time>
      </trkpt>
      <trkpt lat="46.06118381023407" lon="9.044188186526299">
        <ele>1370.48</ele>
        <time>2022-05-01T11:06:21Z</time>
      </trkpt>
      <trkpt lat="46.061193784698844" lon="9.04417896643281">
        <ele>1370.24</ele>
        <time>2022-05-01T11:06:22Z</time>
      </trkpt>
      <trkpt lat="46.061214404180646" lon="9.044168069958687">
        <ele>1369.9200000000001</ele>
        <time>2022-05-01T11:06:24Z</time>
      </trkpt>
      <trkpt lat="46.061226055026054" lon="9.044163879007101">
        <ele>1369.76</ele>
        <time>2022-05-01T11:06:25Z</time>
      </trkpt>
      <trkpt lat="46.061262348666787" lon="9.044209308922291">
        <ele>1368.04</ele>
        <time>2022-05-01T11:06:32Z</time>
      </trkpt>
      <trkpt lat="46.061274670064449" lon="9.044259265065193">
        <ele>1367.0999999999999</ele>
        <time>2022-05-01T11:06:36Z</time>
      </trkpt>
      <trkpt lat="46.061326637864113" lon="9.044418940320611">
        <ele>1364.9100000000001</ele>
        <time>2022-05-01T11:06:49Z</time>
      </trkpt>
      <trkpt lat="46.061361758038402" lon="9.044440481811762">
        <ele>1364.0599999999999</ele>
        <time>2022-05-01T11:06:53Z</time>
      </trkpt>
      <trkpt lat="46.061422191560268" lon="9.044508039951325">
        <ele>1362.28</ele>
        <time>2022-05-01T11:07:05Z</time>
      </trkpt>
      <trkpt lat="46.06142420321703" lon="9.044518768787384">
        <ele>1362.1700000000001</ele>
        <time>2022-05-01T11:07:06Z</time>
      </trkpt>
      <trkpt lat="46.06142420321703" lon="9.044533604755998">
        <ele>1361.95</ele>
        <time>2022-05-01T11:07:07Z</time>
      </trkpt>
      <trkpt lat="46.0614257119596" lon="9.044562941417098">
        <ele>1361.6600000000001</ele>
        <time>2022-05-01T11:07:09Z</time>
      </trkpt>
      <trkpt lat="46.061439458280802" lon="9.044598480686545">
        <ele>1360.77</ele>
        <time>2022-05-01T11:07:12Z</time>
      </trkpt>
      <trkpt lat="46.061516739428043" lon="9.044733177870512">
        <ele>1358.8099999999999</ele>
        <time>2022-05-01T11:07:23Z</time>
      </trkpt>
      <trkpt lat="46.061536855995655" lon="9.04474189504981">
        <ele>1358.9400000000001</ele>
        <time>2022-05-01T11:07:25Z</time>
      </trkpt>
      <trkpt lat="46.061548003926873" lon="9.044743152335286">
        <ele>1358.9300000000001</ele>
        <time>2022-05-01T11:07:26Z</time>
      </trkpt>
      <trkpt lat="46.061557894572616" lon="9.044752037152648">
        <ele>1358.8599999999999</ele>
        <time>2022-05-01T11:07:27Z</time>
      </trkpt>
      <trkpt lat="46.061585387215018" lon="9.044735105708242">
        <ele>1359.0799999999999</ele>
        <time>2022-05-01T11:07:31Z</time>
      </trkpt>
      <trkpt lat="46.061598043888807" lon="9.044726556167007">
        <ele>1358.9000000000001</ele>
        <time>2022-05-01T11:07:32Z</time>
      </trkpt>
      <trkpt lat="46.061609946191311" lon="9.04471842572093">
        <ele>1358.6800000000001</ele>
        <time>2022-05-01T11:07:33Z</time>
      </trkpt>
      <trkpt lat="46.061626877635717" lon="9.044711217284203">
        <ele>1358.6500000000001</ele>
        <time>2022-05-01T11:07:34Z</time>
      </trkpt>
      <trkpt lat="46.061644814908504" lon="9.04471255838871">
        <ele>1358.6300000000001</ele>
        <time>2022-05-01T11:07:35Z</time>
      </trkpt>
      <trkpt lat="46.061657220125198" lon="9.044707948341966">
        <ele>1358.6199999999999</ele>
        <time>2022-05-01T11:07:36Z</time>
      </trkpt>
      <trkpt lat="46.061687897890806" lon="9.044708786532283">
        <ele>1358.3800000000001</ele>
        <time>2022-05-01T11:07:40Z</time>
      </trkpt>
      <trkpt lat="46.061698459088802" lon="9.044711384922266">
        <ele>1358.28</ele>
        <time>2022-05-01T11:07:41Z</time>
      </trkpt>
      <trkpt lat="46.061757132411003" lon="9.044722281396389">
        <ele>1357.8099999999999</ele>
        <time>2022-05-01T11:07:47Z</time>
      </trkpt>
      <trkpt lat="46.061820164322853" lon="9.044723706319928">
        <ele>1358</ele>
        <time>2022-05-01T11:07:53Z</time>
      </trkpt>
      <trkpt lat="46.061922423541546" lon="9.044745331630111">
        <ele>1357.4300000000001</ele>
        <time>2022-05-01T11:08:05Z</time>
      </trkpt>
      <trkpt lat="46.061983611434698" lon="9.044758323580027">
        <ele>1356.5999999999999</ele>
        <time>2022-05-01T11:08:12Z</time>
      </trkpt>
      <trkpt lat="46.062040608376265" lon="9.044751450419426">
        <ele>1356.03</ele>
        <time>2022-05-01T11:08:18Z</time>
      </trkpt>
      <trkpt lat="46.06205552816391" lon="9.044747343286872">
        <ele>1355.6900000000001</ele>
        <time>2022-05-01T11:08:19Z</time>
      </trkpt>
      <trkpt lat="46.062067933380604" lon="9.044744241982698">
        <ele>1355.47</ele>
        <time>2022-05-01T11:08:20Z</time>
      </trkpt>
      <trkpt lat="46.062080841511488" lon="9.044739967212081">
        <ele>1355.22</ele>
        <time>2022-05-01T11:08:21Z</time>
      </trkpt>
      <trkpt lat="46.062111770734191" lon="9.04472672380507">
        <ele>1354.23</ele>
        <time>2022-05-01T11:08:25Z</time>
      </trkpt>
      <trkpt lat="46.06213515624404" lon="9.044720772653818">
        <ele>1353.4100000000001</ele>
        <time>2022-05-01T11:08:27Z</time>
      </trkpt>
      <trkpt lat="46.062199445441365" lon="9.044741811230779">
        <ele>1352.28</ele>
        <time>2022-05-01T11:08:34Z</time>
      </trkpt>
      <trkpt lat="46.062212018296123" lon="9.044744661077857">
        <ele>1352.1199999999999</ele>
        <time>2022-05-01T11:08:35Z</time>
      </trkpt>
      <trkpt lat="46.062224674969912" lon="9.044748768210411">
        <ele>1352.0999999999999</ele>
        <time>2022-05-01T11:08:36Z</time>
      </trkpt>
      <trkpt lat="46.062237331643701" lon="9.044754132628441">
        <ele>1351.9000000000001</ele>
        <time>2022-05-01T11:08:37Z</time>
      </trkpt>
      <trkpt lat="46.062249904498458" lon="9.044758826494217">
        <ele>1351.6600000000001</ele>
        <time>2022-05-01T11:08:38Z</time>
      </trkpt>
      <trkpt lat="46.062264405190945" lon="9.044765867292881">
        <ele>1351.8199999999999</ele>
        <time>2022-05-01T11:08:39Z</time>
      </trkpt>
      <trkpt lat="46.062279660254717" lon="9.044771147891879">
        <ele>1351.6800000000001</ele>
        <time>2022-05-01T11:08:40Z</time>
      </trkpt>
      <trkpt lat="46.062367837876081" lon="9.044795539230108">
        <ele>1351.0699999999999</ele>
        <time>2022-05-01T11:08:48Z</time>
      </trkpt>
      <trkpt lat="46.062380326911807" lon="9.044797215610743">
        <ele>1351.1199999999999</ele>
        <time>2022-05-01T11:08:49Z</time>
      </trkpt>
      <trkpt lat="46.062420643866062" lon="9.04480735771358">
        <ele>1350.6500000000001</ele>
        <time>2022-05-01T11:08:53Z</time>
      </trkpt>
      <trkpt lat="46.062434893101454" lon="9.04480149038136">
        <ele>1350.5799999999999</ele>
        <time>2022-05-01T11:08:54Z</time>
      </trkpt>
      <trkpt lat="46.062451070174575" lon="9.044807106256485">
        <ele>1350.5</ele>
        <time>2022-05-01T11:08:55Z</time>
      </trkpt>
      <trkpt lat="46.062465403228998" lon="9.044802663847804">
        <ele>1350.46</ele>
        <time>2022-05-01T11:08:56Z</time>
      </trkpt>
      <trkpt lat="46.062477808445692" lon="9.044799227267504">
        <ele>1350.4100000000001</ele>
        <time>2022-05-01T11:08:57Z</time>
      </trkpt>
      <trkpt lat="46.062488202005625" lon="9.044798724353313">
        <ele>1350.25</ele>
        <time>2022-05-01T11:08:58Z</time>
      </trkpt>
      <trkpt lat="46.062499601393938" lon="9.044793946668506">
        <ele>1350.1900000000001</ele>
        <time>2022-05-01T11:08:59Z</time>
      </trkpt>
      <trkpt lat="46.06251091696322" lon="9.044790929183364">
        <ele>1350</ele>
        <time>2022-05-01T11:09:00Z</time>
      </trkpt>
      <trkpt lat="46.062522483989596" lon="9.044789168983698">
        <ele>1350.1300000000001</ele>
        <time>2022-05-01T11:09:01Z</time>
      </trkpt>
      <trkpt lat="46.062555424869061" lon="9.044790929183364">
        <ele>1349.8900000000001</ele>
        <time>2022-05-01T11:09:04Z</time>
      </trkpt>
      <trkpt lat="46.062573781237006" lon="9.04479218646884">
        <ele>1349.6300000000001</ele>
        <time>2022-05-01T11:09:06Z</time>
      </trkpt>
      <trkpt lat="46.062637232244015" lon="9.044789085164666">
        <ele>1349.3699999999999</ele>
        <time>2022-05-01T11:09:15Z</time>
      </trkpt>
      <trkpt lat="46.062640668824315" lon="9.044808782637119">
        <ele>1349.7</ele>
        <time>2022-05-01T11:09:34Z</time>
      </trkpt>
      <trkpt lat="46.062653493136168" lon="9.044808028265834">
        <ele>1349.9200000000001</ele>
        <time>2022-05-01T11:09:44Z</time>
      </trkpt>
      <trkpt lat="46.062653828412294" lon="9.044800400733948">
        <ele>1349.78</ele>
        <time>2022-05-01T11:10:01Z</time>
      </trkpt>
      <trkpt lat="46.06265215203166" lon="9.044805848971009">
        <ele>1349.4400000000001</ele>
        <time>2022-05-01T11:10:14Z</time>
      </trkpt>
      <trkpt lat="46.06265801936388" lon="9.044795455411077">
        <ele>1348.3699999999999</ele>
        <time>2022-05-01T11:10:29Z</time>
      </trkpt>
      <trkpt lat="46.062688026577234" lon="9.044788498431444">
        <ele>1348.29</ele>
        <time>2022-05-01T11:10:49Z</time>
      </trkpt>
      <trkpt lat="46.06264578178525" lon="9.044797215610743">
        <ele>1348.47</ele>
        <time>2022-05-01T11:11:08Z</time>
      </trkpt>
      <trkpt lat="46.06260915286839" lon="9.044797467067838">
        <ele>1348.3399999999999</ele>
        <time>2022-05-01T11:11:31Z</time>
      </trkpt>
      <trkpt lat="46.062588281929493" lon="9.044816493988037">
        <ele>1348.1900000000001</ele>
        <time>2022-05-01T11:11:49Z</time>
      </trkpt>
      <trkpt lat="46.062579229474068" lon="9.04481615871191">
        <ele>1348.4100000000001</ele>
        <time>2022-05-01T11:12:07Z</time>
      </trkpt>
      <trkpt lat="46.062608314678073" lon="9.044811045750976">
        <ele>1348.3399999999999</ele>
        <time>2022-05-01T11:12:39Z</time>
      </trkpt>
      <trkpt lat="46.062629772350192" lon="9.044801406562328">
        <ele>1348.51</ele>
        <time>2022-05-01T11:13:02Z</time>
      </trkpt>
      <trkpt lat="46.062602279707789" lon="9.044762765988708">
        <ele>1348.6300000000001</ele>
        <time>2022-05-01T11:13:28Z</time>
      </trkpt>
      <trkpt lat="46.062641590833664" lon="9.044771064072847">
        <ele>1348.6600000000001</ele>
        <time>2022-05-01T11:13:50Z</time>
      </trkpt>
      <trkpt lat="46.062607225030661" lon="9.044761676341295">
        <ele>1348.8099999999999</ele>
        <time>2022-05-01T11:14:17Z</time>
      </trkpt>
      <trkpt lat="46.062617199495435" lon="9.044766956940293">
        <ele>1348.5999999999999</ele>
        <time>2022-05-01T11:15:02Z</time>
      </trkpt>
      <trkpt lat="46.062615271657705" lon="9.044778775423765">
        <ele>1348.79</ele>
        <time>2022-05-01T11:15:43Z</time>
      </trkpt>
      <trkpt lat="46.062628598883748" lon="9.044798305258155">
        <ele>1348.9100000000001</ele>
        <time>2022-05-01T11:16:05Z</time>
      </trkpt>
      <trkpt lat="46.062626084312797" lon="9.044801406562328">
        <ele>1348.9000000000001</ele>
        <time>2022-05-01T11:16:32Z</time>
      </trkpt>
      <trkpt lat="46.062639160081744" lon="9.044811381027103">
        <ele>1348.96</ele>
        <time>2022-05-01T11:16:58Z</time>
      </trkpt>
      <trkpt lat="46.062649134546518" lon="9.044784810394049">
        <ele>1349.3</ele>
        <time>2022-05-01T11:17:39Z</time>
      </trkpt>
      <trkpt lat="46.062634550035" lon="9.044766537845135">
        <ele>1349.25</ele>
        <time>2022-05-01T11:17:59Z</time>
      </trkpt>
      <trkpt lat="46.062633711844683" lon="9.044756982475519">
        <ele>1349.7</ele>
        <time>2022-05-01T11:18:19Z</time>
      </trkpt>
      <trkpt lat="46.062667407095432" lon="9.044770393520594">
        <ele>1349.03</ele>
        <time>2022-05-01T11:18:41Z</time>
      </trkpt>
      <trkpt lat="46.062634382396936" lon="9.044765280559659">
        <ele>1349.02</ele>
        <time>2022-05-01T11:19:05Z</time>
      </trkpt>
      <trkpt lat="46.062655420973897" lon="9.044767878949642">
        <ele>1349.5899999999999</ele>
        <time>2022-05-01T11:19:55Z</time>
      </trkpt>
      <trkpt lat="46.062656510621309" lon="9.044761005789042">
        <ele>1349.9300000000001</ele>
        <time>2022-05-01T11:20:33Z</time>
      </trkpt>
      <trkpt lat="46.062642093747854" lon="9.04476678930223">
        <ele>1350.1500000000001</ele>
        <time>2022-05-01T11:21:27Z</time>
      </trkpt>
      <trkpt lat="46.062642512843013" lon="9.044758658856154">
        <ele>1350.1900000000001</ele>
        <time>2022-05-01T11:22:11Z</time>
      </trkpt>
      <trkpt lat="46.062644440680742" lon="9.044765112921596">
        <ele>1350.28</ele>
        <time>2022-05-01T11:22:38Z</time>
      </trkpt>
      <trkpt lat="46.062651230022311" lon="9.044769639149308">
        <ele>1350.4100000000001</ele>
        <time>2022-05-01T11:22:59Z</time>
      </trkpt>
      <trkpt lat="46.062633125111461" lon="9.044771650806069">
        <ele>1350.6400000000001</ele>
        <time>2022-05-01T11:23:23Z</time>
      </trkpt>
      <trkpt lat="46.062625329941511" lon="9.044771399348974">
        <ele>1350.51</ele>
        <time>2022-05-01T11:23:57Z</time>
      </trkpt>
      <trkpt lat="46.062608398497105" lon="9.04478631913662">
        <ele>1350.74</ele>
        <time>2022-05-01T11:24:35Z</time>
      </trkpt>
      <trkpt lat="46.062613595277071" lon="9.044783720746636">
        <ele>1350.8900000000001</ele>
        <time>2022-05-01T11:25:05Z</time>
      </trkpt>
      <trkpt lat="46.062614768743515" lon="9.044768717139959">
        <ele>1350.6600000000001</ele>
        <time>2022-05-01T11:25:26Z</time>
      </trkpt>
      <trkpt lat="46.062633125111461" lon="9.044803166761994">
        <ele>1350.6300000000001</ele>
        <time>2022-05-01T11:25:58Z</time>
      </trkpt>
      <trkpt lat="46.062641842290759" lon="9.044803753495216">
        <ele>1350.8199999999999</ele>
        <time>2022-05-01T11:26:37Z</time>
      </trkpt>
      <trkpt lat="46.062628095969558" lon="9.044789168983698">
        <ele>1350.5799999999999</ele>
        <time>2022-05-01T11:26:56Z</time>
      </trkpt>
      <trkpt lat="46.062632286921144" lon="9.044773327186704">
        <ele>1350.77</ele>
        <time>2022-05-01T11:27:38Z</time>
      </trkpt>
      <trkpt lat="46.062641758471727" lon="9.044792437925935">
        <ele>1350.6300000000001</ele>
        <time>2022-05-01T11:28:18Z</time>
      </trkpt>
      <trkpt lat="46.062658689916134" lon="9.044774752110243">
        <ele>1350.5599999999999</ele>
        <time>2022-05-01T11:28:59Z</time>
      </trkpt>
      <trkpt lat="46.062642261385918" lon="9.044789420440793">
        <ele>1350.53</ele>
        <time>2022-05-01T11:29:30Z</time>
      </trkpt>
      <trkpt lat="46.062645195052028" lon="9.044783134013414">
        <ele>1350.54</ele>
        <time>2022-05-01T11:30:12Z</time>
      </trkpt>
      <trkpt lat="46.062647290527821" lon="9.044782882556319">
        <ele>1350.6600000000001</ele>
        <time>2022-05-01T11:30:44Z</time>
      </trkpt>
      <trkpt lat="46.062645362690091" lon="9.044784307479858">
        <ele>1350.51</ele>
        <time>2022-05-01T11:31:05Z</time>
      </trkpt>
      <trkpt lat="46.062631700187922" lon="9.044775841757655">
        <ele>1350.4200000000001</ele>
        <time>2022-05-01T11:31:47Z</time>
      </trkpt>
      <trkpt lat="46.062634717673063" lon="9.044770644977689">
        <ele>1350.2</ele>
        <time>2022-05-01T11:32:18Z</time>
      </trkpt>
      <trkpt lat="46.062636896967888" lon="9.044765280559659">
        <ele>1350.28</ele>
        <time>2022-05-01T11:32:47Z</time>
      </trkpt>
      <trkpt lat="46.062639076262712" lon="9.044767459854484">
        <ele>1350.3800000000001</ele>
        <time>2022-05-01T11:33:17Z</time>
      </trkpt>
      <trkpt lat="46.062641087919474" lon="9.044802831485868">
        <ele>1350.3</ele>
        <time>2022-05-01T11:33:48Z</time>
      </trkpt>
      <trkpt lat="46.062633460387588" lon="9.044810039922595">
        <ele>1350.3299999999999</ele>
        <time>2022-05-01T11:34:14Z</time>
      </trkpt>
      <trkpt lat="46.062629856169224" lon="9.044790510088205">
        <ele>1350.1800000000001</ele>
        <time>2022-05-01T11:35:03Z</time>
      </trkpt>
      <trkpt lat="46.062635304406285" lon="9.044789168983698">
        <ele>1350.4400000000001</ele>
        <time>2022-05-01T11:35:43Z</time>
      </trkpt>
      <trkpt lat="46.062648883089423" lon="9.044796042144299">
        <ele>1350.27</ele>
        <time>2022-05-01T11:36:07Z</time>
      </trkpt>
      <trkpt lat="46.062629604712129" lon="9.044787660241127">
        <ele>1350.1800000000001</ele>
        <time>2022-05-01T11:36:31Z</time>
      </trkpt>
      <trkpt lat="46.062645697966218" lon="9.044785900041461">
        <ele>1350.3800000000001</ele>
        <time>2022-05-01T11:36:52Z</time>
      </trkpt>
      <trkpt lat="46.062647541984916" lon="9.044792018830776">
        <ele>1350.21</ele>
        <time>2022-05-01T11:37:12Z</time>
      </trkpt>
      <trkpt lat="46.062652319669724" lon="9.044797215610743">
        <ele>1350.1800000000001</ele>
        <time>2022-05-01T11:37:49Z</time>
      </trkpt>
      <trkpt lat="46.062644524499774" lon="9.044780116528273">
        <ele>1350.29</ele>
        <time>2022-05-01T11:38:28Z</time>
      </trkpt>
      <trkpt lat="46.062642931938171" lon="9.044773075729609">
        <ele>1350.6600000000001</ele>
        <time>2022-05-01T11:39:07Z</time>
      </trkpt>
      <trkpt lat="46.062621809542179" lon="9.044770980253816">
        <ele>1350.5799999999999</ele>
        <time>2022-05-01T11:39:48Z</time>
      </trkpt>
      <trkpt lat="46.062610410153866" lon="9.044769806787372">
        <ele>1350.6099999999999</ele>
        <time>2022-05-01T11:40:15Z</time>
      </trkpt>
      <trkpt lat="46.062635388225317" lon="9.044784726575017">
        <ele>1350.6900000000001</ele>
        <time>2022-05-01T11:40:44Z</time>
      </trkpt>
      <trkpt lat="46.062627928331494" lon="9.044784139841795">
        <ele>1350.8399999999999</ele>
        <time>2022-05-01T11:41:22Z</time>
      </trkpt>
      <trkpt lat="46.062620216980577" lon="9.0447838883847">
        <ele>1350.8599999999999</ele>
        <time>2022-05-01T11:42:06Z</time>
      </trkpt>
      <trkpt lat="46.062643099576235" lon="9.04480492696166">
        <ele>1351.05</ele>
        <time>2022-05-01T11:42:55Z</time>
      </trkpt>
      <trkpt lat="46.062636310234666" lon="9.044806519523263">
        <ele>1351.3199999999999</ele>
        <time>2022-05-01T11:43:39Z</time>
      </trkpt>
      <trkpt lat="46.062645027413964" lon="9.044806100428104">
        <ele>1351.46</ele>
        <time>2022-05-01T11:44:20Z</time>
      </trkpt>
      <trkpt lat="46.062635304406285" lon="9.044811967760325">
        <ele>1351.45</ele>
        <time>2022-05-01T11:45:10Z</time>
      </trkpt>
      <trkpt lat="46.06262382119894" lon="9.04480341821909">
        <ele>1352.05</ele>
        <time>2022-05-01T11:45:53Z</time>
      </trkpt>
      <trkpt lat="46.062623402103782" lon="9.0448063518852">
        <ele>1352.3499999999999</ele>
        <time>2022-05-01T11:46:31Z</time>
      </trkpt>
      <trkpt lat="46.062633292749524" lon="9.044797886162996">
        <ele>1352</ele>
        <time>2022-05-01T11:46:53Z</time>
      </trkpt>
      <trkpt lat="46.062646955251694" lon="9.044794701039791">
        <ele>1352.5699999999999</ele>
        <time>2022-05-01T11:47:32Z</time>
      </trkpt>
      <trkpt lat="46.062639662995934" lon="9.044817248359323">
        <ele>1353.7</ele>
        <time>2022-05-01T11:47:52Z</time>
      </trkpt>
      <trkpt lat="46.062650894746184" lon="9.044815739616752">
        <ele>1354.04</ele>
        <time>2022-05-01T11:48:05Z</time>
      </trkpt>
      <trkpt lat="46.062654415145516" lon="9.044797383248806">
        <ele>1354.0599999999999</ele>
        <time>2022-05-01T11:48:25Z</time>
      </trkpt>
      <trkpt lat="46.062645362690091" lon="9.044805681332946">
        <ele>1354.05</ele>
        <time>2022-05-01T11:48:40Z</time>
      </trkpt>
      <trkpt lat="46.062618875876069" lon="9.044803753495216">
        <ele>1353.95</ele>
        <time>2022-05-01T11:49:01Z</time>
      </trkpt>
      <trkpt lat="46.062617786228657" lon="9.044812386855483">
        <ele>1354.1400000000001</ele>
        <time>2022-05-01T11:49:12Z</time>
      </trkpt>
      <trkpt lat="46.062613343819976" lon="9.044816242530942">
        <ele>1354.04</ele>
        <time>2022-05-01T11:49:28Z</time>
      </trkpt>
      <trkpt lat="46.062543522566557" lon="9.044831581413746">
        <ele>1354.53</ele>
        <time>2022-05-01T11:49:40Z</time>
      </trkpt>
      <trkpt lat="46.062441850081086" lon="9.044823870062828">
        <ele>1355.26</ele>
        <time>2022-05-01T11:49:53Z</time>
      </trkpt>
      <trkpt lat="46.062355516478419" lon="9.044811129570007">
        <ele>1356.28</ele>
        <time>2022-05-01T11:50:05Z</time>
      </trkpt>
      <trkpt lat="46.062301620841026" lon="9.044791264459491">
        <ele>1356.3599999999999</ele>
        <time>2022-05-01T11:50:16Z</time>
      </trkpt>
      <trkpt lat="46.062302375212312" lon="9.044793695211411">
        <ele>1356.02</ele>
        <time>2022-05-01T11:50:35Z</time>
      </trkpt>
      <trkpt lat="46.062297429889441" lon="9.04478145763278">
        <ele>1355.98</ele>
        <time>2022-05-01T11:50:50Z</time>
      </trkpt>
      <trkpt lat="46.062298016622663" lon="9.044788330793381">
        <ele>1355.75</ele>
        <time>2022-05-01T11:51:14Z</time>
      </trkpt>
      <trkpt lat="46.062286449596286" lon="9.044790342450142">
        <ele>1356.1800000000001</ele>
        <time>2022-05-01T11:51:38Z</time>
      </trkpt>
      <trkpt lat="46.062289550900459" lon="9.044783804565668">
        <ele>1355.76</ele>
        <time>2022-05-01T11:52:04Z</time>
      </trkpt>
      <trkpt lat="46.06229449622333" lon="9.044787157326937">
        <ele>1355.9400000000001</ele>
        <time>2022-05-01T11:52:40Z</time>
      </trkpt>
      <trkpt lat="46.062292568385601" lon="9.044788666069508">
        <ele>1356</ele>
        <time>2022-05-01T11:52:56Z</time>
      </trkpt>
      <trkpt lat="46.062282007187605" lon="9.04476972296834">
        <ele>1355.97</ele>
        <time>2022-05-01T11:53:03Z</time>
      </trkpt>
      <trkpt lat="46.062274212017655" lon="9.044756647199392">
        <ele>1355.72</ele>
        <time>2022-05-01T11:53:04Z</time>
      </trkpt>
      <trkpt lat="46.062250658869743" lon="9.044698728248477">
        <ele>1354.75</ele>
        <time>2022-05-01T11:53:09Z</time>
      </trkpt>
      <trkpt lat="46.062136329710484" lon="9.044557074084878">
        <ele>1352.1099999999999</ele>
        <time>2022-05-01T11:53:22Z</time>
      </trkpt>
      <trkpt lat="46.062011523172259" lon="9.044354986399412">
        <ele>1349.3800000000001</ele>
        <time>2022-05-01T11:53:37Z</time>
      </trkpt>
      <trkpt lat="46.061852099373937" lon="9.044216433539987">
        <ele>1346.7</ele>
        <time>2022-05-01T11:53:52Z</time>
      </trkpt>
      <trkpt lat="46.061755623668432" lon="9.044082406908274">
        <ele>1344.4000000000001</ele>
        <time>2022-05-01T11:54:03Z</time>
      </trkpt>
      <trkpt lat="46.061760736629367" lon="9.044065224006772">
        <ele>1344.4200000000001</ele>
        <time>2022-05-01T11:54:04Z</time>
      </trkpt>
      <trkpt lat="46.061781859025359" lon="9.043847126886249">
        <ele>1344.3900000000001</ele>
        <time>2022-05-01T11:54:16Z</time>
      </trkpt>
      <trkpt lat="46.061716983094811" lon="9.043590808287263">
        <ele>1343.3099999999999</ele>
        <time>2022-05-01T11:54:30Z</time>
      </trkpt>
      <trkpt lat="46.061675492674112" lon="9.043377237394452">
        <ele>1341.02</ele>
        <time>2022-05-01T11:54:42Z</time>
      </trkpt>
      <trkpt lat="46.061652610078454" lon="9.043124774470925">
        <ele>1338.51</ele>
        <time>2022-05-01T11:54:55Z</time>
      </trkpt>
      <trkpt lat="46.061572562903166" lon="9.042924279347062">
        <ele>1335.49</ele>
        <time>2022-05-01T11:55:07Z</time>
      </trkpt>
      <trkpt lat="46.061560995876789" lon="9.042738620191813">
        <ele>1332.3</ele>
        <time>2022-05-01T11:55:18Z</time>
      </trkpt>
      <trkpt lat="46.061517912894487" lon="9.042526893317699">
        <ele>1329.24</ele>
        <time>2022-05-01T11:55:31Z</time>
      </trkpt>
      <trkpt lat="46.061477931216359" lon="9.042363194748759">
        <ele>1326.0799999999999</ele>
        <time>2022-05-01T11:55:41Z</time>
      </trkpt>
      <trkpt lat="46.061447253450751" lon="9.042196478694677">
        <ele>1323.0599999999999</ele>
        <time>2022-05-01T11:55:51Z</time>
      </trkpt>
      <trkpt lat="46.061390759423375" lon="9.041972178965807">
        <ele>1319.95</ele>
        <time>2022-05-01T11:56:04Z</time>
      </trkpt>
      <trkpt lat="46.061357818543911" lon="9.041713932529092">
        <ele>1318.05</ele>
        <time>2022-05-01T11:56:18Z</time>
      </trkpt>
      <trkpt lat="46.061318842694163" lon="9.041505306959152">
        <ele>1316.95</ele>
        <time>2022-05-01T11:56:30Z</time>
      </trkpt>
      <trkpt lat="46.061322949826717" lon="9.041475635021925">
        <ele>1316.8099999999999</ele>
        <time>2022-05-01T11:56:32Z</time>
      </trkpt>
      <trkpt lat="46.061323955655098" lon="9.041455937549472">
        <ele>1316.5799999999999</ele>
        <time>2022-05-01T11:56:33Z</time>
      </trkpt>
      <trkpt lat="46.061346670612693" lon="9.041222585365176">
        <ele>1314.45</ele>
        <time>2022-05-01T11:56:46Z</time>
      </trkpt>
      <trkpt lat="46.061400650069118" lon="9.040951514616609">
        <ele>1311.4400000000001</ele>
        <time>2022-05-01T11:57:01Z</time>
      </trkpt>
      <trkpt lat="46.061409283429384" lon="9.040650436654687">
        <ele>1309.27</ele>
        <time>2022-05-01T11:57:17Z</time>
      </trkpt>
      <trkpt lat="46.061415821313858" lon="9.040435524657369">
        <ele>1307.27</ele>
        <time>2022-05-01T11:57:29Z</time>
      </trkpt>
      <trkpt lat="46.061467034742236" lon="9.040236957371235">
        <ele>1305.1199999999999</ele>
        <time>2022-05-01T11:57:41Z</time>
      </trkpt>
      <trkpt lat="46.06149704195559" lon="9.039961695671082">
        <ele>1302.0999999999999</ele>
        <time>2022-05-01T11:57:56Z</time>
      </trkpt>
      <trkpt lat="46.061492431908846" lon="9.039705377072096">
        <ele>1299.0699999999999</ele>
        <time>2022-05-01T11:58:11Z</time>
      </trkpt>
      <trkpt lat="46.061480781063437" lon="9.039390385150909">
        <ele>1296.03</ele>
        <time>2022-05-01T11:58:28Z</time>
      </trkpt>
      <trkpt lat="46.061467872932553" lon="9.039151500910521">
        <ele>1293.51</ele>
        <time>2022-05-01T11:58:41Z</time>
      </trkpt>
      <trkpt lat="46.061438955366611" lon="9.038921752944589">
        <ele>1291.9000000000001</ele>
        <time>2022-05-01T11:58:53Z</time>
      </trkpt>
      <trkpt lat="46.061440631747246" lon="9.038903648033738">
        <ele>1291.73</ele>
        <time>2022-05-01T11:58:54Z</time>
      </trkpt>
      <trkpt lat="46.061441386118531" lon="9.038884621113539">
        <ele>1291.46</ele>
        <time>2022-05-01T11:58:55Z</time>
      </trkpt>
      <trkpt lat="46.061439793556929" lon="9.038864001631737">
        <ele>1291.4000000000001</ele>
        <time>2022-05-01T11:58:56Z</time>
      </trkpt>
      <trkpt lat="46.061438117176294" lon="9.038843382149935">
        <ele>1291.0799999999999</ele>
        <time>2022-05-01T11:58:57Z</time>
      </trkpt>
      <trkpt lat="46.061436524614692" lon="9.038823684677482">
        <ele>1290.8099999999999</ele>
        <time>2022-05-01T11:58:58Z</time>
      </trkpt>
      <trkpt lat="46.061403332278132" lon="9.03855923563242">
        <ele>1288.21</ele>
        <time>2022-05-01T11:59:12Z</time>
      </trkpt>
      <trkpt lat="46.061396040022373" lon="9.038469465449452">
        <ele>1287.02</ele>
        <time>2022-05-01T11:59:17Z</time>
      </trkpt>
      <trkpt lat="46.061379108577967" lon="9.038213733583689">
        <ele>1284.1800000000001</ele>
        <time>2022-05-01T11:59:32Z</time>
      </trkpt>
      <trkpt lat="46.061367373913527" lon="9.037934700027108">
        <ele>1282.8699999999999</ele>
        <time>2022-05-01T11:59:49Z</time>
      </trkpt>
      <trkpt lat="46.061367960646749" lon="9.037887090817094">
        <ele>1282.8699999999999</ele>
        <time>2022-05-01T11:59:52Z</time>
      </trkpt>
      <trkpt lat="46.061337199062109" lon="9.037801846861839">
        <ele>1282.25</ele>
        <time>2022-05-01T12:00:03Z</time>
      </trkpt>
      <trkpt lat="46.061333762481809" lon="9.037787513807416">
        <ele>1282.3</ele>
        <time>2022-05-01T12:00:04Z</time>
      </trkpt>
      <trkpt lat="46.061330074444413" lon="9.037758512422442">
        <ele>1281.8499999999999</ele>
        <time>2022-05-01T12:00:06Z</time>
      </trkpt>
      <trkpt lat="46.06132797896862" lon="9.037739401683211">
        <ele>1281.54</ele>
        <time>2022-05-01T12:00:07Z</time>
      </trkpt>
      <trkpt lat="46.061324123293161" lon="9.037720542401075">
        <ele>1281.1400000000001</ele>
        <time>2022-05-01T12:00:08Z</time>
      </trkpt>
      <trkpt lat="46.06131968088448" lon="9.03770218603313">
        <ele>1280.6700000000001</ele>
        <time>2022-05-01T12:00:09Z</time>
      </trkpt>
      <trkpt lat="46.061315909028053" lon="9.037685338407755">
        <ele>1280.45</ele>
        <time>2022-05-01T12:00:10Z</time>
      </trkpt>
      <trkpt lat="46.061260672286153" lon="9.037501439452171">
        <ele>1277.26</ele>
        <time>2022-05-01T12:00:21Z</time>
      </trkpt>
      <trkpt lat="46.06118674390018" lon="9.037267919629812">
        <ele>1275.75</ele>
        <time>2022-05-01T12:00:34Z</time>
      </trkpt>
      <trkpt lat="46.061189426109195" lon="9.037245707586408">
        <ele>1275.6199999999999</ele>
        <time>2022-05-01T12:00:35Z</time>
      </trkpt>
      <trkpt lat="46.061190431937575" lon="9.037223998457193">
        <ele>1275.25</ele>
        <time>2022-05-01T12:00:36Z</time>
      </trkpt>
      <trkpt lat="46.061181128025055" lon="9.037090055644512">
        <ele>1274.3</ele>
        <time>2022-05-01T12:00:48Z</time>
      </trkpt>
      <trkpt lat="46.061185738071799" lon="9.037006655707955">
        <ele>1273</ele>
        <time>2022-05-01T12:01:00Z</time>
      </trkpt>
      <trkpt lat="46.061133770272136" lon="9.036979582160711">
        <ele>1273.74</ele>
        <time>2022-05-01T12:01:11Z</time>
      </trkpt>
      <trkpt lat="46.061109211295843" lon="9.036931470036507">
        <ele>1274.1099999999999</ele>
        <time>2022-05-01T12:01:15Z</time>
      </trkpt>
      <trkpt lat="46.06110317632556" lon="9.036915292963386">
        <ele>1274.0799999999999</ele>
        <time>2022-05-01T12:01:16Z</time>
      </trkpt>
      <trkpt lat="46.061096889898181" lon="9.036898948252201">
        <ele>1274.05</ele>
        <time>2022-05-01T12:01:17Z</time>
      </trkpt>
      <trkpt lat="46.061029331758618" lon="9.036777997389436">
        <ele>1273.6600000000001</ele>
        <time>2022-05-01T12:01:27Z</time>
      </trkpt>
      <trkpt lat="46.060999156907201" lon="9.036709265783429">
        <ele>1274.3900000000001</ele>
        <time>2022-05-01T12:01:38Z</time>
      </trkpt>
      <trkpt lat="46.061038048937917" lon="9.036680515855551">
        <ele>1272.5</ele>
        <time>2022-05-01T12:01:52Z</time>
      </trkpt>
      <trkpt lat="46.061117425560951" lon="9.03663944453001">
        <ele>1270.02</ele>
        <time>2022-05-01T12:02:05Z</time>
      </trkpt>
      <trkpt lat="46.0611217841506" lon="9.036643300205469">
        <ele>1270.7</ele>
        <time>2022-05-01T12:02:15Z</time>
      </trkpt>
      <trkpt lat="46.061126226559281" lon="9.036670792847872">
        <ele>1269.4300000000001</ele>
        <time>2022-05-01T12:02:30Z</time>
      </trkpt>
      <trkpt lat="46.061150366440415" lon="9.036654448136687">
        <ele>1268.74</ele>
        <time>2022-05-01T12:02:54Z</time>
      </trkpt>
      <trkpt lat="46.061188420280814" lon="9.0366589743644">
        <ele>1269.53</ele>
        <time>2022-05-01T12:03:14Z</time>
      </trkpt>
      <trkpt lat="46.061150701716542" lon="9.036674648523331">
        <ele>1269.3599999999999</ele>
        <time>2022-05-01T12:03:38Z</time>
      </trkpt>
      <trkpt lat="46.061128238216043" lon="9.036691999062896">
        <ele>1269.3499999999999</ele>
        <time>2022-05-01T12:04:06Z</time>
      </trkpt>
      <trkpt lat="46.061136703938246" lon="9.036669032648206">
        <ele>1269.49</ele>
        <time>2022-05-01T12:04:54Z</time>
      </trkpt>
      <trkpt lat="46.061117760837078" lon="9.036671463400126">
        <ele>1269.3699999999999</ele>
        <time>2022-05-01T12:05:46Z</time>
      </trkpt>
      <trkpt lat="46.061131926253438" lon="9.036685125902295">
        <ele>1269.28</ele>
        <time>2022-05-01T12:06:40Z</time>
      </trkpt>
      <trkpt lat="46.061128992587328" lon="9.036654615774751">
        <ele>1269.4400000000001</ele>
        <time>2022-05-01T12:07:31Z</time>
      </trkpt>
      <trkpt lat="46.061117760837078" lon="9.036664254963398">
        <ele>1269.25</ele>
        <time>2022-05-01T12:08:17Z</time>
      </trkpt>
      <trkpt lat="46.061119101941586" lon="9.03665847145021">
        <ele>1268.9400000000001</ele>
        <time>2022-05-01T12:09:07Z</time>
      </trkpt>
      <trkpt lat="46.061115246266127" lon="9.036664590239525">
        <ele>1268.77</ele>
        <time>2022-05-01T12:09:54Z</time>
      </trkpt>
      <trkpt lat="46.061129160225391" lon="9.036681018769741">
        <ele>1269.28</ele>
        <time>2022-05-01T12:10:30Z</time>
      </trkpt>
      <trkpt lat="46.061120023950934" lon="9.036695770919323">
        <ele>1269.22</ele>
        <time>2022-05-01T12:10:55Z</time>
      </trkpt>
      <trkpt lat="46.061123460531235" lon="9.036674229428172">
        <ele>1268.96</ele>
        <time>2022-05-01T12:11:37Z</time>
      </trkpt>
      <trkpt lat="46.061129411682487" lon="9.036663081496954">
        <ele>1269.1700000000001</ele>
        <time>2022-05-01T12:12:25Z</time>
      </trkpt>
      <trkpt lat="46.06112421490252" lon="9.036664254963398">
        <ele>1268.75</ele>
        <time>2022-05-01T12:13:19Z</time>
      </trkpt>
      <trkpt lat="46.061125556007028" lon="9.036658136174083">
        <ele>1268.8599999999999</ele>
        <time>2022-05-01T12:14:06Z</time>
      </trkpt>
      <trkpt lat="46.06111784465611" lon="9.036669451743364">
        <ele>1268.73</ele>
        <time>2022-05-01T12:14:48Z</time>
      </trkpt>
      <trkpt lat="46.061133351176977" lon="9.036657717078924">
        <ele>1268.6500000000001</ele>
        <time>2022-05-01T12:15:42Z</time>
      </trkpt>
      <trkpt lat="46.061137039214373" lon="9.036656375974417">
        <ele>1268.76</ele>
        <time>2022-05-01T12:16:31Z</time>
      </trkpt>
      <trkpt lat="46.061138547956944" lon="9.036651011556387">
        <ele>1268.8599999999999</ele>
        <time>2022-05-01T12:16:42Z</time>
      </trkpt>
      <trkpt lat="46.061136033385992" lon="9.036656795069575">
        <ele>1269.1099999999999</ele>
        <time>2022-05-01T12:16:50Z</time>
      </trkpt>
      <trkpt lat="46.061138045042753" lon="9.036659058183432">
        <ele>1269.29</ele>
        <time>2022-05-01T12:17:03Z</time>
      </trkpt>
      <trkpt lat="46.061141733080149" lon="9.036657214164734">
        <ele>1269.29</ele>
        <time>2022-05-01T12:17:12Z</time>
      </trkpt>
      <trkpt lat="46.061150701716542" lon="9.036648161709309">
        <ele>1269.52</ele>
        <time>2022-05-01T12:17:27Z</time>
      </trkpt>
      <trkpt lat="46.061154473572969" lon="9.036647826433182">
        <ele>1269.4000000000001</ele>
        <time>2022-05-01T12:17:36Z</time>
      </trkpt>
      <trkpt lat="46.061156569048762" lon="9.036645395681262">
        <ele>1269.28</ele>
        <time>2022-05-01T12:17:43Z</time>
      </trkpt>
      <trkpt lat="46.061150785535574" lon="9.036655370146036">
        <ele>1268.79</ele>
        <time>2022-05-01T12:17:51Z</time>
      </trkpt>
      <trkpt lat="46.061150869354606" lon="9.03665260411799">
        <ele>1268.8699999999999</ele>
        <time>2022-05-01T12:17:58Z</time>
      </trkpt>
      <trkpt lat="46.061150031164289" lon="9.036651514470577">
        <ele>1269.02</ele>
        <time>2022-05-01T12:18:07Z</time>
      </trkpt>
      <trkpt lat="46.061156904324889" lon="9.036647491157055">
        <ele>1268.97</ele>
        <time>2022-05-01T12:18:16Z</time>
      </trkpt>
      <trkpt lat="46.061152461916208" lon="9.036656375974417">
        <ele>1268.8900000000001</ele>
        <time>2022-05-01T12:18:24Z</time>
      </trkpt>
      <trkpt lat="46.061157491058111" lon="9.036648077890277">
        <ele>1268.9300000000001</ele>
        <time>2022-05-01T12:18:34Z</time>
      </trkpt>
      <trkpt lat="46.061156233772635" lon="9.03665411286056">
        <ele>1268.95</ele>
        <time>2022-05-01T12:18:45Z</time>
      </trkpt>
      <trkpt lat="46.061157993972301" lon="9.036652687937021">
        <ele>1268.8499999999999</ele>
        <time>2022-05-01T12:18:56Z</time>
      </trkpt>
      <trkpt lat="46.061152629554272" lon="9.036659561097622">
        <ele>1268.77</ele>
        <time>2022-05-01T12:19:05Z</time>
      </trkpt>
      <trkpt lat="46.061153383925557" lon="9.036655621603131">
        <ele>1268.8299999999999</ele>
        <time>2022-05-01T12:19:15Z</time>
      </trkpt>
      <trkpt lat="46.061155730858445" lon="9.036650005728006">
        <ele>1268.77</ele>
        <time>2022-05-01T12:19:24Z</time>
      </trkpt>
      <trkpt lat="46.061162520200014" lon="9.03662527911365">
        <ele>1268.4200000000001</ele>
        <time>2022-05-01T12:19:33Z</time>
      </trkpt>
      <trkpt lat="46.061156401410699" lon="9.036622261628509">
        <ele>1268.47</ele>
        <time>2022-05-01T12:19:43Z</time>
      </trkpt>
      <trkpt lat="46.06116721406579" lon="9.036606922745705">
        <ele>1268.5599999999999</ele>
        <time>2022-05-01T12:19:51Z</time>
      </trkpt>
      <trkpt lat="46.061156149953604" lon="9.036623351275921">
        <ele>1268.4100000000001</ele>
        <time>2022-05-01T12:20:03Z</time>
      </trkpt>
      <trkpt lat="46.061149947345257" lon="9.036631565541029">
        <ele>1268.51</ele>
        <time>2022-05-01T12:20:13Z</time>
      </trkpt>
      <trkpt lat="46.061151456087828" lon="9.036628715693951">
        <ele>1268.6400000000001</ele>
        <time>2022-05-01T12:20:21Z</time>
      </trkpt>
      <trkpt lat="46.061153132468462" lon="9.036631733179092">
        <ele>1268.47</ele>
        <time>2022-05-01T12:20:30Z</time>
      </trkpt>
      <trkpt lat="46.061159167438745" lon="9.036622932180762">
        <ele>1268.2</ele>
        <time>2022-05-01T12:20:40Z</time>
      </trkpt>
      <trkpt lat="46.061152881011367" lon="9.036627961322665">
        <ele>1268.25</ele>
        <time>2022-05-01T12:20:48Z</time>
      </trkpt>
      <trkpt lat="46.061149947345257" lon="9.036625195294619">
        <ele>1268.52</ele>
        <time>2022-05-01T12:20:58Z</time>
      </trkpt>
      <trkpt lat="46.061142152175307" lon="9.036631733179092">
        <ele>1268.54</ele>
        <time>2022-05-01T12:21:07Z</time>
      </trkpt>
      <trkpt lat="46.061142319813371" lon="9.036629470065236">
        <ele>1268.49</ele>
        <time>2022-05-01T12:21:14Z</time>
      </trkpt>
      <trkpt lat="46.061140727251768" lon="9.036628799512982">
        <ele>1268.5</ele>
        <time>2022-05-01T12:21:24Z</time>
      </trkpt>
      <trkpt lat="46.061146594583988" lon="9.036626620218158">
        <ele>1268.3599999999999</ele>
        <time>2022-05-01T12:21:33Z</time>
      </trkpt>
      <trkpt lat="46.061148941516876" lon="9.036624608561397">
        <ele>1268.22</ele>
        <time>2022-05-01T12:21:41Z</time>
      </trkpt>
      <trkpt lat="46.061150953173637" lon="9.036623015999794">
        <ele>1268.4200000000001</ele>
        <time>2022-05-01T12:21:49Z</time>
      </trkpt>
      <trkpt lat="46.061146007850766" lon="9.036637265235186">
        <ele>1268.4100000000001</ele>
        <time>2022-05-01T12:21:57Z</time>
      </trkpt>
      <trkpt lat="46.061154222115874" lon="9.03663357719779">
        <ele>1268.22</ele>
        <time>2022-05-01T12:22:07Z</time>
      </trkpt>
      <trkpt lat="46.061142152175307" lon="9.036640198901296">
        <ele>1268.3299999999999</ele>
        <time>2022-05-01T12:22:17Z</time>
      </trkpt>
      <trkpt lat="46.061143493279815" lon="9.036629721522331">
        <ele>1267.95</ele>
        <time>2022-05-01T12:22:28Z</time>
      </trkpt>
      <trkpt lat="46.061149444431067" lon="9.036625027656555">
        <ele>1268.0899999999999</ele>
        <time>2022-05-01T12:22:37Z</time>
      </trkpt>
      <trkpt lat="46.061151539906859" lon="9.036624608561397">
        <ele>1267.9000000000001</ele>
        <time>2022-05-01T12:22:45Z</time>
      </trkpt>
      <trkpt lat="46.06114718131721" lon="9.036635840311647">
        <ele>1268.0899999999999</ele>
        <time>2022-05-01T12:22:53Z</time>
      </trkpt>
      <trkpt lat="46.061151036992669" lon="9.036635002121329">
        <ele>1268.0599999999999</ele>
        <time>2022-05-01T12:23:04Z</time>
      </trkpt>
      <trkpt lat="46.061154892668128" lon="9.036636929959059">
        <ele>1268.0699999999999</ele>
        <time>2022-05-01T12:23:12Z</time>
      </trkpt>
      <trkpt lat="46.061161262914538" lon="9.036633912473917">
        <ele>1268.0699999999999</ele>
        <time>2022-05-01T12:23:21Z</time>
      </trkpt>
      <trkpt lat="46.06115547940135" lon="9.036639612168074">
        <ele>1268.5699999999999</ele>
        <time>2022-05-01T12:23:29Z</time>
      </trkpt>
      <trkpt lat="46.061158832162619" lon="9.036639276891947">
        <ele>1268.4400000000001</ele>
        <time>2022-05-01T12:23:37Z</time>
      </trkpt>
      <trkpt lat="46.06115547940135" lon="9.036646569147706">
        <ele>1268.27</ele>
        <time>2022-05-01T12:23:46Z</time>
      </trkpt>
      <trkpt lat="46.061152210459113" lon="9.036655453965068">
        <ele>1267.8399999999999</ele>
        <time>2022-05-01T12:24:00Z</time>
      </trkpt>
      <trkpt lat="46.061141230165958" lon="9.036664590239525">
        <ele>1268.23</ele>
        <time>2022-05-01T12:24:10Z</time>
      </trkpt>
      <trkpt lat="46.0611408110708" lon="9.036662159487605">
        <ele>1268.46</ele>
        <time>2022-05-01T12:24:17Z</time>
      </trkpt>
      <trkpt lat="46.061134357005358" lon="9.036664757877588">
        <ele>1268.0599999999999</ele>
        <time>2022-05-01T12:24:26Z</time>
      </trkpt>
      <trkpt lat="46.06113544665277" lon="9.036656627431512">
        <ele>1268.0899999999999</ele>
        <time>2022-05-01T12:24:37Z</time>
      </trkpt>
      <trkpt lat="46.06114030815661" lon="9.036651095375419">
        <ele>1268.2</ele>
        <time>2022-05-01T12:24:46Z</time>
      </trkpt>
      <trkpt lat="46.061136787757277" lon="9.036654783412814">
        <ele>1268.4300000000001</ele>
        <time>2022-05-01T12:24:58Z</time>
      </trkpt>
      <trkpt lat="46.061138128861785" lon="9.036652185022831">
        <ele>1268.29</ele>
        <time>2022-05-01T12:25:07Z</time>
      </trkpt>
      <trkpt lat="46.061132177710533" lon="9.036659812554717">
        <ele>1268.3699999999999</ele>
        <time>2022-05-01T12:25:16Z</time>
      </trkpt>
      <trkpt lat="46.061136201024055" lon="9.036656459793448">
        <ele>1268.25</ele>
        <time>2022-05-01T12:25:25Z</time>
      </trkpt>
      <trkpt lat="46.061138631775975" lon="9.036653526127338">
        <ele>1268.0799999999999</ele>
        <time>2022-05-01T12:25:34Z</time>
      </trkpt>
      <trkpt lat="46.061124298721552" lon="9.03666484169662">
        <ele>1267.8199999999999</ele>
        <time>2022-05-01T12:25:45Z</time>
      </trkpt>
      <trkpt lat="46.061118096113205" lon="9.036662243306637">
        <ele>1267.8199999999999</ele>
        <time>2022-05-01T12:25:57Z</time>
      </trkpt>
      <trkpt lat="46.061120610684156" lon="9.03667070902884">
        <ele>1267.4200000000001</ele>
        <time>2022-05-01T12:26:49Z</time>
      </trkpt>
      <trkpt lat="46.061122370883822" lon="9.036665763705969">
        <ele>1267.4400000000001</ele>
        <time>2022-05-01T12:27:37Z</time>
      </trkpt>
      <trkpt lat="46.061115832999349" lon="9.036673223599792">
        <ele>1267.4400000000001</ele>
        <time>2022-05-01T12:28:24Z</time>
      </trkpt>
      <trkpt lat="46.061122035607696" lon="9.03666970320046">
        <ele>1267.3099999999999</ele>
        <time>2022-05-01T12:29:09Z</time>
      </trkpt>
      <trkpt lat="46.061120694503188" lon="9.036670960485935">
        <ele>1267.47</ele>
        <time>2022-05-01T12:29:20Z</time>
      </trkpt>
      <trkpt lat="46.061124885454774" lon="9.036670289933682">
        <ele>1267.53</ele>
        <time>2022-05-01T12:29:30Z</time>
      </trkpt>
      <trkpt lat="46.061119604855776" lon="9.036679929122329">
        <ele>1267.4100000000001</ele>
        <time>2022-05-01T12:29:39Z</time>
      </trkpt>
      <trkpt lat="46.061133434996009" lon="9.036667943000794">
        <ele>1267.3800000000001</ele>
        <time>2022-05-01T12:29:47Z</time>
      </trkpt>
      <trkpt lat="46.061119521036744" lon="9.036677917465568">
        <ele>1267.27</ele>
        <time>2022-05-01T12:29:59Z</time>
      </trkpt>
      <trkpt lat="46.061119353398681" lon="9.036681605502963">
        <ele>1267.1199999999999</ele>
        <time>2022-05-01T12:30:09Z</time>
      </trkpt>
      <trkpt lat="46.061118515208364" lon="9.036688227206469">
        <ele>1267.2</ele>
        <time>2022-05-01T12:30:16Z</time>
      </trkpt>
      <trkpt lat="46.061120107769966" lon="9.036690825596452">
        <ele>1267.1199999999999</ele>
        <time>2022-05-01T12:30:26Z</time>
      </trkpt>
      <trkpt lat="46.061118431389332" lon="9.036683868616819">
        <ele>1267.21</ele>
        <time>2022-05-01T12:30:38Z</time>
      </trkpt>
      <trkpt lat="46.061119353398681" lon="9.036679845303297">
        <ele>1267.22</ele>
        <time>2022-05-01T12:30:51Z</time>
      </trkpt>
      <trkpt lat="46.061115078628063" lon="9.036683533340693">
        <ele>1267.1900000000001</ele>
        <time>2022-05-01T12:31:02Z</time>
      </trkpt>
      <trkpt lat="46.061114743351936" lon="9.036685628816485">
        <ele>1267.23</ele>
        <time>2022-05-01T12:31:10Z</time>
      </trkpt>
      <trkpt lat="46.061113653704524" lon="9.036682611331344">
        <ele>1267.23</ele>
        <time>2022-05-01T12:31:19Z</time>
      </trkpt>
      <trkpt lat="46.061112647876143" lon="9.036682108417153">
        <ele>1267.5899999999999</ele>
        <time>2022-05-01T12:31:30Z</time>
      </trkpt>
      <trkpt lat="46.061114156618714" lon="9.036675738170743">
        <ele>1267.6600000000001</ele>
        <time>2022-05-01T12:31:43Z</time>
      </trkpt>
      <trkpt lat="46.061112899333239" lon="9.036677749827504">
        <ele>1267.3599999999999</ele>
        <time>2022-05-01T12:31:53Z</time>
      </trkpt>
      <trkpt lat="46.061116335913539" lon="9.036678085103631">
        <ele>1267.3800000000001</ele>
        <time>2022-05-01T12:32:04Z</time>
      </trkpt>
      <trkpt lat="46.061127232387662" lon="9.036672050133348">
        <ele>1267.47</ele>
        <time>2022-05-01T12:32:11Z</time>
      </trkpt>
      <trkpt lat="46.061124466359615" lon="9.036674229428172">
        <ele>1267.3299999999999</ele>
        <time>2022-05-01T12:32:24Z</time>
      </trkpt>
      <trkpt lat="46.061137123033404" lon="9.036656208336353">
        <ele>1267.26</ele>
        <time>2022-05-01T12:32:40Z</time>
      </trkpt>
      <trkpt lat="46.061131423339248" lon="9.03667313978076">
        <ele>1267.1900000000001</ele>
        <time>2022-05-01T12:32:54Z</time>
      </trkpt>
      <trkpt lat="46.06114475056529" lon="9.036666853353381">
        <ele>1267.28</ele>
        <time>2022-05-01T12:33:01Z</time>
      </trkpt>
      <trkpt lat="46.061148941516876" lon="9.036663165315986">
        <ele>1267.3</ele>
        <time>2022-05-01T12:33:07Z</time>
      </trkpt>
      <trkpt lat="46.061151288449764" lon="9.036650341004133">
        <ele>1267.29</ele>
        <time>2022-05-01T12:33:18Z</time>
      </trkpt>
      <trkpt lat="46.061146426945925" lon="9.036651263013482">
        <ele>1267.26</ele>
        <time>2022-05-01T12:33:27Z</time>
      </trkpt>
      <trkpt lat="46.061144666746259" lon="9.036646066233516">
        <ele>1267.0999999999999</ele>
        <time>2022-05-01T12:33:38Z</time>
      </trkpt>
      <trkpt lat="46.061139386147261" lon="9.036651095375419">
        <ele>1267.1700000000001</ele>
        <time>2022-05-01T12:33:46Z</time>
      </trkpt>
      <trkpt lat="46.061136787757277" lon="9.036649502813816">
        <ele>1267.4300000000001</ele>
        <time>2022-05-01T12:33:59Z</time>
      </trkpt>
      <trkpt lat="46.061137290671468" lon="9.036648748442531">
        <ele>1267.49</ele>
        <time>2022-05-01T12:34:10Z</time>
      </trkpt>
      <trkpt lat="46.061133854091167" lon="9.036653190851212">
        <ele>1267.47</ele>
        <time>2022-05-01T12:34:18Z</time>
      </trkpt>
      <trkpt lat="46.061136703938246" lon="9.036647910252214">
        <ele>1267.3800000000001</ele>
        <time>2022-05-01T12:34:27Z</time>
      </trkpt>
      <trkpt lat="46.061137961223722" lon="9.036655453965068">
        <ele>1267.4400000000001</ele>
        <time>2022-05-01T12:34:42Z</time>
      </trkpt>
      <trkpt lat="46.061135781928897" lon="9.036655453965068">
        <ele>1267.46</ele>
        <time>2022-05-01T12:34:56Z</time>
      </trkpt>
      <trkpt lat="46.061133267357945" lon="9.03664673678577">
        <ele>1267.54</ele>
        <time>2022-05-01T12:35:07Z</time>
      </trkpt>
      <trkpt lat="46.061133434996009" lon="9.036635337397456">
        <ele>1267.6800000000001</ele>
        <time>2022-05-01T12:35:19Z</time>
      </trkpt>
      <trkpt lat="46.061141146346927" lon="9.036624021828175">
        <ele>1267.8</ele>
        <time>2022-05-01T12:35:28Z</time>
      </trkpt>
      <trkpt lat="46.061143409460783" lon="9.036620417609811">
        <ele>1267.8800000000001</ele>
        <time>2022-05-01T12:35:42Z</time>
      </trkpt>
      <trkpt lat="46.061142319813371" lon="9.036628715693951">
        <ele>1267.72</ele>
        <time>2022-05-01T12:35:54Z</time>
      </trkpt>
      <trkpt lat="46.061147768050432" lon="9.03662821277976">
        <ele>1267.26</ele>
        <time>2022-05-01T12:36:37Z</time>
      </trkpt>
      <trkpt lat="46.061142655089498" lon="9.036642210558057">
        <ele>1267.6800000000001</ele>
        <time>2022-05-01T12:37:23Z</time>
      </trkpt>
      <trkpt lat="46.061146846041083" lon="9.036644054576755">
        <ele>1267.49</ele>
        <time>2022-05-01T12:38:06Z</time>
      </trkpt>
      <trkpt lat="46.061141649261117" lon="9.036647574976087">
        <ele>1267.6199999999999</ele>
        <time>2022-05-01T12:38:43Z</time>
      </trkpt>
      <trkpt lat="46.061137709766626" lon="9.036640198901296">
        <ele>1267.52</ele>
        <time>2022-05-01T12:39:27Z</time>
      </trkpt>
      <trkpt lat="46.061130752786994" lon="9.036651598289609">
        <ele>1267.3900000000001</ele>
        <time>2022-05-01T12:39:48Z</time>
      </trkpt>
      <trkpt lat="46.061123041436076" lon="9.03663064353168">
        <ele>1268.04</ele>
        <time>2022-05-01T12:40:06Z</time>
      </trkpt>
      <trkpt lat="46.061127064749599" lon="9.036650341004133">
        <ele>1268.53</ele>
        <time>2022-05-01T12:40:21Z</time>
      </trkpt>
      <trkpt lat="46.061076940968633" lon="9.036676995456219">
        <ele>1269.6500000000001</ele>
        <time>2022-05-01T12:40:33Z</time>
      </trkpt>
      <trkpt lat="46.061011729761958" lon="9.036717982962728">
        <ele>1271.48</ele>
        <time>2022-05-01T12:40:48Z</time>
      </trkpt>
      <trkpt lat="46.061003264039755" lon="9.036733657121658">
        <ele>1271.54</ele>
        <time>2022-05-01T12:41:07Z</time>
      </trkpt>
      <trkpt lat="46.060995552688837" lon="9.036747571080923">
        <ele>1271.78</ele>
        <time>2022-05-01T12:41:32Z</time>
      </trkpt>
      <trkpt lat="46.060991026461124" lon="9.036735249683261">
        <ele>1271.8099999999999</ele>
        <time>2022-05-01T12:41:51Z</time>
      </trkpt>
      <trkpt lat="46.060981554910541" lon="9.036725275218487">
        <ele>1271.3399999999999</ele>
        <time>2022-05-01T12:42:13Z</time>
      </trkpt>
      <trkpt lat="46.060977363958955" lon="9.036727957427502">
        <ele>1271.5799999999999</ele>
        <time>2022-05-01T12:42:33Z</time>
      </trkpt>
      <trkpt lat="46.060980297625065" lon="9.036736255511642">
        <ele>1271.1099999999999</ele>
        <time>2022-05-01T12:42:58Z</time>
      </trkpt>
      <trkpt lat="46.06099178083241" lon="9.036726364865899">
        <ele>1271.05</ele>
        <time>2022-05-01T12:43:25Z</time>
      </trkpt>
      <trkpt lat="46.060986081138253" lon="9.036722425371409">
        <ele>1272.53</ele>
        <time>2022-05-01T12:43:39Z</time>
      </trkpt>
      <trkpt lat="46.060998318716884" lon="9.036722173914313">
        <ele>1270.77</ele>
        <time>2022-05-01T12:43:58Z</time>
      </trkpt>
      <trkpt lat="46.060988511890173" lon="9.036738686263561">
        <ele>1270.77</ele>
        <time>2022-05-01T12:44:24Z</time>
      </trkpt>
      <trkpt lat="46.060990858823061" lon="9.036727538332343">
        <ele>1270.73</ele>
        <time>2022-05-01T12:44:51Z</time>
      </trkpt>
      <trkpt lat="46.060996139422059" lon="9.036726029589772">
        <ele>1270.71</ele>
        <time>2022-05-01T12:45:12Z</time>
      </trkpt>
      <trkpt lat="46.060998402535915" lon="9.036725610494614">
        <ele>1270.8900000000001</ele>
        <time>2022-05-01T12:45:34Z</time>
      </trkpt>
      <trkpt lat="46.06099714525044" lon="9.036729047074914">
        <ele>1271.04</ele>
        <time>2022-05-01T12:45:57Z</time>
      </trkpt>
      <trkpt lat="46.060965210199356" lon="9.036710187792778">
        <ele>1271.1700000000001</ele>
        <time>2022-05-01T12:46:15Z</time>
      </trkpt>
      <trkpt lat="46.060953810811043" lon="9.036705158650875">
        <ele>1271.01</ele>
        <time>2022-05-01T12:46:16Z</time>
      </trkpt>
      <trkpt lat="46.060942495241761" lon="9.036697614938021">
        <ele>1270.8800000000001</ele>
        <time>2022-05-01T12:46:17Z</time>
      </trkpt>
      <trkpt lat="46.060933945700526" lon="9.036686718463898">
        <ele>1270.6800000000001</ele>
        <time>2022-05-01T12:46:18Z</time>
      </trkpt>
      <trkpt lat="46.060925396159291" lon="9.036675989627838">
        <ele>1270.54</ele>
        <time>2022-05-01T12:46:19Z</time>
      </trkpt>
      <trkpt lat="46.060916343703866" lon="9.036665847525001">
        <ele>1270.29</ele>
        <time>2022-05-01T12:46:20Z</time>
      </trkpt>
      <trkpt lat="46.060855910181999" lon="9.03660524636507">
        <ele>1268.79</ele>
        <time>2022-05-01T12:46:27Z</time>
      </trkpt>
      <trkpt lat="46.060848198831081" lon="9.036592924967408">
        <ele>1268.5999999999999</ele>
        <time>2022-05-01T12:46:28Z</time>
      </trkpt>
      <trkpt lat="46.060841241851449" lon="9.036579178646207">
        <ele>1268.1300000000001</ele>
        <time>2022-05-01T12:46:29Z</time>
      </trkpt>
      <trkpt lat="46.06083638034761" lon="9.036565767601132">
        <ele>1267.8399999999999</ele>
        <time>2022-05-01T12:46:30Z</time>
      </trkpt>
      <trkpt lat="46.060831602662802" lon="9.036552021279931">
        <ele>1267.6199999999999</ele>
        <time>2022-05-01T12:46:31Z</time>
      </trkpt>
      <trkpt lat="46.060773516073823" lon="9.036413719877601">
        <ele>1265.5699999999999</ele>
        <time>2022-05-01T12:46:42Z</time>
      </trkpt>
      <trkpt lat="46.060747113078833" lon="9.036309197545052">
        <ele>1262.47</ele>
        <time>2022-05-01T12:46:54Z</time>
      </trkpt>
      <trkpt lat="46.060683410614729" lon="9.036144493147731">
        <ele>1259.4000000000001</ele>
        <time>2022-05-01T12:47:10Z</time>
      </trkpt>
      <trkpt lat="46.06057939119637" lon="9.036038797348738">
        <ele>1256.23</ele>
        <time>2022-05-01T12:47:23Z</time>
      </trkpt>
      <trkpt lat="46.060408819466829" lon="9.035869650542736">
        <ele>1253.8</ele>
        <time>2022-05-01T12:47:38Z</time>
      </trkpt>
      <trkpt lat="46.060382332652807" lon="9.035849869251251">
        <ele>1253.24</ele>
        <time>2022-05-01T12:47:41Z</time>
      </trkpt>
      <trkpt lat="46.06036783196032" lon="9.035797649994493">
        <ele>1251.8099999999999</ele>
        <time>2022-05-01T12:47:46Z</time>
      </trkpt>
      <trkpt lat="46.060361126437783" lon="9.035778874531388">
        <ele>1251.54</ele>
        <time>2022-05-01T12:47:47Z</time>
      </trkpt>
      <trkpt lat="46.060351990163326" lon="9.035757668316364">
        <ele>1251.22</ele>
        <time>2022-05-01T12:47:48Z</time>
      </trkpt>
      <trkpt lat="46.060332041233778" lon="9.035740066319704">
        <ele>1250.8099999999999</ele>
        <time>2022-05-01T12:47:50Z</time>
      </trkpt>
      <trkpt lat="46.060320055112243" lon="9.035734785720706">
        <ele>1250.8199999999999</ele>
        <time>2022-05-01T12:47:51Z</time>
      </trkpt>
      <trkpt lat="46.060272697359324" lon="9.03570125810802">
        <ele>1250.46</ele>
        <time>2022-05-01T12:47:56Z</time>
      </trkpt>
      <trkpt lat="46.060263644903898" lon="9.035683991387487">
        <ele>1250.1700000000001</ele>
        <time>2022-05-01T12:47:57Z</time>
      </trkpt>
      <trkpt lat="46.060223914682865" lon="9.035630933940411">
        <ele>1249.4300000000001</ele>
        <time>2022-05-01T12:48:01Z</time>
      </trkpt>
      <trkpt lat="46.060213185846806" lon="9.035611236467958">
        <ele>1249.3599999999999</ele>
        <time>2022-05-01T12:48:02Z</time>
      </trkpt>
      <trkpt lat="46.060203127563" lon="9.035589443519712">
        <ele>1249.25</ele>
        <time>2022-05-01T12:48:03Z</time>
      </trkpt>
      <trkpt lat="46.06019189581275" lon="9.035573936998844">
        <ele>1249.1099999999999</ele>
        <time>2022-05-01T12:48:04Z</time>
      </trkpt>
      <trkpt lat="46.060175383463502" lon="9.035541834309697">
        <ele>1248.73</ele>
        <time>2022-05-01T12:48:06Z</time>
      </trkpt>
      <trkpt lat="46.060167839750648" lon="9.035522304475308">
        <ele>1248.5899999999999</ele>
        <time>2022-05-01T12:48:07Z</time>
      </trkpt>
      <trkpt lat="46.060099611058831" lon="9.035403532907367">
        <ele>1247.01</ele>
        <time>2022-05-01T12:48:16Z</time>
      </trkpt>
      <trkpt lat="46.060004979372025" lon="9.035322228446603">
        <ele>1245.79</ele>
        <time>2022-05-01T12:48:26Z</time>
      </trkpt>
      <trkpt lat="46.059994250535965" lon="9.035304710268974">
        <ele>1245.8</ele>
        <time>2022-05-01T12:48:27Z</time>
      </trkpt>
      <trkpt lat="46.05992903932929" lon="9.035219550132752">
        <ele>1245.48</ele>
        <time>2022-05-01T12:48:32Z</time>
      </trkpt>
      <trkpt lat="46.059910766780376" lon="9.035177724435926">
        <ele>1245.2</ele>
        <time>2022-05-01T12:48:34Z</time>
      </trkpt>
      <trkpt lat="46.059898613020778" lon="9.03515987098217">
        <ele>1245.02</ele>
        <time>2022-05-01T12:48:35Z</time>
      </trkpt>
      <trkpt lat="46.059838011860847" lon="9.035053001716733">
        <ele>1242.9200000000001</ele>
        <time>2022-05-01T12:48:42Z</time>
      </trkpt>
      <trkpt lat="46.059836586937308" lon="9.035030538216233">
        <ele>1242.72</ele>
        <time>2022-05-01T12:48:43Z</time>
      </trkpt>
      <trkpt lat="46.059835329651833" lon="9.035009080544114">
        <ele>1242.4200000000001</ele>
        <time>2022-05-01T12:48:44Z</time>
      </trkpt>
      <trkpt lat="46.059830384328961" lon="9.034984018653631">
        <ele>1242.1600000000001</ele>
        <time>2022-05-01T12:48:45Z</time>
      </trkpt>
      <trkpt lat="46.059829881414771" lon="9.034959711134434">
        <ele>1241.75</ele>
        <time>2022-05-01T12:48:46Z</time>
      </trkpt>
      <trkpt lat="46.059829629957676" lon="9.034939091652632">
        <ele>1241.54</ele>
        <time>2022-05-01T12:48:47Z</time>
      </trkpt>
      <trkpt lat="46.059825858101249" lon="9.034920232370496">
        <ele>1241.2</ele>
        <time>2022-05-01T12:48:48Z</time>
      </trkpt>
      <trkpt lat="46.05981957167387" lon="9.034898774698377">
        <ele>1240.79</ele>
        <time>2022-05-01T12:48:49Z</time>
      </trkpt>
      <trkpt lat="46.059810100123286" lon="9.03487790375948">
        <ele>1240.4300000000001</ele>
        <time>2022-05-01T12:48:50Z</time>
      </trkpt>
      <trkpt lat="46.059801215305924" lon="9.03485887683928">
        <ele>1240.1400000000001</ele>
        <time>2022-05-01T12:48:51Z</time>
      </trkpt>
      <trkpt lat="46.059793084859848" lon="9.034839514642954">
        <ele>1239.9200000000001</ele>
        <time>2022-05-01T12:48:52Z</time>
      </trkpt>
      <trkpt lat="46.05975653976202" lon="9.034788217395544">
        <ele>1239.3199999999999</ele>
        <time>2022-05-01T12:48:55Z</time>
      </trkpt>
      <trkpt lat="46.059674145653844" lon="9.034598870202899">
        <ele>1237.25</ele>
        <time>2022-05-01T12:49:04Z</time>
      </trkpt>
      <trkpt lat="46.059593427926302" lon="9.034474734216929">
        <ele>1235.8900000000001</ele>
        <time>2022-05-01T12:49:14Z</time>
      </trkpt>
      <trkpt lat="46.059598289430141" lon="9.034408768638969">
        <ele>1235.24</ele>
        <time>2022-05-01T12:49:28Z</time>
      </trkpt>
      <trkpt lat="46.059636930003762" lon="9.034417988732457">
        <ele>1235.3599999999999</ele>
        <time>2022-05-01T12:49:35Z</time>
      </trkpt>
      <trkpt lat="46.059634247794747" lon="9.034398542717099">
        <ele>1235.6099999999999</ele>
        <time>2022-05-01T12:49:59Z</time>
      </trkpt>
      <trkpt lat="46.059584207832813" lon="9.034359902143478">
        <ele>1235.4100000000001</ele>
        <time>2022-05-01T12:50:14Z</time>
      </trkpt>
      <trkpt lat="46.059572054073215" lon="9.034349508583546">
        <ele>1235.1900000000001</ele>
        <time>2022-05-01T12:50:15Z</time>
      </trkpt>
      <trkpt lat="46.059563420712948" lon="9.034334504976869">
        <ele>1234.9100000000001</ele>
        <time>2022-05-01T12:50:16Z</time>
      </trkpt>
      <trkpt lat="46.059562498703599" lon="9.034314975142479">
        <ele>1234.74</ele>
        <time>2022-05-01T12:50:17Z</time>
      </trkpt>
      <trkpt lat="46.059561325237155" lon="9.034294439479709">
        <ele>1234.4300000000001</ele>
        <time>2022-05-01T12:50:18Z</time>
      </trkpt>
      <trkpt lat="46.05955814011395" lon="9.034276334568858">
        <ele>1234.1500000000001</ele>
        <time>2022-05-01T12:50:19Z</time>
      </trkpt>
      <trkpt lat="46.059546321630478" lon="9.034162927418947">
        <ele>1232.79</ele>
        <time>2022-05-01T12:50:25Z</time>
      </trkpt>
      <trkpt lat="46.059550344944" lon="9.034145995974541">
        <ele>1232.71</ele>
        <time>2022-05-01T12:50:26Z</time>
      </trkpt>
      <trkpt lat="46.059550261124969" lon="9.034128142520785">
        <ele>1232.6800000000001</ele>
        <time>2022-05-01T12:50:27Z</time>
      </trkpt>
      <trkpt lat="46.05955277569592" lon="9.034077683463693">
        <ele>1232.75</ele>
        <time>2022-05-01T12:50:30Z</time>
      </trkpt>
      <trkpt lat="46.059599127620459" lon="9.033904932439327">
        <ele>1231.77</ele>
        <time>2022-05-01T12:50:39Z</time>
      </trkpt>
      <trkpt lat="46.059606671333313" lon="9.033865788951516">
        <ele>1231.6500000000001</ele>
        <time>2022-05-01T12:50:41Z</time>
      </trkpt>
      <trkpt lat="46.059610107913613" lon="9.033843828365207">
        <ele>1231.6199999999999</ele>
        <time>2022-05-01T12:50:42Z</time>
      </trkpt>
      <trkpt lat="46.05961823835969" lon="9.033827316015959">
        <ele>1231.45</ele>
        <time>2022-05-01T12:50:43Z</time>
      </trkpt>
      <trkpt lat="46.059626955538988" lon="9.033812563866377">
        <ele>1231.3900000000001</ele>
        <time>2022-05-01T12:50:44Z</time>
      </trkpt>
      <trkpt lat="46.0596764087677" lon="9.033641573041678">
        <ele>1228.6900000000001</ele>
        <time>2022-05-01T12:50:54Z</time>
      </trkpt>
      <trkpt lat="46.059681689366698" lon="9.033565297722817">
        <ele>1227.6900000000001</ele>
        <time>2022-05-01T12:50:58Z</time>
      </trkpt>
      <trkpt lat="46.05966811068356" lon="9.033421715721488">
        <ele>1224.8499999999999</ele>
        <time>2022-05-01T12:51:07Z</time>
      </trkpt>
      <trkpt lat="46.059659561142325" lon="9.03337930329144">
        <ele>1223.53</ele>
        <time>2022-05-01T12:51:10Z</time>
      </trkpt>
      <trkpt lat="46.059604408219457" lon="9.033311828970909">
        <ele>1221.3699999999999</ele>
        <time>2022-05-01T12:51:16Z</time>
      </trkpt>
      <trkpt lat="46.0595469083637" lon="9.033276792615652">
        <ele>1219.6900000000001</ele>
        <time>2022-05-01T12:51:21Z</time>
      </trkpt>
      <trkpt lat="46.059532826766372" lon="9.033272098749876">
        <ele>1219.51</ele>
        <time>2022-05-01T12:51:22Z</time>
      </trkpt>
      <trkpt lat="46.05946141295135" lon="9.033185178413987">
        <ele>1216.0599999999999</ele>
        <time>2022-05-01T12:51:30Z</time>
      </trkpt>
      <trkpt lat="46.059396788477898" lon="9.033115776255727">
        <ele>1213.1900000000001</ele>
        <time>2022-05-01T12:51:37Z</time>
      </trkpt>
      <trkpt lat="46.05936711654067" lon="9.033081494271755">
        <ele>1212.53</ele>
        <time>2022-05-01T12:51:39Z</time>
      </trkpt>
      <trkpt lat="46.05932948179543" lon="9.033013349398971">
        <ele>1211.0899999999999</ele>
        <time>2022-05-01T12:51:44Z</time>
      </trkpt>
      <trkpt lat="46.059320094063878" lon="9.032994825392962">
        <ele>1210.8599999999999</ele>
        <time>2022-05-01T12:51:45Z</time>
      </trkpt>
      <trkpt lat="46.059316489845514" lon="9.032970350235701">
        <ele>1210.54</ele>
        <time>2022-05-01T12:51:46Z</time>
      </trkpt>
      <trkpt lat="46.059251111000776" lon="9.032759377732873">
        <ele>1208.26</ele>
        <time>2022-05-01T12:51:56Z</time>
      </trkpt>
      <trkpt lat="46.059243567287922" lon="9.032742865383625">
        <ele>1208.0599999999999</ele>
        <time>2022-05-01T12:51:57Z</time>
      </trkpt>
      <trkpt lat="46.059207189828157" lon="9.032684024423361">
        <ele>1207.3699999999999</ele>
        <time>2022-05-01T12:52:01Z</time>
      </trkpt>
      <trkpt lat="46.059200651943684" lon="9.0326629858464">
        <ele>1207.1800000000001</ele>
        <time>2022-05-01T12:52:02Z</time>
      </trkpt>
      <trkpt lat="46.059191767126322" lon="9.032640773802996">
        <ele>1206.99</ele>
        <time>2022-05-01T12:52:03Z</time>
      </trkpt>
      <trkpt lat="46.059182547032833" lon="9.032618394121528">
        <ele>1206.8399999999999</ele>
        <time>2022-05-01T12:52:04Z</time>
      </trkpt>
      <trkpt lat="46.059176009148359" lon="9.032598696649075">
        <ele>1206.8</ele>
        <time>2022-05-01T12:52:05Z</time>
      </trkpt>
      <trkpt lat="46.059168130159378" lon="9.032580172643066">
        <ele>1206.8199999999999</ele>
        <time>2022-05-01T12:52:06Z</time>
      </trkpt>
      <trkpt lat="46.05912571772933" lon="9.032506747171283">
        <ele>1206.72</ele>
        <time>2022-05-01T12:52:11Z</time>
      </trkpt>
      <trkpt lat="46.059059416875243" lon="9.032371379435062">
        <ele>1206.04</ele>
        <time>2022-05-01T12:52:20Z</time>
      </trkpt>
      <trkpt lat="46.059025637805462" lon="9.032327206805348">
        <ele>1206.47</ele>
        <time>2022-05-01T12:52:24Z</time>
      </trkpt>
      <trkpt lat="46.05901381932199" lon="9.032316310331225">
        <ele>1206.3499999999999</ele>
        <time>2022-05-01T12:52:25Z</time>
      </trkpt>
      <trkpt lat="46.05894735082984" lon="9.032205082476139">
        <ele>1205.8</ele>
        <time>2022-05-01T12:52:34Z</time>
      </trkpt>
      <trkpt lat="46.058815503492951" lon="9.032081700861454">
        <ele>1204.8599999999999</ele>
        <time>2022-05-01T12:52:47Z</time>
      </trkpt>
      <trkpt lat="46.058647111058235" lon="9.031935269013047">
        <ele>1203.79</ele>
        <time>2022-05-01T12:53:01Z</time>
      </trkpt>
      <trkpt lat="46.058546276763082" lon="9.031800990924239">
        <ele>1204.01</ele>
        <time>2022-05-01T12:53:10Z</time>
      </trkpt>
      <trkpt lat="46.058503361418843" lon="9.031635951250792">
        <ele>1202.98</ele>
        <time>2022-05-01T12:53:18Z</time>
      </trkpt>
      <trkpt lat="46.058493722230196" lon="9.031502511352301">
        <ele>1201.75</ele>
        <time>2022-05-01T12:53:25Z</time>
      </trkpt>
      <trkpt lat="46.058483328670263" lon="9.031484657898545">
        <ele>1201.4000000000001</ele>
        <time>2022-05-01T12:53:26Z</time>
      </trkpt>
      <trkpt lat="46.05841719545424" lon="9.031417686492205">
        <ele>1200.45</ele>
        <time>2022-05-01T12:53:31Z</time>
      </trkpt>
      <trkpt lat="46.058400850743055" lon="9.031409304589033">
        <ele>1200.27</ele>
        <time>2022-05-01T12:53:32Z</time>
      </trkpt>
      <trkpt lat="46.058295154944062" lon="9.031310481950641">
        <ele>1198.8399999999999</ele>
        <time>2022-05-01T12:53:42Z</time>
      </trkpt>
      <trkpt lat="46.058253077790141" lon="9.031259100884199">
        <ele>1197.78</ele>
        <time>2022-05-01T12:53:47Z</time>
      </trkpt>
      <trkpt lat="46.058242516592145" lon="9.031188525259495">
        <ele>1197.1600000000001</ele>
        <time>2022-05-01T12:53:51Z</time>
      </trkpt>
      <trkpt lat="46.058240588754416" lon="9.031170252710581">
        <ele>1197.04</ele>
        <time>2022-05-01T12:53:52Z</time>
      </trkpt>
      <trkpt lat="46.058229524642229" lon="9.031127756461501">
        <ele>1196.6600000000001</ele>
        <time>2022-05-01T12:53:54Z</time>
      </trkpt>
      <trkpt lat="46.0581533331424" lon="9.030993226915598">
        <ele>1195.01</ele>
        <time>2022-05-01T12:54:03Z</time>
      </trkpt>
      <trkpt lat="46.058087702840567" lon="9.030872695147991">
        <ele>1193.6800000000001</ele>
        <time>2022-05-01T12:54:11Z</time>
      </trkpt>
      <trkpt lat="46.058047972619534" lon="9.030783511698246">
        <ele>1192.6900000000001</ele>
        <time>2022-05-01T12:54:16Z</time>
      </trkpt>
      <trkpt lat="46.058038584887981" lon="9.030766244977713">
        <ele>1192.4100000000001</ele>
        <time>2022-05-01T12:54:17Z</time>
      </trkpt>
      <trkpt lat="46.05802827514708" lon="9.030748642981052">
        <ele>1192.1300000000001</ele>
        <time>2022-05-01T12:54:18Z</time>
      </trkpt>
      <trkpt lat="46.058024587109685" lon="9.030729783698916">
        <ele>1191.8599999999999</ele>
        <time>2022-05-01T12:54:19Z</time>
      </trkpt>
      <trkpt lat="46.058021066710353" lon="9.030713271349669">
        <ele>1191.5899999999999</ele>
        <time>2022-05-01T12:54:20Z</time>
      </trkpt>
      <trkpt lat="46.057975385338068" lon="9.030624255537987">
        <ele>1191.3599999999999</ele>
        <time>2022-05-01T12:54:26Z</time>
      </trkpt>
      <trkpt lat="46.057949904352427" lon="9.030584860593081">
        <ele>1191.0599999999999</ele>
        <time>2022-05-01T12:54:29Z</time>
      </trkpt>
      <trkpt lat="46.057942193001509" lon="9.030569270253182">
        <ele>1190.95</ele>
        <time>2022-05-01T12:54:30Z</time>
      </trkpt>
      <trkpt lat="46.057931547984481" lon="9.030552841722965">
        <ele>1190.8900000000001</ele>
        <time>2022-05-01T12:54:31Z</time>
      </trkpt>
      <trkpt lat="46.057924255728722" lon="9.03053498826921">
        <ele>1190.75</ele>
        <time>2022-05-01T12:54:32Z</time>
      </trkpt>
      <trkpt lat="46.057919058948755" lon="9.030478242784739">
        <ele>1190.8199999999999</ele>
        <time>2022-05-01T12:54:35Z</time>
      </trkpt>
      <trkpt lat="46.057922830805182" lon="9.030460137873888">
        <ele>1190.8199999999999</ele>
        <time>2022-05-01T12:54:36Z</time>
      </trkpt>
      <trkpt lat="46.057916125282645" lon="9.030399788171053">
        <ele>1190.46</ele>
        <time>2022-05-01T12:54:39Z</time>
      </trkpt>
      <trkpt lat="46.057911682873964" lon="9.03037715703249">
        <ele>1190.3900000000001</ele>
        <time>2022-05-01T12:54:40Z</time>
      </trkpt>
      <trkpt lat="46.057907156646252" lon="9.030353352427483">
        <ele>1190.4000000000001</ele>
        <time>2022-05-01T12:54:41Z</time>
      </trkpt>
      <trkpt lat="46.05788947083056" lon="9.030229970812798">
        <ele>1190.2</ele>
        <time>2022-05-01T12:54:47Z</time>
      </trkpt>
      <trkpt lat="46.057888967916369" lon="9.030204741284251">
        <ele>1190.03</ele>
        <time>2022-05-01T12:54:48Z</time>
      </trkpt>
      <trkpt lat="46.057890560477972" lon="9.030182613059878">
        <ele>1189.8299999999999</ele>
        <time>2022-05-01T12:54:49Z</time>
      </trkpt>
      <trkpt lat="46.057830126956105" lon="9.030068451538682">
        <ele>1189.9100000000001</ele>
        <time>2022-05-01T12:54:59Z</time>
      </trkpt>
      <trkpt lat="46.057809591293335" lon="9.030039785429835">
        <ele>1189.6600000000001</ele>
        <time>2022-05-01T12:55:01Z</time>
      </trkpt>
      <trkpt lat="46.057667601853609" lon="9.029943812638521">
        <ele>1190.1300000000001</ele>
        <time>2022-05-01T12:55:15Z</time>
      </trkpt>
      <trkpt lat="46.057599121704698" lon="9.029831662774086">
        <ele>1188.8299999999999</ele>
        <time>2022-05-01T12:55:24Z</time>
      </trkpt>
      <trkpt lat="46.057591242715716" lon="9.029810791835189">
        <ele>1188.5</ele>
        <time>2022-05-01T12:55:25Z</time>
      </trkpt>
      <trkpt lat="46.057580430060625" lon="9.029793189838529">
        <ele>1188.1500000000001</ele>
        <time>2022-05-01T12:55:26Z</time>
      </trkpt>
      <trkpt lat="46.057566264644265" lon="9.029777012765408">
        <ele>1187.98</ele>
        <time>2022-05-01T12:55:27Z</time>
      </trkpt>
      <trkpt lat="46.057551261037588" lon="9.029716914519668">
        <ele>1187.4200000000001</ele>
        <time>2022-05-01T12:55:31Z</time>
      </trkpt>
      <trkpt lat="46.057443553581834" lon="9.029538631439209">
        <ele>1185.8099999999999</ele>
        <time>2022-05-01T12:55:43Z</time>
      </trkpt>
      <trkpt lat="46.057343222200871" lon="9.02937350794673">
        <ele>1185.1800000000001</ele>
        <time>2022-05-01T12:55:57Z</time>
      </trkpt>
      <trkpt lat="46.057336935773492" lon="9.029325982555747">
        <ele>1184.77</ele>
        <time>2022-05-01T12:56:13Z</time>
      </trkpt>
      <trkpt lat="46.057350095361471" lon="9.029270745813847">
        <ele>1180.1400000000001</ele>
        <time>2022-05-01T12:56:33Z</time>
      </trkpt>
      <trkpt lat="46.057348670437932" lon="9.029266051948071">
        <ele>1182.6800000000001</ele>
        <time>2022-05-01T12:56:34Z</time>
      </trkpt>
      <trkpt lat="46.057346407324076" lon="9.029263705015183">
        <ele>1183.4100000000001</ele>
        <time>2022-05-01T12:56:36Z</time>
      </trkpt>
      <trkpt lat="46.057341964915395" lon="9.029262363910675">
        <ele>1187.0799999999999</ele>
        <time>2022-05-01T12:56:41Z</time>
      </trkpt>
      <trkpt lat="46.057341210544109" lon="9.029264207929373">
        <ele>1183.96</ele>
        <time>2022-05-01T12:56:42Z</time>
      </trkpt>
      <trkpt lat="46.05734271928668" lon="9.029265800490975">
        <ele>1187.54</ele>
        <time>2022-05-01T12:56:44Z</time>
      </trkpt>
      <trkpt lat="46.057342467829585" lon="9.029264459386468">
        <ele>1186.53</ele>
        <time>2022-05-01T12:56:45Z</time>
      </trkpt>
      <trkpt lat="46.057337773963809" lon="9.029256328940392">
        <ele>1184.6099999999999</ele>
        <time>2022-05-01T12:56:48Z</time>
      </trkpt>
      <trkpt lat="46.057344814762473" lon="9.029255909845233">
        <ele>1184.1700000000001</ele>
        <time>2022-05-01T12:57:04Z</time>
      </trkpt>
      <trkpt lat="46.057368200272322" lon="9.029212575405836">
        <ele>1185.4000000000001</ele>
        <time>2022-05-01T12:57:22Z</time>
      </trkpt>
      <trkpt lat="46.057375241070986" lon="9.029202852398157">
        <ele>1177.26</ele>
        <time>2022-05-01T12:57:30Z</time>
      </trkpt>
      <trkpt lat="46.057377755641937" lon="9.029203439131379">
        <ele>1179.29</ele>
        <time>2022-05-01T12:57:31Z</time>
      </trkpt>
      <trkpt lat="46.057380102574825" lon="9.029202349483967">
        <ele>1183.8800000000001</ele>
        <time>2022-05-01T12:57:33Z</time>
      </trkpt>
      <trkpt lat="46.05737934820354" lon="9.029200505465269">
        <ele>1183.6700000000001</ele>
        <time>2022-05-01T12:57:34Z</time>
      </trkpt>
      <trkpt lat="46.057370463386178" lon="9.029184328392148">
        <ele>1186.9000000000001</ele>
        <time>2022-05-01T12:57:38Z</time>
      </trkpt>
      <trkpt lat="46.057374235242605" lon="9.029180640354753">
        <ele>1191.28</ele>
        <time>2022-05-01T12:57:39Z</time>
      </trkpt>
      <trkpt lat="46.057373229414225" lon="9.029175192117691">
        <ele>1186.8399999999999</ele>
        <time>2022-05-01T12:57:40Z</time>
      </trkpt>
      <trkpt lat="46.057372055947781" lon="9.029174353927374">
        <ele>1183.75</ele>
        <time>2022-05-01T12:57:42Z</time>
      </trkpt>
      <trkpt lat="46.057372055947781" lon="9.029175359755755">
        <ele>1183.9100000000001</ele>
        <time>2022-05-01T12:57:43Z</time>
      </trkpt>
      <trkpt lat="46.057384796440601" lon="9.029166223481298">
        <ele>1183.79</ele>
        <time>2022-05-01T12:58:06Z</time>
      </trkpt>
      <trkpt lat="46.057369206100702" lon="9.029094222933054">
        <ele>1183.28</ele>
        <time>2022-05-01T12:58:21Z</time>
      </trkpt>
      <trkpt lat="46.057338276877999" lon="9.029029682278633">
        <ele>1183.1300000000001</ele>
        <time>2022-05-01T12:58:36Z</time>
      </trkpt>
      <trkpt lat="46.057313298806548" lon="9.028960196301341">
        <ele>1183.3</ele>
        <time>2022-05-01T12:58:52Z</time>
      </trkpt>
      <trkpt lat="46.057331990450621" lon="9.028976038098335">
        <ele>1182.4100000000001</ele>
        <time>2022-05-01T12:59:05Z</time>
      </trkpt>
      <trkpt lat="46.057385466992855" lon="9.02888878248632">
        <ele>1181.22</ele>
        <time>2022-05-01T12:59:15Z</time>
      </trkpt>
      <trkpt lat="46.057449169456959" lon="9.028745284304023">
        <ele>1178.3499999999999</ele>
        <time>2022-05-01T12:59:25Z</time>
      </trkpt>
      <trkpt lat="46.05745654553175" lon="9.028584603220224">
        <ele>1175.05</ele>
        <time>2022-05-01T12:59:37Z</time>
      </trkpt>
      <trkpt lat="46.057457635179162" lon="9.028530204668641">
        <ele>1175.0799999999999</ele>
        <time>2022-05-01T12:59:42Z</time>
      </trkpt>
      <trkpt lat="46.057464927434921" lon="9.028460383415222">
        <ele>1172.75</ele>
        <time>2022-05-01T12:59:46Z</time>
      </trkpt>
      <trkpt lat="46.057458557188511" lon="9.028304144740105">
        <ele>1169.71</ele>
        <time>2022-05-01T12:59:58Z</time>
      </trkpt>
      <trkpt lat="46.057463921606541" lon="9.028152683749795">
        <ele>1167.74</ele>
        <time>2022-05-01T13:00:11Z</time>
      </trkpt>
      <trkpt lat="46.05739887803793" lon="9.028056962415576">
        <ele>1166.6900000000001</ele>
        <time>2022-05-01T13:00:26Z</time>
      </trkpt>
      <trkpt lat="46.057403152808547" lon="9.028049586340785">
        <ele>1166.5799999999999</ele>
        <time>2022-05-01T13:00:27Z</time>
      </trkpt>
      <trkpt lat="46.057418072596192" lon="9.028002396225929">
        <ele>1165.25</ele>
        <time>2022-05-01T13:00:31Z</time>
      </trkpt>
      <trkpt lat="46.057399967685342" lon="9.027779269963503">
        <ele>1162.1700000000001</ele>
        <time>2022-05-01T13:00:46Z</time>
      </trkpt>
      <trkpt lat="46.057403823360801" lon="9.027760494500399">
        <ele>1161.8699999999999</ele>
        <time>2022-05-01T13:00:47Z</time>
      </trkpt>
      <trkpt lat="46.057410696521401" lon="9.027744065970182">
        <ele>1161.46</ele>
        <time>2022-05-01T13:00:48Z</time>
      </trkpt>
      <trkpt lat="46.057420503348112" lon="9.027732163667679">
        <ele>1161.1600000000001</ele>
        <time>2022-05-01T13:00:49Z</time>
      </trkpt>
      <trkpt lat="46.057432154193521" lon="9.027723614126444">
        <ele>1160.8199999999999</ele>
        <time>2022-05-01T13:00:50Z</time>
      </trkpt>
      <trkpt lat="46.057442128658295" lon="9.027717495337129">
        <ele>1160.55</ele>
        <time>2022-05-01T13:00:51Z</time>
      </trkpt>
      <trkpt lat="46.057452689856291" lon="9.027711125090718">
        <ele>1160.3199999999999</ele>
        <time>2022-05-01T13:00:52Z</time>
      </trkpt>
      <trkpt lat="46.057535335421562" lon="9.02768480591476">
        <ele>1157.76</ele>
        <time>2022-05-01T13:01:02Z</time>
      </trkpt>
      <trkpt lat="46.057628206908703" lon="9.027679609134793">
        <ele>1154.55</ele>
        <time>2022-05-01T13:01:12Z</time>
      </trkpt>
      <trkpt lat="46.057656202465296" lon="9.027551030740142">
        <ele>1152.0699999999999</ele>
        <time>2022-05-01T13:01:24Z</time>
      </trkpt>
      <trkpt lat="46.057676738128066" lon="9.027441898360848">
        <ele>1149.78</ele>
        <time>2022-05-01T13:01:32Z</time>
      </trkpt>
      <trkpt lat="46.057745972648263" lon="9.027324467897415">
        <ele>1146.75</ele>
        <time>2022-05-01T13:01:42Z</time>
      </trkpt>
      <trkpt lat="46.057851081714034" lon="9.027230674400926">
        <ele>1143.51</ele>
        <time>2022-05-01T13:01:55Z</time>
      </trkpt>
      <trkpt lat="46.057867426425219" lon="9.02722354978323">
        <ele>1143.3399999999999</ele>
        <time>2022-05-01T13:01:56Z</time>
      </trkpt>
      <trkpt lat="46.057881088927388" lon="9.02721181511879">
        <ele>1143.0699999999999</ele>
        <time>2022-05-01T13:01:57Z</time>
      </trkpt>
      <trkpt lat="46.057910677045584" lon="9.027178371325135">
        <ele>1142.4100000000001</ele>
        <time>2022-05-01T13:02:00Z</time>
      </trkpt>
      <trkpt lat="46.057934062555432" lon="9.027130175381899">
        <ele>1141.8299999999999</ele>
        <time>2022-05-01T13:02:03Z</time>
      </trkpt>
      <trkpt lat="46.057948814705014" lon="9.027059683576226">
        <ele>1140.79</ele>
        <time>2022-05-01T13:02:07Z</time>
      </trkpt>
      <trkpt lat="46.057975385338068" lon="9.026966812089086">
        <ele>1138.6900000000001</ele>
        <time>2022-05-01T13:02:14Z</time>
      </trkpt>
      <trkpt lat="46.057980079203844" lon="9.026948790997267">
        <ele>1138.3499999999999</ele>
        <time>2022-05-01T13:02:15Z</time>
      </trkpt>
      <trkpt lat="46.057885615155101" lon="9.026871342211962">
        <ele>1135.3399999999999</ele>
        <time>2022-05-01T13:02:28Z</time>
      </trkpt>
      <trkpt lat="46.057748235762119" lon="9.026849297806621">
        <ele>1132.22</ele>
        <time>2022-05-01T13:02:41Z</time>
      </trkpt>
      <trkpt lat="46.057576406747103" lon="9.026854410767555">
        <ele>1129.02</ele>
        <time>2022-05-01T13:02:56Z</time>
      </trkpt>
      <trkpt lat="46.057416899129748" lon="9.026833875104785">
        <ele>1127.52</ele>
        <time>2022-05-01T13:03:08Z</time>
      </trkpt>
      <trkpt lat="46.057399967685342" lon="9.026833875104785">
        <ele>1127.2</ele>
        <time>2022-05-01T13:03:09Z</time>
      </trkpt>
      <trkpt lat="46.057387394830585" lon="9.026830103248358">
        <ele>1126.8900000000001</ele>
        <time>2022-05-01T13:03:10Z</time>
      </trkpt>
      <trkpt lat="46.057340539991856" lon="9.026788277551532">
        <ele>1125.98</ele>
        <time>2022-05-01T13:03:14Z</time>
      </trkpt>
      <trkpt lat="46.057328721508384" lon="9.026775453239679">
        <ele>1125.72</ele>
        <time>2022-05-01T13:03:15Z</time>
      </trkpt>
      <trkpt lat="46.057279352098703" lon="9.026711834594607">
        <ele>1124.8499999999999</ele>
        <time>2022-05-01T13:03:20Z</time>
      </trkpt>
      <trkpt lat="46.057209363207221" lon="9.026517625898123">
        <ele>1122</ele>
        <time>2022-05-01T13:03:30Z</time>
      </trkpt>
      <trkpt lat="46.057130573317409" lon="9.026360800489783">
        <ele>1121.3099999999999</ele>
        <time>2022-05-01T13:03:39Z</time>
      </trkpt>
      <trkpt lat="46.057108696550131" lon="9.026283686980605">
        <ele>1121.3800000000001</ele>
        <time>2022-05-01T13:03:43Z</time>
      </trkpt>
      <trkpt lat="46.057091932743788" lon="9.026079922914505">
        <ele>1121.5699999999999</ele>
        <time>2022-05-01T13:03:54Z</time>
      </trkpt>
      <trkpt lat="46.057034097611904" lon="9.025955870747566">
        <ele>1122.02</ele>
        <time>2022-05-01T13:04:02Z</time>
      </trkpt>
      <trkpt lat="46.056999145075679" lon="9.025856712833047">
        <ele>1121.3499999999999</ele>
        <time>2022-05-01T13:04:08Z</time>
      </trkpt>
      <trkpt lat="46.05692588724196" lon="9.025746658444405">
        <ele>1120.47</ele>
        <time>2022-05-01T13:04:16Z</time>
      </trkpt>
      <trkpt lat="46.056862352415919" lon="9.025606848299503">
        <ele>1118.9400000000001</ele>
        <time>2022-05-01T13:04:25Z</time>
      </trkpt>
      <trkpt lat="46.05683796107769" lon="9.025549599900842">
        <ele>1117.95</ele>
        <time>2022-05-01T13:04:29Z</time>
      </trkpt>
      <trkpt lat="46.056810133159161" lon="9.025408448651433">
        <ele>1115.5</ele>
        <time>2022-05-01T13:04:38Z</time>
      </trkpt>
      <trkpt lat="46.056814827024937" lon="9.02522748336196">
        <ele>1113.6099999999999</ele>
        <time>2022-05-01T13:04:50Z</time>
      </trkpt>
      <trkpt lat="46.056788340210915" lon="9.025086499750614">
        <ele>1110.48</ele>
        <time>2022-05-01T13:05:04Z</time>
      </trkpt>
      <trkpt lat="46.056723883375525" lon="9.024940738454461">
        <ele>1107.29</ele>
        <time>2022-05-01T13:05:17Z</time>
      </trkpt>
      <trkpt lat="46.056681387126446" lon="9.024864798411727">
        <ele>1104.3</ele>
        <time>2022-05-01T13:05:29Z</time>
      </trkpt>
      <trkpt lat="46.056630844250321" lon="9.024702021852136">
        <ele>1101.25</ele>
        <time>2022-05-01T13:05:42Z</time>
      </trkpt>
      <trkpt lat="46.056560352444649" lon="9.024611664935947">
        <ele>1098.23</ele>
        <time>2022-05-01T13:05:54Z</time>
      </trkpt>
      <trkpt lat="46.056510396301746" lon="9.024543603882194">
        <ele>1095.01</ele>
        <time>2022-05-01T13:06:04Z</time>
      </trkpt>
      <trkpt lat="46.056507965549827" lon="9.024338079616427">
        <ele>1092.29</ele>
        <time>2022-05-01T13:06:17Z</time>
      </trkpt>
      <trkpt lat="46.056542918086052" lon="9.024270605295897">
        <ele>1089.8</ele>
        <time>2022-05-01T13:06:21Z</time>
      </trkpt>
      <trkpt lat="46.056526321917772" lon="9.02411243878305">
        <ele>1087.4200000000001</ele>
        <time>2022-05-01T13:06:30Z</time>
      </trkpt>
      <trkpt lat="46.056515090167522" lon="9.023990230634809">
        <ele>1084.75</ele>
        <time>2022-05-01T13:06:41Z</time>
      </trkpt>
      <trkpt lat="46.056508049368858" lon="9.023926360532641">
        <ele>1083.24</ele>
        <time>2022-05-01T13:06:56Z</time>
      </trkpt>
      <trkpt lat="46.056538140401244" lon="9.023716142401099">
        <ele>1080.22</ele>
        <time>2022-05-01T13:07:10Z</time>
      </trkpt>
      <trkpt lat="46.056581055745482" lon="9.023585887625814">
        <ele>1076.75</ele>
        <time>2022-05-01T13:07:20Z</time>
      </trkpt>
      <trkpt lat="46.056650960817933" lon="9.023561915382743">
        <ele>1074.2</ele>
        <time>2022-05-01T13:07:28Z</time>
      </trkpt>
      <trkpt lat="46.056659175083041" lon="9.023452866822481">
        <ele>1071.6400000000001</ele>
        <time>2022-05-01T13:07:37Z</time>
      </trkpt>
      <trkpt lat="46.056661941111088" lon="9.023426631465554">
        <ele>1071.1500000000001</ele>
        <time>2022-05-01T13:07:39Z</time>
      </trkpt>
      <trkpt lat="46.056718770414591" lon="9.023381033912301">
        <ele>1068.75</ele>
        <time>2022-05-01T13:07:47Z</time>
      </trkpt>
      <trkpt lat="46.056721117347479" lon="9.023245079442859">
        <ele>1065.28</ele>
        <time>2022-05-01T13:07:57Z</time>
      </trkpt>
      <trkpt lat="46.056718602776527" lon="9.023171486333013">
        <ele>1063.6900000000001</ele>
        <time>2022-05-01T13:08:06Z</time>
      </trkpt>
      <trkpt lat="46.056720865890384" lon="9.02301256544888">
        <ele>1060.3800000000001</ele>
        <time>2022-05-01T13:08:20Z</time>
      </trkpt>
      <trkpt lat="46.056745005771518" lon="9.022831935435534">
        <ele>1057.0899999999999</ele>
        <time>2022-05-01T13:08:33Z</time>
      </trkpt>
      <trkpt lat="46.05675196275115" lon="9.022680055350065">
        <ele>1054.29</ele>
        <time>2022-05-01T13:08:45Z</time>
      </trkpt>
      <trkpt lat="46.056752717122436" lon="9.022531444206834">
        <ele>1051.5</ele>
        <time>2022-05-01T13:08:56Z</time>
      </trkpt>
      <trkpt lat="46.056735115125775" lon="9.022378725931048">
        <ele>1048.5</ele>
        <time>2022-05-01T13:09:07Z</time>
      </trkpt>
      <trkpt lat="46.056718518957496" lon="9.022251991555095">
        <ele>1045.4100000000001</ele>
        <time>2022-05-01T13:09:16Z</time>
      </trkpt>
      <trkpt lat="46.056650374084711" lon="9.022067841142416">
        <ele>1042.3099999999999</ele>
        <time>2022-05-01T13:09:29Z</time>
      </trkpt>
      <trkpt lat="46.056626904755831" lon="9.021932724863291">
        <ele>1039.9200000000001</ele>
        <time>2022-05-01T13:09:42Z</time>
      </trkpt>
      <trkpt lat="46.056630844250321" lon="9.02181051671505">
        <ele>1036.9000000000001</ele>
        <time>2022-05-01T13:09:50Z</time>
      </trkpt>
      <trkpt lat="46.056628748774529" lon="9.021668778732419">
        <ele>1033.77</ele>
        <time>2022-05-01T13:10:00Z</time>
      </trkpt>
      <trkpt lat="46.056612739339471" lon="9.021509774029255">
        <ele>1032.8800000000001</ele>
        <time>2022-05-01T13:10:09Z</time>
      </trkpt>
      <trkpt lat="46.056606704369187" lon="9.021280948072672">
        <ele>1030.3599999999999</ele>
        <time>2022-05-01T13:10:21Z</time>
      </trkpt>
      <trkpt lat="46.056614331901073" lon="9.021230069920421">
        <ele>1029.3900000000001</ele>
        <time>2022-05-01T13:10:24Z</time>
      </trkpt>
      <trkpt lat="46.056635119020939" lon="9.021095959469676">
        <ele>1026.3399999999999</ele>
        <time>2022-05-01T13:10:34Z</time>
      </trkpt>
      <trkpt lat="46.056633107364178" lon="9.021047595888376">
        <ele>1025.46</ele>
        <time>2022-05-01T13:10:37Z</time>
      </trkpt>
      <trkpt lat="46.056635454297066" lon="9.020890602841973">
        <ele>1022.9400000000001</ele>
        <time>2022-05-01T13:10:49Z</time>
      </trkpt>
      <trkpt lat="46.056644003838301" lon="9.020792450755835">
        <ele>1021.8200000000001</ele>
        <time>2022-05-01T13:10:56Z</time>
      </trkpt>
      <trkpt lat="46.056661941111088" lon="9.020686419680715">
        <ele>1020.0599999999999</ele>
        <time>2022-05-01T13:11:02Z</time>
      </trkpt>
      <trkpt lat="46.056650290265679" lon="9.020539065822959">
        <ele>1017.35</ele>
        <time>2022-05-01T13:11:10Z</time>
      </trkpt>
      <trkpt lat="46.05663076043129" lon="9.020427670329809">
        <ele>1014.67</ele>
        <time>2022-05-01T13:11:17Z</time>
      </trkpt>
      <trkpt lat="46.0566371306777" lon="9.020396238192916">
        <ele>1014.01</ele>
        <time>2022-05-01T13:11:19Z</time>
      </trkpt>
      <trkpt lat="46.056653475388885" lon="9.020324489101768">
        <ele>1012.52</ele>
        <time>2022-05-01T13:11:24Z</time>
      </trkpt>
      <trkpt lat="46.056666551157832" lon="9.020188702270389">
        <ele>1009.87</ele>
        <time>2022-05-01T13:11:33Z</time>
      </trkpt>
      <trkpt lat="46.056662444025278" lon="9.020000025629997">
        <ele>1006.9</ele>
        <time>2022-05-01T13:11:46Z</time>
      </trkpt>
      <trkpt lat="46.056614248082042" lon="9.019847558811307">
        <ele>1004.36</ele>
        <time>2022-05-01T13:11:57Z</time>
      </trkpt>
      <trkpt lat="46.056515844538808" lon="9.019766170531511">
        <ele>1003.67</ele>
        <time>2022-05-01T13:12:07Z</time>
      </trkpt>
      <trkpt lat="46.056515676900744" lon="9.019633065909147">
        <ele>1001.77</ele>
        <time>2022-05-01T13:12:20Z</time>
      </trkpt>
      <trkpt lat="46.056509390473366" lon="9.01947196573019">
        <ele>999.61000000000001</ele>
        <time>2022-05-01T13:12:32Z</time>
      </trkpt>
      <trkpt lat="46.056559681892395" lon="9.019411951303482">
        <ele>996.30999999999995</ele>
        <time>2022-05-01T13:12:45Z</time>
      </trkpt>
      <trkpt lat="46.056543504819274" lon="9.019338022917509">
        <ele>994.92999999999995</ele>
        <time>2022-05-01T13:12:52Z</time>
      </trkpt>
      <trkpt lat="46.056598657742143" lon="9.019211372360587">
        <ele>992.71000000000004</ele>
        <time>2022-05-01T13:13:04Z</time>
      </trkpt>
      <trkpt lat="46.056688595563173" lon="9.01910450309515">
        <ele>991.22000000000003</ele>
        <time>2022-05-01T13:13:15Z</time>
      </trkpt>
      <trkpt lat="46.056734444573522" lon="9.019014146178961">
        <ele>989.35000000000002</ele>
        <time>2022-05-01T13:13:23Z</time>
      </trkpt>
      <trkpt lat="46.056771241128445" lon="9.018893027678132">
        <ele>987.08000000000004</ele>
        <time>2022-05-01T13:13:35Z</time>
      </trkpt>
      <trkpt lat="46.056791776791215" lon="9.018730670213699">
        <ele>983.94000000000005</ele>
        <time>2022-05-01T13:13:47Z</time>
      </trkpt>
      <trkpt lat="46.056759590283036" lon="9.018565965816379">
        <ele>980.54999999999995</ele>
        <time>2022-05-01T13:13:59Z</time>
      </trkpt>
      <trkpt lat="46.056719105690718" lon="9.01844727806747">
        <ele>977.44000000000005</ele>
        <time>2022-05-01T13:14:10Z</time>
      </trkpt>
      <trkpt lat="46.056714663282037" lon="9.018412912264466">
        <ele>979.05999999999995</ele>
        <time>2022-05-01T13:14:13Z</time>
      </trkpt>
      <trkpt lat="46.056704940274358" lon="9.018287686631084">
        <ele>976.17999999999995</ele>
        <time>2022-05-01T13:14:25Z</time>
      </trkpt>
      <trkpt lat="46.056695468723774" lon="9.018154917284846">
        <ele>973.08000000000004</ele>
        <time>2022-05-01T13:14:38Z</time>
      </trkpt>
      <trkpt lat="46.056702425703406" lon="9.018114767968655">
        <ele>971.78999999999996</ele>
        <time>2022-05-01T13:14:41Z</time>
      </trkpt>
      <trkpt lat="46.056710639968514" lon="9.018026422709227">
        <ele>970.19000000000005</ele>
        <time>2022-05-01T13:14:46Z</time>
      </trkpt>
      <trkpt lat="46.056762607768178" lon="9.017853001132608">
        <ele>966.74000000000001</ele>
        <time>2022-05-01T13:14:56Z</time>
      </trkpt>
      <trkpt lat="46.056767301633954" lon="9.017781000584364">
        <ele>965.67999999999995</ele>
        <time>2022-05-01T13:15:00Z</time>
      </trkpt>
      <trkpt lat="46.056815916672349" lon="9.017654014751315">
        <ele>962.00999999999999</ele>
        <time>2022-05-01T13:15:13Z</time>
      </trkpt>
      <trkpt lat="46.05690442956984" lon="9.017485287040472">
        <ele>958.75999999999999</ele>
        <time>2022-05-01T13:15:28Z</time>
      </trkpt>
      <trkpt lat="46.05692639015615" lon="9.017453268170357">
        <ele>957.84000000000003</ele>
        <time>2022-05-01T13:15:31Z</time>
      </trkpt>
      <trkpt lat="46.057052789255977" lon="9.017356457188726">
        <ele>955.49000000000001</ele>
        <time>2022-05-01T13:15:44Z</time>
      </trkpt>
      <trkpt lat="46.057181870564818" lon="9.017281774431467">
        <ele>954.82000000000005</ele>
        <time>2022-05-01T13:15:56Z</time>
      </trkpt>
      <trkpt lat="46.057265102863312" lon="9.017234751954675">
        <ele>954.88999999999999</ele>
        <time>2022-05-01T13:16:04Z</time>
      </trkpt>
      <trkpt lat="46.057276921346784" lon="9.017169456928968">
        <ele>952.74000000000001</ele>
        <time>2022-05-01T13:16:09Z</time>
      </trkpt>
      <trkpt lat="46.057296870276332" lon="9.017109526321292">
        <ele>951.19000000000005</ele>
        <time>2022-05-01T13:16:15Z</time>
      </trkpt>
      <trkpt lat="46.057304749265313" lon="9.017014810815454">
        <ele>949.41999999999996</ele>
        <time>2022-05-01T13:16:23Z</time>
      </trkpt>
      <trkpt lat="46.057322351261973" lon="9.016936859115958">
        <ele>947.88</ele>
        <time>2022-05-01T13:16:29Z</time>
      </trkpt>
      <trkpt lat="46.057341462001204" lon="9.016888327896595">
        <ele>946.15999999999997</ele>
        <time>2022-05-01T13:16:32Z</time>
      </trkpt>
      <trkpt lat="46.057408601045609" lon="9.016747679561377">
        <ele>942.62</ele>
        <time>2022-05-01T13:16:44Z</time>
      </trkpt>
      <trkpt lat="46.057424694299698" lon="9.016622789204121">
        <ele>939.63999999999999</ele>
        <time>2022-05-01T13:16:54Z</time>
      </trkpt>
      <trkpt lat="46.057417569682002" lon="9.016469651833177">
        <ele>936.79999999999995</ele>
        <time>2022-05-01T13:17:06Z</time>
      </trkpt>
      <trkpt lat="46.057371888309717" lon="9.016499575227499">
        <ele>937.48000000000002</ele>
        <time>2022-05-01T13:17:17Z</time>
      </trkpt>
      <trkpt lat="46.057459395378828" lon="9.01643268764019">
        <ele>935.86000000000001</ele>
        <time>2022-05-01T13:17:29Z</time>
      </trkpt>
      <trkpt lat="46.057564420625567" lon="9.016305031254888">
        <ele>933.08000000000004</ele>
        <time>2022-05-01T13:17:43Z</time>
      </trkpt>
      <trkpt lat="46.057620076462626" lon="9.016246777027845">
        <ele>930.61000000000001</ele>
        <time>2022-05-01T13:17:52Z</time>
      </trkpt>
      <trkpt lat="46.05769501067698" lon="9.016191959381104">
        <ele>928.79999999999995</ele>
        <time>2022-05-01T13:18:00Z</time>
      </trkpt>
      <trkpt lat="46.057743625715375" lon="9.016175949946046">
        <ele>927.58000000000004</ele>
        <time>2022-05-01T13:18:05Z</time>
      </trkpt>
      <trkpt lat="46.057809758931398" lon="9.016170585528016">
        <ele>926.23000000000002</ele>
        <time>2022-05-01T13:18:10Z</time>
      </trkpt>
      <trkpt lat="46.057874467223883" lon="9.016091460362077">
        <ele>923.91999999999996</ele>
        <time>2022-05-01T13:18:21Z</time>
      </trkpt>
      <trkpt lat="46.057923585176468" lon="9.01601736433804">
        <ele>921.94000000000005</ele>
        <time>2022-05-01T13:18:32Z</time>
      </trkpt>
      <trkpt lat="46.057966165244579" lon="9.015931785106659">
        <ele>918.75999999999999</ele>
        <time>2022-05-01T13:18:38Z</time>
      </trkpt>
      <trkpt lat="46.057983180508018" lon="9.015967659652233">
        <ele>918.79999999999995</ele>
        <time>2022-05-01T13:18:52Z</time>
      </trkpt>
      <trkpt lat="46.057991897687316" lon="9.015959361568093">
        <ele>918.63</ele>
        <time>2022-05-01T13:19:11Z</time>
      </trkpt>
      <trkpt lat="46.057977145537734" lon="9.015954500064254">
        <ele>918.88999999999999</ele>
        <time>2022-05-01T13:19:21Z</time>
      </trkpt>
      <trkpt lat="46.05796767398715" lon="9.015959361568093">
        <ele>918.87</ele>
        <time>2022-05-01T13:19:27Z</time>
      </trkpt>
      <trkpt lat="46.057968931272626" lon="9.015974281355739">
        <ele>919.13</ele>
        <time>2022-05-01T13:19:46Z</time>
      </trkpt>
      <trkpt lat="46.057959627360106" lon="9.015985764563084">
        <ele>919.34000000000003</ele>
        <time>2022-05-01T13:20:13Z</time>
      </trkpt>
      <trkpt lat="46.057967087253928" lon="9.01597092859447">
        <ele>919.30999999999995</ele>
        <time>2022-05-01T13:20:35Z</time>
      </trkpt>
      <trkpt lat="46.057966416701674" lon="9.015968916937709">
        <ele>919.60000000000002</ele>
        <time>2022-05-01T13:20:58Z</time>
      </trkpt>
      <trkpt lat="46.057960968464613" lon="9.015976376831532">
        <ele>919.69000000000005</ele>
        <time>2022-05-01T13:21:22Z</time>
      </trkpt>
      <trkpt lat="46.057974295690656" lon="9.015951231122017">
        <ele>918.95000000000005</ele>
        <time>2022-05-01T13:21:39Z</time>
      </trkpt>
      <trkpt lat="46.057988461107016" lon="9.015969671308994">
        <ele>920.57000000000005</ele>
        <time>2022-05-01T13:21:45Z</time>
      </trkpt>
      <trkpt lat="46.057984437793493" lon="9.015972688794136">
        <ele>919.75999999999999</ele>
        <time>2022-05-01T13:21:47Z</time>
      </trkpt>
      <trkpt lat="46.057976558804512" lon="9.015974281355739">
        <ele>919.52999999999997</ele>
        <time>2022-05-01T13:22:00Z</time>
      </trkpt>
      <trkpt lat="46.057953760027885" lon="9.015949219465256">
        <ele>919.78999999999996</ele>
        <time>2022-05-01T13:22:16Z</time>
      </trkpt>
      <trkpt lat="46.05796767398715" lon="9.015941927209497">
        <ele>919.57000000000005</ele>
        <time>2022-05-01T13:22:23Z</time>
      </trkpt>
      <trkpt lat="46.057971026748419" lon="9.015947040170431">
        <ele>919.52999999999997</ele>
        <time>2022-05-01T13:22:28Z</time>
      </trkpt>
      <trkpt lat="46.057962477207184" lon="9.015965228900313">
        <ele>919.57000000000005</ele>
        <time>2022-05-01T13:22:44Z</time>
      </trkpt>
      <trkpt lat="46.057960633188486" lon="9.01597436517477">
        <ele>919.44000000000005</ele>
        <time>2022-05-01T13:22:52Z</time>
      </trkpt>
      <trkpt lat="46.05796080082655" lon="9.015974113717675">
        <ele>919.82000000000005</ele>
        <time>2022-05-01T13:22:59Z</time>
      </trkpt>
      <trkpt lat="46.057945713400841" lon="9.015960786491633">
        <ele>919.79999999999995</ele>
        <time>2022-05-01T13:23:19Z</time>
      </trkpt>
      <trkpt lat="46.057930206879973" lon="9.015941927209497">
        <ele>919.66999999999996</ele>
        <time>2022-05-01T13:23:38Z</time>
      </trkpt>
      <trkpt lat="46.057905312627554" lon="9.015937400981784">
        <ele>919.61000000000001</ele>
        <time>2022-05-01T13:23:59Z</time>
      </trkpt>
      <trkpt lat="46.057899612933397" lon="9.015937568619847">
        <ele>919.39999999999998</ele>
        <time>2022-05-01T13:24:17Z</time>
      </trkpt>
      <trkpt lat="46.057908413931727" lon="9.015979645773768">
        <ele>919.63999999999999</ele>
        <time>2022-05-01T13:24:37Z</time>
      </trkpt>
      <trkpt lat="46.057917969301343" lon="9.015959361568093">
        <ele>919.44000000000005</ele>
        <time>2022-05-01T13:24:59Z</time>
      </trkpt>
      <trkpt lat="46.057924507185817" lon="9.015962798148394">
        <ele>919.46000000000004</ele>
        <time>2022-05-01T13:25:20Z</time>
      </trkpt>
      <trkpt lat="46.057921824976802" lon="9.015982998535037">
        <ele>918.77999999999997</ele>
        <time>2022-05-01T13:25:39Z</time>
      </trkpt>
      <trkpt lat="46.057923166081309" lon="9.015986016020179">
        <ele>917.48000000000002</ele>
        <time>2022-05-01T13:25:42Z</time>
      </trkpt>
      <trkpt lat="46.057922830805182" lon="9.015992721542716">
        <ele>921.14999999999998</ele>
        <time>2022-05-01T13:25:44Z</time>
      </trkpt>
      <trkpt lat="46.057923920452595" lon="9.015992386266589">
        <ele>919.27999999999997</ele>
        <time>2022-05-01T13:25:47Z</time>
      </trkpt>
      <trkpt lat="46.057900199666619" lon="9.015993643552065">
        <ele>918.33000000000004</ele>
        <time>2022-05-01T13:25:56Z</time>
      </trkpt>
      <trkpt lat="46.057900786399841" lon="9.015997918322682">
        <ele>918.47000000000003</ele>
        <time>2022-05-01T13:26:10Z</time>
      </trkpt>
      <trkpt lat="46.057903887704015" lon="9.015967827290297">
        <ele>918.72000000000003</ele>
        <time>2022-05-01T13:26:27Z</time>
      </trkpt>
      <trkpt lat="46.057898188009858" lon="9.01596263051033">
        <ele>919.60000000000002</ele>
        <time>2022-05-01T13:26:42Z</time>
      </trkpt>
      <trkpt lat="46.057920316234231" lon="9.01600462384522">
        <ele>919.39999999999998</ele>
        <time>2022-05-01T13:26:56Z</time>
      </trkpt>
      <trkpt lat="46.057925848290324" lon="9.01602759025991">
        <ele>919.79999999999995</ele>
        <time>2022-05-01T13:27:16Z</time>
      </trkpt>
      <trkpt lat="46.057893075048923" lon="9.016014263033867">
        <ele>919.66999999999996</ele>
        <time>2022-05-01T13:27:36Z</time>
      </trkpt>
      <trkpt lat="46.057890728116035" lon="9.015969000756741">
        <ele>919.37</ele>
        <time>2022-05-01T13:27:55Z</time>
      </trkpt>
      <trkpt lat="46.05790413916111" lon="9.016010574996471">
        <ele>919.91999999999996</ele>
        <time>2022-05-01T13:28:14Z</time>
      </trkpt>
      <trkpt lat="46.057928781956434" lon="9.01600462384522">
        <ele>919.03999999999996</ele>
        <time>2022-05-01T13:28:28Z</time>
      </trkpt>
      <trkpt lat="46.057940935716033" lon="9.01601443067193">
        <ele>918.73000000000002</ele>
        <time>2022-05-01T13:28:43Z</time>
      </trkpt>
      <trkpt lat="46.057925261557102" lon="9.01604276150465">
        <ele>919.03999999999996</ele>
        <time>2022-05-01T13:29:01Z</time>
      </trkpt>
      <trkpt lat="46.057909000664949" lon="9.016063464805484">
        <ele>918.61000000000001</ele>
        <time>2022-05-01T13:29:24Z</time>
      </trkpt>
      <trkpt lat="46.05792224407196" lon="9.016065811738372">
        <ele>918.5</ele>
        <time>2022-05-01T13:29:44Z</time>
      </trkpt>
      <trkpt lat="46.057934146374464" lon="9.016128676012158">
        <ele>918.39999999999998</ele>
        <time>2022-05-01T13:30:07Z</time>
      </trkpt>
      <trkpt lat="46.057923333719373" lon="9.0161507204175">
        <ele>918.48000000000002</ele>
        <time>2022-05-01T13:30:25Z</time>
      </trkpt>
      <trkpt lat="46.057924926280975" lon="9.016130939126015">
        <ele>918.36000000000001</ele>
        <time>2022-05-01T13:30:44Z</time>
      </trkpt>
      <trkpt lat="46.057905647903681" lon="9.016061536967754">
        <ele>918.32000000000005</ele>
        <time>2022-05-01T13:31:04Z</time>
      </trkpt>
      <trkpt lat="46.057911515235901" lon="9.016026249155402">
        <ele>918.61000000000001</ele>
        <time>2022-05-01T13:31:24Z</time>
      </trkpt>
      <trkpt lat="46.057883854955435" lon="9.016023483127356">
        <ele>918.71000000000004</ele>
        <time>2022-05-01T13:31:47Z</time>
      </trkpt>
      <trkpt lat="46.057845382019877" lon="9.015956427901983">
        <ele>918.71000000000004</ele>
        <time>2022-05-01T13:32:03Z</time>
      </trkpt>
      <trkpt lat="46.057774471119046" lon="9.015910075977445">
        <ele>917.96000000000004</ele>
        <time>2022-05-01T13:32:14Z</time>
      </trkpt>
      <trkpt lat="46.057695262134075" lon="9.015895072370768">
        <ele>916.38999999999999</ele>
        <time>2022-05-01T13:32:29Z</time>
      </trkpt>
      <trkpt lat="46.057609599083662" lon="9.01586732827127">
        <ele>914.29999999999995</ele>
        <time>2022-05-01T13:32:43Z</time>
      </trkpt>
      <trkpt lat="46.057501472532749" lon="9.015852324664593">
        <ele>912.49000000000001</ele>
        <time>2022-05-01T13:33:00Z</time>
      </trkpt>
      <trkpt lat="46.05741061270237" lon="9.01588736101985">
        <ele>910.98000000000002</ele>
        <time>2022-05-01T13:33:12Z</time>
      </trkpt>
      <trkpt lat="46.057291757315397" lon="9.015868669375777">
        <ele>909.65999999999997</ele>
        <time>2022-05-01T13:33:27Z</time>
      </trkpt>
      <trkpt lat="46.057164100930095" lon="9.015874536707997">
        <ele>907.99000000000001</ele>
        <time>2022-05-01T13:33:43Z</time>
      </trkpt>
      <trkpt lat="46.05705639347434" lon="9.015886019915342">
        <ele>907.25</ele>
        <time>2022-05-01T13:33:58Z</time>
      </trkpt>
      <trkpt lat="46.056996127590537" lon="9.015902616083622">
        <ele>906.94000000000005</ele>
        <time>2022-05-01T13:34:08Z</time>
      </trkpt>
      <trkpt lat="46.056930078193545" lon="9.015921391546726">
        <ele>903.89999999999998</ele>
        <time>2022-05-01T13:34:21Z</time>
      </trkpt>
      <trkpt lat="46.056858329102397" lon="9.015986016020179">
        <ele>901.71000000000004</ele>
        <time>2022-05-01T13:34:39Z</time>
      </trkpt>
      <trkpt lat="46.056811893358827" lon="9.015974868088961">
        <ele>901.02999999999997</ele>
        <time>2022-05-01T13:34:52Z</time>
      </trkpt>
      <trkpt lat="46.056752633303404" lon="9.015856767073274">
        <ele>903.03999999999996</ele>
        <time>2022-05-01T13:35:09Z</time>
      </trkpt>
      <trkpt lat="46.056724805384874" lon="9.015804547816515">
        <ele>901.99000000000001</ele>
        <time>2022-05-01T13:35:28Z</time>
      </trkpt>
      <trkpt lat="46.056647943332791" lon="9.015774456784129">
        <ele>900.96000000000004</ele>
        <time>2022-05-01T13:35:41Z</time>
      </trkpt>
      <trkpt lat="46.056572506204247" lon="9.015750233083963">
        <ele>902.69000000000005</ele>
        <time>2022-05-01T13:35:56Z</time>
      </trkpt>
      <trkpt lat="46.05658482760191" lon="9.015595419332385">
        <ele>904.55999999999995</ele>
        <time>2022-05-01T13:36:12Z</time>
      </trkpt>
      <trkpt lat="46.056561190634966" lon="9.015373969450593">
        <ele>903.99000000000001</ele>
        <time>2022-05-01T13:36:29Z</time>
      </trkpt>
      <trkpt lat="46.056479969993234" lon="9.015226196497679">
        <ele>901.25999999999999</ele>
        <time>2022-05-01T13:36:46Z</time>
      </trkpt>
      <trkpt lat="46.056380309164524" lon="9.015190657228231">
        <ele>900.09000000000003</ele>
        <time>2022-05-01T13:36:58Z</time>
      </trkpt>
      <trkpt lat="46.056291544809937" lon="9.015071215108037">
        <ele>897.71000000000004</ele>
        <time>2022-05-01T13:37:15Z</time>
      </trkpt>
      <trkpt lat="46.056166486814618" lon="9.014978595077992">
        <ele>897.27999999999997</ele>
        <time>2022-05-01T13:37:30Z</time>
      </trkpt>
      <trkpt lat="46.056173695251346" lon="9.014806263148785">
        <ele>898.17999999999995</ele>
        <time>2022-05-01T13:37:44Z</time>
      </trkpt>
      <trkpt lat="46.056244857609272" lon="9.014633595943451">
        <ele>898.71000000000004</ele>
        <time>2022-05-01T13:37:58Z</time>
      </trkpt>
      <trkpt lat="46.056276457384229" lon="9.014496887102723">
        <ele>899.71000000000004</ele>
        <time>2022-05-01T13:38:12Z</time>
      </trkpt>
      <trkpt lat="46.056231865659356" lon="9.014370152726769">
        <ele>896.92999999999995</ele>
        <time>2022-05-01T13:38:25Z</time>
      </trkpt>
      <trkpt lat="46.056187357753515" lon="9.014240484684706">
        <ele>895.71000000000004</ele>
        <time>2022-05-01T13:38:38Z</time>
      </trkpt>
      <trkpt lat="46.056175958365202" lon="9.01417812332511">
        <ele>894.89999999999998</ele>
        <time>2022-05-01T13:38:42Z</time>
      </trkpt>
      <trkpt lat="46.056169755756855" lon="9.01414493098855">
        <ele>894.44000000000005</ele>
        <time>2022-05-01T13:38:44Z</time>
      </trkpt>
      <trkpt lat="46.056128684431314" lon="9.013974945992231">
        <ele>891.70000000000005</ele>
        <time>2022-05-01T13:38:56Z</time>
      </trkpt>
      <trkpt lat="46.056136731058359" lon="9.013915183022618">
        <ele>891.19000000000005</ele>
        <time>2022-05-01T13:39:00Z</time>
      </trkpt>
      <trkpt lat="46.056127678602934" lon="9.013800770044327">
        <ele>889.08000000000004</ele>
        <time>2022-05-01T13:39:08Z</time>
      </trkpt>
      <trkpt lat="46.056087110191584" lon="9.013683507218957">
        <ele>886.97000000000003</ele>
        <time>2022-05-01T13:39:19Z</time>
      </trkpt>
      <trkpt lat="46.056002620607615" lon="9.013594407588244">
        <ele>883.90999999999997</ele>
        <time>2022-05-01T13:39:30Z</time>
      </trkpt>
      <trkpt lat="46.055963393300772" lon="9.01362500153482">
        <ele>882.59000000000003</ele>
        <time>2022-05-01T13:39:34Z</time>
      </trkpt>
      <trkpt lat="46.055951826274395" lon="9.013631120324135">
        <ele>882.38999999999999</ele>
        <time>2022-05-01T13:39:35Z</time>
      </trkpt>
      <trkpt lat="46.055907234549522" lon="9.013556437566876">
        <ele>881.55999999999995</ele>
        <time>2022-05-01T13:39:45Z</time>
      </trkpt>
      <trkpt lat="46.05580254457891" lon="9.013428865000606">
        <ele>883.42999999999995</ele>
        <time>2022-05-01T13:40:00Z</time>
      </trkpt>
      <trkpt lat="46.05570824816823" lon="9.013340855017304">
        <ele>884.98000000000002</ele>
        <time>2022-05-01T13:40:11Z</time>
      </trkpt>
      <trkpt lat="46.055634906515479" lon="9.013192746788263">
        <ele>885.27999999999997</ele>
        <time>2022-05-01T13:40:25Z</time>
      </trkpt>
      <trkpt lat="46.055595595389605" lon="9.012958975508809">
        <ele>884.86000000000001</ele>
        <time>2022-05-01T13:40:38Z</time>
      </trkpt>
      <trkpt lat="46.055560642853379" lon="9.012824194505811">
        <ele>884.04999999999995</ele>
        <time>2022-05-01T13:40:47Z</time>
      </trkpt>
      <trkpt lat="46.055553182959557" lon="9.012799970805645">
        <ele>883.94000000000005</ele>
        <time>2022-05-01T13:40:48Z</time>
      </trkpt>
      <trkpt lat="46.055538011714816" lon="9.01276501826942">
        <ele>883.38999999999999</ele>
        <time>2022-05-01T13:40:50Z</time>
      </trkpt>
      <trkpt lat="46.055520577356219" lon="9.012732831761241">
        <ele>882.95000000000005</ele>
        <time>2022-05-01T13:40:52Z</time>
      </trkpt>
      <trkpt lat="46.055507753044367" lon="9.012691089883447">
        <ele>882.10000000000002</ele>
        <time>2022-05-01T13:40:55Z</time>
      </trkpt>
      <trkpt lat="46.055483696982265" lon="9.012634931132197">
        <ele>881.07000000000005</ele>
        <time>2022-05-01T13:40:59Z</time>
      </trkpt>
      <trkpt lat="46.055480092763901" lon="9.012619676068425">
        <ele>880.95000000000005</ele>
        <time>2022-05-01T13:41:00Z</time>
      </trkpt>
      <trkpt lat="46.055474560707808" lon="9.012605929747224">
        <ele>880.71000000000004</ele>
        <time>2022-05-01T13:41:01Z</time>
      </trkpt>
      <trkpt lat="46.055418821051717" lon="9.012491516768932">
        <ele>878.5</ele>
        <time>2022-05-01T13:41:10Z</time>
      </trkpt>
      <trkpt lat="46.055379258468747" lon="9.012389676645398">
        <ele>877.53999999999996</ele>
        <time>2022-05-01T13:41:17Z</time>
      </trkpt>
      <trkpt lat="46.055375738069415" lon="9.012370733544231">
        <ele>877.79999999999995</ele>
        <time>2022-05-01T13:41:18Z</time>
      </trkpt>
      <trkpt lat="46.055371295660734" lon="9.012354724109173">
        <ele>877.41999999999996</ele>
        <time>2022-05-01T13:41:19Z</time>
      </trkpt>
      <trkpt lat="46.055365344509482" lon="9.012335110455751">
        <ele>876.98000000000002</ele>
        <time>2022-05-01T13:41:20Z</time>
      </trkpt>
      <trkpt lat="46.055295187979937" lon="9.012111565098167">
        <ele>874.23000000000002</ele>
        <time>2022-05-01T13:41:33Z</time>
      </trkpt>
      <trkpt lat="46.055227881297469" lon="9.012043001130223">
        <ele>873.10000000000002</ele>
        <time>2022-05-01T13:41:46Z</time>
      </trkpt>
      <trkpt lat="46.055208938196301" lon="9.012067643925548">
        <ele>872.92999999999995</ele>
        <time>2022-05-01T13:41:58Z</time>
      </trkpt>
      <trkpt lat="46.055200388655066" lon="9.012078288942576">
        <ele>872.76999999999998</ele>
        <time>2022-05-01T13:41:59Z</time>
      </trkpt>
      <trkpt lat="46.055192928761244" lon="9.012089520692825">
        <ele>872.74000000000001</ele>
        <time>2022-05-01T13:42:00Z</time>
      </trkpt>
      <trkpt lat="46.055143140256405" lon="9.012180464342237">
        <ele>871.50999999999999</ele>
        <time>2022-05-01T13:42:07Z</time>
      </trkpt>
      <trkpt lat="46.055139033123851" lon="9.012196809053421">
        <ele>871.44000000000005</ele>
        <time>2022-05-01T13:42:08Z</time>
      </trkpt>
      <trkpt lat="46.055119503289461" lon="9.01223536580801">
        <ele>870.89999999999998</ele>
        <time>2022-05-01T13:42:11Z</time>
      </trkpt>
      <trkpt lat="46.055111037567258" lon="9.012247771024704">
        <ele>870.83000000000004</ele>
        <time>2022-05-01T13:42:12Z</time>
      </trkpt>
      <trkpt lat="46.055102320387959" lon="9.012260343879461">
        <ele>870.70000000000005</ele>
        <time>2022-05-01T13:42:13Z</time>
      </trkpt>
      <trkpt lat="46.054997127503157" lon="9.012308958917856">
        <ele>869.76999999999998</ele>
        <time>2022-05-01T13:42:23Z</time>
      </trkpt>
      <trkpt lat="46.054911464452744" lon="9.012256907299161">
        <ele>868.13999999999999</ele>
        <time>2022-05-01T13:42:32Z</time>
      </trkpt>
      <trkpt lat="46.054877936840057" lon="9.012192282825708">
        <ele>867.14999999999998</ele>
        <time>2022-05-01T13:42:37Z</time>
      </trkpt>
      <trkpt lat="46.05484826490283" lon="9.012121707201004">
        <ele>866.72000000000003</ele>
        <time>2022-05-01T13:42:42Z</time>
      </trkpt>
      <trkpt lat="46.054778359830379" lon="9.011964714154601">
        <ele>865.36000000000001</ele>
        <time>2022-05-01T13:42:53Z</time>
      </trkpt>
      <trkpt lat="46.054749693721533" lon="9.011932862922549">
        <ele>865.10000000000002</ele>
        <time>2022-05-01T13:42:56Z</time>
      </trkpt>
      <trkpt lat="46.05473829433322" lon="9.011923894286156">
        <ele>865.01999999999998</ele>
        <time>2022-05-01T13:42:57Z</time>
      </trkpt>
      <trkpt lat="46.054625222459435" lon="9.011878380551934">
        <ele>863.12</ele>
        <time>2022-05-01T13:43:07Z</time>
      </trkpt>
      <trkpt lat="46.054535284638405" lon="9.011863963678479">
        <ele>861.39999999999998</ele>
        <time>2022-05-01T13:43:16Z</time>
      </trkpt>
      <trkpt lat="46.054519442841411" lon="9.011827167123556">
        <ele>861.09000000000003</ele>
        <time>2022-05-01T13:43:18Z</time>
      </trkpt>
      <trkpt lat="46.054482394829392" lon="9.011559030041099">
        <ele>859.86000000000001</ele>
        <time>2022-05-01T13:43:30Z</time>
      </trkpt>
      <trkpt lat="46.054444005712867" lon="9.011341268196702">
        <ele>857.94000000000005</ele>
        <time>2022-05-01T13:43:42Z</time>
      </trkpt>
      <trkpt lat="46.054379465058446" lon="9.011173127219081">
        <ele>856.60000000000002</ele>
        <time>2022-05-01T13:43:53Z</time>
      </trkpt>
      <trkpt lat="46.054373346269131" lon="9.011159548535943">
        <ele>856.42999999999995</ele>
        <time>2022-05-01T13:43:54Z</time>
      </trkpt>
      <trkpt lat="46.054367981851101" lon="9.011144880205393">
        <ele>856.30999999999995</ele>
        <time>2022-05-01T13:43:55Z</time>
      </trkpt>
      <trkpt lat="46.054349625483155" lon="9.011079082265496">
        <ele>855.79999999999995</ele>
        <time>2022-05-01T13:43:59Z</time>
      </trkpt>
      <trkpt lat="46.054350379854441" lon="9.011061228811741">
        <ele>855.65999999999997</ele>
        <time>2022-05-01T13:44:00Z</time>
      </trkpt>
      <trkpt lat="46.054351050406694" lon="9.01104161515832">
        <ele>855.54999999999995</ele>
        <time>2022-05-01T13:44:01Z</time>
      </trkpt>
      <trkpt lat="46.054349038749933" lon="9.01102208532393">
        <ele>855.48000000000002</ele>
        <time>2022-05-01T13:44:02Z</time>
      </trkpt>
      <trkpt lat="46.054347949102521" lon="9.01100305840373">
        <ele>855.29999999999995</ele>
        <time>2022-05-01T13:44:03Z</time>
      </trkpt>
      <trkpt lat="46.054345266893506" lon="9.010985372588038">
        <ele>855.12</ele>
        <time>2022-05-01T13:44:04Z</time>
      </trkpt>
      <trkpt lat="46.054343339055777" lon="9.01096785441041">
        <ele>855.07000000000005</ele>
        <time>2022-05-01T13:44:05Z</time>
      </trkpt>
      <trkpt lat="46.054339231923223" lon="9.010950503870845">
        <ele>854.89999999999998</ele>
        <time>2022-05-01T13:44:06Z</time>
      </trkpt>
      <trkpt lat="46.054322551935911" lon="9.010887974873185">
        <ele>854.96000000000004</ele>
        <time>2022-05-01T13:44:10Z</time>
      </trkpt>
      <trkpt lat="46.054273350164294" lon="9.010775992646813">
        <ele>854.13</ele>
        <time>2022-05-01T13:44:17Z</time>
      </trkpt>
      <trkpt lat="46.054267818108201" lon="9.010759312659502">
        <ele>854.10000000000002</ele>
        <time>2022-05-01T13:44:18Z</time>
      </trkpt>
      <trkpt lat="46.05426236987114" lon="9.010743470862508">
        <ele>854.10000000000002</ele>
        <time>2022-05-01T13:44:19Z</time>
      </trkpt>
      <trkpt lat="46.054258514195681" lon="9.010726204141974">
        <ele>854.14999999999998</ele>
        <time>2022-05-01T13:44:20Z</time>
      </trkpt>
      <trkpt lat="46.054258849471807" lon="9.010679600760341">
        <ele>853.96000000000004</ele>
        <time>2022-05-01T13:44:23Z</time>
      </trkpt>
      <trkpt lat="46.054276032373309" lon="9.010483548045158">
        <ele>854.00999999999999</ele>
        <time>2022-05-01T13:44:34Z</time>
      </trkpt>
      <trkpt lat="46.054244851693511" lon="9.010305935516954">
        <ele>853.72000000000003</ele>
        <time>2022-05-01T13:44:44Z</time>
      </trkpt>
      <trkpt lat="46.054237643256783" lon="9.010288584977388">
        <ele>853.55999999999995</ele>
        <time>2022-05-01T13:44:45Z</time>
      </trkpt>
      <trkpt lat="46.054229848086834" lon="9.010271737352014">
        <ele>853.46000000000004</ele>
        <time>2022-05-01T13:44:46Z</time>
      </trkpt>
      <trkpt lat="46.054221130907536" lon="9.010257320478559">
        <ele>853.61000000000001</ele>
        <time>2022-05-01T13:44:47Z</time>
      </trkpt>
      <trkpt lat="46.054214425384998" lon="9.010237790644169">
        <ele>853.88999999999999</ele>
        <time>2022-05-01T13:44:48Z</time>
      </trkpt>
      <trkpt lat="46.054210066795349" lon="9.010219685733318">
        <ele>853.80999999999995</ele>
        <time>2022-05-01T13:44:49Z</time>
      </trkpt>
      <trkpt lat="46.054202942177653" lon="9.010205185040832">
        <ele>853.90999999999997</ele>
        <time>2022-05-01T13:44:50Z</time>
      </trkpt>
      <trkpt lat="46.054194644093513" lon="9.010137040168047">
        <ele>854.28999999999996</ele>
        <time>2022-05-01T13:44:54Z</time>
      </trkpt>
      <trkpt lat="46.054195482283831" lon="9.010052047669888">
        <ele>854.40999999999997</ele>
        <time>2022-05-01T13:44:59Z</time>
      </trkpt>
      <trkpt lat="46.054161451756954" lon="9.009870495647192">
        <ele>854.90999999999997</ele>
        <time>2022-05-01T13:45:10Z</time>
      </trkpt>
      <trkpt lat="46.05415340512991" lon="9.009843086823821">
        <ele>854.82000000000005</ele>
        <time>2022-05-01T13:45:12Z</time>
      </trkpt>
      <trkpt lat="46.05414804071188" lon="9.009826239198446">
        <ele>854.86000000000001</ele>
        <time>2022-05-01T13:45:13Z</time>
      </trkpt>
      <trkpt lat="46.054134042933583" lon="9.009798830375075">
        <ele>855.33000000000004</ele>
        <time>2022-05-01T13:45:15Z</time>
      </trkpt>
      <trkpt lat="46.054089786484838" lon="9.009702103212476">
        <ele>855.80999999999995</ele>
        <time>2022-05-01T13:45:23Z</time>
      </trkpt>
      <trkpt lat="46.054031532257795" lon="9.009550055488944">
        <ele>854.78999999999996</ele>
        <time>2022-05-01T13:45:34Z</time>
      </trkpt>
      <trkpt lat="46.054023820906878" lon="9.009535554796457">
        <ele>854.78999999999996</ele>
        <time>2022-05-01T13:45:35Z</time>
      </trkpt>
      <trkpt lat="46.054017618298531" lon="9.009521473199129">
        <ele>854.55999999999995</ele>
        <time>2022-05-01T13:45:36Z</time>
      </trkpt>
      <trkpt lat="46.054011583328247" lon="9.009507559239864">
        <ele>854.41999999999996</ele>
        <time>2022-05-01T13:45:37Z</time>
      </trkpt>
      <trkpt lat="46.054003536701202" lon="9.009492304176092">
        <ele>854.15999999999997</ele>
        <time>2022-05-01T13:45:38Z</time>
      </trkpt>
      <trkpt lat="46.053891973569989" lon="9.009320642799139">
        <ele>852.14999999999998</ele>
        <time>2022-05-01T13:45:51Z</time>
      </trkpt>
      <trkpt lat="46.053781835362315" lon="9.009224250912666">
        <ele>851.08000000000004</ele>
        <time>2022-05-01T13:46:02Z</time>
      </trkpt>
      <trkpt lat="46.053761215880513" lon="9.009197931736708">
        <ele>850.97000000000003</ele>
        <time>2022-05-01T13:46:04Z</time>
      </trkpt>
      <trkpt lat="46.053751409053802" lon="9.009180497378111">
        <ele>850.92999999999995</ele>
        <time>2022-05-01T13:46:05Z</time>
      </trkpt>
      <trkpt lat="46.053669769316912" lon="9.009011434391141">
        <ele>851.63999999999999</ele>
        <time>2022-05-01T13:46:17Z</time>
      </trkpt>
      <trkpt lat="46.053661638870835" lon="9.008975643664599">
        <ele>851.66999999999996</ele>
        <time>2022-05-01T13:46:19Z</time>
      </trkpt>
      <trkpt lat="46.053660716861486" lon="9.008957454934716">
        <ele>851.54999999999995</ele>
        <time>2022-05-01T13:46:20Z</time>
      </trkpt>
      <trkpt lat="46.053657028824091" lon="9.008940607309341">
        <ele>851.67999999999995</ele>
        <time>2022-05-01T13:46:21Z</time>
      </trkpt>
      <trkpt lat="46.053653676062822" lon="9.008922670036554">
        <ele>851.67999999999995</ele>
        <time>2022-05-01T13:46:22Z</time>
      </trkpt>
      <trkpt lat="46.053652251139283" lon="9.008906157687306">
        <ele>851.65999999999997</ele>
        <time>2022-05-01T13:46:23Z</time>
      </trkpt>
      <trkpt lat="46.053664572536945" lon="9.008770119398832">
        <ele>851.51999999999998</ele>
        <time>2022-05-01T13:46:31Z</time>
      </trkpt>
      <trkpt lat="46.0536721162498" lon="9.008716139942408">
        <ele>851.46000000000004</ele>
        <time>2022-05-01T13:46:34Z</time>
      </trkpt>
      <trkpt lat="46.053677899762988" lon="9.008700381964445">
        <ele>851.38999999999999</ele>
        <time>2022-05-01T13:46:35Z</time>
      </trkpt>
      <trkpt lat="46.053678654134274" lon="9.008680265396833">
        <ele>851.14999999999998</ele>
        <time>2022-05-01T13:46:36Z</time>
      </trkpt>
      <trkpt lat="46.053679324686527" lon="9.008659981191158">
        <ele>851.13999999999999</ele>
        <time>2022-05-01T13:46:37Z</time>
      </trkpt>
      <trkpt lat="46.05368192307651" lon="9.008641708642244">
        <ele>851.17999999999995</ele>
        <time>2022-05-01T13:46:38Z</time>
      </trkpt>
      <trkpt lat="46.05370388366282" lon="9.008491756394506">
        <ele>850</ele>
        <time>2022-05-01T13:46:47Z</time>
      </trkpt>
      <trkpt lat="46.053681168705225" lon="9.00833023712039">
        <ele>848.00999999999999</ele>
        <time>2022-05-01T13:46:58Z</time>
      </trkpt>
      <trkpt lat="46.053672786802053" lon="9.008315401151776">
        <ele>847.99000000000001</ele>
        <time>2022-05-01T13:46:59Z</time>
      </trkpt>
      <trkpt lat="46.05366381816566" lon="9.008287321776152">
        <ele>848.21000000000004</ele>
        <time>2022-05-01T13:47:01Z</time>
      </trkpt>
      <trkpt lat="46.053631799295545" lon="9.00821540504694">
        <ele>848.25999999999999</ele>
        <time>2022-05-01T13:47:06Z</time>
      </trkpt>
      <trkpt lat="46.053624758496881" lon="9.008199144154787">
        <ele>848.30999999999995</ele>
        <time>2022-05-01T13:47:07Z</time>
      </trkpt>
      <trkpt lat="46.053615622222424" lon="9.008183972910047">
        <ele>848.24000000000001</ele>
        <time>2022-05-01T13:47:08Z</time>
      </trkpt>
      <trkpt lat="46.053528031334281" lon="9.007995296269655">
        <ele>847.28999999999996</ele>
        <time>2022-05-01T13:47:20Z</time>
      </trkpt>
      <trkpt lat="46.053500371053815" lon="9.007847690954804">
        <ele>845.98000000000002</ele>
        <time>2022-05-01T13:47:28Z</time>
      </trkpt>
      <trkpt lat="46.053484361618757" lon="9.007681980729103">
        <ele>843.74000000000001</ele>
        <time>2022-05-01T13:47:38Z</time>
      </trkpt>
      <trkpt lat="46.053456533700228" lon="9.007430607452989">
        <ele>841.63999999999999</ele>
        <time>2022-05-01T13:47:52Z</time>
      </trkpt>
      <trkpt lat="46.053414037451148" lon="9.007223071530461">
        <ele>839.40999999999997</ele>
        <time>2022-05-01T13:48:07Z</time>
      </trkpt>
      <trkpt lat="46.053383611142635" lon="9.007158195599914">
        <ele>839.04999999999995</ele>
        <time>2022-05-01T13:48:11Z</time>
      </trkpt>
      <trkpt lat="46.05337405577302" lon="9.007140342146158">
        <ele>838.63</ele>
        <time>2022-05-01T13:48:12Z</time>
      </trkpt>
      <trkpt lat="46.05336869135499" lon="9.007120560854673">
        <ele>838.38999999999999</ele>
        <time>2022-05-01T13:48:13Z</time>
      </trkpt>
      <trkpt lat="46.053362069651484" lon="9.007105138152838">
        <ele>838.25</ele>
        <time>2022-05-01T13:48:14Z</time>
      </trkpt>
      <trkpt lat="46.053355447947979" lon="9.00708862580359">
        <ele>838.19000000000005</ele>
        <time>2022-05-01T13:48:15Z</time>
      </trkpt>
      <trkpt lat="46.053346479311585" lon="9.007077561691403">
        <ele>838.10000000000002</ele>
        <time>2022-05-01T13:48:16Z</time>
      </trkpt>
      <trkpt lat="46.053266935050488" lon="9.00704026222229">
        <ele>836.76999999999998</ele>
        <time>2022-05-01T13:48:25Z</time>
      </trkpt>
      <trkpt lat="46.053143385797739" lon="9.006995419040322">
        <ele>835.12</ele>
        <time>2022-05-01T13:48:36Z</time>
      </trkpt>
      <trkpt lat="46.05305696837604" lon="9.006944540888071">
        <ele>833.5</ele>
        <time>2022-05-01T13:48:45Z</time>
      </trkpt>
      <trkpt lat="46.052920846268535" lon="9.00677883066237">
        <ele>831.41999999999996</ele>
        <time>2022-05-01T13:48:59Z</time>
      </trkpt>
      <trkpt lat="46.052898550406098" lon="9.006720408797264">
        <ele>831.07000000000005</ele>
        <time>2022-05-01T13:49:01Z</time>
      </trkpt>
      <trkpt lat="46.052890084683895" lon="9.006688892841339">
        <ele>831.09000000000003</ele>
        <time>2022-05-01T13:49:02Z</time>
      </trkpt>
      <trkpt lat="46.052893688902259" lon="9.006572971120477">
        <ele>830.82000000000005</ele>
        <time>2022-05-01T13:49:07Z</time>
      </trkpt>
      <trkpt lat="46.052895616739988" lon="9.006541455164552">
        <ele>830.66999999999996</ele>
        <time>2022-05-01T13:49:08Z</time>
      </trkpt>
      <trkpt lat="46.052925372496247" lon="9.006289830431342">
        <ele>829.49000000000001</ele>
        <time>2022-05-01T13:49:20Z</time>
      </trkpt>
      <trkpt lat="46.052931156009436" lon="9.006275245919824">
        <ele>829.52999999999997</ele>
        <time>2022-05-01T13:49:21Z</time>
      </trkpt>
      <trkpt lat="46.052936185151339" lon="9.006257057189941">
        <ele>829.41999999999996</ele>
        <time>2022-05-01T13:49:22Z</time>
      </trkpt>
      <trkpt lat="46.052941465750337" lon="9.006239706650376">
        <ele>829.27999999999997</ele>
        <time>2022-05-01T13:49:23Z</time>
      </trkpt>
      <trkpt lat="46.052945572882891" lon="9.006220931187272">
        <ele>829.23000000000002</ele>
        <time>2022-05-01T13:49:24Z</time>
      </trkpt>
      <trkpt lat="46.05295093730092" lon="9.006203413009644">
        <ele>829.03999999999996</ele>
        <time>2022-05-01T13:49:25Z</time>
      </trkpt>
      <trkpt lat="46.052954373881221" lon="9.006185811012983">
        <ele>828.84000000000003</ele>
        <time>2022-05-01T13:49:26Z</time>
      </trkpt>
      <trkpt lat="46.052957056090236" lon="9.006167706102133">
        <ele>828.88999999999999</ele>
        <time>2022-05-01T13:49:27Z</time>
      </trkpt>
      <trkpt lat="46.052968790754676" lon="9.006113642826676">
        <ele>828.47000000000003</ele>
        <time>2022-05-01T13:49:30Z</time>
      </trkpt>
      <trkpt lat="46.052972814068198" lon="9.006094448268414">
        <ele>828.20000000000005</ele>
        <time>2022-05-01T13:49:31Z</time>
      </trkpt>
      <trkpt lat="46.052977256476879" lon="9.005904095247388">
        <ele>826.09000000000003</ele>
        <time>2022-05-01T13:49:41Z</time>
      </trkpt>
      <trkpt lat="46.052993517369032" lon="9.005815582349896">
        <ele>824.75999999999999</ele>
        <time>2022-05-01T13:49:47Z</time>
      </trkpt>
      <trkpt lat="46.053003491833806" lon="9.005757747218013">
        <ele>824.22000000000003</ele>
        <time>2022-05-01T13:49:50Z</time>
      </trkpt>
      <trkpt lat="46.053006174042821" lon="9.005737127736211">
        <ele>824.07000000000005</ele>
        <time>2022-05-01T13:49:51Z</time>
      </trkpt>
      <trkpt lat="46.053014639765024" lon="9.005719777196646">
        <ele>823.96000000000004</ele>
        <time>2022-05-01T13:49:52Z</time>
      </trkpt>
      <trkpt lat="46.053025536239147" lon="9.005704689770937">
        <ele>823.63</ele>
        <time>2022-05-01T13:49:53Z</time>
      </trkpt>
      <trkpt lat="46.053036600351334" lon="9.005671832710505">
        <ele>823.45000000000005</ele>
        <time>2022-05-01T13:49:55Z</time>
      </trkpt>
      <trkpt lat="46.053043724969029" lon="9.005653727799654">
        <ele>823.44000000000005</ele>
        <time>2022-05-01T13:49:56Z</time>
      </trkpt>
      <trkpt lat="46.053136344999075" lon="9.005508553236723">
        <ele>821.62</ele>
        <time>2022-05-01T13:50:06Z</time>
      </trkpt>
      <trkpt lat="46.053137769922614" lon="9.005455831065774">
        <ele>821.11000000000001</ele>
        <time>2022-05-01T13:50:09Z</time>
      </trkpt>
      <trkpt lat="46.053128633648157" lon="9.005361702293158">
        <ele>820.19000000000005</ele>
        <time>2022-05-01T13:50:15Z</time>
      </trkpt>
      <trkpt lat="46.053121509030461" lon="9.005343848839402">
        <ele>820.13999999999999</ele>
        <time>2022-05-01T13:50:16Z</time>
      </trkpt>
      <trkpt lat="46.053114216774702" lon="9.005281906574965">
        <ele>819.71000000000004</ele>
        <time>2022-05-01T13:50:20Z</time>
      </trkpt>
      <trkpt lat="46.053109942004085" lon="9.005250055342913">
        <ele>819.63999999999999</ele>
        <time>2022-05-01T13:50:22Z</time>
      </trkpt>
      <trkpt lat="46.053107678890228" lon="9.005232453346252">
        <ele>819.51999999999998</ele>
        <time>2022-05-01T13:50:23Z</time>
      </trkpt>
      <trkpt lat="46.053107427433133" lon="9.005213929340243">
        <ele>819.33000000000004</ele>
        <time>2022-05-01T13:50:24Z</time>
      </trkpt>
      <trkpt lat="46.053107343614101" lon="9.005193645134568">
        <ele>819.08000000000004</ele>
        <time>2022-05-01T13:50:25Z</time>
      </trkpt>
      <trkpt lat="46.053090579807758" lon="9.00507252663374">
        <ele>818.45000000000005</ele>
        <time>2022-05-01T13:50:34Z</time>
      </trkpt>
      <trkpt lat="46.053079767152667" lon="9.004943277686834">
        <ele>816.74000000000001</ele>
        <time>2022-05-01T13:50:43Z</time>
      </trkpt>
      <trkpt lat="46.053068535402417" lon="9.004731718450785">
        <ele>814.22000000000003</ele>
        <time>2022-05-01T13:50:55Z</time>
      </trkpt>
      <trkpt lat="46.05303592979908" lon="9.004493672400713">
        <ele>811.87</ele>
        <time>2022-05-01T13:51:09Z</time>
      </trkpt>
      <trkpt lat="46.053031235933304" lon="9.004455031827092">
        <ele>811.65999999999997</ele>
        <time>2022-05-01T13:51:11Z</time>
      </trkpt>
      <trkpt lat="46.053029811009765" lon="9.004387306049466">
        <ele>811.02999999999997</ele>
        <time>2022-05-01T13:51:15Z</time>
      </trkpt>
      <trkpt lat="46.053060069680214" lon="9.004177423194051">
        <ele>809.71000000000004</ele>
        <time>2022-05-01T13:51:27Z</time>
      </trkpt>
      <trkpt lat="46.053060404956341" lon="9.004100142046809">
        <ele>809.49000000000001</ele>
        <time>2022-05-01T13:51:30Z</time>
      </trkpt>
      <trkpt lat="46.053058980032802" lon="9.004077427089214">
        <ele>809.50999999999999</ele>
        <time>2022-05-01T13:51:31Z</time>
      </trkpt>
      <trkpt lat="46.053055878728628" lon="9.004058400169015">
        <ele>809.59000000000003</ele>
        <time>2022-05-01T13:51:32Z</time>
      </trkpt>
      <trkpt lat="46.053052693605423" lon="9.00403618812561">
        <ele>809.61000000000001</ele>
        <time>2022-05-01T13:51:33Z</time>
      </trkpt>
      <trkpt lat="46.05304766446352" lon="9.004017412662506">
        <ele>809.49000000000001</ele>
        <time>2022-05-01T13:51:34Z</time>
      </trkpt>
      <trkpt lat="46.053003994747996" lon="9.003919009119272">
        <ele>809.38999999999999</ele>
        <time>2022-05-01T13:51:44Z</time>
      </trkpt>
      <trkpt lat="46.052997205406427" lon="9.003885062411428">
        <ele>808.57000000000005</ele>
        <time>2022-05-01T13:51:57Z</time>
      </trkpt>
      <trkpt lat="46.052993601188064" lon="9.003861425444484">
        <ele>809.19000000000005</ele>
        <time>2022-05-01T13:52:16Z</time>
      </trkpt>
      <trkpt lat="46.052987147122622" lon="9.003838375210762">
        <ele>809.09000000000003</ele>
        <time>2022-05-01T13:52:31Z</time>
      </trkpt>
      <trkpt lat="46.052981028333306" lon="9.003838961943984">
        <ele>809.08000000000004</ele>
        <time>2022-05-01T13:52:48Z</time>
      </trkpt>
      <trkpt lat="46.052969377487898" lon="9.003813061863184">
        <ele>809.37</ele>
        <time>2022-05-01T13:53:04Z</time>
      </trkpt>
      <trkpt lat="46.052969126030803" lon="9.003780875355005">
        <ele>808.88</ele>
        <time>2022-05-01T13:53:22Z</time>
      </trkpt>
      <trkpt lat="46.052972059696913" lon="9.003766542300582">
        <ele>808.73000000000002</ele>
        <time>2022-05-01T13:53:39Z</time>
      </trkpt>
      <trkpt lat="46.052961917594075" lon="9.003770900890231">
        <ele>808.92999999999995</ele>
        <time>2022-05-01T13:54:00Z</time>
      </trkpt>
      <trkpt lat="46.052980441600084" lon="9.00376595556736">
        <ele>808.75999999999999</ele>
        <time>2022-05-01T13:54:16Z</time>
      </trkpt>
      <trkpt lat="46.052991338074207" lon="9.003756316378713">
        <ele>808.83000000000004</ele>
        <time>2022-05-01T13:54:27Z</time>
      </trkpt>
      <trkpt lat="46.05297826230526" lon="9.003770146518946">
        <ele>809.02999999999997</ele>
        <time>2022-05-01T13:54:46Z</time>
      </trkpt>
      <trkpt lat="46.052975999191403" lon="9.003806104883552">
        <ele>809.11000000000001</ele>
        <time>2022-05-01T13:55:04Z</time>
      </trkpt>
      <trkpt lat="46.052991840988398" lon="9.003799902275205">
        <ele>809.21000000000004</ele>
        <time>2022-05-01T13:55:24Z</time>
      </trkpt>
      <trkpt lat="46.052987398579717" lon="9.003788502886891">
        <ele>809.13999999999999</ele>
        <time>2022-05-01T13:55:43Z</time>
      </trkpt>
      <trkpt lat="46.052990164607763" lon="9.003792190924287">
        <ele>809.52999999999997</ele>
        <time>2022-05-01T13:56:04Z</time>
      </trkpt>
      <trkpt lat="46.052991421893239" lon="9.00379478931427">
        <ele>808.80999999999995</ele>
        <time>2022-05-01T13:56:08Z</time>
      </trkpt>
      <trkpt lat="46.05298513546586" lon="9.003825215622783">
        <ele>809.20000000000005</ele>
        <time>2022-05-01T13:56:27Z</time>
      </trkpt>
      <trkpt lat="46.052983291447163" lon="9.003825299441814">
        <ele>808.94000000000005</ele>
        <time>2022-05-01T13:56:33Z</time>
      </trkpt>
      <trkpt lat="46.052950182929635" lon="9.003783306106925">
        <ele>809.25</ele>
        <time>2022-05-01T13:56:55Z</time>
      </trkpt>
      <trkpt lat="46.052974238991737" lon="9.003799818456173">
        <ele>809.04999999999995</ele>
        <time>2022-05-01T13:57:16Z</time>
      </trkpt>
      <trkpt lat="46.052987817674875" lon="9.003803925588727">
        <ele>808.17999999999995</ele>
        <time>2022-05-01T13:57:38Z</time>
      </trkpt>
      <trkpt lat="46.053004832938313" lon="9.003803422674537">
        <ele>808.60000000000002</ele>
        <time>2022-05-01T13:57:57Z</time>
      </trkpt>
      <trkpt lat="46.053003324195743" lon="9.003812056034803">
        <ele>808.87</ele>
        <time>2022-05-01T13:58:08Z</time>
      </trkpt>
      <trkpt lat="46.053002653643489" lon="9.003825969994068">
        <ele>809.07000000000005</ele>
        <time>2022-05-01T13:58:24Z</time>
      </trkpt>
      <trkpt lat="46.053003827109933" lon="9.003806775435805">
        <ele>809.25</ele>
        <time>2022-05-01T13:58:40Z</time>
      </trkpt>
      <trkpt lat="46.053000222891569" lon="9.003803171217442">
        <ele>809.82000000000005</ele>
        <time>2022-05-01T13:58:55Z</time>
      </trkpt>
      <trkpt lat="46.052996870130301" lon="9.003807529807091">
        <ele>809.63</ele>
        <time>2022-05-01T13:59:15Z</time>
      </trkpt>
      <trkpt lat="46.052996534854174" lon="9.003816582262516">
        <ele>809.50999999999999</ele>
        <time>2022-05-01T13:59:49Z</time>
      </trkpt>
      <trkpt lat="46.05299343355" lon="9.003817420452833">
        <ele>809.88999999999999</ele>
        <time>2022-05-01T14:00:06Z</time>
      </trkpt>
      <trkpt lat="46.053019501268864" lon="9.003848014399409">
        <ele>809.71000000000004</ele>
        <time>2022-05-01T14:00:20Z</time>
      </trkpt>
      <trkpt lat="46.053016232326627" lon="9.003841644152999">
        <ele>809.96000000000004</ele>
        <time>2022-05-01T14:00:39Z</time>
      </trkpt>
      <trkpt lat="46.052994774654508" lon="9.003844494000077">
        <ele>810.41999999999996</ele>
        <time>2022-05-01T14:00:58Z</time>
      </trkpt>
      <trkpt lat="46.052940627560019" lon="9.003778863698244">
        <ele>810.63</ele>
        <time>2022-05-01T14:01:14Z</time>
      </trkpt>
      <trkpt lat="46.05288153514266" lon="9.003722788766027">
        <ele>810.76999999999998</ele>
        <time>2022-05-01T14:01:26Z</time>
      </trkpt>
      <trkpt lat="46.052847588434815" lon="9.003683645278215">
        <ele>810.70000000000005</ele>
        <time>2022-05-01T14:01:37Z</time>
      </trkpt>
      <trkpt lat="46.052862340584397" lon="9.003649614751339">
        <ele>810.79999999999995</ele>
        <time>2022-05-01T14:01:47Z</time>
      </trkpt>
      <trkpt lat="46.0528673697263" lon="9.003649614751339">
        <ele>809.51999999999998</ele>
        <time>2022-05-01T14:02:06Z</time>
      </trkpt>
      <trkpt lat="46.052862675860524" lon="9.003672916442156">
        <ele>809.84000000000003</ele>
        <time>2022-05-01T14:02:42Z</time>
      </trkpt>
      <trkpt lat="46.052861753851175" lon="9.003678783774376">
        <ele>810.10000000000002</ele>
        <time>2022-05-01T14:03:23Z</time>
      </trkpt>
      <trkpt lat="46.052856640890241" lon="9.003687836229801">
        <ele>811.02999999999997</ele>
        <time>2022-05-01T14:03:42Z</time>
      </trkpt>
      <trkpt lat="46.052831914275885" lon="9.003665121272206">
        <ele>810.94000000000005</ele>
        <time>2022-05-01T14:03:53Z</time>
      </trkpt>
      <trkpt lat="46.052815485745668" lon="9.003656655550003">
        <ele>811.21000000000004</ele>
        <time>2022-05-01T14:04:06Z</time>
      </trkpt>
      <trkpt lat="46.052793944254518" lon="9.003631006926298">
        <ele>811.08000000000004</ele>
        <time>2022-05-01T14:04:09Z</time>
      </trkpt>
      <trkpt lat="46.052786568179727" lon="9.003617009148002">
        <ele>811.11000000000001</ele>
        <time>2022-05-01T14:04:10Z</time>
      </trkpt>
      <trkpt lat="46.05276620015502" lon="9.003580128774047">
        <ele>810.88</ele>
        <time>2022-05-01T14:04:13Z</time>
      </trkpt>
      <trkpt lat="46.052760751917958" lon="9.003566801548004">
        <ele>810.80999999999995</ele>
        <time>2022-05-01T14:04:14Z</time>
      </trkpt>
      <trkpt lat="46.052746502682567" lon="9.003553139045835">
        <ele>810.87</ele>
        <time>2022-05-01T14:04:16Z</time>
      </trkpt>
      <trkpt lat="46.052595712244511" lon="9.003428919240832">
        <ele>809.14999999999998</ele>
        <time>2022-05-01T14:04:31Z</time>
      </trkpt>
      <trkpt lat="46.052421955391765" lon="9.003293719142675">
        <ele>806.23000000000002</ele>
        <time>2022-05-01T14:04:47Z</time>
      </trkpt>
      <trkpt lat="46.052251551300287" lon="9.003233788534999">
        <ele>804.13</ele>
        <time>2022-05-01T14:05:01Z</time>
      </trkpt>
      <trkpt lat="46.052214922383428" lon="9.00318643078208">
        <ele>803.15999999999997</ele>
        <time>2022-05-01T14:05:04Z</time>
      </trkpt>
      <trkpt lat="46.052218023687601" lon="9.00315466336906">
        <ele>802.65999999999997</ele>
        <time>2022-05-01T14:05:05Z</time>
      </trkpt>
      <trkpt lat="46.052231267094612" lon="9.003122141584754">
        <ele>801.98000000000002</ele>
        <time>2022-05-01T14:05:06Z</time>
      </trkpt>
      <trkpt lat="46.052248030900955" lon="9.003103030845523">
        <ele>800.82000000000005</ele>
        <time>2022-05-01T14:05:07Z</time>
      </trkpt>
      <trkpt lat="46.052264962345362" lon="9.003097917884588">
        <ele>800.14999999999998</ele>
        <time>2022-05-01T14:05:08Z</time>
      </trkpt>
      <trkpt lat="46.052280720323324" lon="9.003099510446191">
        <ele>799.76999999999998</ele>
        <time>2022-05-01T14:05:09Z</time>
      </trkpt>
      <trkpt lat="46.052293041720986" lon="9.00309800170362">
        <ele>799.55999999999995</ele>
        <time>2022-05-01T14:05:10Z</time>
      </trkpt>
      <trkpt lat="46.052304860204458" lon="9.003094648942351">
        <ele>799.54999999999995</ele>
        <time>2022-05-01T14:05:11Z</time>
      </trkpt>
      <trkpt lat="46.052317684516311" lon="9.003091128543019">
        <ele>799.37</ele>
        <time>2022-05-01T14:05:12Z</time>
      </trkpt>
      <trkpt lat="46.052414998412132" lon="9.003001525998116">
        <ele>797.86000000000001</ele>
        <time>2022-05-01T14:05:22Z</time>
      </trkpt>
      <trkpt lat="46.052547181025147" lon="9.002860626205802">
        <ele>796.15999999999997</ele>
        <time>2022-05-01T14:05:35Z</time>
      </trkpt>
      <trkpt lat="46.052650194615126" lon="9.002744788303971">
        <ele>794.38999999999999</ele>
        <time>2022-05-01T14:05:47Z</time>
      </trkpt>
      <trkpt lat="46.052774079144001" lon="9.002632722258568">
        <ele>792.66999999999996</ele>
        <time>2022-05-01T14:05:58Z</time>
      </trkpt>
      <trkpt lat="46.052911458536983" lon="9.002498527988792">
        <ele>790.16999999999996</ele>
        <time>2022-05-01T14:06:11Z</time>
      </trkpt>
      <trkpt lat="46.052944650873542" lon="9.002473969012499">
        <ele>789.60000000000002</ele>
        <time>2022-05-01T14:06:14Z</time>
      </trkpt>
      <trkpt lat="46.052954038605094" lon="9.002463407814503">
        <ele>789.47000000000003</ele>
        <time>2022-05-01T14:06:15Z</time>
      </trkpt>
      <trkpt lat="46.053134920075536" lon="9.002369279041886">
        <ele>786.77999999999997</ele>
        <time>2022-05-01T14:06:31Z</time>
      </trkpt>
      <trkpt lat="46.053223935887218" lon="9.002320747822523">
        <ele>785.29999999999995</ele>
        <time>2022-05-01T14:06:39Z</time>
      </trkpt>
      <trkpt lat="46.053234916180372" lon="9.002312617376447">
        <ele>785.20000000000005</ele>
        <time>2022-05-01T14:06:40Z</time>
      </trkpt>
      <trkpt lat="46.053246231749654" lon="9.002306750044227">
        <ele>785.04999999999995</ele>
        <time>2022-05-01T14:06:41Z</time>
      </trkpt>
      <trkpt lat="46.053368523716927" lon="9.002207843586803">
        <ele>782.63</ele>
        <time>2022-05-01T14:06:53Z</time>
      </trkpt>
      <trkpt lat="46.053504562005401" lon="9.002115223556757">
        <ele>780.38999999999999</ele>
        <time>2022-05-01T14:07:07Z</time>
      </trkpt>
      <trkpt lat="46.053527863696218" lon="9.00211094878614">
        <ele>780.15999999999997</ele>
        <time>2022-05-01T14:07:09Z</time>
      </trkpt>
      <trkpt lat="46.053599528968334" lon="9.002111703157425">
        <ele>779.15999999999997</ele>
        <time>2022-05-01T14:07:16Z</time>
      </trkpt>
      <trkpt lat="46.053611598908901" lon="9.002109607681632">
        <ele>778.89999999999998</ele>
        <time>2022-05-01T14:07:17Z</time>
      </trkpt>
      <trkpt lat="46.053623585030437" lon="9.002107596024871">
        <ele>778.64999999999998</ele>
        <time>2022-05-01T14:07:18Z</time>
      </trkpt>
      <trkpt lat="46.053668512031436" lon="9.001996703445911">
        <ele>777.26999999999998</ele>
        <time>2022-05-01T14:07:29Z</time>
      </trkpt>
      <trkpt lat="46.053721904754639" lon="9.001930486410856">
        <ele>774.65999999999997</ele>
        <time>2022-05-01T14:07:43Z</time>
      </trkpt>
      <trkpt lat="46.053768508136272" lon="9.001823868602514">
        <ele>771.75</ele>
        <time>2022-05-01T14:07:53Z</time>
      </trkpt>
      <trkpt lat="46.053818380460143" lon="9.001725297421217">
        <ele>769.29999999999995</ele>
        <time>2022-05-01T14:08:05Z</time>
      </trkpt>
      <trkpt lat="46.053875964134932" lon="9.001667127013207">
        <ele>766.11000000000001</ele>
        <time>2022-05-01T14:08:14Z</time>
      </trkpt>
      <trkpt lat="46.053900606930256" lon="9.001560257747769">
        <ele>763.03999999999996</ele>
        <time>2022-05-01T14:08:23Z</time>
      </trkpt>
      <trkpt lat="46.05390714481473" lon="9.00142690166831">
        <ele>759.78999999999996</ele>
        <time>2022-05-01T14:08:35Z</time>
      </trkpt>
      <trkpt lat="46.053880741819739" lon="9.001265298575163">
        <ele>756.63999999999999</ele>
        <time>2022-05-01T14:08:48Z</time>
      </trkpt>
      <trkpt lat="46.053881999105215" lon="9.001140408217907">
        <ele>753.71000000000004</ele>
        <time>2022-05-01T14:08:59Z</time>
      </trkpt>
      <trkpt lat="46.053877472877502" lon="9.001011997461319">
        <ele>750.34000000000003</ele>
        <time>2022-05-01T14:09:11Z</time>
      </trkpt>
      <trkpt lat="46.053881412371993" lon="9.000987354665995">
        <ele>749.60000000000002</ele>
        <time>2022-05-01T14:09:13Z</time>
      </trkpt>
      <trkpt lat="46.053828941658139" lon="9.000850981101394">
        <ele>746.41999999999996</ele>
        <time>2022-05-01T14:09:24Z</time>
      </trkpt>
      <trkpt lat="46.053856266662478" lon="9.000745620578528">
        <ele>742.86000000000001</ele>
        <time>2022-05-01T14:09:34Z</time>
      </trkpt>
      <trkpt lat="46.053862636908889" lon="9.000734724104404">
        <ele>742.58000000000004</ele>
        <time>2022-05-01T14:09:35Z</time>
      </trkpt>
      <trkpt lat="46.05389054864645" lon="9.000709829851985">
        <ele>742.17999999999995</ele>
        <time>2022-05-01T14:09:49Z</time>
      </trkpt>
      <trkpt lat="46.053923992440104" lon="9.000593656674027">
        <ele>739.52999999999997</ele>
        <time>2022-05-01T14:10:00Z</time>
      </trkpt>
      <trkpt lat="46.053936649113894" lon="9.0005087479949">
        <ele>736.37</ele>
        <time>2022-05-01T14:10:08Z</time>
      </trkpt>
      <trkpt lat="46.053935391828418" lon="9.000493912026286">
        <ele>736.11000000000001</ele>
        <time>2022-05-01T14:10:09Z</time>
      </trkpt>
      <trkpt lat="46.053921561688185" lon="9.000369943678379">
        <ele>733.03999999999996</ele>
        <time>2022-05-01T14:10:19Z</time>
      </trkpt>
      <trkpt lat="46.053927261382341" lon="9.000232396647334">
        <ele>729.73000000000002</ele>
        <time>2022-05-01T14:10:30Z</time>
      </trkpt>
      <trkpt lat="46.053940923884511" lon="9.000090239569545">
        <ele>726.63999999999999</ele>
        <time>2022-05-01T14:10:41Z</time>
      </trkpt>
      <trkpt lat="46.053886692970991" lon="8.999985130503774">
        <ele>723.47000000000003</ele>
        <time>2022-05-01T14:10:54Z</time>
      </trkpt>
      <trkpt lat="46.053887279704213" lon="8.999852696433663">
        <ele>720.14999999999998</ele>
        <time>2022-05-01T14:11:04Z</time>
      </trkpt>
      <trkpt lat="46.053878059610724" lon="8.999713053926826">
        <ele>717.10000000000002</ele>
        <time>2022-05-01T14:11:13Z</time>
      </trkpt>
      <trkpt lat="46.053852159529924" lon="8.999618673697114">
        <ele>715.40999999999997</ele>
        <time>2022-05-01T14:11:19Z</time>
      </trkpt>
      <trkpt lat="46.053816871717572" lon="8.999573411419988">
        <ele>714.25999999999999</ele>
        <time>2022-05-01T14:11:24Z</time>
      </trkpt>
      <trkpt lat="46.053815865889192" lon="8.99955639615655">
        <ele>714.05999999999995</ele>
        <time>2022-05-01T14:11:25Z</time>
      </trkpt>
      <trkpt lat="46.053844280540943" lon="8.999460507184267">
        <ele>711.46000000000004</ele>
        <time>2022-05-01T14:11:34Z</time>
      </trkpt>
      <trkpt lat="46.053848303854465" lon="8.999333269894123">
        <ele>708.83000000000004</ele>
        <time>2022-05-01T14:11:45Z</time>
      </trkpt>
      <trkpt lat="46.053790552541614" lon="8.999228999018669">
        <ele>705.75</ele>
        <time>2022-05-01T14:11:54Z</time>
      </trkpt>
      <trkpt lat="46.053715031594038" lon="8.999144425615668">
        <ele>703.03999999999996</ele>
        <time>2022-05-01T14:12:05Z</time>
      </trkpt>
      <trkpt lat="46.053663063794374" lon="8.999036131426692">
        <ele>699.82000000000005</ele>
        <time>2022-05-01T14:12:16Z</time>
      </trkpt>
      <trkpt lat="46.053589889779687" lon="8.998913504183292">
        <ele>696.66999999999996</ele>
        <time>2022-05-01T14:12:27Z</time>
      </trkpt>
      <trkpt lat="46.053578406572342" lon="8.998904703184962">
        <ele>696.46000000000004</ele>
        <time>2022-05-01T14:12:28Z</time>
      </trkpt>
      <trkpt lat="46.053564744070172" lon="8.998895483091474">
        <ele>696.44000000000005</ele>
        <time>2022-05-01T14:12:29Z</time>
      </trkpt>
      <trkpt lat="46.053466759622097" lon="8.998804287984967">
        <ele>693.97000000000003</ele>
        <time>2022-05-01T14:12:40Z</time>
      </trkpt>
      <trkpt lat="46.053440105170012" lon="8.998681996017695">
        <ele>691.69000000000005</ele>
        <time>2022-05-01T14:12:48Z</time>
      </trkpt>
      <trkpt lat="46.053390232846141" lon="8.998504802584648">
        <ele>688.5</ele>
        <time>2022-05-01T14:13:00Z</time>
      </trkpt>
      <trkpt lat="46.053311862051487" lon="8.998394580557942">
        <ele>686.12</ele>
        <time>2022-05-01T14:13:11Z</time>
      </trkpt>
      <trkpt lat="46.053258134052157" lon="8.99835049174726">
        <ele>685.11000000000001</ele>
        <time>2022-05-01T14:13:16Z</time>
      </trkpt>
      <trkpt lat="46.053173560649157" lon="8.998299697414041">
        <ele>683.28999999999996</ele>
        <time>2022-05-01T14:13:26Z</time>
      </trkpt>
      <trkpt lat="46.053137015551329" lon="8.998138597235084">
        <ele>680.22000000000003</ele>
        <time>2022-05-01T14:13:37Z</time>
      </trkpt>
      <trkpt lat="46.053117485716939" lon="8.998088305816054">
        <ele>679.53999999999996</ele>
        <time>2022-05-01T14:13:40Z</time>
      </trkpt>
      <trkpt lat="46.053132740780711" lon="8.997981939464808">
        <ele>676.39999999999998</ele>
        <time>2022-05-01T14:13:50Z</time>
      </trkpt>
      <trkpt lat="46.053139111027122" lon="8.997968109324575">
        <ele>676.26999999999998</ele>
        <time>2022-05-01T14:13:51Z</time>
      </trkpt>
      <trkpt lat="46.053158389404416" lon="8.997854869812727">
        <ele>673.79999999999995</ele>
        <time>2022-05-01T14:14:00Z</time>
      </trkpt>
      <trkpt lat="46.053161155432463" lon="8.997781109064817">
        <ele>671.20000000000005</ele>
        <time>2022-05-01T14:14:12Z</time>
      </trkpt>
      <trkpt lat="46.053205914795399" lon="8.997719921171665">
        <ele>669.00999999999999</ele>
        <time>2022-05-01T14:14:18Z</time>
      </trkpt>
      <trkpt lat="46.053229216486216" lon="8.99767373688519">
        <ele>668.63</ele>
        <time>2022-05-01T14:14:31Z</time>
      </trkpt>
      <trkpt lat="46.053219409659505" lon="8.997661415487528">
        <ele>668.65999999999997</ele>
        <time>2022-05-01T14:14:52Z</time>
      </trkpt>
      <trkpt lat="46.053201472386718" lon="8.997643729671836">
        <ele>668.71000000000004</ele>
        <time>2022-05-01T14:15:15Z</time>
      </trkpt>
      <trkpt lat="46.053211279213428" lon="8.997619841247797">
        <ele>668.71000000000004</ele>
        <time>2022-05-01T14:15:41Z</time>
      </trkpt>
      <trkpt lat="46.053237430751324" lon="8.997612129896879">
        <ele>668.49000000000001</ele>
        <time>2022-05-01T14:16:00Z</time>
      </trkpt>
      <trkpt lat="46.053233658894897" lon="8.997615650296211">
        <ele>668.53999999999996</ele>
        <time>2022-05-01T14:16:23Z</time>
      </trkpt>
      <trkpt lat="46.053242711350322" lon="8.997636018320918">
        <ele>668.46000000000004</ele>
        <time>2022-05-01T14:16:47Z</time>
      </trkpt>
      <trkpt lat="46.053241956979036" lon="8.997625792399049">
        <ele>668.39999999999998</ele>
        <time>2022-05-01T14:17:00Z</time>
      </trkpt>
      <trkpt lat="46.053243381902575" lon="8.997640796005726">
        <ele>668.40999999999997</ele>
        <time>2022-05-01T14:17:16Z</time>
      </trkpt>
      <trkpt lat="46.053238436579704" lon="8.997648842632771">
        <ele>668.40999999999997</ele>
        <time>2022-05-01T14:17:38Z</time>
      </trkpt>
      <trkpt lat="46.053256541490555" lon="8.997602155432105">
        <ele>666.98000000000002</ele>
        <time>2022-05-01T14:17:55Z</time>
      </trkpt>
      <trkpt lat="46.053307084366679" lon="8.997537111863494">
        <ele>663.91999999999996</ele>
        <time>2022-05-01T14:18:07Z</time>
      </trkpt>
      <trkpt lat="46.053313370794058" lon="8.997523868456483">
        <ele>663.69000000000005</ele>
        <time>2022-05-01T14:18:08Z</time>
      </trkpt>
      <trkpt lat="46.053358130156994" lon="8.997431835159659">
        <ele>661.61000000000001</ele>
        <time>2022-05-01T14:18:18Z</time>
      </trkpt>
      <trkpt lat="46.053350418806076" lon="8.997303508222103">
        <ele>659.11000000000001</ele>
        <time>2022-05-01T14:18:29Z</time>
      </trkpt>
      <trkpt lat="46.053347149863839" lon="8.997194124385715">
        <ele>656.85000000000002</ele>
        <time>2022-05-01T14:18:41Z</time>
      </trkpt>
      <trkpt lat="46.053333906456828" lon="8.99704341776669">
        <ele>653.35000000000002</ele>
        <time>2022-05-01T14:18:53Z</time>
      </trkpt>
      <trkpt lat="46.053326111286879" lon="8.996898243203759">
        <ele>650.86000000000001</ele>
        <time>2022-05-01T14:19:04Z</time>
      </trkpt>
      <trkpt lat="46.053319070488214" lon="8.996738735586405">
        <ele>649.13999999999999</ele>
        <time>2022-05-01T14:19:14Z</time>
      </trkpt>
      <trkpt lat="46.053310185670853" lon="8.996621388942003">
        <ele>648.27999999999997</ele>
        <time>2022-05-01T14:19:21Z</time>
      </trkpt>
      <trkpt lat="46.053305491805077" lon="8.996606050059199">
        <ele>648.33000000000004</ele>
        <time>2022-05-01T14:19:22Z</time>
      </trkpt>
      <trkpt lat="46.053295601159334" lon="8.99658216163516">
        <ele>648.25</ele>
        <time>2022-05-01T14:19:24Z</time>
      </trkpt>
      <trkpt lat="46.053289650008082" lon="8.996571432799101">
        <ele>648.04999999999995</ele>
        <time>2022-05-01T14:19:25Z</time>
      </trkpt>
      <trkpt lat="46.053218990564346" lon="8.996436232700944">
        <ele>646.30999999999995</ele>
        <time>2022-05-01T14:19:39Z</time>
      </trkpt>
      <trkpt lat="46.053139194846153" lon="8.996309079229832">
        <ele>644.5</ele>
        <time>2022-05-01T14:19:51Z</time>
      </trkpt>
      <trkpt lat="46.053055375814438" lon="8.996192319318652">
        <ele>642.98000000000002</ele>
        <time>2022-05-01T14:20:03Z</time>
      </trkpt>
      <trkpt lat="46.052950769662857" lon="8.996108584105969">
        <ele>641.86000000000001</ele>
        <time>2022-05-01T14:20:16Z</time>
      </trkpt>
      <trkpt lat="46.052910704165697" lon="8.99610623717308">
        <ele>641.65999999999997</ele>
        <time>2022-05-01T14:20:20Z</time>
      </trkpt>
      <trkpt lat="46.052802577614784" lon="8.996155271306634">
        <ele>640.54999999999995</ele>
        <time>2022-05-01T14:20:33Z</time>
      </trkpt>
      <trkpt lat="46.052780700847507" lon="8.996093580499291">
        <ele>639.83000000000004</ele>
        <time>2022-05-01T14:20:38Z</time>
      </trkpt>
      <trkpt lat="46.052851192653179" lon="8.995918733999133">
        <ele>638.36000000000001</ele>
        <time>2022-05-01T14:20:51Z</time>
      </trkpt>
      <trkpt lat="46.05298220179975" lon="8.99572167545557">
        <ele>635.98000000000002</ele>
        <time>2022-05-01T14:21:08Z</time>
      </trkpt>
      <trkpt lat="46.053109187632799" lon="8.99558924138546">
        <ele>633.74000000000001</ele>
        <time>2022-05-01T14:21:22Z</time>
      </trkpt>
      <trkpt lat="46.053233575075865" lon="8.995531741529703">
        <ele>632.19000000000005</ele>
        <time>2022-05-01T14:21:34Z</time>
      </trkpt>
      <trkpt lat="46.053329212591052" lon="8.995475582778454">
        <ele>631.03999999999996</ele>
        <time>2022-05-01T14:21:45Z</time>
      </trkpt>
      <trkpt lat="46.053386460989714" lon="8.995348596945405">
        <ele>628.08000000000004</ele>
        <time>2022-05-01T14:21:57Z</time>
      </trkpt>
      <trkpt lat="46.053393920883536" lon="8.995338706299663">
        <ele>627.76999999999998</ele>
        <time>2022-05-01T14:21:58Z</time>
      </trkpt>
      <trkpt lat="46.053501879796386" lon="8.995210882276297">
        <ele>624.54999999999995</ele>
        <time>2022-05-01T14:22:13Z</time>
      </trkpt>
      <trkpt lat="46.053589722141623" lon="8.995186407119036">
        <ele>622.39999999999998</ele>
        <time>2022-05-01T14:22:25Z</time>
      </trkpt>
      <trkpt lat="46.05363205075264" lon="8.995127566158772">
        <ele>620.14999999999998</ele>
        <time>2022-05-01T14:22:32Z</time>
      </trkpt>
      <trkpt lat="46.053660968318582" lon="8.994903853163123">
        <ele>618.29999999999995</ele>
        <time>2022-05-01T14:22:47Z</time>
      </trkpt>
      <trkpt lat="46.053634732961655" lon="8.994731018319726">
        <ele>616.05999999999995</ele>
        <time>2022-05-01T14:22:59Z</time>
      </trkpt>
      <trkpt lat="46.053633308038116" lon="8.994714254513383">
        <ele>615.89999999999998</ele>
        <time>2022-05-01T14:23:00Z</time>
      </trkpt>
      <trkpt lat="46.053631380200386" lon="8.994698915630579">
        <ele>615.80999999999995</ele>
        <time>2022-05-01T14:23:01Z</time>
      </trkpt>
      <trkpt lat="46.05362911708653" lon="8.994683744385839">
        <ele>615.84000000000003</ele>
        <time>2022-05-01T14:23:02Z</time>
      </trkpt>
      <trkpt lat="46.053627775982022" lon="8.994667986407876">
        <ele>615.60000000000002</ele>
        <time>2022-05-01T14:23:03Z</time>
      </trkpt>
      <trkpt lat="46.053674379363656" lon="8.994448380544782">
        <ele>613.5</ele>
        <time>2022-05-01T14:23:18Z</time>
      </trkpt>
      <trkpt lat="46.053685359656811" lon="8.994449973106384">
        <ele>613.24000000000001</ele>
        <time>2022-05-01T14:23:19Z</time>
      </trkpt>
      <trkpt lat="46.053695334121585" lon="8.994459444656968">
        <ele>613.09000000000003</ele>
        <time>2022-05-01T14:23:20Z</time>
      </trkpt>
      <trkpt lat="46.053844448179007" lon="8.994595566764474">
        <ele>613.03999999999996</ele>
        <time>2022-05-01T14:23:35Z</time>
      </trkpt>
      <trkpt lat="46.053958274424076" lon="8.994511412456632">
        <ele>613.29999999999995</ele>
        <time>2022-05-01T14:23:47Z</time>
      </trkpt>
      <trkpt lat="46.053963471204042" lon="8.994496325030923">
        <ele>613.21000000000004</ele>
        <time>2022-05-01T14:23:48Z</time>
      </trkpt>
      <trkpt lat="46.054012170061469" lon="8.99422106333077">
        <ele>611.36000000000001</ele>
        <time>2022-05-01T14:24:05Z</time>
      </trkpt>
      <trkpt lat="46.054139826446772" lon="8.994092149659991">
        <ele>610.57000000000005</ele>
        <time>2022-05-01T14:24:19Z</time>
      </trkpt>
      <trkpt lat="46.054262621328235" lon="8.994020484387875">
        <ele>609.84000000000003</ele>
        <time>2022-05-01T14:24:33Z</time>
      </trkpt>
      <trkpt lat="46.054283743724227" lon="8.994006402790546">
        <ele>609.65999999999997</ele>
        <time>2022-05-01T14:24:46Z</time>
      </trkpt>
      <trkpt lat="46.054290113970637" lon="8.99400070309639">
        <ele>609.29999999999995</ele>
        <time>2022-05-01T14:25:07Z</time>
      </trkpt>
      <trkpt lat="46.054350631311536" lon="8.993919147178531">
        <ele>608.26999999999998</ele>
        <time>2022-05-01T14:25:19Z</time>
      </trkpt>
      <trkpt lat="46.054354067891836" lon="8.993927948176861">
        <ele>608.12</ele>
        <time>2022-05-01T14:25:32Z</time>
      </trkpt>
      <trkpt lat="46.054349709302187" lon="8.99391470476985">
        <ele>609.05999999999995</ele>
        <time>2022-05-01T14:25:46Z</time>
      </trkpt>
    </trkseg>
  </trk>

</gpx>